<?xml version="1.0" encoding="UTF-8" standalone="no" ?>
<gpx xmlns="http://www.topografix.com/GPX/1/1" xmlns:xsi="http://www.w3.org/2001/XMLSchema-instance" xsi:schemaLocation="http://www.topografix.com/GPX/1/1 http://www.topografix.com/GPX/1/1/gpx.xsd" version="1.1" creator="VisuGPX - https://www.visugpx.com">
  <metadata>
    <name>repérage du raid interne des GR</name>
    <desc><![CDATA[en VTT   trail]]></desc>
  </metadata>
  <trk>
    <name><![CDATA[2012-04-11T11:28:48Z]]></name>
    <trkseg>
      <trkpt lat="46.1933" lon="4.41931">
        <ele>581</ele>
        <time>2012-04-11T11:28:48Z</time>
      </trkpt>
      <trkpt lat="46.1979" lon="4.41899">
        <ele>620</ele>
        <time>2012-04-11T11:36:14Z</time>
      </trkpt>
      <trkpt lat="46.1979" lon="4.41898">
        <ele>620</ele>
        <time>2012-04-11T11:36:15Z</time>
      </trkpt>
    </trkseg>
    </trkseg>
      <trkpt lat="46.19856" lon="4.42053">
        <ele>617</ele>
        <time>2012-04-11T11:40:05Z</time>
      </trkpt>
      <trkpt lat="46.19856" lon="4.42056">
        <ele>617</ele>
        <time>2012-04-11T11:40:08Z</time>
      </trkpt>
      <trkpt lat="46.19865" lon="4.42061">
        <ele>617</ele>
        <time>2012-04-11T11:40:20Z</time>
      </trkpt>
      <trkpt lat="46.19871" lon="4.42068">
        <ele>616</ele>
        <time>2012-04-11T11:40:22Z</time>
      </trkpt>
      <trkpt lat="46.19877" lon="4.42078">
        <ele>615</ele>
        <time>2012-04-11T11:40:24Z</time>
      </trkpt>
      <trkpt lat="46.19882" lon="4.42083">
        <ele>615</ele>
        <time>2012-04-11T11:40:25Z</time>
      </trkpt>
      <trkpt lat="46.19889" lon="4.42106">
        <ele>614</ele>
        <time>2012-04-11T11:40:28Z</time>
      </trkpt>
      <trkpt lat="46.19891" lon="4.42113">
        <ele>614</ele>
        <time>2012-04-11T11:40:29Z</time>
      </trkpt>
      <trkpt lat="46.19895" lon="4.42128">
        <ele>614</ele>
        <time>2012-04-11T11:40:31Z</time>
      </trkpt>
      <trkpt lat="46.19899" lon="4.42135">
        <ele>613</ele>
        <time>2012-04-11T11:40:32Z</time>
      </trkpt>
      <trkpt lat="46.19902" lon="4.42142">
        <ele>613</ele>
        <time>2012-04-11T11:40:33Z</time>
      </trkpt>
      <trkpt lat="46.19905" lon="4.42151">
        <ele>611</ele>
        <time>2012-04-11T11:40:34Z</time>
      </trkpt>
      <trkpt lat="46.19909" lon="4.4218">
        <ele>614</ele>
        <time>2012-04-11T11:40:37Z</time>
      </trkpt>
      <trkpt lat="46.19911" lon="4.42189">
        <ele>616</ele>
        <time>2012-04-11T11:40:38Z</time>
      </trkpt>
      <trkpt lat="46.19916" lon="4.42211">
        <ele>621</ele>
        <time>2012-04-11T11:40:41Z</time>
      </trkpt>
      <trkpt lat="46.19921" lon="4.42212">
        <ele>605</ele>
        <time>2012-04-11T11:40:43Z</time>
      </trkpt>
      <trkpt lat="46.19923" lon="4.42211">
        <ele>605</ele>
        <time>2012-04-11T11:40:44Z</time>
      </trkpt>
      <trkpt lat="46.19922" lon="4.42203">
        <ele>604</ele>
        <time>2012-04-11T11:40:48Z</time>
      </trkpt>
      <trkpt lat="46.1992" lon="4.422">
        <ele>604</ele>
        <time>2012-04-11T11:40:49Z</time>
      </trkpt>
      <trkpt lat="46.19917" lon="4.42189">
        <ele>603</ele>
        <time>2012-04-11T11:40:52Z</time>
      </trkpt>
      <trkpt lat="46.19915" lon="4.42185">
        <ele>615</ele>
        <time>2012-04-11T11:40:53Z</time>
      </trkpt>
      <trkpt lat="46.19914" lon="4.42167">
        <ele>606</ele>
        <time>2012-04-11T11:40:57Z</time>
      </trkpt>
      <trkpt lat="46.19913" lon="4.42151">
        <ele>610</ele>
        <time>2012-04-11T11:41:00Z</time>
      </trkpt>
      <trkpt lat="46.19915" lon="4.42141">
        <ele>611</ele>
        <time>2012-04-11T11:41:02Z</time>
      </trkpt>
      <trkpt lat="46.19914" lon="4.42112">
        <ele>612</ele>
        <time>2012-04-11T11:41:07Z</time>
      </trkpt>
      <trkpt lat="46.19912" lon="4.42099">
        <ele>611</ele>
        <time>2012-04-11T11:41:09Z</time>
      </trkpt>
      <trkpt lat="46.19914" lon="4.42081">
        <ele>608</ele>
        <time>2012-04-11T11:41:12Z</time>
      </trkpt>
      <trkpt lat="46.19923" lon="4.42057">
        <ele>601</ele>
        <time>2012-04-11T11:41:16Z</time>
      </trkpt>
      <trkpt lat="46.19925" lon="4.42051">
        <ele>601</ele>
        <time>2012-04-11T11:41:17Z</time>
      </trkpt>
      <trkpt lat="46.19933" lon="4.42031">
        <ele>601</ele>
        <time>2012-04-11T11:41:21Z</time>
      </trkpt>
      <trkpt lat="46.19937" lon="4.42003">
        <ele>603</ele>
        <time>2012-04-11T11:41:26Z</time>
      </trkpt>
      <trkpt lat="46.19937" lon="4.41997">
        <ele>604</ele>
        <time>2012-04-11T11:41:27Z</time>
      </trkpt>
      <trkpt lat="46.19938" lon="4.41991">
        <ele>604</ele>
        <time>2012-04-11T11:41:28Z</time>
      </trkpt>
      <trkpt lat="46.19936" lon="4.41967">
        <ele>602</ele>
        <time>2012-04-11T11:41:32Z</time>
      </trkpt>
      <trkpt lat="46.19929" lon="4.41941">
        <ele>602</ele>
        <time>2012-04-11T11:41:36Z</time>
      </trkpt>
      <trkpt lat="46.19926" lon="4.41931">
        <ele>603</ele>
        <time>2012-04-11T11:41:38Z</time>
      </trkpt>
      <trkpt lat="46.19918" lon="4.4191">
        <ele>604</ele>
        <time>2012-04-11T11:41:43Z</time>
      </trkpt>
      <trkpt lat="46.19911" lon="4.41894">
        <ele>610</ele>
        <time>2012-04-11T11:41:47Z</time>
      </trkpt>
      <trkpt lat="46.19909" lon="4.41889">
        <ele>610</ele>
        <time>2012-04-11T11:41:48Z</time>
      </trkpt>
      <trkpt lat="46.19896" lon="4.41867">
        <ele>609</ele>
        <time>2012-04-11T11:41:54Z</time>
      </trkpt>
      <trkpt lat="46.19887" lon="4.41853">
        <ele>610</ele>
        <time>2012-04-11T11:41:59Z</time>
      </trkpt>
      <trkpt lat="46.19882" lon="4.41829">
        <ele>607</ele>
        <time>2012-04-11T11:42:05Z</time>
      </trkpt>
      <trkpt lat="46.19884" lon="4.4181">
        <ele>607</ele>
        <time>2012-04-11T11:42:10Z</time>
      </trkpt>
      <trkpt lat="46.19885" lon="4.41802">
        <ele>607</ele>
        <time>2012-04-11T11:42:12Z</time>
      </trkpt>
      <trkpt lat="46.19887" lon="4.4179">
        <ele>607</ele>
        <time>2012-04-11T11:42:15Z</time>
      </trkpt>
      <trkpt lat="46.1989" lon="4.4176">
        <ele>605</ele>
        <time>2012-04-11T11:42:22Z</time>
      </trkpt>
      <trkpt lat="46.1989" lon="4.41747">
        <ele>603</ele>
        <time>2012-04-11T11:42:25Z</time>
      </trkpt>
      <trkpt lat="46.19889" lon="4.41729">
        <ele>604</ele>
        <time>2012-04-11T11:42:29Z</time>
      </trkpt>
      <trkpt lat="46.19884" lon="4.41702">
        <ele>605</ele>
        <time>2012-04-11T11:42:35Z</time>
      </trkpt>
      <trkpt lat="46.19881" lon="4.41692">
        <ele>605</ele>
        <time>2012-04-11T11:42:37Z</time>
      </trkpt>
      <trkpt lat="46.19873" lon="4.41675">
        <ele>606</ele>
        <time>2012-04-11T11:42:41Z</time>
      </trkpt>
      <trkpt lat="46.19861" lon="4.41647">
        <ele>604</ele>
        <time>2012-04-11T11:42:48Z</time>
      </trkpt>
      <trkpt lat="46.19859" lon="4.41642">
        <ele>604</ele>
        <time>2012-04-11T11:42:52Z</time>
      </trkpt>
      <trkpt lat="46.19859" lon="4.41637">
        <ele>603</ele>
        <time>2012-04-11T11:42:58Z</time>
      </trkpt>
      <trkpt lat="46.19857" lon="4.41627">
        <ele>603</ele>
        <time>2012-04-11T11:43:26Z</time>
      </trkpt>
      <trkpt lat="46.19857" lon="4.41601">
        <ele>602</ele>
        <time>2012-04-11T11:43:31Z</time>
      </trkpt>
      <trkpt lat="46.19857" lon="4.41595">
        <ele>602</ele>
        <time>2012-04-11T11:43:32Z</time>
      </trkpt>
      <trkpt lat="46.19858" lon="4.41568">
        <ele>596</ele>
        <time>2012-04-11T11:43:36Z</time>
      </trkpt>
      <trkpt lat="46.19851" lon="4.41548">
        <ele>594</ele>
        <time>2012-04-11T11:43:40Z</time>
      </trkpt>
      <trkpt lat="46.19848" lon="4.41542">
        <ele>594</ele>
        <time>2012-04-11T11:43:41Z</time>
      </trkpt>
      <trkpt lat="46.19846" lon="4.41537">
        <ele>593</ele>
        <time>2012-04-11T11:43:42Z</time>
      </trkpt>
      <trkpt lat="46.19836" lon="4.41524">
        <ele>593</ele>
        <time>2012-04-11T11:43:45Z</time>
      </trkpt>
      <trkpt lat="46.19829" lon="4.41512">
        <ele>595</ele>
        <time>2012-04-11T11:43:49Z</time>
      </trkpt>
      <trkpt lat="46.19824" lon="4.41499">
        <ele>590</ele>
        <time>2012-04-11T11:43:52Z</time>
      </trkpt>
      <trkpt lat="46.19822" lon="4.41494">
        <ele>589</ele>
        <time>2012-04-11T11:43:53Z</time>
      </trkpt>
      <trkpt lat="46.19821" lon="4.41489">
        <ele>589</ele>
        <time>2012-04-11T11:43:54Z</time>
      </trkpt>
      <trkpt lat="46.19818" lon="4.41468">
        <ele>586</ele>
        <time>2012-04-11T11:43:57Z</time>
      </trkpt>
      <trkpt lat="46.19817" lon="4.41455">
        <ele>584</ele>
        <time>2012-04-11T11:43:59Z</time>
      </trkpt>
      <trkpt lat="46.19818" lon="4.41448">
        <ele>583</ele>
        <time>2012-04-11T11:44:00Z</time>
      </trkpt>
      <trkpt lat="46.19819" lon="4.41433">
        <ele>581</ele>
        <time>2012-04-11T11:44:02Z</time>
      </trkpt>
      <trkpt lat="46.19821" lon="4.41401">
        <ele>571</ele>
        <time>2012-04-11T11:44:06Z</time>
      </trkpt>
      <trkpt lat="46.19822" lon="4.41394">
        <ele>570</ele>
        <time>2012-04-11T11:44:07Z</time>
      </trkpt>
      <trkpt lat="46.19823" lon="4.41388">
        <ele>569</ele>
        <time>2012-04-11T11:44:08Z</time>
      </trkpt>
      <trkpt lat="46.19827" lon="4.41369">
        <ele>566</ele>
        <time>2012-04-11T11:44:11Z</time>
      </trkpt>
      <trkpt lat="46.1983" lon="4.41353">
        <ele>563</ele>
        <time>2012-04-11T11:44:13Z</time>
      </trkpt>
      <trkpt lat="46.19833" lon="4.41345">
        <ele>561</ele>
        <time>2012-04-11T11:44:14Z</time>
      </trkpt>
      <trkpt lat="46.19838" lon="4.41326">
        <ele>551</ele>
        <time>2012-04-11T11:44:16Z</time>
      </trkpt>
      <trkpt lat="46.1984" lon="4.41316">
        <ele>547</ele>
        <time>2012-04-11T11:44:17Z</time>
      </trkpt>
      <trkpt lat="46.19844" lon="4.41291">
        <ele>542</ele>
        <time>2012-04-11T11:44:20Z</time>
      </trkpt>
      <trkpt lat="46.19846" lon="4.41284">
        <ele>541</ele>
        <time>2012-04-11T11:44:21Z</time>
      </trkpt>
      <trkpt lat="46.19854" lon="4.41273">
        <ele>540</ele>
        <time>2012-04-11T11:44:24Z</time>
      </trkpt>
      <trkpt lat="46.19857" lon="4.41269">
        <ele>539</ele>
        <time>2012-04-11T11:44:25Z</time>
      </trkpt>
      <trkpt lat="46.19869" lon="4.41258">
        <ele>537</ele>
        <time>2012-04-11T11:44:28Z</time>
      </trkpt>
      <trkpt lat="46.19873" lon="4.41255">
        <ele>537</ele>
        <time>2012-04-11T11:44:29Z</time>
      </trkpt>
      <trkpt lat="46.19889" lon="4.41242">
        <ele>526</ele>
        <time>2012-04-11T11:44:33Z</time>
      </trkpt>
      <trkpt lat="46.19902" lon="4.41219">
        <ele>525</ele>
        <time>2012-04-11T11:44:38Z</time>
      </trkpt>
      <trkpt lat="46.19903" lon="4.41213">
        <ele>525</ele>
        <time>2012-04-11T11:44:39Z</time>
      </trkpt>
      <trkpt lat="46.19903" lon="4.41192">
        <ele>524</ele>
        <time>2012-04-11T11:44:43Z</time>
      </trkpt>
      <trkpt lat="46.19901" lon="4.41168">
        <ele>522</ele>
        <time>2012-04-11T11:44:47Z</time>
      </trkpt>
      <trkpt lat="46.199" lon="4.41162">
        <ele>519</ele>
        <time>2012-04-11T11:44:48Z</time>
      </trkpt>
      <trkpt lat="46.19899" lon="4.41148">
        <ele>519</ele>
        <time>2012-04-11T11:44:50Z</time>
      </trkpt>
      <trkpt lat="46.19897" lon="4.41124">
        <ele>519</ele>
        <time>2012-04-11T11:44:53Z</time>
      </trkpt>
      <trkpt lat="46.19896" lon="4.41115">
        <ele>518</ele>
        <time>2012-04-11T11:44:54Z</time>
      </trkpt>
      <trkpt lat="46.19894" lon="4.41107">
        <ele>518</ele>
        <time>2012-04-11T11:44:55Z</time>
      </trkpt>
      <trkpt lat="46.19894" lon="4.41099">
        <ele>517</ele>
        <time>2012-04-11T11:44:56Z</time>
      </trkpt>
      <trkpt lat="46.19893" lon="4.41087">
        <ele>517</ele>
        <time>2012-04-11T11:44:58Z</time>
      </trkpt>
      <trkpt lat="46.19893" lon="4.4108">
        <ele>510</ele>
        <time>2012-04-11T11:45:00Z</time>
      </trkpt>
      <trkpt lat="46.19895" lon="4.41079">
        <ele>510</ele>
        <time>2012-04-11T11:45:01Z</time>
      </trkpt>
      <trkpt lat="46.19894" lon="4.41077">
        <ele>510</ele>
        <time>2012-04-11T11:45:05Z</time>
      </trkpt>
      <trkpt lat="46.19896" lon="4.41075">
        <ele>510</ele>
        <time>2012-04-11T11:45:20Z</time>
      </trkpt>
      <trkpt lat="46.19896" lon="4.41077">
        <ele>510</ele>
        <time>2012-04-11T11:45:22Z</time>
      </trkpt>
      <trkpt lat="46.19897" lon="4.4108">
        <ele>510</ele>
        <time>2012-04-11T11:45:38Z</time>
      </trkpt>
      <trkpt lat="46.199" lon="4.41085">
        <ele>515</ele>
        <time>2012-04-11T11:45:40Z</time>
      </trkpt>
      <trkpt lat="46.19901" lon="4.41086">
        <ele>515</ele>
        <time>2012-04-11T11:45:42Z</time>
      </trkpt>
      <trkpt lat="46.19903" lon="4.41089">
        <ele>515</ele>
        <time>2012-04-11T11:45:44Z</time>
      </trkpt>
      <trkpt lat="46.19906" lon="4.41108">
        <ele>517</ele>
        <time>2012-04-11T11:45:50Z</time>
      </trkpt>
      <trkpt lat="46.19909" lon="4.41117">
        <ele>518</ele>
        <time>2012-04-11T11:45:53Z</time>
      </trkpt>
      <trkpt lat="46.19913" lon="4.41128">
        <ele>518</ele>
        <time>2012-04-11T11:45:56Z</time>
      </trkpt>
      <trkpt lat="46.19913" lon="4.41137">
        <ele>519</ele>
        <time>2012-04-11T11:45:58Z</time>
      </trkpt>
      <trkpt lat="46.19916" lon="4.41152">
        <ele>518</ele>
        <time>2012-04-11T11:46:01Z</time>
      </trkpt>
      <trkpt lat="46.19923" lon="4.41182">
        <ele>516</ele>
        <time>2012-04-11T11:46:07Z</time>
      </trkpt>
      <trkpt lat="46.19926" lon="4.4119">
        <ele>516</ele>
        <time>2012-04-11T11:46:09Z</time>
      </trkpt>
      <trkpt lat="46.19933" lon="4.41211">
        <ele>516</ele>
        <time>2012-04-11T11:46:13Z</time>
      </trkpt>
      <trkpt lat="46.19938" lon="4.41241">
        <ele>517</ele>
        <time>2012-04-11T11:46:20Z</time>
      </trkpt>
      <trkpt lat="46.19937" lon="4.41263">
        <ele>521</ele>
        <time>2012-04-11T11:46:24Z</time>
      </trkpt>
      <trkpt lat="46.19941" lon="4.41285">
        <ele>523</ele>
        <time>2012-04-11T11:46:28Z</time>
      </trkpt>
      <trkpt lat="46.19944" lon="4.41294">
        <ele>524</ele>
        <time>2012-04-11T11:46:30Z</time>
      </trkpt>
      <trkpt lat="46.19952" lon="4.41306">
        <ele>524</ele>
        <time>2012-04-11T11:46:33Z</time>
      </trkpt>
      <trkpt lat="46.19959" lon="4.41328">
        <ele>524</ele>
        <time>2012-04-11T11:46:38Z</time>
      </trkpt>
      <trkpt lat="46.19964" lon="4.41343">
        <ele>532</ele>
        <time>2012-04-11T11:46:41Z</time>
      </trkpt>
      <trkpt lat="46.19969" lon="4.4135">
        <ele>532</ele>
        <time>2012-04-11T11:46:43Z</time>
      </trkpt>
      <trkpt lat="46.19971" lon="4.41353">
        <ele>532</ele>
        <time>2012-04-11T11:46:44Z</time>
      </trkpt>
      <trkpt lat="46.19973" lon="4.41361">
        <ele>532</ele>
        <time>2012-04-11T11:46:46Z</time>
      </trkpt>
      <trkpt lat="46.19976" lon="4.41373">
        <ele>533</ele>
        <time>2012-04-11T11:46:51Z</time>
      </trkpt>
      <trkpt lat="46.19983" lon="4.41389">
        <ele>533</ele>
        <time>2012-04-11T11:46:58Z</time>
      </trkpt>
      <trkpt lat="46.19984" lon="4.41391">
        <ele>533</ele>
        <time>2012-04-11T11:46:59Z</time>
      </trkpt>
      <trkpt lat="46.19985" lon="4.414">
        <ele>533</ele>
        <time>2012-04-11T11:47:03Z</time>
      </trkpt>
      <trkpt lat="46.19988" lon="4.41416">
        <ele>532</ele>
        <time>2012-04-11T11:47:11Z</time>
      </trkpt>
      <trkpt lat="46.1999" lon="4.41434">
        <ele>542</ele>
        <time>2012-04-11T11:47:19Z</time>
      </trkpt>
      <trkpt lat="46.19991" lon="4.41439">
        <ele>543</ele>
        <time>2012-04-11T11:47:21Z</time>
      </trkpt>
      <trkpt lat="46.19994" lon="4.4145">
        <ele>546</ele>
        <time>2012-04-11T11:47:26Z</time>
      </trkpt>
      <trkpt lat="46.2" lon="4.41463">
        <ele>548</ele>
        <time>2012-04-11T11:47:33Z</time>
      </trkpt>
      <trkpt lat="46.20006" lon="4.4148">
        <ele>542</ele>
        <time>2012-04-11T11:47:42Z</time>
      </trkpt>
      <trkpt lat="46.20009" lon="4.41487">
        <ele>543</ele>
        <time>2012-04-11T11:47:45Z</time>
      </trkpt>
      <trkpt lat="46.20013" lon="4.41495">
        <ele>543</ele>
        <time>2012-04-11T11:47:49Z</time>
      </trkpt>
      <trkpt lat="46.20019" lon="4.41513">
        <ele>548</ele>
        <time>2012-04-11T11:47:57Z</time>
      </trkpt>
      <trkpt lat="46.20023" lon="4.41527">
        <ele>549</ele>
        <time>2012-04-11T11:48:04Z</time>
      </trkpt>
      <trkpt lat="46.20024" lon="4.41534">
        <ele>549</ele>
        <time>2012-04-11T11:48:07Z</time>
      </trkpt>
      <trkpt lat="46.20025" lon="4.41545">
        <ele>550</ele>
        <time>2012-04-11T11:48:12Z</time>
      </trkpt>
      <trkpt lat="46.20032" lon="4.41553">
        <ele>550</ele>
        <time>2012-04-11T11:48:18Z</time>
      </trkpt>
      <trkpt lat="46.20045" lon="4.4156">
        <ele>550</ele>
        <time>2012-04-11T11:48:27Z</time>
      </trkpt>
      <trkpt lat="46.20048" lon="4.41565">
        <ele>550</ele>
        <time>2012-04-11T11:48:32Z</time>
      </trkpt>
      <trkpt lat="46.20048" lon="4.41565">
        <ele>550</ele>
        <time>2012-04-11T11:48:35Z</time>
      </trkpt>
      <trkpt lat="46.20052" lon="4.41568">
        <ele>550</ele>
        <time>2012-04-11T11:48:41Z</time>
      </trkpt>
      <trkpt lat="46.20048" lon="4.41563">
        <ele>550</ele>
        <time>2012-04-11T11:48:48Z</time>
      </trkpt>
      <trkpt lat="46.20047" lon="4.41563">
        <ele>550</ele>
        <time>2012-04-11T11:48:55Z</time>
      </trkpt>
      <trkpt lat="46.2005" lon="4.41563">
        <ele>550</ele>
        <time>2012-04-11T11:49:01Z</time>
      </trkpt>
      <trkpt lat="46.2005" lon="4.41565">
        <ele>550</ele>
        <time>2012-04-11T11:49:44Z</time>
      </trkpt>
      <trkpt lat="46.20049" lon="4.41565">
        <ele>550</ele>
        <time>2012-04-11T11:49:49Z</time>
      </trkpt>
      <trkpt lat="46.20053" lon="4.41563">
        <ele>550</ele>
        <time>2012-04-11T11:50:24Z</time>
      </trkpt>
      <trkpt lat="46.20049" lon="4.41565">
        <ele>550</ele>
        <time>2012-04-11T11:50:56Z</time>
      </trkpt>
      <trkpt lat="46.20049" lon="4.41563">
        <ele>550</ele>
        <time>2012-04-11T11:50:57Z</time>
      </trkpt>
      <trkpt lat="46.20051" lon="4.41559">
        <ele>550</ele>
        <time>2012-04-11T11:51:00Z</time>
      </trkpt>
      <trkpt lat="46.2005" lon="4.41558">
        <ele>550</ele>
        <time>2012-04-11T11:51:03Z</time>
      </trkpt>
      <trkpt lat="46.20046" lon="4.41559">
        <ele>550</ele>
        <time>2012-04-11T11:51:13Z</time>
      </trkpt>
      <trkpt lat="46.20048" lon="4.41563">
        <ele>550</ele>
        <time>2012-04-11T11:51:45Z</time>
      </trkpt>
      <trkpt lat="46.20048" lon="4.41563">
        <ele>550</ele>
        <time>2012-04-11T11:51:53Z</time>
      </trkpt>
      <trkpt lat="46.20046" lon="4.41561">
        <ele>550</ele>
        <time>2012-04-11T11:52:03Z</time>
      </trkpt>
      <trkpt lat="46.20046" lon="4.41547">
        <ele>549</ele>
        <time>2012-04-11T11:53:05Z</time>
      </trkpt>
      <trkpt lat="46.2005" lon="4.41542">
        <ele>549</ele>
        <time>2012-04-11T11:53:08Z</time>
      </trkpt>
      <trkpt lat="46.20052" lon="4.41538">
        <ele>549</ele>
        <time>2012-04-11T11:53:10Z</time>
      </trkpt>
      <trkpt lat="46.20053" lon="4.41536">
        <ele>549</ele>
        <time>2012-04-11T11:53:11Z</time>
      </trkpt>
      <trkpt lat="46.20058" lon="4.41529">
        <ele>548</ele>
        <time>2012-04-11T11:53:16Z</time>
      </trkpt>
      <trkpt lat="46.20056" lon="4.41529">
        <ele>548</ele>
        <time>2012-04-11T11:53:22Z</time>
      </trkpt>
      <trkpt lat="46.20057" lon="4.41521">
        <ele>548</ele>
        <time>2012-04-11T11:53:38Z</time>
      </trkpt>
      <trkpt lat="46.20058" lon="4.41517">
        <ele>548</ele>
        <time>2012-04-11T11:53:41Z</time>
      </trkpt>
      <trkpt lat="46.2006" lon="4.4151">
        <ele>547</ele>
        <time>2012-04-11T11:53:44Z</time>
      </trkpt>
      <trkpt lat="46.20063" lon="4.41498">
        <ele>542</ele>
        <time>2012-04-11T11:53:48Z</time>
      </trkpt>
      <trkpt lat="46.20069" lon="4.41485">
        <ele>542</ele>
        <time>2012-04-11T11:53:53Z</time>
      </trkpt>
      <trkpt lat="46.20072" lon="4.41481">
        <ele>542</ele>
        <time>2012-04-11T11:53:55Z</time>
      </trkpt>
      <trkpt lat="46.20084" lon="4.41466">
        <ele>552</ele>
        <time>2012-04-11T11:54:02Z</time>
      </trkpt>
      <trkpt lat="46.20089" lon="4.41457">
        <ele>552</ele>
        <time>2012-04-11T11:54:08Z</time>
      </trkpt>
      <trkpt lat="46.20092" lon="4.41449">
        <ele>551</ele>
        <time>2012-04-11T11:54:12Z</time>
      </trkpt>
      <trkpt lat="46.20093" lon="4.41448">
        <ele>551</ele>
        <time>2012-04-11T11:54:13Z</time>
      </trkpt>
      <trkpt lat="46.20099" lon="4.41436">
        <ele>550</ele>
        <time>2012-04-11T11:54:20Z</time>
      </trkpt>
      <trkpt lat="46.20101" lon="4.41431">
        <ele>550</ele>
        <time>2012-04-11T11:54:23Z</time>
      </trkpt>
      <trkpt lat="46.20104" lon="4.41424">
        <ele>550</ele>
        <time>2012-04-11T11:54:27Z</time>
      </trkpt>
      <trkpt lat="46.20105" lon="4.41422">
        <ele>550</ele>
        <time>2012-04-11T11:54:28Z</time>
      </trkpt>
      <trkpt lat="46.20112" lon="4.4141">
        <ele>550</ele>
        <time>2012-04-11T11:54:35Z</time>
      </trkpt>
      <trkpt lat="46.20114" lon="4.41404">
        <ele>551</ele>
        <time>2012-04-11T11:54:39Z</time>
      </trkpt>
      <trkpt lat="46.20116" lon="4.41401">
        <ele>551</ele>
        <time>2012-04-11T11:54:41Z</time>
      </trkpt>
      <trkpt lat="46.20121" lon="4.41392">
        <ele>552</ele>
        <time>2012-04-11T11:54:47Z</time>
      </trkpt>
      <trkpt lat="46.20127" lon="4.41374">
        <ele>553</ele>
        <time>2012-04-11T11:54:57Z</time>
      </trkpt>
      <trkpt lat="46.20133" lon="4.41362">
        <ele>554</ele>
        <time>2012-04-11T11:55:05Z</time>
      </trkpt>
      <trkpt lat="46.20134" lon="4.4136">
        <ele>554</ele>
        <time>2012-04-11T11:55:06Z</time>
      </trkpt>
      <trkpt lat="46.20141" lon="4.4135">
        <ele>555</ele>
        <time>2012-04-11T11:55:14Z</time>
      </trkpt>
      <trkpt lat="46.20146" lon="4.41339">
        <ele>557</ele>
        <time>2012-04-11T11:55:22Z</time>
      </trkpt>
      <trkpt lat="46.20152" lon="4.41328">
        <ele>556</ele>
        <time>2012-04-11T11:55:30Z</time>
      </trkpt>
      <trkpt lat="46.20156" lon="4.41321">
        <ele>556</ele>
        <time>2012-04-11T11:55:36Z</time>
      </trkpt>
      <trkpt lat="46.20157" lon="4.4132">
        <ele>556</ele>
        <time>2012-04-11T11:55:37Z</time>
      </trkpt>
      <trkpt lat="46.20162" lon="4.41313">
        <ele>555</ele>
        <time>2012-04-11T11:55:43Z</time>
      </trkpt>
      <trkpt lat="46.20167" lon="4.41306">
        <ele>569</ele>
        <time>2012-04-11T11:55:49Z</time>
      </trkpt>
      <trkpt lat="46.20169" lon="4.41304">
        <ele>570</ele>
        <time>2012-04-11T11:55:51Z</time>
      </trkpt>
      <trkpt lat="46.20172" lon="4.413">
        <ele>570</ele>
        <time>2012-04-11T11:55:55Z</time>
      </trkpt>
      <trkpt lat="46.20174" lon="4.41296">
        <ele>570</ele>
        <time>2012-04-11T11:55:58Z</time>
      </trkpt>
      <trkpt lat="46.20176" lon="4.41294">
        <ele>570</ele>
        <time>2012-04-11T11:56:00Z</time>
      </trkpt>
      <trkpt lat="46.20179" lon="4.41288">
        <ele>570</ele>
        <time>2012-04-11T11:56:05Z</time>
      </trkpt>
      <trkpt lat="46.20182" lon="4.41284">
        <ele>569</ele>
        <time>2012-04-11T11:56:09Z</time>
      </trkpt>
      <trkpt lat="46.20183" lon="4.41283">
        <ele>569</ele>
        <time>2012-04-11T11:56:10Z</time>
      </trkpt>
      <trkpt lat="46.20184" lon="4.41282">
        <ele>569</ele>
        <time>2012-04-11T11:56:11Z</time>
      </trkpt>
      <trkpt lat="46.20186" lon="4.41278">
        <ele>569</ele>
        <time>2012-04-11T11:56:15Z</time>
      </trkpt>
      <trkpt lat="46.20188" lon="4.41276">
        <ele>569</ele>
        <time>2012-04-11T11:56:17Z</time>
      </trkpt>
      <trkpt lat="46.2019" lon="4.41263">
        <ele>568</ele>
        <time>2012-04-11T11:56:24Z</time>
      </trkpt>
      <trkpt lat="46.20194" lon="4.41252">
        <ele>568</ele>
        <time>2012-04-11T11:56:31Z</time>
      </trkpt>
      <trkpt lat="46.20194" lon="4.41251">
        <ele>568</ele>
        <time>2012-04-11T11:56:32Z</time>
      </trkpt>
      <trkpt lat="46.20197" lon="4.41246">
        <ele>561</ele>
        <time>2012-04-11T11:56:35Z</time>
      </trkpt>
      <trkpt lat="46.20199" lon="4.41246">
        <ele>562</ele>
        <time>2012-04-11T11:56:37Z</time>
      </trkpt>
      <trkpt lat="46.20199" lon="4.41246">
        <ele>562</ele>
        <time>2012-04-11T11:56:41Z</time>
      </trkpt>
      <trkpt lat="46.20199" lon="4.41245">
        <ele>562</ele>
        <time>2012-04-11T11:56:59Z</time>
      </trkpt>
      <trkpt lat="46.202" lon="4.41249">
        <ele>562</ele>
        <time>2012-04-11T11:57:02Z</time>
      </trkpt>
      <trkpt lat="46.20199" lon="4.41255">
        <ele>570</ele>
        <time>2012-04-11T11:57:05Z</time>
      </trkpt>
      <trkpt lat="46.202" lon="4.41263">
        <ele>570</ele>
        <time>2012-04-11T11:57:09Z</time>
      </trkpt>
      <trkpt lat="46.20199" lon="4.41276">
        <ele>571</ele>
        <time>2012-04-11T11:57:17Z</time>
      </trkpt>
      <trkpt lat="46.20198" lon="4.4128">
        <ele>571</ele>
        <time>2012-04-11T11:57:25Z</time>
      </trkpt>
      <trkpt lat="46.202" lon="4.41276">
        <ele>571</ele>
        <time>2012-04-11T11:58:30Z</time>
      </trkpt>
      <trkpt lat="46.20201" lon="4.41275">
        <ele>571</ele>
        <time>2012-04-11T11:58:37Z</time>
      </trkpt>
      <trkpt lat="46.202" lon="4.41274">
        <ele>571</ele>
        <time>2012-04-11T11:58:42Z</time>
      </trkpt>
      <trkpt lat="46.20197" lon="4.41272">
        <ele>571</ele>
        <time>2012-04-11T11:58:45Z</time>
      </trkpt>
      <trkpt lat="46.20195" lon="4.41274">
        <ele>570</ele>
        <time>2012-04-11T11:58:48Z</time>
      </trkpt>
      <trkpt lat="46.20195" lon="4.41276">
        <ele>570</ele>
        <time>2012-04-11T11:58:49Z</time>
      </trkpt>
      <trkpt lat="46.20195" lon="4.4128">
        <ele>571</ele>
        <time>2012-04-11T11:58:53Z</time>
      </trkpt>
      <trkpt lat="46.20195" lon="4.41282">
        <ele>571</ele>
        <time>2012-04-11T11:58:54Z</time>
      </trkpt>
      <trkpt lat="46.20192" lon="4.41288">
        <ele>571</ele>
        <time>2012-04-11T11:59:00Z</time>
      </trkpt>
      <trkpt lat="46.2019" lon="4.41288">
        <ele>571</ele>
        <time>2012-04-11T11:59:01Z</time>
      </trkpt>
      <trkpt lat="46.20189" lon="4.41287">
        <ele>571</ele>
        <time>2012-04-11T11:59:06Z</time>
      </trkpt>
      <trkpt lat="46.20187" lon="4.41287">
        <ele>570</ele>
        <time>2012-04-11T11:59:11Z</time>
      </trkpt>
      <trkpt lat="46.20186" lon="4.41288">
        <ele>570</ele>
        <time>2012-04-11T11:59:13Z</time>
      </trkpt>
      <trkpt lat="46.20184" lon="4.41291">
        <ele>570</ele>
        <time>2012-04-11T11:59:19Z</time>
      </trkpt>
      <trkpt lat="46.20182" lon="4.41293">
        <ele>570</ele>
        <time>2012-04-11T11:59:22Z</time>
      </trkpt>
      <trkpt lat="46.20181" lon="4.41297">
        <ele>570</ele>
        <time>2012-04-11T11:59:24Z</time>
      </trkpt>
      <trkpt lat="46.20179" lon="4.41302">
        <ele>570</ele>
        <time>2012-04-11T11:59:26Z</time>
      </trkpt>
      <trkpt lat="46.20176" lon="4.41317">
        <ele>570</ele>
        <time>2012-04-11T11:59:31Z</time>
      </trkpt>
      <trkpt lat="46.20177" lon="4.41321">
        <ele>569</ele>
        <time>2012-04-11T11:59:32Z</time>
      </trkpt>
      <trkpt lat="46.20171" lon="4.41344">
        <ele>572</ele>
        <time>2012-04-11T11:59:39Z</time>
      </trkpt>
      <trkpt lat="46.20172" lon="4.4137">
        <ele>578</ele>
        <time>2012-04-11T11:59:46Z</time>
      </trkpt>
      <trkpt lat="46.20173" lon="4.41374">
        <ele>578</ele>
        <time>2012-04-11T11:59:47Z</time>
      </trkpt>
      <trkpt lat="46.20174" lon="4.41396">
        <ele>578</ele>
        <time>2012-04-11T11:59:53Z</time>
      </trkpt>
      <trkpt lat="46.20177" lon="4.41417">
        <ele>577</ele>
        <time>2012-04-11T11:59:59Z</time>
      </trkpt>
      <trkpt lat="46.20178" lon="4.41423">
        <ele>578</ele>
        <time>2012-04-11T12:00:01Z</time>
      </trkpt>
      <trkpt lat="46.20183" lon="4.4144">
        <ele>582</ele>
        <time>2012-04-11T12:00:06Z</time>
      </trkpt>
      <trkpt lat="46.20188" lon="4.41459">
        <ele>583</ele>
        <time>2012-04-11T12:00:12Z</time>
      </trkpt>
      <trkpt lat="46.20192" lon="4.41473">
        <ele>584</ele>
        <time>2012-04-11T12:00:17Z</time>
      </trkpt>
      <trkpt lat="46.20193" lon="4.41476">
        <ele>584</ele>
        <time>2012-04-11T12:00:18Z</time>
      </trkpt>
      <trkpt lat="46.20193" lon="4.41492">
        <ele>583</ele>
        <time>2012-04-11T12:00:24Z</time>
      </trkpt>
      <trkpt lat="46.20198" lon="4.41509">
        <ele>584</ele>
        <time>2012-04-11T12:00:30Z</time>
      </trkpt>
      <trkpt lat="46.20198" lon="4.41512">
        <ele>584</ele>
        <time>2012-04-11T12:00:31Z</time>
      </trkpt>
      <trkpt lat="46.20199" lon="4.41527">
        <ele>585</ele>
        <time>2012-04-11T12:00:36Z</time>
      </trkpt>
      <trkpt lat="46.20199" lon="4.4153">
        <ele>585</ele>
        <time>2012-04-11T12:00:37Z</time>
      </trkpt>
      <trkpt lat="46.20202" lon="4.41546">
        <ele>586</ele>
        <time>2012-04-11T12:00:43Z</time>
      </trkpt>
      <trkpt lat="46.20203" lon="4.41553">
        <ele>586</ele>
        <time>2012-04-11T12:00:46Z</time>
      </trkpt>
      <trkpt lat="46.20204" lon="4.41559">
        <ele>586</ele>
        <time>2012-04-11T12:00:48Z</time>
      </trkpt>
      <trkpt lat="46.20206" lon="4.41566">
        <ele>586</ele>
        <time>2012-04-11T12:00:51Z</time>
      </trkpt>
      <trkpt lat="46.20208" lon="4.41573">
        <ele>587</ele>
        <time>2012-04-11T12:00:54Z</time>
      </trkpt>
      <trkpt lat="46.20209" lon="4.41577">
        <ele>587</ele>
        <time>2012-04-11T12:00:56Z</time>
      </trkpt>
      <trkpt lat="46.20211" lon="4.41586">
        <ele>588</ele>
        <time>2012-04-11T12:01:00Z</time>
      </trkpt>
      <trkpt lat="46.20213" lon="4.41602">
        <ele>588</ele>
        <time>2012-04-11T12:01:07Z</time>
      </trkpt>
      <trkpt lat="46.20217" lon="4.41612">
        <ele>588</ele>
        <time>2012-04-11T12:01:11Z</time>
      </trkpt>
      <trkpt lat="46.20218" lon="4.41617">
        <ele>588</ele>
        <time>2012-04-11T12:01:13Z</time>
      </trkpt>
      <trkpt lat="46.20223" lon="4.41628">
        <ele>589</ele>
        <time>2012-04-11T12:01:17Z</time>
      </trkpt>
      <trkpt lat="46.20227" lon="4.41638">
        <ele>589</ele>
        <time>2012-04-11T12:01:21Z</time>
      </trkpt>
      <trkpt lat="46.2023" lon="4.41648">
        <ele>590</ele>
        <time>2012-04-11T12:01:25Z</time>
      </trkpt>
      <trkpt lat="46.20232" lon="4.41653">
        <ele>591</ele>
        <time>2012-04-11T12:01:28Z</time>
      </trkpt>
      <trkpt lat="46.20235" lon="4.41666">
        <ele>592</ele>
        <time>2012-04-11T12:01:35Z</time>
      </trkpt>
      <trkpt lat="46.20237" lon="4.41668">
        <ele>593</ele>
        <time>2012-04-11T12:01:41Z</time>
      </trkpt>
      <trkpt lat="46.2024" lon="4.41676">
        <ele>593</ele>
        <time>2012-04-11T12:02:30Z</time>
      </trkpt>
      <trkpt lat="46.20243" lon="4.4168">
        <ele>593</ele>
        <time>2012-04-11T12:02:33Z</time>
      </trkpt>
      <trkpt lat="46.20251" lon="4.41688">
        <ele>599</ele>
        <time>2012-04-11T12:02:39Z</time>
      </trkpt>
      <trkpt lat="46.2026" lon="4.417">
        <ele>601</ele>
        <time>2012-04-11T12:02:46Z</time>
      </trkpt>
      <trkpt lat="46.20266" lon="4.41705">
        <ele>601</ele>
        <time>2012-04-11T12:02:50Z</time>
      </trkpt>
      <trkpt lat="46.20268" lon="4.41706">
        <ele>602</ele>
        <time>2012-04-11T12:02:51Z</time>
      </trkpt>
      <trkpt lat="46.20269" lon="4.41707">
        <ele>602</ele>
        <time>2012-04-11T12:02:52Z</time>
      </trkpt>
      <trkpt lat="46.20279" lon="4.41714">
        <ele>602</ele>
        <time>2012-04-11T12:02:58Z</time>
      </trkpt>
      <trkpt lat="46.20282" lon="4.4172">
        <ele>603</ele>
        <time>2012-04-11T12:03:03Z</time>
      </trkpt>
      <trkpt lat="46.20281" lon="4.4172">
        <ele>603</ele>
        <time>2012-04-11T12:04:37Z</time>
      </trkpt>
      <trkpt lat="46.20289" lon="4.4172">
        <ele>603</ele>
        <time>2012-04-11T12:04:42Z</time>
      </trkpt>
      <trkpt lat="46.2029" lon="4.4172">
        <ele>603</ele>
        <time>2012-04-11T12:04:43Z</time>
      </trkpt>
      <trkpt lat="46.20298" lon="4.41719">
        <ele>604</ele>
        <time>2012-04-11T12:04:50Z</time>
      </trkpt>
      <trkpt lat="46.20306" lon="4.41725">
        <ele>604</ele>
        <time>2012-04-11T12:04:57Z</time>
      </trkpt>
      <trkpt lat="46.20314" lon="4.41728">
        <ele>605</ele>
        <time>2012-04-11T12:05:04Z</time>
      </trkpt>
      <trkpt lat="46.20316" lon="4.41729">
        <ele>605</ele>
        <time>2012-04-11T12:05:05Z</time>
      </trkpt>
      <trkpt lat="46.20324" lon="4.41734">
        <ele>606</ele>
        <time>2012-04-11T12:05:10Z</time>
      </trkpt>
      <trkpt lat="46.20334" lon="4.41741">
        <ele>608</ele>
        <time>2012-04-11T12:05:17Z</time>
      </trkpt>
      <trkpt lat="46.20339" lon="4.41745">
        <ele>608</ele>
        <time>2012-04-11T12:05:23Z</time>
      </trkpt>
      <trkpt lat="46.20339" lon="4.41751">
        <ele>609</ele>
        <time>2012-04-11T12:05:33Z</time>
      </trkpt>
      <trkpt lat="46.20339" lon="4.4176">
        <ele>610</ele>
        <time>2012-04-11T12:05:45Z</time>
      </trkpt>
      <trkpt lat="46.2034" lon="4.41771">
        <ele>611</ele>
        <time>2012-04-11T12:05:52Z</time>
      </trkpt>
      <trkpt lat="46.20341" lon="4.41774">
        <ele>611</ele>
        <time>2012-04-11T12:05:54Z</time>
      </trkpt>
      <trkpt lat="46.20343" lon="4.41781">
        <ele>611</ele>
        <time>2012-04-11T12:05:59Z</time>
      </trkpt>
      <trkpt lat="46.20345" lon="4.41787">
        <ele>612</ele>
        <time>2012-04-11T12:06:03Z</time>
      </trkpt>
      <trkpt lat="46.20347" lon="4.41792">
        <ele>612</ele>
        <time>2012-04-11T12:06:06Z</time>
      </trkpt>
      <trkpt lat="46.20349" lon="4.41803">
        <ele>614</ele>
        <time>2012-04-11T12:06:13Z</time>
      </trkpt>
      <trkpt lat="46.20349" lon="4.41807">
        <ele>614</ele>
        <time>2012-04-11T12:06:15Z</time>
      </trkpt>
      <trkpt lat="46.2035" lon="4.41816">
        <ele>615</ele>
        <time>2012-04-11T12:06:19Z</time>
      </trkpt>
      <trkpt lat="46.2035" lon="4.41817">
        <ele>615</ele>
        <time>2012-04-11T12:06:20Z</time>
      </trkpt>
      <trkpt lat="46.2035" lon="4.41826">
        <ele>617</ele>
        <time>2012-04-11T12:06:24Z</time>
      </trkpt>
      <trkpt lat="46.20348" lon="4.41829">
        <ele>617</ele>
        <time>2012-04-11T12:06:27Z</time>
      </trkpt>
      <trkpt lat="46.20347" lon="4.41838">
        <ele>622</ele>
        <time>2012-04-11T12:07:17Z</time>
      </trkpt>
      <trkpt lat="46.20343" lon="4.41827">
        <ele>618</ele>
        <time>2012-04-11T12:07:35Z</time>
      </trkpt>
      <trkpt lat="46.20343" lon="4.41831">
        <ele>619</ele>
        <time>2012-04-11T12:07:40Z</time>
      </trkpt>
      <trkpt lat="46.20348" lon="4.41829">
        <ele>618</ele>
        <time>2012-04-11T12:08:08Z</time>
      </trkpt>
      <trkpt lat="46.20351" lon="4.41822">
        <ele>616</ele>
        <time>2012-04-11T12:08:14Z</time>
      </trkpt>
      <trkpt lat="46.20351" lon="4.41821">
        <ele>616</ele>
        <time>2012-04-11T12:08:15Z</time>
      </trkpt>
      <trkpt lat="46.20349" lon="4.41817">
        <ele>616</ele>
        <time>2012-04-11T12:08:19Z</time>
      </trkpt>
      <trkpt lat="46.2035" lon="4.41806">
        <ele>614</ele>
        <time>2012-04-11T12:08:25Z</time>
      </trkpt>
      <trkpt lat="46.20348" lon="4.41794">
        <ele>613</ele>
        <time>2012-04-11T12:08:30Z</time>
      </trkpt>
      <trkpt lat="46.20348" lon="4.41791">
        <ele>612</ele>
        <time>2012-04-11T12:08:31Z</time>
      </trkpt>
      <trkpt lat="46.20345" lon="4.41775">
        <ele>611</ele>
        <time>2012-04-11T12:08:37Z</time>
      </trkpt>
      <trkpt lat="46.20344" lon="4.41772">
        <ele>611</ele>
        <time>2012-04-11T12:08:38Z</time>
      </trkpt>
      <trkpt lat="46.20342" lon="4.41758">
        <ele>610</ele>
        <time>2012-04-11T12:08:43Z</time>
      </trkpt>
      <trkpt lat="46.20342" lon="4.41756">
        <ele>610</ele>
        <time>2012-04-11T12:08:44Z</time>
      </trkpt>
      <trkpt lat="46.20342" lon="4.41749">
        <ele>608</ele>
        <time>2012-04-11T12:08:48Z</time>
      </trkpt>
      <trkpt lat="46.20341" lon="4.41747">
        <ele>607</ele>
        <time>2012-04-11T12:08:53Z</time>
      </trkpt>
      <trkpt lat="46.20341" lon="4.4175">
        <ele>609</ele>
        <time>2012-04-11T12:09:03Z</time>
      </trkpt>
      <trkpt lat="46.20337" lon="4.41748">
        <ele>608</ele>
        <time>2012-04-11T12:09:06Z</time>
      </trkpt>
      <trkpt lat="46.20329" lon="4.41741">
        <ele>607</ele>
        <time>2012-04-11T12:09:11Z</time>
      </trkpt>
      <trkpt lat="46.20328" lon="4.41739">
        <ele>607</ele>
        <time>2012-04-11T12:09:12Z</time>
      </trkpt>
      <trkpt lat="46.20317" lon="4.41735">
        <ele>606</ele>
        <time>2012-04-11T12:09:18Z</time>
      </trkpt>
      <trkpt lat="46.2031" lon="4.4173">
        <ele>605</ele>
        <time>2012-04-11T12:09:22Z</time>
      </trkpt>
      <trkpt lat="46.20302" lon="4.41727">
        <ele>604</ele>
        <time>2012-04-11T12:09:26Z</time>
      </trkpt>
      <trkpt lat="46.20297" lon="4.41724">
        <ele>604</ele>
        <time>2012-04-11T12:09:28Z</time>
      </trkpt>
      <trkpt lat="46.20293" lon="4.41725">
        <ele>603</ele>
        <time>2012-04-11T12:09:30Z</time>
      </trkpt>
      <trkpt lat="46.20286" lon="4.41724">
        <ele>603</ele>
        <time>2012-04-11T12:09:33Z</time>
      </trkpt>
      <trkpt lat="46.20279" lon="4.41725">
        <ele>603</ele>
        <time>2012-04-11T12:09:38Z</time>
      </trkpt>
      <trkpt lat="46.20277" lon="4.41723">
        <ele>603</ele>
        <time>2012-04-11T12:09:44Z</time>
      </trkpt>
      <trkpt lat="46.20272" lon="4.4172">
        <ele>602</ele>
        <time>2012-04-11T12:10:22Z</time>
      </trkpt>
      <trkpt lat="46.20273" lon="4.41724">
        <ele>602</ele>
        <time>2012-04-11T12:10:28Z</time>
      </trkpt>
      <trkpt lat="46.20271" lon="4.41723">
        <ele>602</ele>
        <time>2012-04-11T12:10:38Z</time>
      </trkpt>
      <trkpt lat="46.20271" lon="4.41716">
        <ele>602</ele>
        <time>2012-04-11T12:10:52Z</time>
      </trkpt>
      <trkpt lat="46.20263" lon="4.41703">
        <ele>601</ele>
        <time>2012-04-11T12:11:56Z</time>
      </trkpt>
      <trkpt lat="46.20268" lon="4.41707">
        <ele>602</ele>
        <time>2012-04-11T12:12:01Z</time>
      </trkpt>
      <trkpt lat="46.20271" lon="4.41707">
        <ele>602</ele>
        <time>2012-04-11T12:12:03Z</time>
      </trkpt>
      <trkpt lat="46.20279" lon="4.41713">
        <ele>602</ele>
        <time>2012-04-11T12:12:09Z</time>
      </trkpt>
      <trkpt lat="46.20287" lon="4.41715">
        <ele>603</ele>
        <time>2012-04-11T12:12:15Z</time>
      </trkpt>
      <trkpt lat="46.20296" lon="4.41721">
        <ele>604</ele>
        <time>2012-04-11T12:12:22Z</time>
      </trkpt>
      <trkpt lat="46.20297" lon="4.41722">
        <ele>604</ele>
        <time>2012-04-11T12:12:23Z</time>
      </trkpt>
      <trkpt lat="46.20306" lon="4.41726">
        <ele>604</ele>
        <time>2012-04-11T12:12:29Z</time>
      </trkpt>
      <trkpt lat="46.20308" lon="4.41727">
        <ele>604</ele>
        <time>2012-04-11T12:12:30Z</time>
      </trkpt>
      <trkpt lat="46.20314" lon="4.41733">
        <ele>605</ele>
        <time>2012-04-11T12:12:36Z</time>
      </trkpt>
      <trkpt lat="46.2032" lon="4.4174">
        <ele>606</ele>
        <time>2012-04-11T12:12:41Z</time>
      </trkpt>
      <trkpt lat="46.20321" lon="4.41741">
        <ele>606</ele>
        <time>2012-04-11T12:12:42Z</time>
      </trkpt>
      <trkpt lat="46.20328" lon="4.41746">
        <ele>608</ele>
        <time>2012-04-11T12:12:47Z</time>
      </trkpt>
      <trkpt lat="46.20329" lon="4.41747">
        <ele>608</ele>
        <time>2012-04-11T12:12:48Z</time>
      </trkpt>
      <trkpt lat="46.20334" lon="4.41752">
        <ele>609</ele>
        <time>2012-04-11T12:12:54Z</time>
      </trkpt>
      <trkpt lat="46.20336" lon="4.41753">
        <ele>609</ele>
        <time>2012-04-11T12:12:57Z</time>
      </trkpt>
      <trkpt lat="46.20341" lon="4.41756">
        <ele>610</ele>
        <time>2012-04-11T12:13:00Z</time>
      </trkpt>
      <trkpt lat="46.20341" lon="4.4176">
        <ele>610</ele>
        <time>2012-04-11T12:13:02Z</time>
      </trkpt>
      <trkpt lat="46.20342" lon="4.41767">
        <ele>610</ele>
        <time>2012-04-11T12:13:06Z</time>
      </trkpt>
      <trkpt lat="46.20344" lon="4.41777">
        <ele>611</ele>
        <time>2012-04-11T12:13:12Z</time>
      </trkpt>
      <trkpt lat="46.20344" lon="4.41779">
        <ele>611</ele>
        <time>2012-04-11T12:13:13Z</time>
      </trkpt>
      <trkpt lat="46.20346" lon="4.41789">
        <ele>612</ele>
        <time>2012-04-11T12:13:18Z</time>
      </trkpt>
      <trkpt lat="46.20347" lon="4.4179">
        <ele>612</ele>
        <time>2012-04-11T12:13:19Z</time>
      </trkpt>
      <trkpt lat="46.20349" lon="4.41795">
        <ele>613</ele>
        <time>2012-04-11T12:13:22Z</time>
      </trkpt>
      <trkpt lat="46.20351" lon="4.41801">
        <ele>613</ele>
        <time>2012-04-11T12:13:26Z</time>
      </trkpt>
      <trkpt lat="46.20355" lon="4.41812">
        <ele>614</ele>
        <time>2012-04-11T12:13:33Z</time>
      </trkpt>
      <trkpt lat="46.20357" lon="4.41817">
        <ele>614</ele>
        <time>2012-04-11T12:13:36Z</time>
      </trkpt>
      <trkpt lat="46.20358" lon="4.41821">
        <ele>615</ele>
        <time>2012-04-11T12:13:39Z</time>
      </trkpt>
      <trkpt lat="46.20354" lon="4.41828">
        <ele>616</ele>
        <time>2012-04-11T12:13:44Z</time>
      </trkpt>
      <trkpt lat="46.20351" lon="4.41832">
        <ele>617</ele>
        <time>2012-04-11T12:13:50Z</time>
      </trkpt>
      <trkpt lat="46.20349" lon="4.41834">
        <ele>622</ele>
        <time>2012-04-11T12:13:51Z</time>
      </trkpt>
      <trkpt lat="46.20348" lon="4.41834">
        <ele>622</ele>
        <time>2012-04-11T12:13:52Z</time>
      </trkpt>
      <trkpt lat="46.20347" lon="4.41833">
        <ele>618</ele>
        <time>2012-04-11T12:13:55Z</time>
      </trkpt>
      <trkpt lat="46.20348" lon="4.41839">
        <ele>622</ele>
        <time>2012-04-11T12:14:49Z</time>
      </trkpt>
      <trkpt lat="46.20348" lon="4.41838">
        <ele>622</ele>
        <time>2012-04-11T12:14:56Z</time>
      </trkpt>
      <trkpt lat="46.20346" lon="4.41835">
        <ele>622</ele>
        <time>2012-04-11T12:15:02Z</time>
      </trkpt>
      <trkpt lat="46.20344" lon="4.41832">
        <ele>619</ele>
        <time>2012-04-11T12:15:07Z</time>
      </trkpt>
      <trkpt lat="46.20348" lon="4.41834">
        <ele>622</ele>
        <time>2012-04-11T12:15:12Z</time>
      </trkpt>
      <trkpt lat="46.20354" lon="4.41827">
        <ele>616</ele>
        <time>2012-04-11T12:15:18Z</time>
      </trkpt>
      <trkpt lat="46.20361" lon="4.41835">
        <ele>621</ele>
        <time>2012-04-11T12:15:38Z</time>
      </trkpt>
      <trkpt lat="46.20365" lon="4.41836">
        <ele>621</ele>
        <time>2012-04-11T12:15:42Z</time>
      </trkpt>
      <trkpt lat="46.20369" lon="4.41837">
        <ele>620</ele>
        <time>2012-04-11T12:15:45Z</time>
      </trkpt>
      <trkpt lat="46.20373" lon="4.41838">
        <ele>620</ele>
        <time>2012-04-11T12:15:47Z</time>
      </trkpt>
      <trkpt lat="46.20386" lon="4.41843">
        <ele>619</ele>
        <time>2012-04-11T12:15:53Z</time>
      </trkpt>
      <trkpt lat="46.20388" lon="4.41845">
        <ele>618</ele>
        <time>2012-04-11T12:16:01Z</time>
      </trkpt>
      <trkpt lat="46.20386" lon="4.41836">
        <ele>618</ele>
        <time>2012-04-11T12:16:22Z</time>
      </trkpt>
      <trkpt lat="46.20381" lon="4.41834">
        <ele>619</ele>
        <time>2012-04-11T12:16:26Z</time>
      </trkpt>
      <trkpt lat="46.20376" lon="4.41831">
        <ele>613</ele>
        <time>2012-04-11T12:16:29Z</time>
      </trkpt>
      <trkpt lat="46.20375" lon="4.4183">
        <ele>613</ele>
        <time>2012-04-11T12:16:30Z</time>
      </trkpt>
      <trkpt lat="46.20369" lon="4.41827">
        <ele>614</ele>
        <time>2012-04-11T12:16:35Z</time>
      </trkpt>
      <trkpt lat="46.20357" lon="4.41833">
        <ele>616</ele>
        <time>2012-04-11T12:16:42Z</time>
      </trkpt>
      <trkpt lat="46.20351" lon="4.41845">
        <ele>622</ele>
        <time>2012-04-11T12:16:47Z</time>
      </trkpt>
      <trkpt lat="46.20351" lon="4.41848">
        <ele>622</ele>
        <time>2012-04-11T12:16:48Z</time>
      </trkpt>
      <trkpt lat="46.2035" lon="4.4186">
        <ele>622</ele>
        <time>2012-04-11T12:16:52Z</time>
      </trkpt>
      <trkpt lat="46.2035" lon="4.41866">
        <ele>622</ele>
        <time>2012-04-11T12:16:54Z</time>
      </trkpt>
      <trkpt lat="46.20349" lon="4.41883">
        <ele>623</ele>
        <time>2012-04-11T12:17:00Z</time>
      </trkpt>
      <trkpt lat="46.20348" lon="4.41885">
        <ele>623</ele>
        <time>2012-04-11T12:17:02Z</time>
      </trkpt>
      <trkpt lat="46.20347" lon="4.41894">
        <ele>624</ele>
        <time>2012-04-11T12:17:06Z</time>
      </trkpt>
      <trkpt lat="46.20347" lon="4.41896">
        <ele>624</ele>
        <time>2012-04-11T12:17:07Z</time>
      </trkpt>
      <trkpt lat="46.20347" lon="4.419">
        <ele>624</ele>
        <time>2012-04-11T12:17:09Z</time>
      </trkpt>
      <trkpt lat="46.20348" lon="4.41904">
        <ele>624</ele>
        <time>2012-04-11T12:17:11Z</time>
      </trkpt>
      <trkpt lat="46.20348" lon="4.41907">
        <ele>625</ele>
        <time>2012-04-11T12:17:12Z</time>
      </trkpt>
      <trkpt lat="46.20349" lon="4.41919">
        <ele>627</ele>
        <time>2012-04-11T12:17:18Z</time>
      </trkpt>
      <trkpt lat="46.20349" lon="4.41922">
        <ele>627</ele>
        <time>2012-04-11T12:17:19Z</time>
      </trkpt>
      <trkpt lat="46.20349" lon="4.41924">
        <ele>627</ele>
        <time>2012-04-11T12:17:20Z</time>
      </trkpt>
      <trkpt lat="46.2035" lon="4.41935">
        <ele>627</ele>
        <time>2012-04-11T12:17:25Z</time>
      </trkpt>
      <trkpt lat="46.20352" lon="4.41951">
        <ele>627</ele>
        <time>2012-04-11T12:17:34Z</time>
      </trkpt>
      <trkpt lat="46.20353" lon="4.41953">
        <ele>627</ele>
        <time>2012-04-11T12:17:35Z</time>
      </trkpt>
      <trkpt lat="46.20353" lon="4.41965">
        <ele>627</ele>
        <time>2012-04-11T12:17:41Z</time>
      </trkpt>
      <trkpt lat="46.20356" lon="4.41974">
        <ele>627</ele>
        <time>2012-04-11T12:17:45Z</time>
      </trkpt>
      <trkpt lat="46.20356" lon="4.41978">
        <ele>627</ele>
        <time>2012-04-11T12:17:47Z</time>
      </trkpt>
      <trkpt lat="46.20356" lon="4.41993">
        <ele>626</ele>
        <time>2012-04-11T12:17:55Z</time>
      </trkpt>
      <trkpt lat="46.20357" lon="4.42006">
        <ele>628</ele>
        <time>2012-04-11T12:18:00Z</time>
      </trkpt>
      <trkpt lat="46.20358" lon="4.42009">
        <ele>628</ele>
        <time>2012-04-11T12:18:01Z</time>
      </trkpt>
      <trkpt lat="46.2036" lon="4.4203">
        <ele>630</ele>
        <time>2012-04-11T12:18:08Z</time>
      </trkpt>
      <trkpt lat="46.20362" lon="4.42049">
        <ele>630</ele>
        <time>2012-04-11T12:18:14Z</time>
      </trkpt>
      <trkpt lat="46.20366" lon="4.42058">
        <ele>631</ele>
        <time>2012-04-11T12:18:17Z</time>
      </trkpt>
      <trkpt lat="46.2037" lon="4.4207">
        <ele>631</ele>
        <time>2012-04-11T12:18:22Z</time>
      </trkpt>
      <trkpt lat="46.20376" lon="4.42072">
        <ele>632</ele>
        <time>2012-04-11T12:18:27Z</time>
      </trkpt>
      <trkpt lat="46.20381" lon="4.42068">
        <ele>632</ele>
        <time>2012-04-11T12:18:33Z</time>
      </trkpt>
      <trkpt lat="46.20386" lon="4.42067">
        <ele>633</ele>
        <time>2012-04-11T12:18:40Z</time>
      </trkpt>
      <trkpt lat="46.20391" lon="4.42066">
        <ele>633</ele>
        <time>2012-04-11T12:19:03Z</time>
      </trkpt>
      <trkpt lat="46.20388" lon="4.42069">
        <ele>633</ele>
        <time>2012-04-11T12:19:05Z</time>
      </trkpt>
      <trkpt lat="46.20384" lon="4.42072">
        <ele>633</ele>
        <time>2012-04-11T12:19:07Z</time>
      </trkpt>
      <trkpt lat="46.20379" lon="4.42075">
        <ele>632</ele>
        <time>2012-04-11T12:19:09Z</time>
      </trkpt>
      <trkpt lat="46.20376" lon="4.42074">
        <ele>632</ele>
        <time>2012-04-11T12:19:10Z</time>
      </trkpt>
      <trkpt lat="46.20368" lon="4.42055">
        <ele>631</ele>
        <time>2012-04-11T12:19:14Z</time>
      </trkpt>
      <trkpt lat="46.20366" lon="4.42048">
        <ele>630</ele>
        <time>2012-04-11T12:19:15Z</time>
      </trkpt>
      <trkpt lat="46.20362" lon="4.42033">
        <ele>630</ele>
        <time>2012-04-11T12:19:17Z</time>
      </trkpt>
      <trkpt lat="46.20362" lon="4.42014">
        <ele>629</ele>
        <time>2012-04-11T12:19:19Z</time>
      </trkpt>
      <trkpt lat="46.20363" lon="4.41997">
        <ele>627</ele>
        <time>2012-04-11T12:19:21Z</time>
      </trkpt>
      <trkpt lat="46.2036" lon="4.41985">
        <ele>627</ele>
        <time>2012-04-11T12:19:22Z</time>
      </trkpt>
      <trkpt lat="46.20358" lon="4.41964">
        <ele>627</ele>
        <time>2012-04-11T12:19:24Z</time>
      </trkpt>
      <trkpt lat="46.20357" lon="4.41947">
        <ele>627</ele>
        <time>2012-04-11T12:19:26Z</time>
      </trkpt>
      <trkpt lat="46.20356" lon="4.41937">
        <ele>627</ele>
        <time>2012-04-11T12:19:27Z</time>
      </trkpt>
      <trkpt lat="46.20355" lon="4.41928">
        <ele>627</ele>
        <time>2012-04-11T12:19:28Z</time>
      </trkpt>
      <trkpt lat="46.20353" lon="4.419">
        <ele>624</ele>
        <time>2012-04-11T12:19:31Z</time>
      </trkpt>
      <trkpt lat="46.20351" lon="4.41881">
        <ele>623</ele>
        <time>2012-04-11T12:19:33Z</time>
      </trkpt>
      <trkpt lat="46.20349" lon="4.41873">
        <ele>622</ele>
        <time>2012-04-11T12:19:34Z</time>
      </trkpt>
      <trkpt lat="46.20347" lon="4.41864">
        <ele>622</ele>
        <time>2012-04-11T12:19:35Z</time>
      </trkpt>
      <trkpt lat="46.20349" lon="4.41848">
        <ele>622</ele>
        <time>2012-04-11T12:19:37Z</time>
      </trkpt>
      <trkpt lat="46.20349" lon="4.41841">
        <ele>622</ele>
        <time>2012-04-11T12:19:38Z</time>
      </trkpt>
      <trkpt lat="46.20355" lon="4.41829">
        <ele>616</ele>
        <time>2012-04-11T12:19:41Z</time>
      </trkpt>
      <trkpt lat="46.20357" lon="4.41828">
        <ele>615</ele>
        <time>2012-04-11T12:19:42Z</time>
      </trkpt>
      <trkpt lat="46.20357" lon="4.41826">
        <ele>615</ele>
        <time>2012-04-11T12:19:45Z</time>
      </trkpt>
      <trkpt lat="46.20351" lon="4.41827">
        <ele>617</ele>
        <time>2012-04-11T12:20:48Z</time>
      </trkpt>
      <trkpt lat="46.20347" lon="4.41826">
        <ele>617</ele>
        <time>2012-04-11T12:21:17Z</time>
      </trkpt>
      <trkpt lat="46.20346" lon="4.41829">
        <ele>618</ele>
        <time>2012-04-11T12:21:23Z</time>
      </trkpt>
      <trkpt lat="46.20348" lon="4.41829">
        <ele>617</ele>
        <time>2012-04-11T12:21:45Z</time>
      </trkpt>
      <trkpt lat="46.20355" lon="4.41824">
        <ele>615</ele>
        <time>2012-04-11T12:21:48Z</time>
      </trkpt>
      <trkpt lat="46.20361" lon="4.41824">
        <ele>614</ele>
        <time>2012-04-11T12:21:50Z</time>
      </trkpt>
      <trkpt lat="46.20373" lon="4.41828">
        <ele>613</ele>
        <time>2012-04-11T12:21:53Z</time>
      </trkpt>
      <trkpt lat="46.20383" lon="4.41832">
        <ele>612</ele>
        <time>2012-04-11T12:21:55Z</time>
      </trkpt>
      <trkpt lat="46.20397" lon="4.41842">
        <ele>617</ele>
        <time>2012-04-11T12:21:58Z</time>
      </trkpt>
      <trkpt lat="46.204" lon="4.41845">
        <ele>617</ele>
        <time>2012-04-11T12:21:59Z</time>
      </trkpt>
      <trkpt lat="46.20416" lon="4.41853">
        <ele>616</ele>
        <time>2012-04-11T12:22:02Z</time>
      </trkpt>
      <trkpt lat="46.20428" lon="4.4186">
        <ele>609</ele>
        <time>2012-04-11T12:22:06Z</time>
      </trkpt>
      <trkpt lat="46.2043" lon="4.41864">
        <ele>609</ele>
        <time>2012-04-11T12:22:08Z</time>
      </trkpt>
      <trkpt lat="46.20436" lon="4.41869">
        <ele>609</ele>
        <time>2012-04-11T12:22:10Z</time>
      </trkpt>
      <trkpt lat="46.20439" lon="4.41871">
        <ele>609</ele>
        <time>2012-04-11T12:22:11Z</time>
      </trkpt>
      <trkpt lat="46.20451" lon="4.41881">
        <ele>608</ele>
        <time>2012-04-11T12:22:16Z</time>
      </trkpt>
      <trkpt lat="46.20456" lon="4.41888">
        <ele>608</ele>
        <time>2012-04-11T12:22:21Z</time>
      </trkpt>
      <trkpt lat="46.20458" lon="4.41888">
        <ele>608</ele>
        <time>2012-04-11T12:22:27Z</time>
      </trkpt>
      <trkpt lat="46.20457" lon="4.41891">
        <ele>608</ele>
        <time>2012-04-11T12:22:33Z</time>
      </trkpt>
      <trkpt lat="46.2047" lon="4.41903">
        <ele>606</ele>
        <time>2012-04-11T12:22:38Z</time>
      </trkpt>
      <trkpt lat="46.20484" lon="4.41922">
        <ele>609</ele>
        <time>2012-04-11T12:22:43Z</time>
      </trkpt>
      <trkpt lat="46.20487" lon="4.41926">
        <ele>608</ele>
        <time>2012-04-11T12:22:44Z</time>
      </trkpt>
      <trkpt lat="46.20498" lon="4.41937">
        <ele>610</ele>
        <time>2012-04-11T12:22:47Z</time>
      </trkpt>
      <trkpt lat="46.20513" lon="4.41947">
        <ele>598</ele>
        <time>2012-04-11T12:22:50Z</time>
      </trkpt>
      <trkpt lat="46.20519" lon="4.4195">
        <ele>597</ele>
        <time>2012-04-11T12:22:51Z</time>
      </trkpt>
      <trkpt lat="46.20534" lon="4.4196">
        <ele>597</ele>
        <time>2012-04-11T12:22:54Z</time>
      </trkpt>
      <trkpt lat="46.20546" lon="4.41972">
        <ele>596</ele>
        <time>2012-04-11T12:22:57Z</time>
      </trkpt>
      <trkpt lat="46.20551" lon="4.41976">
        <ele>596</ele>
        <time>2012-04-11T12:22:58Z</time>
      </trkpt>
      <trkpt lat="46.20561" lon="4.41991">
        <ele>595</ele>
        <time>2012-04-11T12:23:01Z</time>
      </trkpt>
      <trkpt lat="46.20568" lon="4.42001">
        <ele>600</ele>
        <time>2012-04-11T12:23:03Z</time>
      </trkpt>
      <trkpt lat="46.20578" lon="4.42015">
        <ele>600</ele>
        <time>2012-04-11T12:23:06Z</time>
      </trkpt>
      <trkpt lat="46.20595" lon="4.42026">
        <ele>593</ele>
        <time>2012-04-11T12:23:10Z</time>
      </trkpt>
      <trkpt lat="46.20599" lon="4.42028">
        <ele>593</ele>
        <time>2012-04-11T12:23:11Z</time>
      </trkpt>
      <trkpt lat="46.20614" lon="4.42037">
        <ele>593</ele>
        <time>2012-04-11T12:23:15Z</time>
      </trkpt>
      <trkpt lat="46.2062" lon="4.42043">
        <ele>592</ele>
        <time>2012-04-11T12:23:17Z</time>
      </trkpt>
      <trkpt lat="46.20636" lon="4.42055">
        <ele>592</ele>
        <time>2012-04-11T12:23:22Z</time>
      </trkpt>
      <trkpt lat="46.20637" lon="4.42058">
        <ele>592</ele>
        <time>2012-04-11T12:23:23Z</time>
      </trkpt>
      <trkpt lat="46.20641" lon="4.42067">
        <ele>592</ele>
        <time>2012-04-11T12:23:26Z</time>
      </trkpt>
      <trkpt lat="46.20642" lon="4.42071">
        <ele>592</ele>
        <time>2012-04-11T12:23:27Z</time>
      </trkpt>
      <trkpt lat="46.20648" lon="4.42083">
        <ele>592</ele>
        <time>2012-04-11T12:23:32Z</time>
      </trkpt>
      <trkpt lat="46.20647" lon="4.4209">
        <ele>597</ele>
        <time>2012-04-11T12:23:38Z</time>
      </trkpt>
      <trkpt lat="46.20645" lon="4.42101">
        <ele>598</ele>
        <time>2012-04-11T12:23:59Z</time>
      </trkpt>
      <trkpt lat="46.20648" lon="4.42106">
        <ele>599</ele>
        <time>2012-04-11T12:24:01Z</time>
      </trkpt>
      <trkpt lat="46.20658" lon="4.42117">
        <ele>599</ele>
        <time>2012-04-11T12:24:05Z</time>
      </trkpt>
      <trkpt lat="46.20664" lon="4.42131">
        <ele>600</ele>
        <time>2012-04-11T12:24:08Z</time>
      </trkpt>
      <trkpt lat="46.20671" lon="4.42141">
        <ele>593</ele>
        <time>2012-04-11T12:24:11Z</time>
      </trkpt>
      <trkpt lat="46.20686" lon="4.42151">
        <ele>593</ele>
        <time>2012-04-11T12:24:17Z</time>
      </trkpt>
      <trkpt lat="46.207" lon="4.4216">
        <ele>592</ele>
        <time>2012-04-11T12:24:23Z</time>
      </trkpt>
      <trkpt lat="46.20712" lon="4.42166">
        <ele>592</ele>
        <time>2012-04-11T12:24:29Z</time>
      </trkpt>
      <trkpt lat="46.20713" lon="4.42165">
        <ele>592</ele>
        <time>2012-04-11T12:24:34Z</time>
      </trkpt>
      <trkpt lat="46.20714" lon="4.42164">
        <ele>592</ele>
        <time>2012-04-11T12:25:54Z</time>
      </trkpt>
      <trkpt lat="46.20715" lon="4.42165">
        <ele>592</ele>
        <time>2012-04-11T12:25:55Z</time>
      </trkpt>
      <trkpt lat="46.20728" lon="4.42171">
        <ele>593</ele>
        <time>2012-04-11T12:26:00Z</time>
      </trkpt>
      <trkpt lat="46.20748" lon="4.42179">
        <ele>592</ele>
        <time>2012-04-11T12:26:05Z</time>
      </trkpt>
      <trkpt lat="46.2078" lon="4.42186">
        <ele>592</ele>
        <time>2012-04-11T12:26:11Z</time>
      </trkpt>
      <trkpt lat="46.20785" lon="4.42187">
        <ele>592</ele>
        <time>2012-04-11T12:26:12Z</time>
      </trkpt>
      <trkpt lat="46.20806" lon="4.4219">
        <ele>593</ele>
        <time>2012-04-11T12:26:16Z</time>
      </trkpt>
      <trkpt lat="46.20824" lon="4.42192">
        <ele>593</ele>
        <time>2012-04-11T12:26:21Z</time>
      </trkpt>
      <trkpt lat="46.20835" lon="4.422">
        <ele>595</ele>
        <time>2012-04-11T12:26:25Z</time>
      </trkpt>
      <trkpt lat="46.20837" lon="4.42203">
        <ele>595</ele>
        <time>2012-04-11T12:26:29Z</time>
      </trkpt>
      <trkpt lat="46.20838" lon="4.42204">
        <ele>595</ele>
        <time>2012-04-11T12:26:38Z</time>
      </trkpt>
      <trkpt lat="46.20837" lon="4.42204">
        <ele>595</ele>
        <time>2012-04-11T12:26:41Z</time>
      </trkpt>
      <trkpt lat="46.20837" lon="4.42201">
        <ele>595</ele>
        <time>2012-04-11T12:26:53Z</time>
      </trkpt>
      <trkpt lat="46.20837" lon="4.42201">
        <ele>595</ele>
        <time>2012-04-11T12:26:54Z</time>
      </trkpt>
      <trkpt lat="46.20838" lon="4.42202">
        <ele>595</ele>
        <time>2012-04-11T12:26:59Z</time>
      </trkpt>
      <trkpt lat="46.20839" lon="4.42201">
        <ele>595</ele>
        <time>2012-04-11T12:27:06Z</time>
      </trkpt>
      <trkpt lat="46.20839" lon="4.42201">
        <ele>595</ele>
        <time>2012-04-11T12:27:22Z</time>
      </trkpt>
      <trkpt lat="46.20838" lon="4.42201">
        <ele>595</ele>
        <time>2012-04-11T12:27:29Z</time>
      </trkpt>
      <trkpt lat="46.20844" lon="4.42205">
        <ele>595</ele>
        <time>2012-04-11T12:27:43Z</time>
      </trkpt>
      <trkpt lat="46.2085" lon="4.42209">
        <ele>595</ele>
        <time>2012-04-11T12:27:45Z</time>
      </trkpt>
      <trkpt lat="46.20859" lon="4.42216">
        <ele>595</ele>
        <time>2012-04-11T12:27:48Z</time>
      </trkpt>
      <trkpt lat="46.20863" lon="4.42218">
        <ele>596</ele>
        <time>2012-04-11T12:27:49Z</time>
      </trkpt>
      <trkpt lat="46.20876" lon="4.42222">
        <ele>596</ele>
        <time>2012-04-11T12:27:52Z</time>
      </trkpt>
      <trkpt lat="46.20881" lon="4.42222">
        <ele>596</ele>
        <time>2012-04-11T12:27:53Z</time>
      </trkpt>
      <trkpt lat="46.20885" lon="4.42221">
        <ele>596</ele>
        <time>2012-04-11T12:27:54Z</time>
      </trkpt>
      <trkpt lat="46.20894" lon="4.42217">
        <ele>596</ele>
        <time>2012-04-11T12:27:56Z</time>
      </trkpt>
      <trkpt lat="46.20898" lon="4.42215">
        <ele>597</ele>
        <time>2012-04-11T12:27:57Z</time>
      </trkpt>
      <trkpt lat="46.20902" lon="4.42212">
        <ele>597</ele>
        <time>2012-04-11T12:27:58Z</time>
      </trkpt>
      <trkpt lat="46.20911" lon="4.42203">
        <ele>597</ele>
        <time>2012-04-11T12:28:01Z</time>
      </trkpt>
      <trkpt lat="46.20918" lon="4.42196">
        <ele>602</ele>
        <time>2012-04-11T12:28:04Z</time>
      </trkpt>
      <trkpt lat="46.20922" lon="4.42193">
        <ele>602</ele>
        <time>2012-04-11T12:28:06Z</time>
      </trkpt>
      <trkpt lat="46.20935" lon="4.42181">
        <ele>603</ele>
        <time>2012-04-11T12:28:12Z</time>
      </trkpt>
      <trkpt lat="46.20947" lon="4.42177">
        <ele>604</ele>
        <time>2012-04-11T12:28:18Z</time>
      </trkpt>
      <trkpt lat="46.20952" lon="4.42178">
        <ele>604</ele>
        <time>2012-04-11T12:28:20Z</time>
      </trkpt>
      <trkpt lat="46.2096" lon="4.42179">
        <ele>605</ele>
        <time>2012-04-11T12:28:24Z</time>
      </trkpt>
      <trkpt lat="46.20967" lon="4.42183">
        <ele>606</ele>
        <time>2012-04-11T12:28:29Z</time>
      </trkpt>
      <trkpt lat="46.20968" lon="4.42185">
        <ele>606</ele>
        <time>2012-04-11T12:28:30Z</time>
      </trkpt>
      <trkpt lat="46.20973" lon="4.42196">
        <ele>606</ele>
        <time>2012-04-11T12:28:35Z</time>
      </trkpt>
      <trkpt lat="46.20975" lon="4.42198">
        <ele>606</ele>
        <time>2012-04-11T12:28:37Z</time>
      </trkpt>
      <trkpt lat="46.20977" lon="4.42197">
        <ele>606</ele>
        <time>2012-04-11T12:28:40Z</time>
      </trkpt>
      <trkpt lat="46.20976" lon="4.42194">
        <ele>606</ele>
        <time>2012-04-11T12:28:42Z</time>
      </trkpt>
      <trkpt lat="46.20972" lon="4.4219">
        <ele>606</ele>
        <time>2012-04-11T12:28:45Z</time>
      </trkpt>
      <trkpt lat="46.2097" lon="4.42188">
        <ele>606</ele>
        <time>2012-04-11T12:28:48Z</time>
      </trkpt>
      <trkpt lat="46.20959" lon="4.42178">
        <ele>605</ele>
        <time>2012-04-11T12:28:54Z</time>
      </trkpt>
      <trkpt lat="46.20944" lon="4.42176">
        <ele>603</ele>
        <time>2012-04-11T12:28:58Z</time>
      </trkpt>
      <trkpt lat="46.20939" lon="4.42178">
        <ele>603</ele>
        <time>2012-04-11T12:28:59Z</time>
      </trkpt>
      <trkpt lat="46.20924" lon="4.4219">
        <ele>602</ele>
        <time>2012-04-11T12:29:02Z</time>
      </trkpt>
      <trkpt lat="46.20919" lon="4.42195">
        <ele>602</ele>
        <time>2012-04-11T12:29:03Z</time>
      </trkpt>
      <trkpt lat="46.20905" lon="4.42208">
        <ele>597</ele>
        <time>2012-04-11T12:29:06Z</time>
      </trkpt>
      <trkpt lat="46.20891" lon="4.42219">
        <ele>596</ele>
        <time>2012-04-11T12:29:09Z</time>
      </trkpt>
      <trkpt lat="46.20872" lon="4.42222">
        <ele>596</ele>
        <time>2012-04-11T12:29:13Z</time>
      </trkpt>
      <trkpt lat="46.20867" lon="4.42221">
        <ele>596</ele>
        <time>2012-04-11T12:29:14Z</time>
      </trkpt>
      <trkpt lat="46.2085" lon="4.42212">
        <ele>595</ele>
        <time>2012-04-11T12:29:18Z</time>
      </trkpt>
      <trkpt lat="46.20838" lon="4.42195">
        <ele>595</ele>
        <time>2012-04-11T12:29:22Z</time>
      </trkpt>
      <trkpt lat="46.20839" lon="4.42191">
        <ele>595</ele>
        <time>2012-04-11T12:29:23Z</time>
      </trkpt>
      <trkpt lat="46.20845" lon="4.42185">
        <ele>595</ele>
        <time>2012-04-11T12:29:25Z</time>
      </trkpt>
      <trkpt lat="46.20855" lon="4.42182">
        <ele>595</ele>
        <time>2012-04-11T12:29:28Z</time>
      </trkpt>
      <trkpt lat="46.20866" lon="4.42177">
        <ele>596</ele>
        <time>2012-04-11T12:29:31Z</time>
      </trkpt>
      <trkpt lat="46.20873" lon="4.42174">
        <ele>596</ele>
        <time>2012-04-11T12:29:33Z</time>
      </trkpt>
      <trkpt lat="46.20887" lon="4.42166">
        <ele>598</ele>
        <time>2012-04-11T12:29:37Z</time>
      </trkpt>
      <trkpt lat="46.20907" lon="4.42151">
        <ele>599</ele>
        <time>2012-04-11T12:29:43Z</time>
      </trkpt>
      <trkpt lat="46.2091" lon="4.42148">
        <ele>599</ele>
        <time>2012-04-11T12:29:44Z</time>
      </trkpt>
      <trkpt lat="46.20929" lon="4.42129">
        <ele>605</ele>
        <time>2012-04-11T12:29:51Z</time>
      </trkpt>
      <trkpt lat="46.20937" lon="4.4212">
        <ele>606</ele>
        <time>2012-04-11T12:29:55Z</time>
      </trkpt>
      <trkpt lat="46.20939" lon="4.42118">
        <ele>606</ele>
        <time>2012-04-11T12:29:56Z</time>
      </trkpt>
      <trkpt lat="46.20949" lon="4.42108">
        <ele>607</ele>
        <time>2012-04-11T12:30:01Z</time>
      </trkpt>
      <trkpt lat="46.20962" lon="4.42094">
        <ele>608</ele>
        <time>2012-04-11T12:30:07Z</time>
      </trkpt>
      <trkpt lat="46.20967" lon="4.42088">
        <ele>609</ele>
        <time>2012-04-11T12:30:10Z</time>
      </trkpt>
      <trkpt lat="46.20971" lon="4.42085">
        <ele>610</ele>
        <time>2012-04-11T12:30:12Z</time>
      </trkpt>
      <trkpt lat="46.20978" lon="4.42074">
        <ele>612</ele>
        <time>2012-04-11T12:30:19Z</time>
      </trkpt>
      <trkpt lat="46.2098" lon="4.4207">
        <ele>612</ele>
        <time>2012-04-11T12:30:21Z</time>
      </trkpt>
      <trkpt lat="46.20982" lon="4.42064">
        <ele>612</ele>
        <time>2012-04-11T12:30:25Z</time>
      </trkpt>
      <trkpt lat="46.20988" lon="4.42065">
        <ele>612</ele>
        <time>2012-04-11T12:30:29Z</time>
      </trkpt>
      <trkpt lat="46.20995" lon="4.42068">
        <ele>613</ele>
        <time>2012-04-11T12:30:32Z</time>
      </trkpt>
      <trkpt lat="46.20998" lon="4.42068">
        <ele>613</ele>
        <time>2012-04-11T12:30:34Z</time>
      </trkpt>
      <trkpt lat="46.2101" lon="4.42073">
        <ele>619</ele>
        <time>2012-04-11T12:30:41Z</time>
      </trkpt>
      <trkpt lat="46.21021" lon="4.42079">
        <ele>620</ele>
        <time>2012-04-11T12:30:48Z</time>
      </trkpt>
      <trkpt lat="46.21031" lon="4.42083">
        <ele>620</ele>
        <time>2012-04-11T12:30:54Z</time>
      </trkpt>
      <trkpt lat="46.21032" lon="4.42083">
        <ele>619</ele>
        <time>2012-04-11T12:30:55Z</time>
      </trkpt>
      <trkpt lat="46.2104" lon="4.42086">
        <ele>620</ele>
        <time>2012-04-11T12:31:02Z</time>
      </trkpt>
      <trkpt lat="46.21047" lon="4.42093">
        <ele>620</ele>
        <time>2012-04-11T12:31:07Z</time>
      </trkpt>
      <trkpt lat="46.21048" lon="4.42095">
        <ele>620</ele>
        <time>2012-04-11T12:31:08Z</time>
      </trkpt>
      <trkpt lat="46.21054" lon="4.42101">
        <ele>621</ele>
        <time>2012-04-11T12:31:15Z</time>
      </trkpt>
      <trkpt lat="46.21054" lon="4.42103">
        <ele>621</ele>
        <time>2012-04-11T12:31:23Z</time>
      </trkpt>
      <trkpt lat="46.21057" lon="4.42106">
        <ele>621</ele>
        <time>2012-04-11T12:31:39Z</time>
      </trkpt>
      <trkpt lat="46.21059" lon="4.42108">
        <ele>621</ele>
        <time>2012-04-11T12:31:41Z</time>
      </trkpt>
      <trkpt lat="46.21066" lon="4.42111">
        <ele>621</ele>
        <time>2012-04-11T12:31:45Z</time>
      </trkpt>
      <trkpt lat="46.21076" lon="4.42113">
        <ele>622</ele>
        <time>2012-04-11T12:31:50Z</time>
      </trkpt>
      <trkpt lat="46.21088" lon="4.42119">
        <ele>627</ele>
        <time>2012-04-11T12:31:56Z</time>
      </trkpt>
      <trkpt lat="46.21095" lon="4.42121">
        <ele>627</ele>
        <time>2012-04-11T12:31:59Z</time>
      </trkpt>
      <trkpt lat="46.21099" lon="4.42124">
        <ele>627</ele>
        <time>2012-04-11T12:32:01Z</time>
      </trkpt>
      <trkpt lat="46.21113" lon="4.42126">
        <ele>627</ele>
        <time>2012-04-11T12:32:06Z</time>
      </trkpt>
      <trkpt lat="46.21126" lon="4.42132">
        <ele>627</ele>
        <time>2012-04-11T12:32:12Z</time>
      </trkpt>
      <trkpt lat="46.21133" lon="4.42132">
        <ele>628</ele>
        <time>2012-04-11T12:32:14Z</time>
      </trkpt>
      <trkpt lat="46.21141" lon="4.42133">
        <ele>628</ele>
        <time>2012-04-11T12:32:17Z</time>
      </trkpt>
      <trkpt lat="46.21155" lon="4.42136">
        <ele>628</ele>
        <time>2012-04-11T12:32:22Z</time>
      </trkpt>
      <trkpt lat="46.21169" lon="4.42142">
        <ele>629</ele>
        <time>2012-04-11T12:32:28Z</time>
      </trkpt>
      <trkpt lat="46.21181" lon="4.42146">
        <ele>629</ele>
        <time>2012-04-11T12:32:34Z</time>
      </trkpt>
      <trkpt lat="46.21195" lon="4.42144">
        <ele>630</ele>
        <time>2012-04-11T12:32:39Z</time>
      </trkpt>
      <trkpt lat="46.21206" lon="4.4214">
        <ele>630</ele>
        <time>2012-04-11T12:32:43Z</time>
      </trkpt>
      <trkpt lat="46.21215" lon="4.42136">
        <ele>630</ele>
        <time>2012-04-11T12:32:46Z</time>
      </trkpt>
      <trkpt lat="46.21226" lon="4.42133">
        <ele>630</ele>
        <time>2012-04-11T12:32:51Z</time>
      </trkpt>
      <trkpt lat="46.21235" lon="4.42127">
        <ele>630</ele>
        <time>2012-04-11T12:32:57Z</time>
      </trkpt>
      <trkpt lat="46.21241" lon="4.42123">
        <ele>630</ele>
        <time>2012-04-11T12:33:00Z</time>
      </trkpt>
      <trkpt lat="46.21247" lon="4.42117">
        <ele>630</ele>
        <time>2012-04-11T12:33:03Z</time>
      </trkpt>
      <trkpt lat="46.21262" lon="4.42106">
        <ele>632</ele>
        <time>2012-04-11T12:33:09Z</time>
      </trkpt>
      <trkpt lat="46.21266" lon="4.42101">
        <ele>632</ele>
        <time>2012-04-11T12:33:12Z</time>
      </trkpt>
      <trkpt lat="46.21268" lon="4.42099">
        <ele>632</ele>
        <time>2012-04-11T12:33:13Z</time>
      </trkpt>
      <trkpt lat="46.21273" lon="4.42095">
        <ele>632</ele>
        <time>2012-04-11T12:33:16Z</time>
      </trkpt>
      <trkpt lat="46.21277" lon="4.42094">
        <ele>632</ele>
        <time>2012-04-11T12:33:19Z</time>
      </trkpt>
      <trkpt lat="46.21279" lon="4.42092">
        <ele>632</ele>
        <time>2012-04-11T12:33:26Z</time>
      </trkpt>
      <trkpt lat="46.21281" lon="4.42087">
        <ele>632</ele>
        <time>2012-04-11T12:33:29Z</time>
      </trkpt>
      <trkpt lat="46.21282" lon="4.42084">
        <ele>632</ele>
        <time>2012-04-11T12:33:30Z</time>
      </trkpt>
      <trkpt lat="46.21287" lon="4.42067">
        <ele>633</ele>
        <time>2012-04-11T12:33:35Z</time>
      </trkpt>
      <trkpt lat="46.2129" lon="4.42052">
        <ele>634</ele>
        <time>2012-04-11T12:33:39Z</time>
      </trkpt>
      <trkpt lat="46.21293" lon="4.42046">
        <ele>634</ele>
        <time>2012-04-11T12:33:41Z</time>
      </trkpt>
      <trkpt lat="46.21301" lon="4.42026">
        <ele>635</ele>
        <time>2012-04-11T12:33:47Z</time>
      </trkpt>
      <trkpt lat="46.21307" lon="4.42005">
        <ele>636</ele>
        <time>2012-04-11T12:33:53Z</time>
      </trkpt>
      <trkpt lat="46.21314" lon="4.41982">
        <ele>639</ele>
        <time>2012-04-11T12:34:02Z</time>
      </trkpt>
      <trkpt lat="46.21316" lon="4.41976">
        <ele>639</ele>
        <time>2012-04-11T12:34:05Z</time>
      </trkpt>
      <trkpt lat="46.21317" lon="4.4197">
        <ele>639</ele>
        <time>2012-04-11T12:34:08Z</time>
      </trkpt>
      <trkpt lat="46.21317" lon="4.41964">
        <ele>640</ele>
        <time>2012-04-11T12:34:15Z</time>
      </trkpt>
      <trkpt lat="46.2132" lon="4.41956">
        <ele>640</ele>
        <time>2012-04-11T12:34:18Z</time>
      </trkpt>
      <trkpt lat="46.21323" lon="4.4195">
        <ele>640</ele>
        <time>2012-04-11T12:34:20Z</time>
      </trkpt>
      <trkpt lat="46.21327" lon="4.4193">
        <ele>640</ele>
        <time>2012-04-11T12:34:26Z</time>
      </trkpt>
      <trkpt lat="46.2133" lon="4.41912">
        <ele>641</ele>
        <time>2012-04-11T12:34:32Z</time>
      </trkpt>
      <trkpt lat="46.2133" lon="4.41908">
        <ele>641</ele>
        <time>2012-04-11T12:34:34Z</time>
      </trkpt>
      <trkpt lat="46.21331" lon="4.41905">
        <ele>641</ele>
        <time>2012-04-11T12:34:35Z</time>
      </trkpt>
      <trkpt lat="46.21331" lon="4.41899">
        <ele>642</ele>
        <time>2012-04-11T12:34:37Z</time>
      </trkpt>
      <trkpt lat="46.21332" lon="4.41891">
        <ele>642</ele>
        <time>2012-04-11T12:34:43Z</time>
      </trkpt>
      <trkpt lat="46.21332" lon="4.41888">
        <ele>642</ele>
        <time>2012-04-11T12:34:49Z</time>
      </trkpt>
      <trkpt lat="46.21326" lon="4.41875">
        <ele>642</ele>
        <time>2012-04-11T12:35:04Z</time>
      </trkpt>
      <trkpt lat="46.21321" lon="4.41856">
        <ele>641</ele>
        <time>2012-04-11T12:35:10Z</time>
      </trkpt>
      <trkpt lat="46.21321" lon="4.41852">
        <ele>641</ele>
        <time>2012-04-11T12:35:11Z</time>
      </trkpt>
      <trkpt lat="46.21314" lon="4.41828">
        <ele>640</ele>
        <time>2012-04-11T12:35:17Z</time>
      </trkpt>
      <trkpt lat="46.21304" lon="4.41801">
        <ele>642</ele>
        <time>2012-04-11T12:35:23Z</time>
      </trkpt>
      <trkpt lat="46.21294" lon="4.41776">
        <ele>643</ele>
        <time>2012-04-11T12:35:29Z</time>
      </trkpt>
      <trkpt lat="46.21286" lon="4.41757">
        <ele>644</ele>
        <time>2012-04-11T12:35:34Z</time>
      </trkpt>
      <trkpt lat="46.21284" lon="4.41753">
        <ele>645</ele>
        <time>2012-04-11T12:35:35Z</time>
      </trkpt>
      <trkpt lat="46.21282" lon="4.41735">
        <ele>645</ele>
        <time>2012-04-11T12:35:40Z</time>
      </trkpt>
      <trkpt lat="46.21284" lon="4.41713">
        <ele>644</ele>
        <time>2012-04-11T12:35:46Z</time>
      </trkpt>
      <trkpt lat="46.21285" lon="4.41699">
        <ele>644</ele>
        <time>2012-04-11T12:35:49Z</time>
      </trkpt>
      <trkpt lat="46.21285" lon="4.41692">
        <ele>644</ele>
        <time>2012-04-11T12:35:51Z</time>
      </trkpt>
      <trkpt lat="46.21284" lon="4.41671">
        <ele>645</ele>
        <time>2012-04-11T12:35:57Z</time>
      </trkpt>
      <trkpt lat="46.2128" lon="4.41655">
        <ele>647</ele>
        <time>2012-04-11T12:36:03Z</time>
      </trkpt>
      <trkpt lat="46.2128" lon="4.41651">
        <ele>647</ele>
        <time>2012-04-11T12:36:08Z</time>
      </trkpt>
      <trkpt lat="46.21277" lon="4.41656">
        <ele>648</ele>
        <time>2012-04-11T12:36:22Z</time>
      </trkpt>
      <trkpt lat="46.21273" lon="4.41656">
        <ele>648</ele>
        <time>2012-04-11T12:36:26Z</time>
      </trkpt>
      <trkpt lat="46.21274" lon="4.41662">
        <ele>648</ele>
        <time>2012-04-11T12:36:28Z</time>
      </trkpt>
      <trkpt lat="46.21275" lon="4.41677">
        <ele>646</ele>
        <time>2012-04-11T12:36:32Z</time>
      </trkpt>
      <trkpt lat="46.21274" lon="4.41703">
        <ele>645</ele>
        <time>2012-04-11T12:36:37Z</time>
      </trkpt>
      <trkpt lat="46.21274" lon="4.41709">
        <ele>645</ele>
        <time>2012-04-11T12:36:38Z</time>
      </trkpt>
      <trkpt lat="46.21276" lon="4.41737">
        <ele>646</ele>
        <time>2012-04-11T12:36:43Z</time>
      </trkpt>
      <trkpt lat="46.2128" lon="4.41757">
        <ele>646</ele>
        <time>2012-04-11T12:36:46Z</time>
      </trkpt>
      <trkpt lat="46.21283" lon="4.41767">
        <ele>645</ele>
        <time>2012-04-11T12:36:48Z</time>
      </trkpt>
      <trkpt lat="46.21294" lon="4.41801">
        <ele>643</ele>
        <time>2012-04-11T12:36:54Z</time>
      </trkpt>
      <trkpt lat="46.21297" lon="4.41806">
        <ele>643</ele>
        <time>2012-04-11T12:36:55Z</time>
      </trkpt>
      <trkpt lat="46.21304" lon="4.41824">
        <ele>642</ele>
        <time>2012-04-11T12:36:58Z</time>
      </trkpt>
      <trkpt lat="46.21308" lon="4.41836">
        <ele>642</ele>
        <time>2012-04-11T12:37:00Z</time>
      </trkpt>
      <trkpt lat="46.21314" lon="4.41853">
        <ele>642</ele>
        <time>2012-04-11T12:37:03Z</time>
      </trkpt>
      <trkpt lat="46.21319" lon="4.41872">
        <ele>642</ele>
        <time>2012-04-11T12:37:06Z</time>
      </trkpt>
      <trkpt lat="46.21322" lon="4.41892">
        <ele>642</ele>
        <time>2012-04-11T12:37:10Z</time>
      </trkpt>
      <trkpt lat="46.21322" lon="4.41907">
        <ele>642</ele>
        <time>2012-04-11T12:37:14Z</time>
      </trkpt>
      <trkpt lat="46.2132" lon="4.4193">
        <ele>640</ele>
        <time>2012-04-11T12:37:20Z</time>
      </trkpt>
      <trkpt lat="46.21314" lon="4.41961">
        <ele>640</ele>
        <time>2012-04-11T12:37:26Z</time>
      </trkpt>
      <trkpt lat="46.21311" lon="4.41977">
        <ele>639</ele>
        <time>2012-04-11T12:37:31Z</time>
      </trkpt>
      <trkpt lat="46.21306" lon="4.41988">
        <ele>639</ele>
        <time>2012-04-11T12:37:37Z</time>
      </trkpt>
      <trkpt lat="46.21309" lon="4.41991">
        <ele>639</ele>
        <time>2012-04-11T12:37:44Z</time>
      </trkpt>
      <trkpt lat="46.21294" lon="4.41978">
        <ele>639</ele>
        <time>2012-04-11T12:39:17Z</time>
      </trkpt>
      <trkpt lat="46.21294" lon="4.41979">
        <ele>639</ele>
        <time>2012-04-11T12:39:19Z</time>
      </trkpt>
      <trkpt lat="46.21308" lon="4.41984">
        <ele>639</ele>
        <time>2012-04-11T12:39:52Z</time>
      </trkpt>
      <trkpt lat="46.21305" lon="4.41996">
        <ele>639</ele>
        <time>2012-04-11T12:39:55Z</time>
      </trkpt>
      <trkpt lat="46.21298" lon="4.42026">
        <ele>635</ele>
        <time>2012-04-11T12:40:00Z</time>
      </trkpt>
      <trkpt lat="46.21296" lon="4.42034">
        <ele>635</ele>
        <time>2012-04-11T12:40:01Z</time>
      </trkpt>
      <trkpt lat="46.21292" lon="4.42047">
        <ele>634</ele>
        <time>2012-04-11T12:40:03Z</time>
      </trkpt>
      <trkpt lat="46.21287" lon="4.42058">
        <ele>634</ele>
        <time>2012-04-11T12:40:05Z</time>
      </trkpt>
      <trkpt lat="46.21283" lon="4.4207">
        <ele>633</ele>
        <time>2012-04-11T12:40:07Z</time>
      </trkpt>
      <trkpt lat="46.21279" lon="4.4208">
        <ele>633</ele>
        <time>2012-04-11T12:40:09Z</time>
      </trkpt>
      <trkpt lat="46.21277" lon="4.42084">
        <ele>632</ele>
        <time>2012-04-11T12:40:10Z</time>
      </trkpt>
      <trkpt lat="46.21277" lon="4.42086">
        <ele>632</ele>
        <time>2012-04-11T12:40:11Z</time>
      </trkpt>
      <trkpt lat="46.21275" lon="4.4209">
        <ele>632</ele>
        <time>2012-04-11T12:40:14Z</time>
      </trkpt>
      <trkpt lat="46.21274" lon="4.42111">
        <ele>632</ele>
        <time>2012-04-11T12:40:33Z</time>
      </trkpt>
      <trkpt lat="46.21271" lon="4.42135">
        <ele>632</ele>
        <time>2012-04-11T12:40:38Z</time>
      </trkpt>
      <trkpt lat="46.2127" lon="4.42141">
        <ele>632</ele>
        <time>2012-04-11T12:40:39Z</time>
      </trkpt>
      <trkpt lat="46.21267" lon="4.42168">
        <ele>633</ele>
        <time>2012-04-11T12:40:44Z</time>
      </trkpt>
      <trkpt lat="46.21267" lon="4.42188">
        <ele>633</ele>
        <time>2012-04-11T12:40:47Z</time>
      </trkpt>
      <trkpt lat="46.21269" lon="4.422">
        <ele>634</ele>
        <time>2012-04-11T12:40:49Z</time>
      </trkpt>
      <trkpt lat="46.21273" lon="4.42215">
        <ele>634</ele>
        <time>2012-04-11T12:40:53Z</time>
      </trkpt>
      <trkpt lat="46.21278" lon="4.4222">
        <ele>634</ele>
        <time>2012-04-11T12:40:58Z</time>
      </trkpt>
      <trkpt lat="46.21283" lon="4.4222">
        <ele>634</ele>
        <time>2012-04-11T12:41:07Z</time>
      </trkpt>
      <trkpt lat="46.2129" lon="4.4222">
        <ele>635</ele>
        <time>2012-04-11T12:41:10Z</time>
      </trkpt>
      <trkpt lat="46.21293" lon="4.42221">
        <ele>635</ele>
        <time>2012-04-11T12:41:11Z</time>
      </trkpt>
      <trkpt lat="46.21308" lon="4.42219">
        <ele>635</ele>
        <time>2012-04-11T12:41:14Z</time>
      </trkpt>
      <trkpt lat="46.21317" lon="4.42217">
        <ele>635</ele>
        <time>2012-04-11T12:41:16Z</time>
      </trkpt>
      <trkpt lat="46.21328" lon="4.42216">
        <ele>635</ele>
        <time>2012-04-11T12:41:19Z</time>
      </trkpt>
      <trkpt lat="46.21332" lon="4.42216">
        <ele>635</ele>
        <time>2012-04-11T12:41:20Z</time>
      </trkpt>
      <trkpt lat="46.21347" lon="4.42218">
        <ele>634</ele>
        <time>2012-04-11T12:41:24Z</time>
      </trkpt>
      <trkpt lat="46.21363" lon="4.42224">
        <ele>634</ele>
        <time>2012-04-11T12:41:29Z</time>
      </trkpt>
      <trkpt lat="46.2137" lon="4.42227">
        <ele>634</ele>
        <time>2012-04-11T12:41:31Z</time>
      </trkpt>
      <trkpt lat="46.21385" lon="4.4223">
        <ele>633</ele>
        <time>2012-04-11T12:41:34Z</time>
      </trkpt>
      <trkpt lat="46.21394" lon="4.42235">
        <ele>633</ele>
        <time>2012-04-11T12:41:37Z</time>
      </trkpt>
      <trkpt lat="46.21402" lon="4.42243">
        <ele>633</ele>
        <time>2012-04-11T12:41:39Z</time>
      </trkpt>
      <trkpt lat="46.21405" lon="4.42248">
        <ele>632</ele>
        <time>2012-04-11T12:41:40Z</time>
      </trkpt>
      <trkpt lat="46.21416" lon="4.42258">
        <ele>632</ele>
        <time>2012-04-11T12:41:43Z</time>
      </trkpt>
      <trkpt lat="46.21431" lon="4.42281">
        <ele>625</ele>
        <time>2012-04-11T12:41:48Z</time>
      </trkpt>
      <trkpt lat="46.21435" lon="4.42285">
        <ele>624</ele>
        <time>2012-04-11T12:41:49Z</time>
      </trkpt>
      <trkpt lat="46.21439" lon="4.42287">
        <ele>624</ele>
        <time>2012-04-11T12:41:50Z</time>
      </trkpt>
      <trkpt lat="46.2145" lon="4.4229">
        <ele>622</ele>
        <time>2012-04-11T12:41:52Z</time>
      </trkpt>
      <trkpt lat="46.21472" lon="4.42296">
        <ele>620</ele>
        <time>2012-04-11T12:41:57Z</time>
      </trkpt>
      <trkpt lat="46.21476" lon="4.42298">
        <ele>620</ele>
        <time>2012-04-11T12:41:58Z</time>
      </trkpt>
      <trkpt lat="46.2149" lon="4.42302">
        <ele>618</ele>
        <time>2012-04-11T12:42:02Z</time>
      </trkpt>
      <trkpt lat="46.21508" lon="4.42305">
        <ele>609</ele>
        <time>2012-04-11T12:42:07Z</time>
      </trkpt>
      <trkpt lat="46.21517" lon="4.42312">
        <ele>609</ele>
        <time>2012-04-11T12:42:09Z</time>
      </trkpt>
      <trkpt lat="46.21529" lon="4.42316">
        <ele>608</ele>
        <time>2012-04-11T12:42:11Z</time>
      </trkpt>
      <trkpt lat="46.21535" lon="4.42318">
        <ele>608</ele>
        <time>2012-04-11T12:42:12Z</time>
      </trkpt>
      <trkpt lat="46.21547" lon="4.42324">
        <ele>607</ele>
        <time>2012-04-11T12:42:14Z</time>
      </trkpt>
      <trkpt lat="46.21557" lon="4.42332">
        <ele>606</ele>
        <time>2012-04-11T12:42:16Z</time>
      </trkpt>
      <trkpt lat="46.2158" lon="4.42354">
        <ele>601</ele>
        <time>2012-04-11T12:42:20Z</time>
      </trkpt>
      <trkpt lat="46.21585" lon="4.42357">
        <ele>595</ele>
        <time>2012-04-11T12:42:21Z</time>
      </trkpt>
      <trkpt lat="46.21601" lon="4.42365">
        <ele>593</ele>
        <time>2012-04-11T12:42:25Z</time>
      </trkpt>
      <trkpt lat="46.21601" lon="4.42377">
        <ele>592</ele>
        <time>2012-04-11T12:42:29Z</time>
      </trkpt>
      <trkpt lat="46.216" lon="4.42376">
        <ele>592</ele>
        <time>2012-04-11T12:42:48Z</time>
      </trkpt>
      <trkpt lat="46.21602" lon="4.42376">
        <ele>592</ele>
        <time>2012-04-11T12:42:49Z</time>
      </trkpt>
      <trkpt lat="46.21604" lon="4.42378">
        <ele>592</ele>
        <time>2012-04-11T12:42:52Z</time>
      </trkpt>
      <trkpt lat="46.21604" lon="4.42379">
        <ele>592</ele>
        <time>2012-04-11T12:42:53Z</time>
      </trkpt>
      <trkpt lat="46.21603" lon="4.42387">
        <ele>591</ele>
        <time>2012-04-11T12:42:58Z</time>
      </trkpt>
      <trkpt lat="46.216" lon="4.4241">
        <ele>591</ele>
        <time>2012-04-11T12:43:03Z</time>
      </trkpt>
      <trkpt lat="46.21598" lon="4.42429">
        <ele>589</ele>
        <time>2012-04-11T12:43:06Z</time>
      </trkpt>
      <trkpt lat="46.21597" lon="4.42442">
        <ele>588</ele>
        <time>2012-04-11T12:43:08Z</time>
      </trkpt>
      <trkpt lat="46.21594" lon="4.42453">
        <ele>588</ele>
        <time>2012-04-11T12:43:10Z</time>
      </trkpt>
      <trkpt lat="46.21592" lon="4.42466">
        <ele>587</ele>
        <time>2012-04-11T12:43:13Z</time>
      </trkpt>
      <trkpt lat="46.21585" lon="4.42478">
        <ele>587</ele>
        <time>2012-04-11T12:43:17Z</time>
      </trkpt>
      <trkpt lat="46.21577" lon="4.4249">
        <ele>588</ele>
        <time>2012-04-11T12:43:21Z</time>
      </trkpt>
      <trkpt lat="46.21575" lon="4.4249">
        <ele>589</ele>
        <time>2012-04-11T12:43:26Z</time>
      </trkpt>
      <trkpt lat="46.21581" lon="4.42488">
        <ele>588</ele>
        <time>2012-04-11T12:43:48Z</time>
      </trkpt>
      <trkpt lat="46.21583" lon="4.42485">
        <ele>589</ele>
        <time>2012-04-11T12:43:49Z</time>
      </trkpt>
      <trkpt lat="46.21588" lon="4.4247">
        <ele>587</ele>
        <time>2012-04-11T12:43:54Z</time>
      </trkpt>
      <trkpt lat="46.21593" lon="4.42459">
        <ele>587</ele>
        <time>2012-04-11T12:43:59Z</time>
      </trkpt>
      <trkpt lat="46.21598" lon="4.42443">
        <ele>588</ele>
        <time>2012-04-11T12:44:04Z</time>
      </trkpt>
      <trkpt lat="46.21599" lon="4.4244">
        <ele>588</ele>
        <time>2012-04-11T12:44:05Z</time>
      </trkpt>
      <trkpt lat="46.21602" lon="4.42438">
        <ele>588</ele>
        <time>2012-04-11T12:44:09Z</time>
      </trkpt>
      <trkpt lat="46.21607" lon="4.42449">
        <ele>587</ele>
        <time>2012-04-11T12:44:28Z</time>
      </trkpt>
      <trkpt lat="46.21609" lon="4.42452">
        <ele>587</ele>
        <time>2012-04-11T12:44:29Z</time>
      </trkpt>
      <trkpt lat="46.21622" lon="4.42469">
        <ele>587</ele>
        <time>2012-04-11T12:44:33Z</time>
      </trkpt>
      <trkpt lat="46.21636" lon="4.42487">
        <ele>586</ele>
        <time>2012-04-11T12:44:37Z</time>
      </trkpt>
      <trkpt lat="46.21644" lon="4.42495">
        <ele>586</ele>
        <time>2012-04-11T12:44:39Z</time>
      </trkpt>
      <trkpt lat="46.21656" lon="4.42514">
        <ele>584</ele>
        <time>2012-04-11T12:44:42Z</time>
      </trkpt>
      <trkpt lat="46.21661" lon="4.42528">
        <ele>584</ele>
        <time>2012-04-11T12:44:44Z</time>
      </trkpt>
      <trkpt lat="46.21671" lon="4.42547">
        <ele>577</ele>
        <time>2012-04-11T12:44:47Z</time>
      </trkpt>
      <trkpt lat="46.21675" lon="4.42552">
        <ele>577</ele>
        <time>2012-04-11T12:44:48Z</time>
      </trkpt>
      <trkpt lat="46.21688" lon="4.42567">
        <ele>577</ele>
        <time>2012-04-11T12:44:51Z</time>
      </trkpt>
      <trkpt lat="46.21695" lon="4.42576">
        <ele>576</ele>
        <time>2012-04-11T12:44:53Z</time>
      </trkpt>
      <trkpt lat="46.21705" lon="4.42583">
        <ele>575</ele>
        <time>2012-04-11T12:44:56Z</time>
      </trkpt>
      <trkpt lat="46.21724" lon="4.42587">
        <ele>571</ele>
        <time>2012-04-11T12:45:00Z</time>
      </trkpt>
      <trkpt lat="46.21729" lon="4.42587">
        <ele>570</ele>
        <time>2012-04-11T12:45:01Z</time>
      </trkpt>
      <trkpt lat="46.21743" lon="4.42589">
        <ele>568</ele>
        <time>2012-04-11T12:45:03Z</time>
      </trkpt>
      <trkpt lat="46.21759" lon="4.42589">
        <ele>565</ele>
        <time>2012-04-11T12:45:05Z</time>
      </trkpt>
      <trkpt lat="46.21763" lon="4.4259">
        <ele>565</ele>
        <time>2012-04-11T12:45:06Z</time>
      </trkpt>
      <trkpt lat="46.21769" lon="4.42591">
        <ele>564</ele>
        <time>2012-04-11T12:45:08Z</time>
      </trkpt>
      <trkpt lat="46.21777" lon="4.42587">
        <ele>564</ele>
        <time>2012-04-11T12:45:12Z</time>
      </trkpt>
      <trkpt lat="46.21773" lon="4.42573">
        <ele>562</ele>
        <time>2012-04-11T12:45:17Z</time>
      </trkpt>
      <trkpt lat="46.21771" lon="4.42569">
        <ele>562</ele>
        <time>2012-04-11T12:45:18Z</time>
      </trkpt>
      <trkpt lat="46.2177" lon="4.42559">
        <ele>561</ele>
        <time>2012-04-11T12:45:22Z</time>
      </trkpt>
      <trkpt lat="46.21771" lon="4.42557">
        <ele>561</ele>
        <time>2012-04-11T12:45:23Z</time>
      </trkpt>
      <trkpt lat="46.2177" lon="4.42538">
        <ele>561</ele>
        <time>2012-04-11T12:45:30Z</time>
      </trkpt>
      <trkpt lat="46.21766" lon="4.42517">
        <ele>561</ele>
        <time>2012-04-11T12:45:34Z</time>
      </trkpt>
      <trkpt lat="46.21766" lon="4.42511">
        <ele>561</ele>
        <time>2012-04-11T12:45:38Z</time>
      </trkpt>
      <trkpt lat="46.21769" lon="4.42503">
        <ele>561</ele>
        <time>2012-04-11T12:45:43Z</time>
      </trkpt>
      <trkpt lat="46.21769" lon="4.42499">
        <ele>558</ele>
        <time>2012-04-11T12:45:44Z</time>
      </trkpt>
      <trkpt lat="46.21765" lon="4.42481">
        <ele>557</ele>
        <time>2012-04-11T12:45:47Z</time>
      </trkpt>
      <trkpt lat="46.21761" lon="4.42472">
        <ele>557</ele>
        <time>2012-04-11T12:45:48Z</time>
      </trkpt>
      <trkpt lat="46.21755" lon="4.42453">
        <ele>556</ele>
        <time>2012-04-11T12:45:50Z</time>
      </trkpt>
      <trkpt lat="46.21754" lon="4.42443">
        <ele>556</ele>
        <time>2012-04-11T12:45:51Z</time>
      </trkpt>
      <trkpt lat="46.21752" lon="4.42431">
        <ele>558</ele>
        <time>2012-04-11T12:45:52Z</time>
      </trkpt>
      <trkpt lat="46.21748" lon="4.42393">
        <ele>569</ele>
        <time>2012-04-11T12:45:55Z</time>
      </trkpt>
      <trkpt lat="46.21752" lon="4.42383">
        <ele>556</ele>
        <time>2012-04-11T12:45:56Z</time>
      </trkpt>
      <trkpt lat="46.21757" lon="4.4236">
        <ele>558</ele>
        <time>2012-04-11T12:45:59Z</time>
      </trkpt>
      <trkpt lat="46.21765" lon="4.42333">
        <ele>561</ele>
        <time>2012-04-11T12:46:04Z</time>
      </trkpt>
      <trkpt lat="46.21769" lon="4.42315">
        <ele>558</ele>
        <time>2012-04-11T12:46:09Z</time>
      </trkpt>
      <trkpt lat="46.21772" lon="4.42313">
        <ele>557</ele>
        <time>2012-04-11T12:46:13Z</time>
      </trkpt>
      <trkpt lat="46.21772" lon="4.42302">
        <ele>556</ele>
        <time>2012-04-11T12:46:21Z</time>
      </trkpt>
      <trkpt lat="46.21773" lon="4.42286">
        <ele>556</ele>
        <time>2012-04-11T12:46:24Z</time>
      </trkpt>
      <trkpt lat="46.21774" lon="4.42279">
        <ele>555</ele>
        <time>2012-04-11T12:46:25Z</time>
      </trkpt>
      <trkpt lat="46.21781" lon="4.42257">
        <ele>555</ele>
        <time>2012-04-11T12:46:28Z</time>
      </trkpt>
      <trkpt lat="46.21785" lon="4.42249">
        <ele>552</ele>
        <time>2012-04-11T12:46:29Z</time>
      </trkpt>
      <trkpt lat="46.21794" lon="4.42232">
        <ele>550</ele>
        <time>2012-04-11T12:46:31Z</time>
      </trkpt>
      <trkpt lat="46.21803" lon="4.42219">
        <ele>549</ele>
        <time>2012-04-11T12:46:33Z</time>
      </trkpt>
      <trkpt lat="46.21804" lon="4.42212">
        <ele>549</ele>
        <time>2012-04-11T12:46:34Z</time>
      </trkpt>
      <trkpt lat="46.21806" lon="4.42198">
        <ele>549</ele>
        <time>2012-04-11T12:46:36Z</time>
      </trkpt>
      <trkpt lat="46.21811" lon="4.42184">
        <ele>547</ele>
        <time>2012-04-11T12:46:39Z</time>
      </trkpt>
      <trkpt lat="46.21813" lon="4.42184">
        <ele>547</ele>
        <time>2012-04-11T12:46:40Z</time>
      </trkpt>
      <trkpt lat="46.21815" lon="4.42183">
        <ele>547</ele>
        <time>2012-04-11T12:46:49Z</time>
      </trkpt>
      <trkpt lat="46.21808" lon="4.42173">
        <ele>547</ele>
        <time>2012-04-11T12:47:06Z</time>
      </trkpt>
      <trkpt lat="46.2181" lon="4.42171">
        <ele>547</ele>
        <time>2012-04-11T12:47:08Z</time>
      </trkpt>
      <trkpt lat="46.21802" lon="4.4217">
        <ele>548</ele>
        <time>2012-04-11T12:47:13Z</time>
      </trkpt>
      <trkpt lat="46.218" lon="4.42181">
        <ele>549</ele>
        <time>2012-04-11T12:47:18Z</time>
      </trkpt>
      <trkpt lat="46.21797" lon="4.42197">
        <ele>550</ele>
        <time>2012-04-11T12:47:24Z</time>
      </trkpt>
      <trkpt lat="46.21796" lon="4.422">
        <ele>550</ele>
        <time>2012-04-11T12:47:25Z</time>
      </trkpt>
      <trkpt lat="46.21795" lon="4.42214">
        <ele>550</ele>
        <time>2012-04-11T12:47:30Z</time>
      </trkpt>
      <trkpt lat="46.21792" lon="4.42233">
        <ele>551</ele>
        <time>2012-04-11T12:47:36Z</time>
      </trkpt>
      <trkpt lat="46.21788" lon="4.42249">
        <ele>552</ele>
        <time>2012-04-11T12:47:42Z</time>
      </trkpt>
      <trkpt lat="46.21783" lon="4.42265">
        <ele>554</ele>
        <time>2012-04-11T12:47:49Z</time>
      </trkpt>
      <trkpt lat="46.21779" lon="4.42282">
        <ele>555</ele>
        <time>2012-04-11T12:47:56Z</time>
      </trkpt>
      <trkpt lat="46.21777" lon="4.423">
        <ele>555</ele>
        <time>2012-04-11T12:48:03Z</time>
      </trkpt>
      <trkpt lat="46.21776" lon="4.42302">
        <ele>556</ele>
        <time>2012-04-11T12:48:04Z</time>
      </trkpt>
      <trkpt lat="46.21774" lon="4.42311">
        <ele>556</ele>
        <time>2012-04-11T12:48:09Z</time>
      </trkpt>
      <trkpt lat="46.21773" lon="4.42313">
        <ele>557</ele>
        <time>2012-04-11T12:48:26Z</time>
      </trkpt>
      <trkpt lat="46.21772" lon="4.42311">
        <ele>557</ele>
        <time>2012-04-11T12:48:32Z</time>
      </trkpt>
      <trkpt lat="46.21771" lon="4.4231">
        <ele>557</ele>
        <time>2012-04-11T12:48:35Z</time>
      </trkpt>
      <trkpt lat="46.21773" lon="4.4231">
        <ele>557</ele>
        <time>2012-04-11T12:49:24Z</time>
      </trkpt>
      <trkpt lat="46.21773" lon="4.4231">
        <ele>557</ele>
        <time>2012-04-11T12:49:34Z</time>
      </trkpt>
      <trkpt lat="46.21773" lon="4.4231">
        <ele>557</ele>
        <time>2012-04-11T12:50:56Z</time>
      </trkpt>
      <trkpt lat="46.21772" lon="4.42314">
        <ele>557</ele>
        <time>2012-04-11T12:50:58Z</time>
      </trkpt>
      <trkpt lat="46.21768" lon="4.42331">
        <ele>560</ele>
        <time>2012-04-11T12:51:03Z</time>
      </trkpt>
      <trkpt lat="46.21762" lon="4.42358">
        <ele>558</ele>
        <time>2012-04-11T12:51:09Z</time>
      </trkpt>
      <trkpt lat="46.21757" lon="4.42369">
        <ele>557</ele>
        <time>2012-04-11T12:51:11Z</time>
      </trkpt>
      <trkpt lat="46.21752" lon="4.42383">
        <ele>556</ele>
        <time>2012-04-11T12:51:13Z</time>
      </trkpt>
      <trkpt lat="46.21748" lon="4.42408">
        <ele>565</ele>
        <time>2012-04-11T12:51:17Z</time>
      </trkpt>
      <trkpt lat="46.21748" lon="4.42439">
        <ele>568</ele>
        <time>2012-04-11T12:51:21Z</time>
      </trkpt>
      <trkpt lat="46.21749" lon="4.42446">
        <ele>569</ele>
        <time>2012-04-11T12:51:22Z</time>
      </trkpt>
      <trkpt lat="46.21751" lon="4.42465">
        <ele>557</ele>
        <time>2012-04-11T12:51:25Z</time>
      </trkpt>
      <trkpt lat="46.21755" lon="4.4248">
        <ele>558</ele>
        <time>2012-04-11T12:51:28Z</time>
      </trkpt>
      <trkpt lat="46.21759" lon="4.42489">
        <ele>560</ele>
        <time>2012-04-11T12:51:30Z</time>
      </trkpt>
      <trkpt lat="46.21765" lon="4.42505">
        <ele>562</ele>
        <time>2012-04-11T12:51:34Z</time>
      </trkpt>
      <trkpt lat="46.21767" lon="4.4252">
        <ele>561</ele>
        <time>2012-04-11T12:51:38Z</time>
      </trkpt>
      <trkpt lat="46.21767" lon="4.42541">
        <ele>561</ele>
        <time>2012-04-11T12:51:43Z</time>
      </trkpt>
      <trkpt lat="46.21768" lon="4.4255">
        <ele>561</ele>
        <time>2012-04-11T12:51:45Z</time>
      </trkpt>
      <trkpt lat="46.21766" lon="4.42568">
        <ele>562</ele>
        <time>2012-04-11T12:51:50Z</time>
      </trkpt>
      <trkpt lat="46.21766" lon="4.42584">
        <ele>565</ele>
        <time>2012-04-11T12:51:55Z</time>
      </trkpt>
      <trkpt lat="46.21767" lon="4.42594">
        <ele>564</ele>
        <time>2012-04-11T12:51:58Z</time>
      </trkpt>
      <trkpt lat="46.21767" lon="4.42602">
        <ele>564</ele>
        <time>2012-04-11T12:52:00Z</time>
      </trkpt>
      <trkpt lat="46.21759" lon="4.42613">
        <ele>564</ele>
        <time>2012-04-11T12:52:04Z</time>
      </trkpt>
      <trkpt lat="46.2176" lon="4.42615">
        <ele>564</ele>
        <time>2012-04-11T12:52:05Z</time>
      </trkpt>
      <trkpt lat="46.21764" lon="4.42624">
        <ele>563</ele>
        <time>2012-04-11T12:52:24Z</time>
      </trkpt>
      <trkpt lat="46.2176" lon="4.42626">
        <ele>563</ele>
        <time>2012-04-11T12:52:26Z</time>
      </trkpt>
      <trkpt lat="46.21749" lon="4.42637">
        <ele>569</ele>
        <time>2012-04-11T12:52:31Z</time>
      </trkpt>
      <trkpt lat="46.21737" lon="4.42653">
        <ele>568</ele>
        <time>2012-04-11T12:52:36Z</time>
      </trkpt>
      <trkpt lat="46.2172" lon="4.42676">
        <ele>563</ele>
        <time>2012-04-11T12:52:41Z</time>
      </trkpt>
      <trkpt lat="46.21716" lon="4.42681">
        <ele>563</ele>
        <time>2012-04-11T12:52:42Z</time>
      </trkpt>
      <trkpt lat="46.21707" lon="4.42692">
        <ele>562</ele>
        <time>2012-04-11T12:52:44Z</time>
      </trkpt>
      <trkpt lat="46.21699" lon="4.42699">
        <ele>562</ele>
        <time>2012-04-11T12:52:46Z</time>
      </trkpt>
      <trkpt lat="46.2169" lon="4.42709">
        <ele>561</ele>
        <time>2012-04-11T12:52:48Z</time>
      </trkpt>
      <trkpt lat="46.21685" lon="4.42714">
        <ele>561</ele>
        <time>2012-04-11T12:52:49Z</time>
      </trkpt>
      <trkpt lat="46.21681" lon="4.42718">
        <ele>560</ele>
        <time>2012-04-11T12:52:50Z</time>
      </trkpt>
      <trkpt lat="46.21664" lon="4.4273">
        <ele>560</ele>
        <time>2012-04-11T12:52:53Z</time>
      </trkpt>
      <trkpt lat="46.21657" lon="4.42735">
        <ele>560</ele>
        <time>2012-04-11T12:52:54Z</time>
      </trkpt>
      <trkpt lat="46.21632" lon="4.42745">
        <ele>561</ele>
        <time>2012-04-11T12:52:58Z</time>
      </trkpt>
      <trkpt lat="46.21618" lon="4.42741">
        <ele>562</ele>
        <time>2012-04-11T12:53:01Z</time>
      </trkpt>
      <trkpt lat="46.21615" lon="4.42738">
        <ele>562</ele>
        <time>2012-04-11T12:53:02Z</time>
      </trkpt>
      <trkpt lat="46.21613" lon="4.42734">
        <ele>562</ele>
        <time>2012-04-11T12:53:03Z</time>
      </trkpt>
      <trkpt lat="46.21601" lon="4.42719">
        <ele>563</ele>
        <time>2012-04-11T12:53:07Z</time>
      </trkpt>
      <trkpt lat="46.21597" lon="4.42718">
        <ele>563</ele>
        <time>2012-04-11T12:53:10Z</time>
      </trkpt>
      <trkpt lat="46.21596" lon="4.42717">
        <ele>563</ele>
        <time>2012-04-11T12:53:11Z</time>
      </trkpt>
      <trkpt lat="46.2159" lon="4.42714">
        <ele>564</ele>
        <time>2012-04-11T12:53:17Z</time>
      </trkpt>
      <trkpt lat="46.21587" lon="4.42715">
        <ele>563</ele>
        <time>2012-04-11T12:53:23Z</time>
      </trkpt>
      <trkpt lat="46.21584" lon="4.42715">
        <ele>563</ele>
        <time>2012-04-11T12:53:26Z</time>
      </trkpt>
      <trkpt lat="46.21582" lon="4.42714">
        <ele>566</ele>
        <time>2012-04-11T12:53:27Z</time>
      </trkpt>
      <trkpt lat="46.21575" lon="4.42717">
        <ele>566</ele>
        <time>2012-04-11T12:53:33Z</time>
      </trkpt>
      <trkpt lat="46.21577" lon="4.42709">
        <ele>567</ele>
        <time>2012-04-11T12:53:44Z</time>
      </trkpt>
      <trkpt lat="46.21573" lon="4.42701">
        <ele>568</ele>
        <time>2012-04-11T12:54:08Z</time>
      </trkpt>
      <trkpt lat="46.21572" lon="4.42701">
        <ele>568</ele>
        <time>2012-04-11T12:54:09Z</time>
      </trkpt>
      <trkpt lat="46.2157" lon="4.42704">
        <ele>567</ele>
        <time>2012-04-11T12:54:13Z</time>
      </trkpt>
      <trkpt lat="46.21568" lon="4.42704">
        <ele>567</ele>
        <time>2012-04-11T12:54:33Z</time>
      </trkpt>
      <trkpt lat="46.21563" lon="4.42696">
        <ele>568</ele>
        <time>2012-04-11T12:54:48Z</time>
      </trkpt>
      <trkpt lat="46.21561" lon="4.42694">
        <ele>568</ele>
        <time>2012-04-11T12:54:49Z</time>
      </trkpt>
      <trkpt lat="46.21552" lon="4.42695">
        <ele>569</ele>
        <time>2012-04-11T12:54:52Z</time>
      </trkpt>
      <trkpt lat="46.21547" lon="4.427">
        <ele>568</ele>
        <time>2012-04-11T12:54:54Z</time>
      </trkpt>
      <trkpt lat="46.21546" lon="4.42705">
        <ele>568</ele>
        <time>2012-04-11T12:54:55Z</time>
      </trkpt>
      <trkpt lat="46.21539" lon="4.42731">
        <ele>567</ele>
        <time>2012-04-11T12:55:00Z</time>
      </trkpt>
      <trkpt lat="46.21533" lon="4.42752">
        <ele>561</ele>
        <time>2012-04-11T12:55:04Z</time>
      </trkpt>
      <trkpt lat="46.21525" lon="4.42774">
        <ele>561</ele>
        <time>2012-04-11T12:55:10Z</time>
      </trkpt>
      <trkpt lat="46.21521" lon="4.4278">
        <ele>561</ele>
        <time>2012-04-11T12:55:12Z</time>
      </trkpt>
      <trkpt lat="46.2151" lon="4.42793">
        <ele>561</ele>
        <time>2012-04-11T12:55:17Z</time>
      </trkpt>
      <trkpt lat="46.21498" lon="4.42809">
        <ele>567</ele>
        <time>2012-04-11T12:55:23Z</time>
      </trkpt>
      <trkpt lat="46.21493" lon="4.42814">
        <ele>567</ele>
        <time>2012-04-11T12:55:25Z</time>
      </trkpt>
      <trkpt lat="46.21483" lon="4.42825">
        <ele>566</ele>
        <time>2012-04-11T12:55:29Z</time>
      </trkpt>
      <trkpt lat="46.21467" lon="4.42845">
        <ele>559</ele>
        <time>2012-04-11T12:55:35Z</time>
      </trkpt>
      <trkpt lat="46.21465" lon="4.42848">
        <ele>559</ele>
        <time>2012-04-11T12:55:36Z</time>
      </trkpt>
      <trkpt lat="46.21458" lon="4.4286">
        <ele>558</ele>
        <time>2012-04-11T12:55:39Z</time>
      </trkpt>
      <trkpt lat="46.21442" lon="4.4288">
        <ele>556</ele>
        <time>2012-04-11T12:55:45Z</time>
      </trkpt>
      <trkpt lat="46.21439" lon="4.42883">
        <ele>556</ele>
        <time>2012-04-11T12:55:46Z</time>
      </trkpt>
      <trkpt lat="46.21431" lon="4.4289">
        <ele>554</ele>
        <time>2012-04-11T12:55:50Z</time>
      </trkpt>
      <trkpt lat="46.21416" lon="4.42897">
        <ele>551</ele>
        <time>2012-04-11T12:55:54Z</time>
      </trkpt>
      <trkpt lat="46.21411" lon="4.42898">
        <ele>551</ele>
        <time>2012-04-11T12:55:55Z</time>
      </trkpt>
      <trkpt lat="46.21404" lon="4.42902">
        <ele>551</ele>
        <time>2012-04-11T12:55:57Z</time>
      </trkpt>
      <trkpt lat="46.21396" lon="4.42905">
        <ele>551</ele>
        <time>2012-04-11T12:55:59Z</time>
      </trkpt>
      <trkpt lat="46.21388" lon="4.42906">
        <ele>551</ele>
        <time>2012-04-11T12:56:02Z</time>
      </trkpt>
      <trkpt lat="46.21387" lon="4.42905">
        <ele>551</ele>
        <time>2012-04-11T12:56:09Z</time>
      </trkpt>
      <trkpt lat="46.21385" lon="4.42904">
        <ele>551</ele>
        <time>2012-04-11T12:56:10Z</time>
      </trkpt>
      <trkpt lat="46.21374" lon="4.42904">
        <ele>551</ele>
        <time>2012-04-11T12:56:13Z</time>
      </trkpt>
      <trkpt lat="46.2137" lon="4.42903">
        <ele>550</ele>
        <time>2012-04-11T12:56:14Z</time>
      </trkpt>
      <trkpt lat="46.21365" lon="4.42902">
        <ele>550</ele>
        <time>2012-04-11T12:56:15Z</time>
      </trkpt>
      <trkpt lat="46.21347" lon="4.42897">
        <ele>549</ele>
        <time>2012-04-11T12:56:19Z</time>
      </trkpt>
      <trkpt lat="46.21334" lon="4.42893">
        <ele>549</ele>
        <time>2012-04-11T12:56:22Z</time>
      </trkpt>
      <trkpt lat="46.21323" lon="4.42888">
        <ele>549</ele>
        <time>2012-04-11T12:56:25Z</time>
      </trkpt>
      <trkpt lat="46.2131" lon="4.42892">
        <ele>549</ele>
        <time>2012-04-11T12:56:29Z</time>
      </trkpt>
      <trkpt lat="46.21302" lon="4.42901">
        <ele>549</ele>
        <time>2012-04-11T12:56:33Z</time>
      </trkpt>
      <trkpt lat="46.21301" lon="4.429">
        <ele>549</ele>
        <time>2012-04-11T12:56:37Z</time>
      </trkpt>
      <trkpt lat="46.213" lon="4.42901">
        <ele>549</ele>
        <time>2012-04-11T12:56:38Z</time>
      </trkpt>
      <trkpt lat="46.2129" lon="4.42909">
        <ele>549</ele>
        <time>2012-04-11T12:56:56Z</time>
      </trkpt>
      <trkpt lat="46.21289" lon="4.4291">
        <ele>549</ele>
        <time>2012-04-11T12:56:57Z</time>
      </trkpt>
      <trkpt lat="46.21282" lon="4.42915">
        <ele>548</ele>
        <time>2012-04-11T12:57:01Z</time>
      </trkpt>
      <trkpt lat="46.2128" lon="4.42918">
        <ele>541</ele>
        <time>2012-04-11T12:57:02Z</time>
      </trkpt>
      <trkpt lat="46.21277" lon="4.4292">
        <ele>541</ele>
        <time>2012-04-11T12:57:07Z</time>
      </trkpt>
      <trkpt lat="46.21276" lon="4.42927">
        <ele>541</ele>
        <time>2012-04-11T12:57:48Z</time>
      </trkpt>
      <trkpt lat="46.21275" lon="4.42931">
        <ele>541</ele>
        <time>2012-04-11T12:57:50Z</time>
      </trkpt>
      <trkpt lat="46.21276" lon="4.42931">
        <ele>541</ele>
        <time>2012-04-11T12:57:56Z</time>
      </trkpt>
      <trkpt lat="46.21275" lon="4.4293">
        <ele>541</ele>
        <time>2012-04-11T12:58:02Z</time>
      </trkpt>
      <trkpt lat="46.21275" lon="4.42932">
        <ele>541</ele>
        <time>2012-04-11T12:58:04Z</time>
      </trkpt>
      <trkpt lat="46.21277" lon="4.42939">
        <ele>541</ele>
        <time>2012-04-11T12:58:10Z</time>
      </trkpt>
      <trkpt lat="46.21276" lon="4.42937">
        <ele>541</ele>
        <time>2012-04-11T12:58:18Z</time>
      </trkpt>
      <trkpt lat="46.2128" lon="4.42935">
        <ele>541</ele>
        <time>2012-04-11T12:58:23Z</time>
      </trkpt>
      <trkpt lat="46.2128" lon="4.4294">
        <ele>541</ele>
        <time>2012-04-11T12:58:28Z</time>
      </trkpt>
      <trkpt lat="46.21277" lon="4.4294">
        <ele>541</ele>
        <time>2012-04-11T12:58:30Z</time>
      </trkpt>
      <trkpt lat="46.21275" lon="4.42937">
        <ele>541</ele>
        <time>2012-04-11T12:58:34Z</time>
      </trkpt>
      <trkpt lat="46.21277" lon="4.42937">
        <ele>541</ele>
        <time>2012-04-11T12:58:42Z</time>
      </trkpt>
      <trkpt lat="46.21277" lon="4.42944">
        <ele>541</ele>
        <time>2012-04-11T12:58:49Z</time>
      </trkpt>
      <trkpt lat="46.21276" lon="4.42945">
        <ele>541</ele>
        <time>2012-04-11T12:59:02Z</time>
      </trkpt>
      <trkpt lat="46.21275" lon="4.42945">
        <ele>541</ele>
        <time>2012-04-11T12:59:27Z</time>
      </trkpt>
      <trkpt lat="46.21274" lon="4.42948">
        <ele>541</ele>
        <time>2012-04-11T12:59:30Z</time>
      </trkpt>
      <trkpt lat="46.21267" lon="4.42965">
        <ele>540</ele>
        <time>2012-04-11T12:59:36Z</time>
      </trkpt>
      <trkpt lat="46.21258" lon="4.42984">
        <ele>541</ele>
        <time>2012-04-11T12:59:41Z</time>
      </trkpt>
      <trkpt lat="46.21244" lon="4.43008">
        <ele>543</ele>
        <time>2012-04-11T12:59:49Z</time>
      </trkpt>
      <trkpt lat="46.21231" lon="4.43023">
        <ele>544</ele>
        <time>2012-04-11T12:59:55Z</time>
      </trkpt>
      <trkpt lat="46.21221" lon="4.43036">
        <ele>545</ele>
        <time>2012-04-11T13:00:03Z</time>
      </trkpt>
      <trkpt lat="46.21219" lon="4.43037">
        <ele>545</ele>
        <time>2012-04-11T13:00:19Z</time>
      </trkpt>
      <trkpt lat="46.21223" lon="4.43042">
        <ele>544</ele>
        <time>2012-04-11T13:00:21Z</time>
      </trkpt>
      <trkpt lat="46.21238" lon="4.43056">
        <ele>542</ele>
        <time>2012-04-11T13:00:24Z</time>
      </trkpt>
      <trkpt lat="46.21244" lon="4.43063">
        <ele>541</ele>
        <time>2012-04-11T13:00:25Z</time>
      </trkpt>
      <trkpt lat="46.21258" lon="4.43082">
        <ele>535</ele>
        <time>2012-04-11T13:00:27Z</time>
      </trkpt>
      <trkpt lat="46.21266" lon="4.43094">
        <ele>531</ele>
        <time>2012-04-11T13:00:28Z</time>
      </trkpt>
      <trkpt lat="46.21289" lon="4.43135">
        <ele>527</ele>
        <time>2012-04-11T13:00:31Z</time>
      </trkpt>
      <trkpt lat="46.21313" lon="4.43194">
        <ele>520</ele>
        <time>2012-04-11T13:00:35Z</time>
      </trkpt>
      <trkpt lat="46.2132" lon="4.43221">
        <ele>519</ele>
        <time>2012-04-11T13:00:37Z</time>
      </trkpt>
      <trkpt lat="46.21322" lon="4.43235">
        <ele>517</ele>
        <time>2012-04-11T13:00:38Z</time>
      </trkpt>
      <trkpt lat="46.21323" lon="4.43248">
        <ele>516</ele>
        <time>2012-04-11T13:00:39Z</time>
      </trkpt>
      <trkpt lat="46.21323" lon="4.43271">
        <ele>515</ele>
        <time>2012-04-11T13:00:41Z</time>
      </trkpt>
      <trkpt lat="46.21322" lon="4.43296">
        <ele>515</ele>
        <time>2012-04-11T13:00:44Z</time>
      </trkpt>
      <trkpt lat="46.21321" lon="4.43306">
        <ele>515</ele>
        <time>2012-04-11T13:00:46Z</time>
      </trkpt>
      <trkpt lat="46.21321" lon="4.4331">
        <ele>514</ele>
        <time>2012-04-11T13:00:48Z</time>
      </trkpt>
      <trkpt lat="46.2132" lon="4.4331">
        <ele>514</ele>
        <time>2012-04-11T13:00:55Z</time>
      </trkpt>
      <trkpt lat="46.21319" lon="4.43316">
        <ele>514</ele>
        <time>2012-04-11T13:01:36Z</time>
      </trkpt>
      <trkpt lat="46.21322" lon="4.43321">
        <ele>514</ele>
        <time>2012-04-11T13:01:38Z</time>
      </trkpt>
      <trkpt lat="46.21335" lon="4.4333">
        <ele>512</ele>
        <time>2012-04-11T13:01:42Z</time>
      </trkpt>
      <trkpt lat="46.21339" lon="4.43331">
        <ele>512</ele>
        <time>2012-04-11T13:01:43Z</time>
      </trkpt>
      <trkpt lat="46.21344" lon="4.43332">
        <ele>512</ele>
        <time>2012-04-11T13:01:44Z</time>
      </trkpt>
      <trkpt lat="46.21358" lon="4.43334">
        <ele>514</ele>
        <time>2012-04-11T13:01:47Z</time>
      </trkpt>
      <trkpt lat="46.21368" lon="4.43333">
        <ele>514</ele>
        <time>2012-04-11T13:01:49Z</time>
      </trkpt>
      <trkpt lat="46.21383" lon="4.43334">
        <ele>515</ele>
        <time>2012-04-11T13:01:52Z</time>
      </trkpt>
      <trkpt lat="46.21395" lon="4.43336">
        <ele>515</ele>
        <time>2012-04-11T13:01:54Z</time>
      </trkpt>
      <trkpt lat="46.21416" lon="4.43343">
        <ele>515</ele>
        <time>2012-04-11T13:01:58Z</time>
      </trkpt>
      <trkpt lat="46.21421" lon="4.43342">
        <ele>518</ele>
        <time>2012-04-11T13:01:59Z</time>
      </trkpt>
      <trkpt lat="46.21425" lon="4.43341">
        <ele>518</ele>
        <time>2012-04-11T13:02:00Z</time>
      </trkpt>
      <trkpt lat="46.21432" lon="4.43339">
        <ele>519</ele>
        <time>2012-04-11T13:02:02Z</time>
      </trkpt>
      <trkpt lat="46.2145" lon="4.43333">
        <ele>518</ele>
        <time>2012-04-11T13:02:08Z</time>
      </trkpt>
      <trkpt lat="46.21458" lon="4.4333">
        <ele>518</ele>
        <time>2012-04-11T13:02:11Z</time>
      </trkpt>
      <trkpt lat="46.2147" lon="4.43326">
        <ele>520</ele>
        <time>2012-04-11T13:02:15Z</time>
      </trkpt>
      <trkpt lat="46.21483" lon="4.43322">
        <ele>521</ele>
        <time>2012-04-11T13:02:21Z</time>
      </trkpt>
      <trkpt lat="46.21492" lon="4.43321">
        <ele>522</ele>
        <time>2012-04-11T13:02:26Z</time>
      </trkpt>
      <trkpt lat="46.21495" lon="4.43321">
        <ele>522</ele>
        <time>2012-04-11T13:02:28Z</time>
      </trkpt>
      <trkpt lat="46.21501" lon="4.43322">
        <ele>526</ele>
        <time>2012-04-11T13:02:32Z</time>
      </trkpt>
      <trkpt lat="46.21504" lon="4.4332">
        <ele>526</ele>
        <time>2012-04-11T13:02:35Z</time>
      </trkpt>
      <trkpt lat="46.21508" lon="4.4332">
        <ele>526</ele>
        <time>2012-04-11T13:02:38Z</time>
      </trkpt>
      <trkpt lat="46.2151" lon="4.43321">
        <ele>526</ele>
        <time>2012-04-11T13:02:39Z</time>
      </trkpt>
      <trkpt lat="46.21515" lon="4.43323">
        <ele>527</ele>
        <time>2012-04-11T13:02:43Z</time>
      </trkpt>
      <trkpt lat="46.21517" lon="4.43322">
        <ele>527</ele>
        <time>2012-04-11T13:02:44Z</time>
      </trkpt>
      <trkpt lat="46.21524" lon="4.43326">
        <ele>527</ele>
        <time>2012-04-11T13:02:49Z</time>
      </trkpt>
      <trkpt lat="46.2153" lon="4.43326">
        <ele>527</ele>
        <time>2012-04-11T13:02:52Z</time>
      </trkpt>
      <trkpt lat="46.21539" lon="4.43326">
        <ele>528</ele>
        <time>2012-04-11T13:02:56Z</time>
      </trkpt>
      <trkpt lat="46.21553" lon="4.4333">
        <ele>529</ele>
        <time>2012-04-11T13:03:04Z</time>
      </trkpt>
      <trkpt lat="46.21562" lon="4.43333">
        <ele>533</ele>
        <time>2012-04-11T13:03:11Z</time>
      </trkpt>
      <trkpt lat="46.21565" lon="4.43333">
        <ele>531</ele>
        <time>2012-04-11T13:03:13Z</time>
      </trkpt>
      <trkpt lat="46.21572" lon="4.43334">
        <ele>534</ele>
        <time>2012-04-11T13:03:17Z</time>
      </trkpt>
      <trkpt lat="46.21586" lon="4.43332">
        <ele>535</ele>
        <time>2012-04-11T13:03:25Z</time>
      </trkpt>
      <trkpt lat="46.21597" lon="4.43328">
        <ele>536</ele>
        <time>2012-04-11T13:03:32Z</time>
      </trkpt>
      <trkpt lat="46.21601" lon="4.43328">
        <ele>536</ele>
        <time>2012-04-11T13:03:34Z</time>
      </trkpt>
      <trkpt lat="46.21609" lon="4.43329">
        <ele>536</ele>
        <time>2012-04-11T13:03:38Z</time>
      </trkpt>
      <trkpt lat="46.21624" lon="4.43328">
        <ele>537</ele>
        <time>2012-04-11T13:03:46Z</time>
      </trkpt>
      <trkpt lat="46.21636" lon="4.43327">
        <ele>539</ele>
        <time>2012-04-11T13:03:53Z</time>
      </trkpt>
      <trkpt lat="46.21637" lon="4.43327">
        <ele>539</ele>
        <time>2012-04-11T13:03:54Z</time>
      </trkpt>
      <trkpt lat="46.21647" lon="4.43324">
        <ele>540</ele>
        <time>2012-04-11T13:03:59Z</time>
      </trkpt>
      <trkpt lat="46.2166" lon="4.43323">
        <ele>542</ele>
        <time>2012-04-11T13:04:06Z</time>
      </trkpt>
      <trkpt lat="46.21675" lon="4.43323">
        <ele>545</ele>
        <time>2012-04-11T13:04:12Z</time>
      </trkpt>
      <trkpt lat="46.2168" lon="4.43324">
        <ele>545</ele>
        <time>2012-04-11T13:04:14Z</time>
      </trkpt>
      <trkpt lat="46.21696" lon="4.43328">
        <ele>545</ele>
        <time>2012-04-11T13:04:19Z</time>
      </trkpt>
      <trkpt lat="46.21713" lon="4.43329">
        <ele>546</ele>
        <time>2012-04-11T13:04:24Z</time>
      </trkpt>
      <trkpt lat="46.21719" lon="4.43329">
        <ele>546</ele>
        <time>2012-04-11T13:04:26Z</time>
      </trkpt>
      <trkpt lat="46.21731" lon="4.43328">
        <ele>547</ele>
        <time>2012-04-11T13:04:32Z</time>
      </trkpt>
      <trkpt lat="46.21739" lon="4.43326">
        <ele>548</ele>
        <time>2012-04-11T13:05:35Z</time>
      </trkpt>
      <trkpt lat="46.21746" lon="4.43321">
        <ele>548</ele>
        <time>2012-04-11T13:05:38Z</time>
      </trkpt>
      <trkpt lat="46.21754" lon="4.43316">
        <ele>551</ele>
        <time>2012-04-11T13:05:41Z</time>
      </trkpt>
      <trkpt lat="46.21771" lon="4.43298">
        <ele>550</ele>
        <time>2012-04-11T13:05:48Z</time>
      </trkpt>
      <trkpt lat="46.21776" lon="4.4329">
        <ele>550</ele>
        <time>2012-04-11T13:05:50Z</time>
      </trkpt>
      <trkpt lat="46.21782" lon="4.43275">
        <ele>549</ele>
        <time>2012-04-11T13:05:53Z</time>
      </trkpt>
      <trkpt lat="46.21784" lon="4.4327">
        <ele>549</ele>
        <time>2012-04-11T13:05:54Z</time>
      </trkpt>
      <trkpt lat="46.21792" lon="4.43239">
        <ele>545</ele>
        <time>2012-04-11T13:05:59Z</time>
      </trkpt>
      <trkpt lat="46.218" lon="4.43212">
        <ele>545</ele>
        <time>2012-04-11T13:06:03Z</time>
      </trkpt>
      <trkpt lat="46.21813" lon="4.4319">
        <ele>546</ele>
        <time>2012-04-11T13:06:07Z</time>
      </trkpt>
      <trkpt lat="46.21839" lon="4.43165">
        <ele>547</ele>
        <time>2012-04-11T13:06:13Z</time>
      </trkpt>
      <trkpt lat="46.21846" lon="4.43157">
        <ele>547</ele>
        <time>2012-04-11T13:06:15Z</time>
      </trkpt>
      <trkpt lat="46.21857" lon="4.43146">
        <ele>546</ele>
        <time>2012-04-11T13:06:18Z</time>
      </trkpt>
      <trkpt lat="46.21865" lon="4.43141">
        <ele>546</ele>
        <time>2012-04-11T13:06:20Z</time>
      </trkpt>
      <trkpt lat="46.21878" lon="4.43134">
        <ele>545</ele>
        <time>2012-04-11T13:06:23Z</time>
      </trkpt>
      <trkpt lat="46.21894" lon="4.43128">
        <ele>545</ele>
        <time>2012-04-11T13:06:26Z</time>
      </trkpt>
      <trkpt lat="46.21917" lon="4.43127">
        <ele>545</ele>
        <time>2012-04-11T13:06:31Z</time>
      </trkpt>
      <trkpt lat="46.2193" lon="4.4313">
        <ele>546</ele>
        <time>2012-04-11T13:06:34Z</time>
      </trkpt>
      <trkpt lat="46.2195" lon="4.43137">
        <ele>546</ele>
        <time>2012-04-11T13:06:39Z</time>
      </trkpt>
      <trkpt lat="46.21953" lon="4.43138">
        <ele>546</ele>
        <time>2012-04-11T13:06:40Z</time>
      </trkpt>
      <trkpt lat="46.21969" lon="4.43141">
        <ele>546</ele>
        <time>2012-04-11T13:06:45Z</time>
      </trkpt>
      <trkpt lat="46.21992" lon="4.43146">
        <ele>546</ele>
        <time>2012-04-11T13:06:51Z</time>
      </trkpt>
      <trkpt lat="46.22004" lon="4.4315">
        <ele>544</ele>
        <time>2012-04-11T13:06:54Z</time>
      </trkpt>
      <trkpt lat="46.22024" lon="4.43162">
        <ele>543</ele>
        <time>2012-04-11T13:06:59Z</time>
      </trkpt>
      <trkpt lat="46.22027" lon="4.43164">
        <ele>542</ele>
        <time>2012-04-11T13:07:00Z</time>
      </trkpt>
      <trkpt lat="46.22031" lon="4.43168">
        <ele>551</ele>
        <time>2012-04-11T13:07:03Z</time>
      </trkpt>
      <trkpt lat="46.22032" lon="4.43169">
        <ele>551</ele>
        <time>2012-04-11T13:07:07Z</time>
      </trkpt>
      <trkpt lat="46.22038" lon="4.43176">
        <ele>551</ele>
        <time>2012-04-11T13:07:41Z</time>
      </trkpt>
      <trkpt lat="46.2204" lon="4.43181">
        <ele>551</ele>
        <time>2012-04-11T13:07:43Z</time>
      </trkpt>
      <trkpt lat="46.22053" lon="4.43201">
        <ele>552</ele>
        <time>2012-04-11T13:07:47Z</time>
      </trkpt>
      <trkpt lat="46.22079" lon="4.43227">
        <ele>554</ele>
        <time>2012-04-11T13:07:51Z</time>
      </trkpt>
      <trkpt lat="46.22086" lon="4.43234">
        <ele>553</ele>
        <time>2012-04-11T13:07:53Z</time>
      </trkpt>
      <trkpt lat="46.22111" lon="4.43252">
        <ele>561</ele>
        <time>2012-04-11T13:07:56Z</time>
      </trkpt>
      <trkpt lat="46.22119" lon="4.43249">
        <ele>552</ele>
        <time>2012-04-11T13:07:57Z</time>
      </trkpt>
      <trkpt lat="46.22128" lon="4.43237">
        <ele>551</ele>
        <time>2012-04-11T13:07:59Z</time>
      </trkpt>
      <trkpt lat="46.22133" lon="4.43222">
        <ele>550</ele>
        <time>2012-04-11T13:08:01Z</time>
      </trkpt>
      <trkpt lat="46.22137" lon="4.43216">
        <ele>550</ele>
        <time>2012-04-11T13:08:03Z</time>
      </trkpt>
      <trkpt lat="46.22145" lon="4.43206">
        <ele>549</ele>
        <time>2012-04-11T13:08:05Z</time>
      </trkpt>
      <trkpt lat="46.22154" lon="4.432">
        <ele>549</ele>
        <time>2012-04-11T13:08:07Z</time>
      </trkpt>
      <trkpt lat="46.22168" lon="4.43191">
        <ele>555</ele>
        <time>2012-04-11T13:08:12Z</time>
      </trkpt>
      <trkpt lat="46.22181" lon="4.43187">
        <ele>556</ele>
        <time>2012-04-11T13:08:17Z</time>
      </trkpt>
      <trkpt lat="46.22196" lon="4.43185">
        <ele>558</ele>
        <time>2012-04-11T13:08:21Z</time>
      </trkpt>
      <trkpt lat="46.22215" lon="4.43184">
        <ele>561</ele>
        <time>2012-04-11T13:08:29Z</time>
      </trkpt>
      <trkpt lat="46.22218" lon="4.43184">
        <ele>562</ele>
        <time>2012-04-11T13:08:31Z</time>
      </trkpt>
      <trkpt lat="46.22225" lon="4.43181">
        <ele>563</ele>
        <time>2012-04-11T13:08:35Z</time>
      </trkpt>
      <trkpt lat="46.22233" lon="4.4318">
        <ele>564</ele>
        <time>2012-04-11T13:08:41Z</time>
      </trkpt>
      <trkpt lat="46.22239" lon="4.43177">
        <ele>565</ele>
        <time>2012-04-11T13:08:46Z</time>
      </trkpt>
      <trkpt lat="46.2224" lon="4.43177">
        <ele>565</ele>
        <time>2012-04-11T13:08:47Z</time>
      </trkpt>
      <trkpt lat="46.22242" lon="4.43175">
        <ele>565</ele>
        <time>2012-04-11T13:08:50Z</time>
      </trkpt>
      <trkpt lat="46.22244" lon="4.43173">
        <ele>565</ele>
        <time>2012-04-11T13:08:51Z</time>
      </trkpt>
      <trkpt lat="46.22252" lon="4.43172">
        <ele>570</ele>
        <time>2012-04-11T13:08:59Z</time>
      </trkpt>
      <trkpt lat="46.22253" lon="4.43171">
        <ele>570</ele>
        <time>2012-04-11T13:09:00Z</time>
      </trkpt>
      <trkpt lat="46.22258" lon="4.4317">
        <ele>572</ele>
        <time>2012-04-11T13:09:05Z</time>
      </trkpt>
      <trkpt lat="46.22262" lon="4.43169">
        <ele>573</ele>
        <time>2012-04-11T13:09:09Z</time>
      </trkpt>
      <trkpt lat="46.22263" lon="4.43168">
        <ele>573</ele>
        <time>2012-04-11T13:09:10Z</time>
      </trkpt>
      <trkpt lat="46.22269" lon="4.43165">
        <ele>572</ele>
        <time>2012-04-11T13:09:16Z</time>
      </trkpt>
      <trkpt lat="46.22276" lon="4.43164">
        <ele>573</ele>
        <time>2012-04-11T13:09:21Z</time>
      </trkpt>
      <trkpt lat="46.22279" lon="4.43163">
        <ele>574</ele>
        <time>2012-04-11T13:09:23Z</time>
      </trkpt>
      <trkpt lat="46.22287" lon="4.43158">
        <ele>575</ele>
        <time>2012-04-11T13:09:30Z</time>
      </trkpt>
      <trkpt lat="46.22288" lon="4.43157">
        <ele>575</ele>
        <time>2012-04-11T13:09:31Z</time>
      </trkpt>
      <trkpt lat="46.22291" lon="4.43153">
        <ele>576</ele>
        <time>2012-04-11T13:09:35Z</time>
      </trkpt>
      <trkpt lat="46.22298" lon="4.43144">
        <ele>577</ele>
        <time>2012-04-11T13:09:42Z</time>
      </trkpt>
      <trkpt lat="46.22303" lon="4.43139">
        <ele>577</ele>
        <time>2012-04-11T13:09:48Z</time>
      </trkpt>
      <trkpt lat="46.22308" lon="4.43134">
        <ele>578</ele>
        <time>2012-04-11T13:09:53Z</time>
      </trkpt>
      <trkpt lat="46.22316" lon="4.43125">
        <ele>578</ele>
        <time>2012-04-11T13:10:00Z</time>
      </trkpt>
      <trkpt lat="46.22318" lon="4.43122">
        <ele>578</ele>
        <time>2012-04-11T13:10:02Z</time>
      </trkpt>
      <trkpt lat="46.22324" lon="4.43118">
        <ele>578</ele>
        <time>2012-04-11T13:10:06Z</time>
      </trkpt>
      <trkpt lat="46.22333" lon="4.43114">
        <ele>579</ele>
        <time>2012-04-11T13:10:12Z</time>
      </trkpt>
      <trkpt lat="46.22334" lon="4.43113">
        <ele>590</ele>
        <time>2012-04-11T13:10:13Z</time>
      </trkpt>
      <trkpt lat="46.2234" lon="4.43102">
        <ele>589</ele>
        <time>2012-04-11T13:10:20Z</time>
      </trkpt>
      <trkpt lat="46.22345" lon="4.43094">
        <ele>588</ele>
        <time>2012-04-11T13:10:26Z</time>
      </trkpt>
      <trkpt lat="46.22354" lon="4.43086">
        <ele>590</ele>
        <time>2012-04-11T13:10:32Z</time>
      </trkpt>
      <trkpt lat="46.22362" lon="4.43079">
        <ele>587</ele>
        <time>2012-04-11T13:10:38Z</time>
      </trkpt>
      <trkpt lat="46.22373" lon="4.43077">
        <ele>589</ele>
        <time>2012-04-11T13:10:45Z</time>
      </trkpt>
      <trkpt lat="46.22377" lon="4.43077">
        <ele>590</ele>
        <time>2012-04-11T13:10:48Z</time>
      </trkpt>
      <trkpt lat="46.22382" lon="4.43076">
        <ele>590</ele>
        <time>2012-04-11T13:10:50Z</time>
      </trkpt>
      <trkpt lat="46.22391" lon="4.43074">
        <ele>592</ele>
        <time>2012-04-11T13:10:56Z</time>
      </trkpt>
      <trkpt lat="46.22399" lon="4.4307">
        <ele>593</ele>
        <time>2012-04-11T13:11:00Z</time>
      </trkpt>
      <trkpt lat="46.22403" lon="4.43071">
        <ele>594</ele>
        <time>2012-04-11T13:11:02Z</time>
      </trkpt>
      <trkpt lat="46.22413" lon="4.4308">
        <ele>598</ele>
        <time>2012-04-11T13:11:08Z</time>
      </trkpt>
      <trkpt lat="46.22414" lon="4.43081">
        <ele>599</ele>
        <time>2012-04-11T13:11:09Z</time>
      </trkpt>
      <trkpt lat="46.22422" lon="4.43098">
        <ele>599</ele>
        <time>2012-04-11T13:11:17Z</time>
      </trkpt>
      <trkpt lat="46.22425" lon="4.43106">
        <ele>598</ele>
        <time>2012-04-11T13:11:21Z</time>
      </trkpt>
      <trkpt lat="46.22426" lon="4.4311">
        <ele>598</ele>
        <time>2012-04-11T13:11:23Z</time>
      </trkpt>
      <trkpt lat="46.22428" lon="4.43126">
        <ele>598</ele>
        <time>2012-04-11T13:11:30Z</time>
      </trkpt>
      <trkpt lat="46.22428" lon="4.43131">
        <ele>598</ele>
        <time>2012-04-11T13:11:32Z</time>
      </trkpt>
      <trkpt lat="46.22429" lon="4.43146">
        <ele>599</ele>
        <time>2012-04-11T13:11:38Z</time>
      </trkpt>
      <trkpt lat="46.22428" lon="4.43163">
        <ele>600</ele>
        <time>2012-04-11T13:11:44Z</time>
      </trkpt>
      <trkpt lat="46.22429" lon="4.43179">
        <ele>600</ele>
        <time>2012-04-11T13:11:49Z</time>
      </trkpt>
      <trkpt lat="46.22427" lon="4.43193">
        <ele>599</ele>
        <time>2012-04-11T13:11:54Z</time>
      </trkpt>
      <trkpt lat="46.22425" lon="4.43212">
        <ele>599</ele>
        <time>2012-04-11T13:12:00Z</time>
      </trkpt>
      <trkpt lat="46.22424" lon="4.43232">
        <ele>600</ele>
        <time>2012-04-11T13:12:06Z</time>
      </trkpt>
      <trkpt lat="46.22424" lon="4.43235">
        <ele>600</ele>
        <time>2012-04-11T13:12:07Z</time>
      </trkpt>
      <trkpt lat="46.22426" lon="4.43257">
        <ele>602</ele>
        <time>2012-04-11T13:12:12Z</time>
      </trkpt>
      <trkpt lat="46.2243" lon="4.43279">
        <ele>603</ele>
        <time>2012-04-11T13:12:17Z</time>
      </trkpt>
      <trkpt lat="46.22432" lon="4.43282">
        <ele>603</ele>
        <time>2012-04-11T13:12:18Z</time>
      </trkpt>
      <trkpt lat="46.22438" lon="4.43299">
        <ele>604</ele>
        <time>2012-04-11T13:12:22Z</time>
      </trkpt>
      <trkpt lat="46.22448" lon="4.43319">
        <ele>604</ele>
        <time>2012-04-11T13:12:27Z</time>
      </trkpt>
      <trkpt lat="46.22453" lon="4.43326">
        <ele>605</ele>
        <time>2012-04-11T13:12:29Z</time>
      </trkpt>
      <trkpt lat="46.22455" lon="4.43338">
        <ele>610</ele>
        <time>2012-04-11T13:12:32Z</time>
      </trkpt>
      <trkpt lat="46.22458" lon="4.43361">
        <ele>611</ele>
        <time>2012-04-11T13:12:38Z</time>
      </trkpt>
      <trkpt lat="46.22458" lon="4.43369">
        <ele>612</ele>
        <time>2012-04-11T13:12:41Z</time>
      </trkpt>
      <trkpt lat="46.22459" lon="4.43379">
        <ele>613</ele>
        <time>2012-04-11T13:12:44Z</time>
      </trkpt>
      <trkpt lat="46.22459" lon="4.434">
        <ele>614</ele>
        <time>2012-04-11T13:12:50Z</time>
      </trkpt>
      <trkpt lat="46.22453" lon="4.43417">
        <ele>618</ele>
        <time>2012-04-11T13:12:57Z</time>
      </trkpt>
      <trkpt lat="46.22451" lon="4.43419">
        <ele>618</ele>
        <time>2012-04-11T13:13:01Z</time>
      </trkpt>
      <trkpt lat="46.22454" lon="4.43422">
        <ele>618</ele>
        <time>2012-04-11T13:13:08Z</time>
      </trkpt>
      <trkpt lat="46.2245" lon="4.43428">
        <ele>618</ele>
        <time>2012-04-11T13:13:16Z</time>
      </trkpt>
      <trkpt lat="46.2245" lon="4.43435">
        <ele>618</ele>
        <time>2012-04-11T13:13:21Z</time>
      </trkpt>
      <trkpt lat="46.22452" lon="4.43441">
        <ele>618</ele>
        <time>2012-04-11T13:13:27Z</time>
      </trkpt>
      <trkpt lat="46.22454" lon="4.43444">
        <ele>619</ele>
        <time>2012-04-11T13:13:31Z</time>
      </trkpt>
      <trkpt lat="46.22453" lon="4.43448">
        <ele>619</ele>
        <time>2012-04-11T13:13:38Z</time>
      </trkpt>
      <trkpt lat="46.22455" lon="4.43456">
        <ele>619</ele>
        <time>2012-04-11T13:13:47Z</time>
      </trkpt>
      <trkpt lat="46.22458" lon="4.43462">
        <ele>619</ele>
        <time>2012-04-11T13:13:53Z</time>
      </trkpt>
      <trkpt lat="46.22457" lon="4.4347">
        <ele>619</ele>
        <time>2012-04-11T13:13:59Z</time>
      </trkpt>
      <trkpt lat="46.22458" lon="4.43477">
        <ele>620</ele>
        <time>2012-04-11T13:14:04Z</time>
      </trkpt>
      <trkpt lat="46.22458" lon="4.43477">
        <ele>620</ele>
        <time>2012-04-11T13:14:05Z</time>
      </trkpt>
      <trkpt lat="46.22459" lon="4.43478">
        <ele>620</ele>
        <time>2012-04-11T13:14:06Z</time>
      </trkpt>
      <trkpt lat="46.22461" lon="4.43486">
        <ele>620</ele>
        <time>2012-04-11T13:14:13Z</time>
      </trkpt>
      <trkpt lat="46.22462" lon="4.4349">
        <ele>620</ele>
        <time>2012-04-11T13:14:16Z</time>
      </trkpt>
      <trkpt lat="46.22463" lon="4.43496">
        <ele>621</ele>
        <time>2012-04-11T13:14:20Z</time>
      </trkpt>
      <trkpt lat="46.22465" lon="4.43503">
        <ele>626</ele>
        <time>2012-04-11T13:14:26Z</time>
      </trkpt>
      <trkpt lat="46.22467" lon="4.43512">
        <ele>626</ele>
        <time>2012-04-11T13:14:33Z</time>
      </trkpt>
      <trkpt lat="46.22467" lon="4.43522">
        <ele>626</ele>
        <time>2012-04-11T13:14:40Z</time>
      </trkpt>
      <trkpt lat="46.2247" lon="4.43525">
        <ele>627</ele>
        <time>2012-04-11T13:14:43Z</time>
      </trkpt>
      <trkpt lat="46.2247" lon="4.43528">
        <ele>627</ele>
        <time>2012-04-11T13:14:45Z</time>
      </trkpt>
      <trkpt lat="46.22472" lon="4.43535">
        <ele>627</ele>
        <time>2012-04-11T13:14:51Z</time>
      </trkpt>
      <trkpt lat="46.22473" lon="4.43538">
        <ele>628</ele>
        <time>2012-04-11T13:14:59Z</time>
      </trkpt>
      <trkpt lat="46.22472" lon="4.43549">
        <ele>628</ele>
        <time>2012-04-11T13:15:20Z</time>
      </trkpt>
      <trkpt lat="46.22473" lon="4.43551">
        <ele>628</ele>
        <time>2012-04-11T13:15:22Z</time>
      </trkpt>
      <trkpt lat="46.22471" lon="4.43557">
        <ele>628</ele>
        <time>2012-04-11T13:15:26Z</time>
      </trkpt>
      <trkpt lat="46.2247" lon="4.43558">
        <ele>628</ele>
        <time>2012-04-11T13:15:27Z</time>
      </trkpt>
      <trkpt lat="46.22472" lon="4.43563">
        <ele>629</ele>
        <time>2012-04-11T13:15:31Z</time>
      </trkpt>
      <trkpt lat="46.2247" lon="4.43572">
        <ele>629</ele>
        <time>2012-04-11T13:15:38Z</time>
      </trkpt>
      <trkpt lat="46.22469" lon="4.43576">
        <ele>629</ele>
        <time>2012-04-11T13:15:41Z</time>
      </trkpt>
      <trkpt lat="46.22467" lon="4.4358">
        <ele>629</ele>
        <time>2012-04-11T13:15:44Z</time>
      </trkpt>
      <trkpt lat="46.22466" lon="4.43586">
        <ele>634</ele>
        <time>2012-04-11T13:15:49Z</time>
      </trkpt>
      <trkpt lat="46.22466" lon="4.43595">
        <ele>635</ele>
        <time>2012-04-11T13:15:56Z</time>
      </trkpt>
      <trkpt lat="46.22468" lon="4.43602">
        <ele>635</ele>
        <time>2012-04-11T13:16:03Z</time>
      </trkpt>
      <trkpt lat="46.22468" lon="4.43608">
        <ele>635</ele>
        <time>2012-04-11T13:16:08Z</time>
      </trkpt>
      <trkpt lat="46.22464" lon="4.43609">
        <ele>635</ele>
        <time>2012-04-11T13:16:20Z</time>
      </trkpt>
      <trkpt lat="46.22461" lon="4.43615">
        <ele>635</ele>
        <time>2012-04-11T13:16:23Z</time>
      </trkpt>
      <trkpt lat="46.22458" lon="4.43622">
        <ele>635</ele>
        <time>2012-04-11T13:16:27Z</time>
      </trkpt>
      <trkpt lat="46.22455" lon="4.43629">
        <ele>635</ele>
        <time>2012-04-11T13:16:30Z</time>
      </trkpt>
      <trkpt lat="46.22449" lon="4.43639">
        <ele>635</ele>
        <time>2012-04-11T13:16:35Z</time>
      </trkpt>
      <trkpt lat="46.22443" lon="4.43652">
        <ele>634</ele>
        <time>2012-04-11T13:16:41Z</time>
      </trkpt>
      <trkpt lat="46.22441" lon="4.43668">
        <ele>638</ele>
        <time>2012-04-11T13:16:47Z</time>
      </trkpt>
      <trkpt lat="46.22438" lon="4.43685">
        <ele>639</ele>
        <time>2012-04-11T13:16:54Z</time>
      </trkpt>
      <trkpt lat="46.22434" lon="4.43701">
        <ele>640</ele>
        <time>2012-04-11T13:17:00Z</time>
      </trkpt>
      <trkpt lat="46.2243" lon="4.43715">
        <ele>640</ele>
        <time>2012-04-11T13:17:06Z</time>
      </trkpt>
      <trkpt lat="46.22428" lon="4.43718">
        <ele>640</ele>
        <time>2012-04-11T13:17:07Z</time>
      </trkpt>
      <trkpt lat="46.22424" lon="4.43728">
        <ele>639</ele>
        <time>2012-04-11T13:17:11Z</time>
      </trkpt>
      <trkpt lat="46.22423" lon="4.43731">
        <ele>639</ele>
        <time>2012-04-11T13:17:12Z</time>
      </trkpt>
      <trkpt lat="46.22421" lon="4.43738">
        <ele>638</ele>
        <time>2012-04-11T13:17:15Z</time>
      </trkpt>
      <trkpt lat="46.22421" lon="4.43743">
        <ele>638</ele>
        <time>2012-04-11T13:17:17Z</time>
      </trkpt>
      <trkpt lat="46.22418" lon="4.43757">
        <ele>639</ele>
        <time>2012-04-11T13:17:21Z</time>
      </trkpt>
      <trkpt lat="46.22417" lon="4.43764">
        <ele>641</ele>
        <time>2012-04-11T13:17:23Z</time>
      </trkpt>
      <trkpt lat="46.22416" lon="4.43768">
        <ele>635</ele>
        <time>2012-04-11T13:17:24Z</time>
      </trkpt>
      <trkpt lat="46.22412" lon="4.43781">
        <ele>634</ele>
        <time>2012-04-11T13:17:29Z</time>
      </trkpt>
      <trkpt lat="46.22409" lon="4.43797">
        <ele>635</ele>
        <time>2012-04-11T13:17:35Z</time>
      </trkpt>
      <trkpt lat="46.22409" lon="4.43803">
        <ele>635</ele>
        <time>2012-04-11T13:17:37Z</time>
      </trkpt>
      <trkpt lat="46.2241" lon="4.43814">
        <ele>636</ele>
        <time>2012-04-11T13:17:41Z</time>
      </trkpt>
      <trkpt lat="46.22409" lon="4.43818">
        <ele>637</ele>
        <time>2012-04-11T13:17:42Z</time>
      </trkpt>
      <trkpt lat="46.22408" lon="4.43831">
        <ele>639</ele>
        <time>2012-04-11T13:17:46Z</time>
      </trkpt>
      <trkpt lat="46.22405" lon="4.43854">
        <ele>641</ele>
        <time>2012-04-11T13:17:54Z</time>
      </trkpt>
      <trkpt lat="46.22405" lon="4.43867">
        <ele>641</ele>
        <time>2012-04-11T13:17:58Z</time>
      </trkpt>
      <trkpt lat="46.22404" lon="4.43871">
        <ele>641</ele>
        <time>2012-04-11T13:17:59Z</time>
      </trkpt>
      <trkpt lat="46.22402" lon="4.43884">
        <ele>642</ele>
        <time>2012-04-11T13:18:03Z</time>
      </trkpt>
      <trkpt lat="46.22402" lon="4.43887">
        <ele>642</ele>
        <time>2012-04-11T13:18:04Z</time>
      </trkpt>
      <trkpt lat="46.22402" lon="4.43901">
        <ele>643</ele>
        <time>2012-04-11T13:18:08Z</time>
      </trkpt>
      <trkpt lat="46.22401" lon="4.4392">
        <ele>647</ele>
        <time>2012-04-11T13:18:14Z</time>
      </trkpt>
      <trkpt lat="46.224" lon="4.43924">
        <ele>647</ele>
        <time>2012-04-11T13:18:16Z</time>
      </trkpt>
      <trkpt lat="46.22398" lon="4.43926">
        <ele>647</ele>
        <time>2012-04-11T13:18:19Z</time>
      </trkpt>
      <trkpt lat="46.22391" lon="4.43917">
        <ele>647</ele>
        <time>2012-04-11T13:18:31Z</time>
      </trkpt>
      <trkpt lat="46.22396" lon="4.4393">
        <ele>647</ele>
        <time>2012-04-11T13:18:42Z</time>
      </trkpt>
      <trkpt lat="46.22395" lon="4.43934">
        <ele>647</ele>
        <time>2012-04-11T13:18:59Z</time>
      </trkpt>
      <trkpt lat="46.224" lon="4.43929">
        <ele>647</ele>
        <time>2012-04-11T13:19:10Z</time>
      </trkpt>
      <trkpt lat="46.22403" lon="4.43918">
        <ele>647</ele>
        <time>2012-04-11T13:19:20Z</time>
      </trkpt>
      <trkpt lat="46.22403" lon="4.43918">
        <ele>647</ele>
        <time>2012-04-11T13:19:25Z</time>
      </trkpt>
      <trkpt lat="46.22405" lon="4.43921">
        <ele>647</ele>
        <time>2012-04-11T13:19:31Z</time>
      </trkpt>
      <trkpt lat="46.22407" lon="4.43922">
        <ele>647</ele>
        <time>2012-04-11T13:19:34Z</time>
      </trkpt>
      <trkpt lat="46.22408" lon="4.43923">
        <ele>647</ele>
        <time>2012-04-11T13:19:36Z</time>
      </trkpt>
      <trkpt lat="46.22406" lon="4.43926">
        <ele>647</ele>
        <time>2012-04-11T13:19:46Z</time>
      </trkpt>
      <trkpt lat="46.22404" lon="4.43932">
        <ele>647</ele>
        <time>2012-04-11T13:19:50Z</time>
      </trkpt>
      <trkpt lat="46.22402" lon="4.43932">
        <ele>647</ele>
        <time>2012-04-11T13:19:51Z</time>
      </trkpt>
      <trkpt lat="46.22402" lon="4.43927">
        <ele>647</ele>
        <time>2012-04-11T13:19:55Z</time>
      </trkpt>
      <trkpt lat="46.22403" lon="4.43924">
        <ele>647</ele>
        <time>2012-04-11T13:20:03Z</time>
      </trkpt>
      <trkpt lat="46.22403" lon="4.43928">
        <ele>647</ele>
        <time>2012-04-11T13:20:16Z</time>
      </trkpt>
      <trkpt lat="46.22397" lon="4.43933">
        <ele>647</ele>
        <time>2012-04-11T13:20:46Z</time>
      </trkpt>
      <trkpt lat="46.22396" lon="4.43938">
        <ele>647</ele>
        <time>2012-04-11T13:20:48Z</time>
      </trkpt>
      <trkpt lat="46.22395" lon="4.43943">
        <ele>647</ele>
        <time>2012-04-11T13:20:51Z</time>
      </trkpt>
      <trkpt lat="46.22393" lon="4.43953">
        <ele>647</ele>
        <time>2012-04-11T13:20:58Z</time>
      </trkpt>
      <trkpt lat="46.22392" lon="4.43963">
        <ele>648</ele>
        <time>2012-04-11T13:21:03Z</time>
      </trkpt>
      <trkpt lat="46.22392" lon="4.43967">
        <ele>648</ele>
        <time>2012-04-11T13:21:05Z</time>
      </trkpt>
      <trkpt lat="46.2239" lon="4.43978">
        <ele>648</ele>
        <time>2012-04-11T13:21:09Z</time>
      </trkpt>
      <trkpt lat="46.22391" lon="4.43981">
        <ele>648</ele>
        <time>2012-04-11T13:21:10Z</time>
      </trkpt>
      <trkpt lat="46.2239" lon="4.43984">
        <ele>648</ele>
        <time>2012-04-11T13:21:11Z</time>
      </trkpt>
      <trkpt lat="46.22389" lon="4.43996">
        <ele>649</ele>
        <time>2012-04-11T13:21:15Z</time>
      </trkpt>
      <trkpt lat="46.22389" lon="4.43999">
        <ele>649</ele>
        <time>2012-04-11T13:21:16Z</time>
      </trkpt>
      <trkpt lat="46.22388" lon="4.44007">
        <ele>650</ele>
        <time>2012-04-11T13:21:19Z</time>
      </trkpt>
      <trkpt lat="46.22384" lon="4.44017">
        <ele>650</ele>
        <time>2012-04-11T13:21:23Z</time>
      </trkpt>
      <trkpt lat="46.22383" lon="4.4402">
        <ele>650</ele>
        <time>2012-04-11T13:21:24Z</time>
      </trkpt>
      <trkpt lat="46.22381" lon="4.44029">
        <ele>650</ele>
        <time>2012-04-11T13:21:30Z</time>
      </trkpt>
      <trkpt lat="46.2238" lon="4.44031">
        <ele>650</ele>
        <time>2012-04-11T13:21:31Z</time>
      </trkpt>
      <trkpt lat="46.2238" lon="4.44037">
        <ele>650</ele>
        <time>2012-04-11T13:21:34Z</time>
      </trkpt>
      <trkpt lat="46.22381" lon="4.44038">
        <ele>650</ele>
        <time>2012-04-11T13:21:35Z</time>
      </trkpt>
      <trkpt lat="46.22382" lon="4.44044">
        <ele>650</ele>
        <time>2012-04-11T13:21:41Z</time>
      </trkpt>
      <trkpt lat="46.2238" lon="4.44042">
        <ele>650</ele>
        <time>2012-04-11T13:21:44Z</time>
      </trkpt>
      <trkpt lat="46.22379" lon="4.44039">
        <ele>650</ele>
        <time>2012-04-11T13:21:46Z</time>
      </trkpt>
      <trkpt lat="46.2238" lon="4.44036">
        <ele>650</ele>
        <time>2012-04-11T13:21:50Z</time>
      </trkpt>
      <trkpt lat="46.22379" lon="4.44033">
        <ele>650</ele>
        <time>2012-04-11T13:21:52Z</time>
      </trkpt>
      <trkpt lat="46.22378" lon="4.4403">
        <ele>650</ele>
        <time>2012-04-11T13:21:54Z</time>
      </trkpt>
      <trkpt lat="46.22378" lon="4.44035">
        <ele>650</ele>
        <time>2012-04-11T13:22:00Z</time>
      </trkpt>
      <trkpt lat="46.22378" lon="4.44039">
        <ele>650</ele>
        <time>2012-04-11T13:22:06Z</time>
      </trkpt>
      <trkpt lat="46.22385" lon="4.44048">
        <ele>650</ele>
        <time>2012-04-11T13:22:20Z</time>
      </trkpt>
      <trkpt lat="46.22388" lon="4.44055">
        <ele>650</ele>
        <time>2012-04-11T13:22:27Z</time>
      </trkpt>
      <trkpt lat="46.22389" lon="4.44059">
        <ele>650</ele>
        <time>2012-04-11T13:22:29Z</time>
      </trkpt>
      <trkpt lat="46.22382" lon="4.44057">
        <ele>650</ele>
        <time>2012-04-11T13:23:31Z</time>
      </trkpt>
      <trkpt lat="46.22378" lon="4.44059">
        <ele>650</ele>
        <time>2012-04-11T13:24:26Z</time>
      </trkpt>
      <trkpt lat="46.22377" lon="4.44059">
        <ele>650</ele>
        <time>2012-04-11T13:24:28Z</time>
      </trkpt>
      <trkpt lat="46.22371" lon="4.44065">
        <ele>650</ele>
        <time>2012-04-11T13:24:34Z</time>
      </trkpt>
      <trkpt lat="46.22368" lon="4.44069">
        <ele>650</ele>
        <time>2012-04-11T13:24:38Z</time>
      </trkpt>
      <trkpt lat="46.22363" lon="4.44077">
        <ele>650</ele>
        <time>2012-04-11T13:24:42Z</time>
      </trkpt>
      <trkpt lat="46.2236" lon="4.44081">
        <ele>649</ele>
        <time>2012-04-11T13:24:44Z</time>
      </trkpt>
      <trkpt lat="46.22351" lon="4.44093">
        <ele>648</ele>
        <time>2012-04-11T13:24:51Z</time>
      </trkpt>
      <trkpt lat="46.22337" lon="4.4411">
        <ele>647</ele>
        <time>2012-04-11T13:24:59Z</time>
      </trkpt>
      <trkpt lat="46.22336" lon="4.44112">
        <ele>647</ele>
        <time>2012-04-11T13:25:00Z</time>
      </trkpt>
      <trkpt lat="46.22333" lon="4.44115">
        <ele>647</ele>
        <time>2012-04-11T13:25:02Z</time>
      </trkpt>
      <trkpt lat="46.22329" lon="4.44118">
        <ele>648</ele>
        <time>2012-04-11T13:25:05Z</time>
      </trkpt>
      <trkpt lat="46.22327" lon="4.44121">
        <ele>648</ele>
        <time>2012-04-11T13:25:06Z</time>
      </trkpt>
      <trkpt lat="46.22319" lon="4.44126">
        <ele>648</ele>
        <time>2012-04-11T13:25:09Z</time>
      </trkpt>
      <trkpt lat="46.22308" lon="4.44134">
        <ele>648</ele>
        <time>2012-04-11T13:25:15Z</time>
      </trkpt>
      <trkpt lat="46.22304" lon="4.44136">
        <ele>649</ele>
        <time>2012-04-11T13:25:17Z</time>
      </trkpt>
      <trkpt lat="46.22292" lon="4.44144">
        <ele>649</ele>
        <time>2012-04-11T13:25:21Z</time>
      </trkpt>
      <trkpt lat="46.22277" lon="4.44159">
        <ele>650</ele>
        <time>2012-04-11T13:25:28Z</time>
      </trkpt>
      <trkpt lat="46.22275" lon="4.44166">
        <ele>650</ele>
        <time>2012-04-11T13:25:32Z</time>
      </trkpt>
      <trkpt lat="46.22274" lon="4.44167">
        <ele>647</ele>
        <time>2012-04-11T13:25:33Z</time>
      </trkpt>
      <trkpt lat="46.22265" lon="4.4418">
        <ele>647</ele>
        <time>2012-04-11T13:26:04Z</time>
      </trkpt>
      <trkpt lat="46.22264" lon="4.44182">
        <ele>647</ele>
        <time>2012-04-11T13:26:06Z</time>
      </trkpt>
      <trkpt lat="46.22263" lon="4.44187">
        <ele>647</ele>
        <time>2012-04-11T13:26:08Z</time>
      </trkpt>
      <trkpt lat="46.2226" lon="4.44212">
        <ele>645</ele>
        <time>2012-04-11T13:26:14Z</time>
      </trkpt>
      <trkpt lat="46.2226" lon="4.44237">
        <ele>645</ele>
        <time>2012-04-11T13:26:19Z</time>
      </trkpt>
      <trkpt lat="46.22258" lon="4.44261">
        <ele>642</ele>
        <time>2012-04-11T13:26:23Z</time>
      </trkpt>
      <trkpt lat="46.22257" lon="4.44268">
        <ele>641</ele>
        <time>2012-04-11T13:26:24Z</time>
      </trkpt>
      <trkpt lat="46.22252" lon="4.44301">
        <ele>639</ele>
        <time>2012-04-11T13:26:29Z</time>
      </trkpt>
      <trkpt lat="46.22251" lon="4.44324">
        <ele>640</ele>
        <time>2012-04-11T13:26:33Z</time>
      </trkpt>
      <trkpt lat="46.22252" lon="4.44352">
        <ele>637</ele>
        <time>2012-04-11T13:26:37Z</time>
      </trkpt>
      <trkpt lat="46.22252" lon="4.44373">
        <ele>635</ele>
        <time>2012-04-11T13:26:40Z</time>
      </trkpt>
      <trkpt lat="46.22252" lon="4.44382">
        <ele>634</ele>
        <time>2012-04-11T13:26:41Z</time>
      </trkpt>
      <trkpt lat="46.22251" lon="4.4439">
        <ele>634</ele>
        <time>2012-04-11T13:26:42Z</time>
      </trkpt>
      <trkpt lat="46.22249" lon="4.44413">
        <ele>635</ele>
        <time>2012-04-11T13:26:45Z</time>
      </trkpt>
      <trkpt lat="46.22249" lon="4.44422">
        <ele>634</ele>
        <time>2012-04-11T13:26:46Z</time>
      </trkpt>
      <trkpt lat="46.22247" lon="4.44439">
        <ele>632</ele>
        <time>2012-04-11T13:26:48Z</time>
      </trkpt>
      <trkpt lat="46.22244" lon="4.44465">
        <ele>629</ele>
        <time>2012-04-11T13:26:51Z</time>
      </trkpt>
      <trkpt lat="46.22243" lon="4.44492">
        <ele>628</ele>
        <time>2012-04-11T13:26:54Z</time>
      </trkpt>
      <trkpt lat="46.22246" lon="4.44508">
        <ele>627</ele>
        <time>2012-04-11T13:26:56Z</time>
      </trkpt>
      <trkpt lat="46.2225" lon="4.44527">
        <ele>627</ele>
        <time>2012-04-11T13:27:00Z</time>
      </trkpt>
      <trkpt lat="46.22251" lon="4.44528">
        <ele>629</ele>
        <time>2012-04-11T13:27:04Z</time>
      </trkpt>
      <trkpt lat="46.22261" lon="4.44531">
        <ele>629</ele>
        <time>2012-04-11T13:27:43Z</time>
      </trkpt>
      <trkpt lat="46.22261" lon="4.44528">
        <ele>628</ele>
        <time>2012-04-11T13:27:49Z</time>
      </trkpt>
      <trkpt lat="46.22264" lon="4.44521">
        <ele>628</ele>
        <time>2012-04-11T13:27:51Z</time>
      </trkpt>
      <trkpt lat="46.22276" lon="4.44506">
        <ele>628</ele>
        <time>2012-04-11T13:27:55Z</time>
      </trkpt>
      <trkpt lat="46.22288" lon="4.44495">
        <ele>629</ele>
        <time>2012-04-11T13:28:00Z</time>
      </trkpt>
      <trkpt lat="46.22294" lon="4.44496">
        <ele>629</ele>
        <time>2012-04-11T13:28:02Z</time>
      </trkpt>
      <trkpt lat="46.22296" lon="4.44499">
        <ele>629</ele>
        <time>2012-04-11T13:28:03Z</time>
      </trkpt>
      <trkpt lat="46.22298" lon="4.44502">
        <ele>628</ele>
        <time>2012-04-11T13:28:04Z</time>
      </trkpt>
      <trkpt lat="46.22306" lon="4.44513">
        <ele>628</ele>
        <time>2012-04-11T13:28:09Z</time>
      </trkpt>
      <trkpt lat="46.22308" lon="4.44516">
        <ele>628</ele>
        <time>2012-04-11T13:28:10Z</time>
      </trkpt>
      <trkpt lat="46.22316" lon="4.44529">
        <ele>628</ele>
        <time>2012-04-11T13:28:14Z</time>
      </trkpt>
      <trkpt lat="46.2232" lon="4.44532">
        <ele>628</ele>
        <time>2012-04-11T13:28:15Z</time>
      </trkpt>
      <trkpt lat="46.22323" lon="4.44536">
        <ele>628</ele>
        <time>2012-04-11T13:28:16Z</time>
      </trkpt>
      <trkpt lat="46.22327" lon="4.44542">
        <ele>628</ele>
        <time>2012-04-11T13:28:17Z</time>
      </trkpt>
      <trkpt lat="46.22337" lon="4.44552">
        <ele>624</ele>
        <time>2012-04-11T13:28:19Z</time>
      </trkpt>
      <trkpt lat="46.22354" lon="4.44569">
        <ele>624</ele>
        <time>2012-04-11T13:28:22Z</time>
      </trkpt>
      <trkpt lat="46.22362" lon="4.44582">
        <ele>623</ele>
        <time>2012-04-11T13:28:24Z</time>
      </trkpt>
      <trkpt lat="46.22376" lon="4.44621">
        <ele>624</ele>
        <time>2012-04-11T13:28:28Z</time>
      </trkpt>
      <trkpt lat="46.2238" lon="4.44629">
        <ele>624</ele>
        <time>2012-04-11T13:28:29Z</time>
      </trkpt>
      <trkpt lat="46.22394" lon="4.44663">
        <ele>624</ele>
        <time>2012-04-11T13:28:33Z</time>
      </trkpt>
      <trkpt lat="46.22398" lon="4.4467">
        <ele>625</ele>
        <time>2012-04-11T13:28:34Z</time>
      </trkpt>
      <trkpt lat="46.2241" lon="4.44682">
        <ele>625</ele>
        <time>2012-04-11T13:28:37Z</time>
      </trkpt>
      <trkpt lat="46.22416" lon="4.44687">
        <ele>626</ele>
        <time>2012-04-11T13:28:38Z</time>
      </trkpt>
      <trkpt lat="46.22431" lon="4.447">
        <ele>626</ele>
        <time>2012-04-11T13:28:41Z</time>
      </trkpt>
      <trkpt lat="46.22442" lon="4.44707">
        <ele>627</ele>
        <time>2012-04-11T13:28:43Z</time>
      </trkpt>
      <trkpt lat="46.22447" lon="4.44709">
        <ele>627</ele>
        <time>2012-04-11T13:28:44Z</time>
      </trkpt>
      <trkpt lat="46.22461" lon="4.44715">
        <ele>627</ele>
        <time>2012-04-11T13:28:47Z</time>
      </trkpt>
      <trkpt lat="46.22469" lon="4.44718">
        <ele>628</ele>
        <time>2012-04-11T13:28:49Z</time>
      </trkpt>
      <trkpt lat="46.22481" lon="4.44727">
        <ele>629</ele>
        <time>2012-04-11T13:28:52Z</time>
      </trkpt>
      <trkpt lat="46.22501" lon="4.44734">
        <ele>630</ele>
        <time>2012-04-11T13:28:57Z</time>
      </trkpt>
      <trkpt lat="46.22505" lon="4.44734">
        <ele>630</ele>
        <time>2012-04-11T13:28:58Z</time>
      </trkpt>
      <trkpt lat="46.2252" lon="4.44736">
        <ele>629</ele>
        <time>2012-04-11T13:29:02Z</time>
      </trkpt>
      <trkpt lat="46.22533" lon="4.4474">
        <ele>628</ele>
        <time>2012-04-11T13:29:06Z</time>
      </trkpt>
      <trkpt lat="46.22543" lon="4.44748">
        <ele>628</ele>
        <time>2012-04-11T13:29:09Z</time>
      </trkpt>
      <trkpt lat="46.22552" lon="4.44758">
        <ele>633</ele>
        <time>2012-04-11T13:29:12Z</time>
      </trkpt>
      <trkpt lat="46.22571" lon="4.44768">
        <ele>632</ele>
        <time>2012-04-11T13:29:18Z</time>
      </trkpt>
      <trkpt lat="46.22575" lon="4.4477">
        <ele>632</ele>
        <time>2012-04-11T13:29:19Z</time>
      </trkpt>
      <trkpt lat="46.22585" lon="4.44774">
        <ele>626</ele>
        <time>2012-04-11T13:29:21Z</time>
      </trkpt>
      <trkpt lat="46.22594" lon="4.4478">
        <ele>625</ele>
        <time>2012-04-11T13:29:23Z</time>
      </trkpt>
      <trkpt lat="46.22607" lon="4.44795">
        <ele>625</ele>
        <time>2012-04-11T13:29:27Z</time>
      </trkpt>
      <trkpt lat="46.22607" lon="4.44799">
        <ele>625</ele>
        <time>2012-04-11T13:29:31Z</time>
      </trkpt>
      <trkpt lat="46.22608" lon="4.44799">
        <ele>625</ele>
        <time>2012-04-11T13:29:35Z</time>
      </trkpt>
      <trkpt lat="46.22611" lon="4.44799">
        <ele>625</ele>
        <time>2012-04-11T13:29:41Z</time>
      </trkpt>
      <trkpt lat="46.22622" lon="4.448">
        <ele>623</ele>
        <time>2012-04-11T13:29:52Z</time>
      </trkpt>
      <trkpt lat="46.22636" lon="4.44804">
        <ele>622</ele>
        <time>2012-04-11T13:29:56Z</time>
      </trkpt>
      <trkpt lat="46.2264" lon="4.44806">
        <ele>621</ele>
        <time>2012-04-11T13:29:57Z</time>
      </trkpt>
      <trkpt lat="46.22651" lon="4.4481">
        <ele>620</ele>
        <time>2012-04-11T13:29:59Z</time>
      </trkpt>
      <trkpt lat="46.22662" lon="4.44812">
        <ele>619</ele>
        <time>2012-04-11T13:30:01Z</time>
      </trkpt>
      <trkpt lat="46.22679" lon="4.44821">
        <ele>613</ele>
        <time>2012-04-11T13:30:05Z</time>
      </trkpt>
      <trkpt lat="46.22691" lon="4.44832">
        <ele>613</ele>
        <time>2012-04-11T13:30:09Z</time>
      </trkpt>
      <trkpt lat="46.22698" lon="4.44833">
        <ele>616</ele>
        <time>2012-04-11T13:30:12Z</time>
      </trkpt>
      <trkpt lat="46.22702" lon="4.44833">
        <ele>616</ele>
        <time>2012-04-11T13:30:14Z</time>
      </trkpt>
      <trkpt lat="46.22709" lon="4.44833">
        <ele>612</ele>
        <time>2012-04-11T13:30:18Z</time>
      </trkpt>
      <trkpt lat="46.22713" lon="4.44835">
        <ele>615</ele>
        <time>2012-04-11T13:30:22Z</time>
      </trkpt>
      <trkpt lat="46.22716" lon="4.44834">
        <ele>615</ele>
        <time>2012-04-11T13:30:27Z</time>
      </trkpt>
      <trkpt lat="46.22723" lon="4.4483">
        <ele>612</ele>
        <time>2012-04-11T13:30:31Z</time>
      </trkpt>
      <trkpt lat="46.22727" lon="4.44829">
        <ele>612</ele>
        <time>2012-04-11T13:30:36Z</time>
      </trkpt>
      <trkpt lat="46.22727" lon="4.4483">
        <ele>612</ele>
        <time>2012-04-11T13:30:41Z</time>
      </trkpt>
      <trkpt lat="46.22725" lon="4.4483">
        <ele>612</ele>
        <time>2012-04-11T13:30:45Z</time>
      </trkpt>
      <trkpt lat="46.22723" lon="4.4483">
        <ele>612</ele>
        <time>2012-04-11T13:30:52Z</time>
      </trkpt>
      <trkpt lat="46.22728" lon="4.44829">
        <ele>612</ele>
        <time>2012-04-11T13:30:59Z</time>
      </trkpt>
      <trkpt lat="46.22732" lon="4.44825">
        <ele>612</ele>
        <time>2012-04-11T13:31:13Z</time>
      </trkpt>
      <trkpt lat="46.22727" lon="4.4482">
        <ele>612</ele>
        <time>2012-04-11T13:32:01Z</time>
      </trkpt>
      <trkpt lat="46.22722" lon="4.44825">
        <ele>612</ele>
        <time>2012-04-11T13:32:07Z</time>
      </trkpt>
      <trkpt lat="46.2272" lon="4.44826">
        <ele>612</ele>
        <time>2012-04-11T13:32:08Z</time>
      </trkpt>
      <trkpt lat="46.22708" lon="4.44833">
        <ele>616</ele>
        <time>2012-04-11T13:32:13Z</time>
      </trkpt>
      <trkpt lat="46.22705" lon="4.44833">
        <ele>612</ele>
        <time>2012-04-11T13:32:14Z</time>
      </trkpt>
      <trkpt lat="46.22694" lon="4.44833">
        <ele>616</ele>
        <time>2012-04-11T13:32:18Z</time>
      </trkpt>
      <trkpt lat="46.22683" lon="4.4483">
        <ele>613</ele>
        <time>2012-04-11T13:32:22Z</time>
      </trkpt>
      <trkpt lat="46.22678" lon="4.44827">
        <ele>614</ele>
        <time>2012-04-11T13:32:24Z</time>
      </trkpt>
      <trkpt lat="46.22661" lon="4.44819">
        <ele>618</ele>
        <time>2012-04-11T13:32:30Z</time>
      </trkpt>
      <trkpt lat="46.22647" lon="4.4481">
        <ele>620</ele>
        <time>2012-04-11T13:32:34Z</time>
      </trkpt>
      <trkpt lat="46.22641" lon="4.44805">
        <ele>621</ele>
        <time>2012-04-11T13:32:36Z</time>
      </trkpt>
      <trkpt lat="46.22625" lon="4.44801">
        <ele>623</ele>
        <time>2012-04-11T13:32:41Z</time>
      </trkpt>
      <trkpt lat="46.22611" lon="4.44801">
        <ele>625</ele>
        <time>2012-04-11T13:32:46Z</time>
      </trkpt>
      <trkpt lat="46.2261" lon="4.44803">
        <ele>625</ele>
        <time>2012-04-11T13:32:47Z</time>
      </trkpt>
      <trkpt lat="46.22613" lon="4.44813">
        <ele>625</ele>
        <time>2012-04-11T13:32:51Z</time>
      </trkpt>
      <trkpt lat="46.22613" lon="4.44816">
        <ele>625</ele>
        <time>2012-04-11T13:32:52Z</time>
      </trkpt>
      <trkpt lat="46.22614" lon="4.44833">
        <ele>626</ele>
        <time>2012-04-11T13:32:58Z</time>
      </trkpt>
      <trkpt lat="46.22618" lon="4.44853">
        <ele>626</ele>
        <time>2012-04-11T13:33:05Z</time>
      </trkpt>
      <trkpt lat="46.22622" lon="4.44873">
        <ele>626</ele>
        <time>2012-04-11T13:33:11Z</time>
      </trkpt>
      <trkpt lat="46.22624" lon="4.44891">
        <ele>626</ele>
        <time>2012-04-11T13:33:16Z</time>
      </trkpt>
      <trkpt lat="46.22624" lon="4.44893">
        <ele>626</ele>
        <time>2012-04-11T13:33:17Z</time>
      </trkpt>
      <trkpt lat="46.22624" lon="4.44902">
        <ele>626</ele>
        <time>2012-04-11T13:33:20Z</time>
      </trkpt>
      <trkpt lat="46.22624" lon="4.44906">
        <ele>626</ele>
        <time>2012-04-11T13:33:21Z</time>
      </trkpt>
      <trkpt lat="46.22623" lon="4.4491">
        <ele>626</ele>
        <time>2012-04-11T13:33:22Z</time>
      </trkpt>
      <trkpt lat="46.2262" lon="4.44929">
        <ele>628</ele>
        <time>2012-04-11T13:33:27Z</time>
      </trkpt>
      <trkpt lat="46.22614" lon="4.44958">
        <ele>629</ele>
        <time>2012-04-11T13:33:34Z</time>
      </trkpt>
      <trkpt lat="46.22612" lon="4.44966">
        <ele>629</ele>
        <time>2012-04-11T13:33:36Z</time>
      </trkpt>
      <trkpt lat="46.22608" lon="4.44982">
        <ele>630</ele>
        <time>2012-04-11T13:33:41Z</time>
      </trkpt>
      <trkpt lat="46.22607" lon="4.44984">
        <ele>630</ele>
        <time>2012-04-11T13:33:46Z</time>
      </trkpt>
      <trkpt lat="46.22607" lon="4.44994">
        <ele>631</ele>
        <time>2012-04-11T13:34:01Z</time>
      </trkpt>
      <trkpt lat="46.22606" lon="4.45009">
        <ele>633</ele>
        <time>2012-04-11T13:34:05Z</time>
      </trkpt>
      <trkpt lat="46.22606" lon="4.4502">
        <ele>633</ele>
        <time>2012-04-11T13:34:08Z</time>
      </trkpt>
      <trkpt lat="46.22607" lon="4.45044">
        <ele>634</ele>
        <time>2012-04-11T13:34:14Z</time>
      </trkpt>
      <trkpt lat="46.2261" lon="4.45063">
        <ele>634</ele>
        <time>2012-04-11T13:34:19Z</time>
      </trkpt>
      <trkpt lat="46.22611" lon="4.45068">
        <ele>634</ele>
        <time>2012-04-11T13:34:20Z</time>
      </trkpt>
      <trkpt lat="46.22615" lon="4.45098">
        <ele>638</ele>
        <time>2012-04-11T13:34:28Z</time>
      </trkpt>
      <trkpt lat="46.22622" lon="4.45113">
        <ele>638</ele>
        <time>2012-04-11T13:34:33Z</time>
      </trkpt>
      <trkpt lat="46.22624" lon="4.45118">
        <ele>638</ele>
        <time>2012-04-11T13:34:35Z</time>
      </trkpt>
      <trkpt lat="46.22631" lon="4.45134">
        <ele>639</ele>
        <time>2012-04-11T13:34:42Z</time>
      </trkpt>
      <trkpt lat="46.22631" lon="4.45139">
        <ele>639</ele>
        <time>2012-04-11T13:34:47Z</time>
      </trkpt>
      <trkpt lat="46.22635" lon="4.45147">
        <ele>639</ele>
        <time>2012-04-11T13:35:58Z</time>
      </trkpt>
      <trkpt lat="46.22636" lon="4.4515">
        <ele>639</ele>
        <time>2012-04-11T13:35:59Z</time>
      </trkpt>
      <trkpt lat="46.22639" lon="4.45159">
        <ele>640</ele>
        <time>2012-04-11T13:36:02Z</time>
      </trkpt>
      <trkpt lat="46.2264" lon="4.45164">
        <ele>640</ele>
        <time>2012-04-11T13:36:03Z</time>
      </trkpt>
      <trkpt lat="46.2264" lon="4.45168">
        <ele>643</ele>
        <time>2012-04-11T13:36:04Z</time>
      </trkpt>
      <trkpt lat="46.22647" lon="4.45192">
        <ele>643</ele>
        <time>2012-04-11T13:36:10Z</time>
      </trkpt>
      <trkpt lat="46.22656" lon="4.45207">
        <ele>643</ele>
        <time>2012-04-11T13:36:15Z</time>
      </trkpt>
      <trkpt lat="46.2267" lon="4.45225">
        <ele>645</ele>
        <time>2012-04-11T13:36:21Z</time>
      </trkpt>
      <trkpt lat="46.22683" lon="4.4524">
        <ele>645</ele>
        <time>2012-04-11T13:36:27Z</time>
      </trkpt>
      <trkpt lat="46.22685" lon="4.45242">
        <ele>645</ele>
        <time>2012-04-11T13:36:28Z</time>
      </trkpt>
      <trkpt lat="46.2269" lon="4.45257">
        <ele>647</ele>
        <time>2012-04-11T13:36:33Z</time>
      </trkpt>
      <trkpt lat="46.22693" lon="4.45276">
        <ele>647</ele>
        <time>2012-04-11T13:36:39Z</time>
      </trkpt>
      <trkpt lat="46.22695" lon="4.45292">
        <ele>647</ele>
        <time>2012-04-11T13:36:44Z</time>
      </trkpt>
      <trkpt lat="46.22695" lon="4.45295">
        <ele>647</ele>
        <time>2012-04-11T13:36:45Z</time>
      </trkpt>
      <trkpt lat="46.22697" lon="4.45315">
        <ele>647</ele>
        <time>2012-04-11T13:36:50Z</time>
      </trkpt>
      <trkpt lat="46.22699" lon="4.45331">
        <ele>647</ele>
        <time>2012-04-11T13:36:55Z</time>
      </trkpt>
      <trkpt lat="46.22702" lon="4.45344">
        <ele>647</ele>
        <time>2012-04-11T13:36:59Z</time>
      </trkpt>
      <trkpt lat="46.22703" lon="4.45347">
        <ele>647</ele>
        <time>2012-04-11T13:37:00Z</time>
      </trkpt>
      <trkpt lat="46.22714" lon="4.45365">
        <ele>647</ele>
        <time>2012-04-11T13:37:08Z</time>
      </trkpt>
      <trkpt lat="46.22723" lon="4.45375">
        <ele>648</ele>
        <time>2012-04-11T13:37:13Z</time>
      </trkpt>
      <trkpt lat="46.22726" lon="4.4538">
        <ele>648</ele>
        <time>2012-04-11T13:37:16Z</time>
      </trkpt>
      <trkpt lat="46.22727" lon="4.45382">
        <ele>648</ele>
        <time>2012-04-11T13:37:17Z</time>
      </trkpt>
      <trkpt lat="46.22731" lon="4.45386">
        <ele>648</ele>
        <time>2012-04-11T13:37:19Z</time>
      </trkpt>
      <trkpt lat="46.22733" lon="4.45388">
        <ele>648</ele>
        <time>2012-04-11T13:37:20Z</time>
      </trkpt>
      <trkpt lat="46.22745" lon="4.45399">
        <ele>648</ele>
        <time>2012-04-11T13:37:25Z</time>
      </trkpt>
      <trkpt lat="46.22757" lon="4.45414">
        <ele>650</ele>
        <time>2012-04-11T13:37:30Z</time>
      </trkpt>
      <trkpt lat="46.22759" lon="4.45416">
        <ele>650</ele>
        <time>2012-04-11T13:37:31Z</time>
      </trkpt>
      <trkpt lat="46.22759" lon="4.4542">
        <ele>648</ele>
        <time>2012-04-11T13:37:36Z</time>
      </trkpt>
      <trkpt lat="46.22763" lon="4.45429">
        <ele>647</ele>
        <time>2012-04-11T13:37:50Z</time>
      </trkpt>
      <trkpt lat="46.22775" lon="4.45442">
        <ele>646</ele>
        <time>2012-04-11T13:37:54Z</time>
      </trkpt>
      <trkpt lat="46.22778" lon="4.45447">
        <ele>646</ele>
        <time>2012-04-11T13:37:55Z</time>
      </trkpt>
      <trkpt lat="46.22781" lon="4.45453">
        <ele>645</ele>
        <time>2012-04-11T13:37:56Z</time>
      </trkpt>
      <trkpt lat="46.22784" lon="4.45459">
        <ele>645</ele>
        <time>2012-04-11T13:37:57Z</time>
      </trkpt>
      <trkpt lat="46.22789" lon="4.45477">
        <ele>644</ele>
        <time>2012-04-11T13:38:00Z</time>
      </trkpt>
      <trkpt lat="46.2279" lon="4.45483">
        <ele>644</ele>
        <time>2012-04-11T13:38:01Z</time>
      </trkpt>
      <trkpt lat="46.2279" lon="4.45499">
        <ele>643</ele>
        <time>2012-04-11T13:38:04Z</time>
      </trkpt>
      <trkpt lat="46.22789" lon="4.45504">
        <ele>637</ele>
        <time>2012-04-11T13:38:05Z</time>
      </trkpt>
      <trkpt lat="46.22787" lon="4.45518">
        <ele>637</ele>
        <time>2012-04-11T13:38:08Z</time>
      </trkpt>
      <trkpt lat="46.22783" lon="4.45541">
        <ele>636</ele>
        <time>2012-04-11T13:38:12Z</time>
      </trkpt>
      <trkpt lat="46.2278" lon="4.4556">
        <ele>635</ele>
        <time>2012-04-11T13:38:16Z</time>
      </trkpt>
      <trkpt lat="46.2278" lon="4.45563">
        <ele>635</ele>
        <time>2012-04-11T13:38:17Z</time>
      </trkpt>
      <trkpt lat="46.22779" lon="4.45568">
        <ele>635</ele>
        <time>2012-04-11T13:38:21Z</time>
      </trkpt>
      <trkpt lat="46.22778" lon="4.45573">
        <ele>635</ele>
        <time>2012-04-11T13:38:40Z</time>
      </trkpt>
      <trkpt lat="46.22772" lon="4.45575">
        <ele>635</ele>
        <time>2012-04-11T13:38:43Z</time>
      </trkpt>
      <trkpt lat="46.2277" lon="4.45574">
        <ele>635</ele>
        <time>2012-04-11T13:38:44Z</time>
      </trkpt>
      <trkpt lat="46.22758" lon="4.45569">
        <ele>636</ele>
        <time>2012-04-11T13:38:49Z</time>
      </trkpt>
      <trkpt lat="46.22752" lon="4.45569">
        <ele>636</ele>
        <time>2012-04-11T13:38:51Z</time>
      </trkpt>
      <trkpt lat="46.22748" lon="4.45569">
        <ele>638</ele>
        <time>2012-04-11T13:38:53Z</time>
      </trkpt>
      <trkpt lat="46.22746" lon="4.4557">
        <ele>638</ele>
        <time>2012-04-11T13:38:54Z</time>
      </trkpt>
      <trkpt lat="46.22731" lon="4.45576">
        <ele>639</ele>
        <time>2012-04-11T13:39:00Z</time>
      </trkpt>
      <trkpt lat="46.22719" lon="4.45583">
        <ele>640</ele>
        <time>2012-04-11T13:39:06Z</time>
      </trkpt>
      <trkpt lat="46.22717" lon="4.45585">
        <ele>640</ele>
        <time>2012-04-11T13:39:07Z</time>
      </trkpt>
      <trkpt lat="46.22708" lon="4.45592">
        <ele>641</ele>
        <time>2012-04-11T13:39:13Z</time>
      </trkpt>
      <trkpt lat="46.227" lon="4.45599">
        <ele>641</ele>
        <time>2012-04-11T13:39:20Z</time>
      </trkpt>
      <trkpt lat="46.22695" lon="4.45599">
        <ele>642</ele>
        <time>2012-04-11T13:39:34Z</time>
      </trkpt>
      <trkpt lat="46.22694" lon="4.45604">
        <ele>642</ele>
        <time>2012-04-11T13:39:37Z</time>
      </trkpt>
      <trkpt lat="46.22693" lon="4.45606">
        <ele>642</ele>
        <time>2012-04-11T13:39:38Z</time>
      </trkpt>
      <trkpt lat="46.22692" lon="4.45609">
        <ele>642</ele>
        <time>2012-04-11T13:39:40Z</time>
      </trkpt>
      <trkpt lat="46.2269" lon="4.45616">
        <ele>642</ele>
        <time>2012-04-11T13:39:43Z</time>
      </trkpt>
      <trkpt lat="46.22685" lon="4.4563">
        <ele>642</ele>
        <time>2012-04-11T13:39:49Z</time>
      </trkpt>
      <trkpt lat="46.22683" lon="4.45634">
        <ele>642</ele>
        <time>2012-04-11T13:39:51Z</time>
      </trkpt>
      <trkpt lat="46.22678" lon="4.45644">
        <ele>643</ele>
        <time>2012-04-11T13:39:57Z</time>
      </trkpt>
      <trkpt lat="46.22671" lon="4.45657">
        <ele>645</ele>
        <time>2012-04-11T13:40:05Z</time>
      </trkpt>
      <trkpt lat="46.2267" lon="4.45659">
        <ele>645</ele>
        <time>2012-04-11T13:40:06Z</time>
      </trkpt>
      <trkpt lat="46.22661" lon="4.45675">
        <ele>649</ele>
        <time>2012-04-11T13:40:14Z</time>
      </trkpt>
      <trkpt lat="46.22658" lon="4.45682">
        <ele>650</ele>
        <time>2012-04-11T13:40:19Z</time>
      </trkpt>
      <trkpt lat="46.22657" lon="4.45691">
        <ele>651</ele>
        <time>2012-04-11T13:40:55Z</time>
      </trkpt>
      <trkpt lat="46.22657" lon="4.45696">
        <ele>651</ele>
        <time>2012-04-11T13:40:57Z</time>
      </trkpt>
      <trkpt lat="46.22657" lon="4.45703">
        <ele>652</ele>
        <time>2012-04-11T13:41:00Z</time>
      </trkpt>
      <trkpt lat="46.22656" lon="4.45706">
        <ele>652</ele>
        <time>2012-04-11T13:41:01Z</time>
      </trkpt>
      <trkpt lat="46.22655" lon="4.45709">
        <ele>652</ele>
        <time>2012-04-11T13:41:02Z</time>
      </trkpt>
      <trkpt lat="46.22652" lon="4.45723">
        <ele>652</ele>
        <time>2012-04-11T13:41:07Z</time>
      </trkpt>
      <trkpt lat="46.22647" lon="4.45748">
        <ele>652</ele>
        <time>2012-04-11T13:41:13Z</time>
      </trkpt>
      <trkpt lat="46.22645" lon="4.45757">
        <ele>653</ele>
        <time>2012-04-11T13:41:15Z</time>
      </trkpt>
      <trkpt lat="46.22638" lon="4.45773">
        <ele>654</ele>
        <time>2012-04-11T13:41:19Z</time>
      </trkpt>
      <trkpt lat="46.2263" lon="4.4579">
        <ele>655</ele>
        <time>2012-04-11T13:41:24Z</time>
      </trkpt>
      <trkpt lat="46.22623" lon="4.45799">
        <ele>656</ele>
        <time>2012-04-11T13:41:27Z</time>
      </trkpt>
      <trkpt lat="46.22616" lon="4.45804">
        <ele>657</ele>
        <time>2012-04-11T13:41:30Z</time>
      </trkpt>
      <trkpt lat="46.22614" lon="4.45806">
        <ele>658</ele>
        <time>2012-04-11T13:41:34Z</time>
      </trkpt>
      <trkpt lat="46.22616" lon="4.45808">
        <ele>657</ele>
        <time>2012-04-11T13:41:47Z</time>
      </trkpt>
      <trkpt lat="46.22613" lon="4.45815">
        <ele>658</ele>
        <time>2012-04-11T13:41:50Z</time>
      </trkpt>
      <trkpt lat="46.22607" lon="4.45831">
        <ele>660</ele>
        <time>2012-04-11T13:41:55Z</time>
      </trkpt>
      <trkpt lat="46.22602" lon="4.45842">
        <ele>663</ele>
        <time>2012-04-11T13:41:58Z</time>
      </trkpt>
      <trkpt lat="46.22596" lon="4.45855">
        <ele>663</ele>
        <time>2012-04-11T13:42:02Z</time>
      </trkpt>
      <trkpt lat="46.22591" lon="4.45869">
        <ele>663</ele>
        <time>2012-04-11T13:42:07Z</time>
      </trkpt>
      <trkpt lat="46.22586" lon="4.4588">
        <ele>663</ele>
        <time>2012-04-11T13:42:12Z</time>
      </trkpt>
      <trkpt lat="46.22585" lon="4.4589">
        <ele>664</ele>
        <time>2012-04-11T13:42:15Z</time>
      </trkpt>
      <trkpt lat="46.22583" lon="4.459">
        <ele>671</ele>
        <time>2012-04-11T13:42:19Z</time>
      </trkpt>
      <trkpt lat="46.22582" lon="4.45902">
        <ele>671</ele>
        <time>2012-04-11T13:42:20Z</time>
      </trkpt>
      <trkpt lat="46.22582" lon="4.45917">
        <ele>668</ele>
        <time>2012-04-11T13:42:27Z</time>
      </trkpt>
      <trkpt lat="46.22582" lon="4.4592">
        <ele>669</ele>
        <time>2012-04-11T13:42:29Z</time>
      </trkpt>
      <trkpt lat="46.22586" lon="4.45927">
        <ele>669</ele>
        <time>2012-04-11T13:42:34Z</time>
      </trkpt>
      <trkpt lat="46.22589" lon="4.45932">
        <ele>669</ele>
        <time>2012-04-11T13:42:38Z</time>
      </trkpt>
      <trkpt lat="46.22592" lon="4.45937">
        <ele>669</ele>
        <time>2012-04-11T13:42:41Z</time>
      </trkpt>
      <trkpt lat="46.22597" lon="4.45942">
        <ele>669</ele>
        <time>2012-04-11T13:42:48Z</time>
      </trkpt>
      <trkpt lat="46.226" lon="4.45945">
        <ele>669</ele>
        <time>2012-04-11T13:42:56Z</time>
      </trkpt>
      <trkpt lat="46.22605" lon="4.45948">
        <ele>669</ele>
        <time>2012-04-11T13:43:10Z</time>
      </trkpt>
      <trkpt lat="46.22616" lon="4.45956">
        <ele>670</ele>
        <time>2012-04-11T13:43:18Z</time>
      </trkpt>
      <trkpt lat="46.22624" lon="4.45962">
        <ele>670</ele>
        <time>2012-04-11T13:43:23Z</time>
      </trkpt>
      <trkpt lat="46.22628" lon="4.45966">
        <ele>670</ele>
        <time>2012-04-11T13:43:26Z</time>
      </trkpt>
      <trkpt lat="46.22635" lon="4.45972">
        <ele>671</ele>
        <time>2012-04-11T13:43:31Z</time>
      </trkpt>
      <trkpt lat="46.22637" lon="4.45976">
        <ele>671</ele>
        <time>2012-04-11T13:43:33Z</time>
      </trkpt>
      <trkpt lat="46.22645" lon="4.45986">
        <ele>672</ele>
        <time>2012-04-11T13:43:40Z</time>
      </trkpt>
      <trkpt lat="46.2265" lon="4.45998">
        <ele>673</ele>
        <time>2012-04-11T13:43:47Z</time>
      </trkpt>
      <trkpt lat="46.2265" lon="4.46">
        <ele>674</ele>
        <time>2012-04-11T13:43:48Z</time>
      </trkpt>
      <trkpt lat="46.22651" lon="4.46002">
        <ele>678</ele>
        <time>2012-04-11T13:43:54Z</time>
      </trkpt>
      <trkpt lat="46.22653" lon="4.46004">
        <ele>678</ele>
        <time>2012-04-11T13:44:14Z</time>
      </trkpt>
      <trkpt lat="46.22655" lon="4.46008">
        <ele>678</ele>
        <time>2012-04-11T13:44:17Z</time>
      </trkpt>
      <trkpt lat="46.22657" lon="4.46019">
        <ele>679</ele>
        <time>2012-04-11T13:44:24Z</time>
      </trkpt>
      <trkpt lat="46.22657" lon="4.46024">
        <ele>679</ele>
        <time>2012-04-11T13:44:27Z</time>
      </trkpt>
      <trkpt lat="46.22656" lon="4.46034">
        <ele>680</ele>
        <time>2012-04-11T13:44:33Z</time>
      </trkpt>
      <trkpt lat="46.22658" lon="4.46048">
        <ele>681</ele>
        <time>2012-04-11T13:44:42Z</time>
      </trkpt>
      <trkpt lat="46.22657" lon="4.46061">
        <ele>682</ele>
        <time>2012-04-11T13:44:51Z</time>
      </trkpt>
      <trkpt lat="46.22658" lon="4.46063">
        <ele>682</ele>
        <time>2012-04-11T13:44:59Z</time>
      </trkpt>
      <trkpt lat="46.2266" lon="4.46069">
        <ele>683</ele>
        <time>2012-04-11T13:46:16Z</time>
      </trkpt>
      <trkpt lat="46.2266" lon="4.4608">
        <ele>685</ele>
        <time>2012-04-11T13:46:22Z</time>
      </trkpt>
      <trkpt lat="46.22661" lon="4.46093">
        <ele>687</ele>
        <time>2012-04-11T13:46:29Z</time>
      </trkpt>
      <trkpt lat="46.22663" lon="4.46099">
        <ele>687</ele>
        <time>2012-04-11T13:46:35Z</time>
      </trkpt>
      <trkpt lat="46.22666" lon="4.46103">
        <ele>687</ele>
        <time>2012-04-11T13:46:42Z</time>
      </trkpt>
      <trkpt lat="46.22668" lon="4.46111">
        <ele>683</ele>
        <time>2012-04-11T13:46:48Z</time>
      </trkpt>
      <trkpt lat="46.22669" lon="4.46116">
        <ele>683</ele>
        <time>2012-04-11T13:46:52Z</time>
      </trkpt>
      <trkpt lat="46.22671" lon="4.46121">
        <ele>683</ele>
        <time>2012-04-11T13:46:55Z</time>
      </trkpt>
      <trkpt lat="46.22671" lon="4.46123">
        <ele>683</ele>
        <time>2012-04-11T13:46:56Z</time>
      </trkpt>
      <trkpt lat="46.22674" lon="4.46132">
        <ele>683</ele>
        <time>2012-04-11T13:47:02Z</time>
      </trkpt>
      <trkpt lat="46.22675" lon="4.46135">
        <ele>683</ele>
        <time>2012-04-11T13:47:04Z</time>
      </trkpt>
      <trkpt lat="46.22677" lon="4.46141">
        <ele>684</ele>
        <time>2012-04-11T13:47:07Z</time>
      </trkpt>
      <trkpt lat="46.22678" lon="4.46146">
        <ele>684</ele>
        <time>2012-04-11T13:47:09Z</time>
      </trkpt>
      <trkpt lat="46.2268" lon="4.46149">
        <ele>685</ele>
        <time>2012-04-11T13:47:11Z</time>
      </trkpt>
      <trkpt lat="46.2268" lon="4.46151">
        <ele>685</ele>
        <time>2012-04-11T13:47:14Z</time>
      </trkpt>
      <trkpt lat="46.22682" lon="4.46157">
        <ele>685</ele>
        <time>2012-04-11T13:47:41Z</time>
      </trkpt>
      <trkpt lat="46.22681" lon="4.46161">
        <ele>686</ele>
        <time>2012-04-11T13:47:43Z</time>
      </trkpt>
      <trkpt lat="46.22676" lon="4.46176">
        <ele>687</ele>
        <time>2012-04-11T13:47:51Z</time>
      </trkpt>
      <trkpt lat="46.22672" lon="4.46174">
        <ele>688</ele>
        <time>2012-04-11T13:47:58Z</time>
      </trkpt>
      <trkpt lat="46.22668" lon="4.46177">
        <ele>687</ele>
        <time>2012-04-11T13:48:36Z</time>
      </trkpt>
      <trkpt lat="46.22666" lon="4.46179">
        <ele>691</ele>
        <time>2012-04-11T13:48:38Z</time>
      </trkpt>
      <trkpt lat="46.22658" lon="4.4619">
        <ele>691</ele>
        <time>2012-04-11T13:48:44Z</time>
      </trkpt>
      <trkpt lat="46.22647" lon="4.46197">
        <ele>691</ele>
        <time>2012-04-11T13:48:51Z</time>
      </trkpt>
      <trkpt lat="46.22635" lon="4.46199">
        <ele>692</ele>
        <time>2012-04-11T13:48:58Z</time>
      </trkpt>
      <trkpt lat="46.22633" lon="4.462">
        <ele>692</ele>
        <time>2012-04-11T13:48:59Z</time>
      </trkpt>
      <trkpt lat="46.22622" lon="4.46201">
        <ele>692</ele>
        <time>2012-04-11T13:49:05Z</time>
      </trkpt>
      <trkpt lat="46.22612" lon="4.46206">
        <ele>693</ele>
        <time>2012-04-11T13:49:10Z</time>
      </trkpt>
      <trkpt lat="46.22601" lon="4.46208">
        <ele>693</ele>
        <time>2012-04-11T13:49:17Z</time>
      </trkpt>
      <trkpt lat="46.226" lon="4.46208">
        <ele>693</ele>
        <time>2012-04-11T13:49:18Z</time>
      </trkpt>
      <trkpt lat="46.22593" lon="4.46207">
        <ele>693</ele>
        <time>2012-04-11T13:49:23Z</time>
      </trkpt>
      <trkpt lat="46.22584" lon="4.4621">
        <ele>693</ele>
        <time>2012-04-11T13:49:29Z</time>
      </trkpt>
      <trkpt lat="46.22579" lon="4.46212">
        <ele>698</ele>
        <time>2012-04-11T13:49:42Z</time>
      </trkpt>
      <trkpt lat="46.22575" lon="4.46214">
        <ele>699</ele>
        <time>2012-04-11T13:49:47Z</time>
      </trkpt>
      <trkpt lat="46.22573" lon="4.46214">
        <ele>699</ele>
        <time>2012-04-11T13:49:49Z</time>
      </trkpt>
      <trkpt lat="46.22566" lon="4.46214">
        <ele>699</ele>
        <time>2012-04-11T13:49:57Z</time>
      </trkpt>
      <trkpt lat="46.22565" lon="4.46214">
        <ele>699</ele>
        <time>2012-04-11T13:49:58Z</time>
      </trkpt>
      <trkpt lat="46.22564" lon="4.46215">
        <ele>699</ele>
        <time>2012-04-11T13:49:59Z</time>
      </trkpt>
      <trkpt lat="46.22562" lon="4.46217">
        <ele>699</ele>
        <time>2012-04-11T13:50:04Z</time>
      </trkpt>
      <trkpt lat="46.22561" lon="4.46223">
        <ele>699</ele>
        <time>2012-04-11T13:50:16Z</time>
      </trkpt>
      <trkpt lat="46.22554" lon="4.46222">
        <ele>700</ele>
        <time>2012-04-11T13:50:39Z</time>
      </trkpt>
      <trkpt lat="46.22548" lon="4.4622">
        <ele>700</ele>
        <time>2012-04-11T13:50:46Z</time>
      </trkpt>
      <trkpt lat="46.22546" lon="4.46219">
        <ele>700</ele>
        <time>2012-04-11T13:50:48Z</time>
      </trkpt>
      <trkpt lat="46.22541" lon="4.46219">
        <ele>700</ele>
        <time>2012-04-11T13:50:52Z</time>
      </trkpt>
      <trkpt lat="46.22532" lon="4.46221">
        <ele>701</ele>
        <time>2012-04-11T13:50:59Z</time>
      </trkpt>
      <trkpt lat="46.22531" lon="4.46221">
        <ele>701</ele>
        <time>2012-04-11T13:51:00Z</time>
      </trkpt>
      <trkpt lat="46.22524" lon="4.46221">
        <ele>701</ele>
        <time>2012-04-11T13:51:05Z</time>
      </trkpt>
      <trkpt lat="46.2252" lon="4.46223">
        <ele>702</ele>
        <time>2012-04-11T13:51:08Z</time>
      </trkpt>
      <trkpt lat="46.22515" lon="4.46224">
        <ele>702</ele>
        <time>2012-04-11T13:51:11Z</time>
      </trkpt>
      <trkpt lat="46.2251" lon="4.46223">
        <ele>702</ele>
        <time>2012-04-11T13:51:17Z</time>
      </trkpt>
      <trkpt lat="46.22507" lon="4.46222">
        <ele>702</ele>
        <time>2012-04-11T13:51:19Z</time>
      </trkpt>
      <trkpt lat="46.22499" lon="4.46221">
        <ele>708</ele>
        <time>2012-04-11T13:51:26Z</time>
      </trkpt>
      <trkpt lat="46.22497" lon="4.46222">
        <ele>708</ele>
        <time>2012-04-11T13:51:27Z</time>
      </trkpt>
      <trkpt lat="46.22489" lon="4.46219">
        <ele>708</ele>
        <time>2012-04-11T13:51:33Z</time>
      </trkpt>
      <trkpt lat="46.22479" lon="4.46221">
        <ele>708</ele>
        <time>2012-04-11T13:51:40Z</time>
      </trkpt>
      <trkpt lat="46.22469" lon="4.46223">
        <ele>709</ele>
        <time>2012-04-11T13:51:48Z</time>
      </trkpt>
      <trkpt lat="46.22462" lon="4.46224">
        <ele>709</ele>
        <time>2012-04-11T13:51:55Z</time>
      </trkpt>
      <trkpt lat="46.2246" lon="4.46224">
        <ele>709</ele>
        <time>2012-04-11T13:52:01Z</time>
      </trkpt>
      <trkpt lat="46.22453" lon="4.46221">
        <ele>710</ele>
        <time>2012-04-11T13:52:32Z</time>
      </trkpt>
      <trkpt lat="46.22447" lon="4.46218">
        <ele>710</ele>
        <time>2012-04-11T13:52:37Z</time>
      </trkpt>
      <trkpt lat="46.22444" lon="4.46218">
        <ele>710</ele>
        <time>2012-04-11T13:52:39Z</time>
      </trkpt>
      <trkpt lat="46.22439" lon="4.46215">
        <ele>710</ele>
        <time>2012-04-11T13:52:43Z</time>
      </trkpt>
      <trkpt lat="46.22436" lon="4.46214">
        <ele>710</ele>
        <time>2012-04-11T13:52:45Z</time>
      </trkpt>
      <trkpt lat="46.22429" lon="4.46206">
        <ele>711</ele>
        <time>2012-04-11T13:52:52Z</time>
      </trkpt>
      <trkpt lat="46.22421" lon="4.46199">
        <ele>711</ele>
        <time>2012-04-11T13:53:00Z</time>
      </trkpt>
      <trkpt lat="46.22412" lon="4.46191">
        <ele>715</ele>
        <time>2012-04-11T13:53:08Z</time>
      </trkpt>
      <trkpt lat="46.22405" lon="4.46189">
        <ele>715</ele>
        <time>2012-04-11T13:53:15Z</time>
      </trkpt>
      <trkpt lat="46.22396" lon="4.46187">
        <ele>716</ele>
        <time>2012-04-11T13:53:21Z</time>
      </trkpt>
      <trkpt lat="46.22394" lon="4.46188">
        <ele>716</ele>
        <time>2012-04-11T13:53:22Z</time>
      </trkpt>
      <trkpt lat="46.22385" lon="4.46185">
        <ele>716</ele>
        <time>2012-04-11T13:53:30Z</time>
      </trkpt>
      <trkpt lat="46.22377" lon="4.46183">
        <ele>717</ele>
        <time>2012-04-11T13:53:36Z</time>
      </trkpt>
      <trkpt lat="46.22368" lon="4.46182">
        <ele>717</ele>
        <time>2012-04-11T13:53:43Z</time>
      </trkpt>
      <trkpt lat="46.22361" lon="4.46182">
        <ele>717</ele>
        <time>2012-04-11T13:53:50Z</time>
      </trkpt>
      <trkpt lat="46.22358" lon="4.46183">
        <ele>718</ele>
        <time>2012-04-11T13:53:52Z</time>
      </trkpt>
      <trkpt lat="46.2235" lon="4.46182">
        <ele>718</ele>
        <time>2012-04-11T13:53:57Z</time>
      </trkpt>
      <trkpt lat="46.22341" lon="4.46181">
        <ele>719</ele>
        <time>2012-04-11T13:54:04Z</time>
      </trkpt>
      <trkpt lat="46.22337" lon="4.46182">
        <ele>719</ele>
        <time>2012-04-11T13:54:11Z</time>
      </trkpt>
      <trkpt lat="46.22331" lon="4.46182">
        <ele>722</ele>
        <time>2012-04-11T13:54:26Z</time>
      </trkpt>
      <trkpt lat="46.22325" lon="4.46182">
        <ele>722</ele>
        <time>2012-04-11T13:54:33Z</time>
      </trkpt>
      <trkpt lat="46.22322" lon="4.46181">
        <ele>722</ele>
        <time>2012-04-11T13:54:37Z</time>
      </trkpt>
      <trkpt lat="46.2232" lon="4.46181">
        <ele>722</ele>
        <time>2012-04-11T13:54:39Z</time>
      </trkpt>
      <trkpt lat="46.2231" lon="4.46178">
        <ele>722</ele>
        <time>2012-04-11T13:54:46Z</time>
      </trkpt>
      <trkpt lat="46.22298" lon="4.46173">
        <ele>723</ele>
        <time>2012-04-11T13:54:54Z</time>
      </trkpt>
      <trkpt lat="46.22289" lon="4.46171">
        <ele>724</ele>
        <time>2012-04-11T13:55:01Z</time>
      </trkpt>
      <trkpt lat="46.22286" lon="4.46171">
        <ele>724</ele>
        <time>2012-04-11T13:55:03Z</time>
      </trkpt>
      <trkpt lat="46.22278" lon="4.4617">
        <ele>725</ele>
        <time>2012-04-11T13:55:09Z</time>
      </trkpt>
      <trkpt lat="46.22267" lon="4.46167">
        <ele>731</ele>
        <time>2012-04-11T13:55:16Z</time>
      </trkpt>
      <trkpt lat="46.22253" lon="4.46168">
        <ele>731</ele>
        <time>2012-04-11T13:55:25Z</time>
      </trkpt>
      <trkpt lat="46.2225" lon="4.46168">
        <ele>731</ele>
        <time>2012-04-11T13:55:27Z</time>
      </trkpt>
      <trkpt lat="46.22242" lon="4.46167">
        <ele>734</ele>
        <time>2012-04-11T13:55:32Z</time>
      </trkpt>
      <trkpt lat="46.22232" lon="4.46162">
        <ele>735</ele>
        <time>2012-04-11T13:55:40Z</time>
      </trkpt>
      <trkpt lat="46.22225" lon="4.46155">
        <ele>736</ele>
        <time>2012-04-11T13:55:45Z</time>
      </trkpt>
      <trkpt lat="46.22219" lon="4.46145">
        <ele>737</ele>
        <time>2012-04-11T13:55:51Z</time>
      </trkpt>
      <trkpt lat="46.22218" lon="4.46143">
        <ele>737</ele>
        <time>2012-04-11T13:55:52Z</time>
      </trkpt>
      <trkpt lat="46.22213" lon="4.46131">
        <ele>738</ele>
        <time>2012-04-11T13:56:00Z</time>
      </trkpt>
      <trkpt lat="46.22206" lon="4.46119">
        <ele>739</ele>
        <time>2012-04-11T13:56:09Z</time>
      </trkpt>
      <trkpt lat="46.22199" lon="4.4611">
        <ele>739</ele>
        <time>2012-04-11T13:56:15Z</time>
      </trkpt>
      <trkpt lat="46.22196" lon="4.46104">
        <ele>740</ele>
        <time>2012-04-11T13:56:19Z</time>
      </trkpt>
      <trkpt lat="46.22194" lon="4.461">
        <ele>740</ele>
        <time>2012-04-11T13:56:21Z</time>
      </trkpt>
      <trkpt lat="46.22185" lon="4.46091">
        <ele>741</ele>
        <time>2012-04-11T13:56:26Z</time>
      </trkpt>
      <trkpt lat="46.22171" lon="4.46083">
        <ele>745</ele>
        <time>2012-04-11T13:56:31Z</time>
      </trkpt>
      <trkpt lat="46.22165" lon="4.46079">
        <ele>745</ele>
        <time>2012-04-11T13:56:33Z</time>
      </trkpt>
      <trkpt lat="46.22154" lon="4.46074">
        <ele>745</ele>
        <time>2012-04-11T13:56:36Z</time>
      </trkpt>
      <trkpt lat="46.22135" lon="4.46067">
        <ele>746</ele>
        <time>2012-04-11T13:56:42Z</time>
      </trkpt>
      <trkpt lat="46.22129" lon="4.46065">
        <ele>746</ele>
        <time>2012-04-11T13:56:44Z</time>
      </trkpt>
      <trkpt lat="46.22124" lon="4.46064">
        <ele>745</ele>
        <time>2012-04-11T13:56:46Z</time>
      </trkpt>
      <trkpt lat="46.22114" lon="4.46062">
        <ele>745</ele>
        <time>2012-04-11T13:56:52Z</time>
      </trkpt>
      <trkpt lat="46.22111" lon="4.46062">
        <ele>745</ele>
        <time>2012-04-11T13:57:04Z</time>
      </trkpt>
      <trkpt lat="46.22113" lon="4.46066">
        <ele>745</ele>
        <time>2012-04-11T13:57:10Z</time>
      </trkpt>
      <trkpt lat="46.22106" lon="4.46069">
        <ele>745</ele>
        <time>2012-04-11T13:57:14Z</time>
      </trkpt>
      <trkpt lat="46.22101" lon="4.46072">
        <ele>745</ele>
        <time>2012-04-11T13:57:16Z</time>
      </trkpt>
      <trkpt lat="46.22099" lon="4.46074">
        <ele>745</ele>
        <time>2012-04-11T13:57:17Z</time>
      </trkpt>
      <trkpt lat="46.22089" lon="4.46084">
        <ele>742</ele>
        <time>2012-04-11T13:57:21Z</time>
      </trkpt>
      <trkpt lat="46.22075" lon="4.46101">
        <ele>741</ele>
        <time>2012-04-11T13:57:26Z</time>
      </trkpt>
      <trkpt lat="46.22071" lon="4.46107">
        <ele>740</ele>
        <time>2012-04-11T13:57:28Z</time>
      </trkpt>
      <trkpt lat="46.2206" lon="4.46115">
        <ele>740</ele>
        <time>2012-04-11T13:57:31Z</time>
      </trkpt>
      <trkpt lat="46.22042" lon="4.46129">
        <ele>739</ele>
        <time>2012-04-11T13:57:37Z</time>
      </trkpt>
      <trkpt lat="46.22037" lon="4.46132">
        <ele>739</ele>
        <time>2012-04-11T13:57:39Z</time>
      </trkpt>
      <trkpt lat="46.2203" lon="4.46136">
        <ele>739</ele>
        <time>2012-04-11T13:57:42Z</time>
      </trkpt>
      <trkpt lat="46.22013" lon="4.46148">
        <ele>739</ele>
        <time>2012-04-11T13:57:47Z</time>
      </trkpt>
      <trkpt lat="46.22004" lon="4.46156">
        <ele>740</ele>
        <time>2012-04-11T13:57:51Z</time>
      </trkpt>
      <trkpt lat="46.22" lon="4.46163">
        <ele>740</ele>
        <time>2012-04-11T13:57:53Z</time>
      </trkpt>
      <trkpt lat="46.21995" lon="4.46176">
        <ele>738</ele>
        <time>2012-04-11T13:57:58Z</time>
      </trkpt>
      <trkpt lat="46.21991" lon="4.46203">
        <ele>735</ele>
        <time>2012-04-11T13:58:04Z</time>
      </trkpt>
      <trkpt lat="46.21988" lon="4.46227">
        <ele>735</ele>
        <time>2012-04-11T13:58:08Z</time>
      </trkpt>
      <trkpt lat="46.21986" lon="4.46242">
        <ele>736</ele>
        <time>2012-04-11T13:58:12Z</time>
      </trkpt>
      <trkpt lat="46.21985" lon="4.46245">
        <ele>736</ele>
        <time>2012-04-11T13:58:16Z</time>
      </trkpt>
      <trkpt lat="46.21984" lon="4.46247">
        <ele>736</ele>
        <time>2012-04-11T13:58:25Z</time>
      </trkpt>
      <trkpt lat="46.21985" lon="4.46254">
        <ele>736</ele>
        <time>2012-04-11T13:58:28Z</time>
      </trkpt>
      <trkpt lat="46.21985" lon="4.46257">
        <ele>736</ele>
        <time>2012-04-11T13:58:29Z</time>
      </trkpt>
      <trkpt lat="46.21985" lon="4.46275">
        <ele>735</ele>
        <time>2012-04-11T13:58:33Z</time>
      </trkpt>
      <trkpt lat="46.21983" lon="4.46304">
        <ele>735</ele>
        <time>2012-04-11T13:58:39Z</time>
      </trkpt>
      <trkpt lat="46.21983" lon="4.46308">
        <ele>735</ele>
        <time>2012-04-11T13:58:40Z</time>
      </trkpt>
      <trkpt lat="46.21982" lon="4.46332">
        <ele>737</ele>
        <time>2012-04-11T13:58:46Z</time>
      </trkpt>
      <trkpt lat="46.21982" lon="4.46354">
        <ele>738</ele>
        <time>2012-04-11T13:58:53Z</time>
      </trkpt>
      <trkpt lat="46.21981" lon="4.46362">
        <ele>738</ele>
        <time>2012-04-11T13:58:57Z</time>
      </trkpt>
      <trkpt lat="46.21982" lon="4.46369">
        <ele>738</ele>
        <time>2012-04-11T13:58:59Z</time>
      </trkpt>
      <trkpt lat="46.21983" lon="4.46399">
        <ele>740</ele>
        <time>2012-04-11T13:59:07Z</time>
      </trkpt>
      <trkpt lat="46.21982" lon="4.46404">
        <ele>741</ele>
        <time>2012-04-11T13:59:10Z</time>
      </trkpt>
      <trkpt lat="46.2198" lon="4.46409">
        <ele>741</ele>
        <time>2012-04-11T13:59:12Z</time>
      </trkpt>
      <trkpt lat="46.21978" lon="4.46412">
        <ele>741</ele>
        <time>2012-04-11T13:59:13Z</time>
      </trkpt>
      <trkpt lat="46.21971" lon="4.46427">
        <ele>745</ele>
        <time>2012-04-11T13:59:19Z</time>
      </trkpt>
      <trkpt lat="46.21965" lon="4.46434">
        <ele>744</ele>
        <time>2012-04-11T13:59:25Z</time>
      </trkpt>
      <trkpt lat="46.21965" lon="4.46435">
        <ele>744</ele>
        <time>2012-04-11T13:59:26Z</time>
      </trkpt>
      <trkpt lat="46.2197" lon="4.46427">
        <ele>744</ele>
        <time>2012-04-11T13:59:30Z</time>
      </trkpt>
      <trkpt lat="46.21975" lon="4.46419">
        <ele>745</ele>
        <time>2012-04-11T13:59:32Z</time>
      </trkpt>
      <trkpt lat="46.21977" lon="4.46413">
        <ele>741</ele>
        <time>2012-04-11T13:59:33Z</time>
      </trkpt>
      <trkpt lat="46.2198" lon="4.46401">
        <ele>740</ele>
        <time>2012-04-11T13:59:35Z</time>
      </trkpt>
      <trkpt lat="46.21982" lon="4.46364">
        <ele>738</ele>
        <time>2012-04-11T13:59:40Z</time>
      </trkpt>
      <trkpt lat="46.21982" lon="4.46346">
        <ele>738</ele>
        <time>2012-04-11T13:59:42Z</time>
      </trkpt>
      <trkpt lat="46.21983" lon="4.46315">
        <ele>736</ele>
        <time>2012-04-11T13:59:45Z</time>
      </trkpt>
      <trkpt lat="46.21984" lon="4.46305">
        <ele>735</ele>
        <time>2012-04-11T13:59:46Z</time>
      </trkpt>
      <trkpt lat="46.21983" lon="4.46281">
        <ele>734</ele>
        <time>2012-04-11T13:59:49Z</time>
      </trkpt>
      <trkpt lat="46.21983" lon="4.46278">
        <ele>734</ele>
        <time>2012-04-11T13:59:50Z</time>
      </trkpt>
      <trkpt lat="46.21979" lon="4.46277">
        <ele>734</ele>
        <time>2012-04-11T13:59:52Z</time>
      </trkpt>
      <trkpt lat="46.21975" lon="4.46285">
        <ele>734</ele>
        <time>2012-04-11T13:59:56Z</time>
      </trkpt>
      <trkpt lat="46.21974" lon="4.46287">
        <ele>734</ele>
        <time>2012-04-11T13:59:57Z</time>
      </trkpt>
      <trkpt lat="46.21972" lon="4.46298">
        <ele>733</ele>
        <time>2012-04-11T14:00:01Z</time>
      </trkpt>
      <trkpt lat="46.21971" lon="4.46302">
        <ele>733</ele>
        <time>2012-04-11T14:00:02Z</time>
      </trkpt>
      <trkpt lat="46.21969" lon="4.46314">
        <ele>734</ele>
        <time>2012-04-11T14:00:07Z</time>
      </trkpt>
      <trkpt lat="46.21969" lon="4.46319">
        <ele>734</ele>
        <time>2012-04-11T14:00:12Z</time>
      </trkpt>
      <trkpt lat="46.2197" lon="4.46322">
        <ele>734</ele>
        <time>2012-04-11T14:00:19Z</time>
      </trkpt>
      <trkpt lat="46.21975" lon="4.46327">
        <ele>735</ele>
        <time>2012-04-11T14:00:26Z</time>
      </trkpt>
      <trkpt lat="46.21977" lon="4.46303">
        <ele>734</ele>
        <time>2012-04-11T14:01:32Z</time>
      </trkpt>
      <trkpt lat="46.21977" lon="4.46294">
        <ele>734</ele>
        <time>2012-04-11T14:01:35Z</time>
      </trkpt>
      <trkpt lat="46.21977" lon="4.4629">
        <ele>734</ele>
        <time>2012-04-11T14:01:36Z</time>
      </trkpt>
      <trkpt lat="46.21979" lon="4.4627">
        <ele>734</ele>
        <time>2012-04-11T14:01:40Z</time>
      </trkpt>
      <trkpt lat="46.21981" lon="4.46265">
        <ele>735</ele>
        <time>2012-04-11T14:01:41Z</time>
      </trkpt>
      <trkpt lat="46.21988" lon="4.46251">
        <ele>736</ele>
        <time>2012-04-11T14:01:45Z</time>
      </trkpt>
      <trkpt lat="46.21984" lon="4.46242">
        <ele>736</ele>
        <time>2012-04-11T14:01:48Z</time>
      </trkpt>
      <trkpt lat="46.21982" lon="4.46239">
        <ele>735</ele>
        <time>2012-04-11T14:01:49Z</time>
      </trkpt>
      <trkpt lat="46.21974" lon="4.46235">
        <ele>735</ele>
        <time>2012-04-11T14:01:51Z</time>
      </trkpt>
      <trkpt lat="46.21962" lon="4.46228">
        <ele>733</ele>
        <time>2012-04-11T14:01:54Z</time>
      </trkpt>
      <trkpt lat="46.21953" lon="4.46224">
        <ele>732</ele>
        <time>2012-04-11T14:01:56Z</time>
      </trkpt>
      <trkpt lat="46.2193" lon="4.46215">
        <ele>731</ele>
        <time>2012-04-11T14:02:00Z</time>
      </trkpt>
      <trkpt lat="46.21925" lon="4.46212">
        <ele>731</ele>
        <time>2012-04-11T14:02:01Z</time>
      </trkpt>
      <trkpt lat="46.21919" lon="4.46208">
        <ele>731</ele>
        <time>2012-04-11T14:02:02Z</time>
      </trkpt>
      <trkpt lat="46.21903" lon="4.46195">
        <ele>720</ele>
        <time>2012-04-11T14:02:05Z</time>
      </trkpt>
      <trkpt lat="46.21898" lon="4.46189">
        <ele>719</ele>
        <time>2012-04-11T14:02:06Z</time>
      </trkpt>
      <trkpt lat="46.21888" lon="4.46178">
        <ele>719</ele>
        <time>2012-04-11T14:02:08Z</time>
      </trkpt>
      <trkpt lat="46.21878" lon="4.46167">
        <ele>717</ele>
        <time>2012-04-11T14:02:10Z</time>
      </trkpt>
      <trkpt lat="46.21873" lon="4.46161">
        <ele>721</ele>
        <time>2012-04-11T14:02:11Z</time>
      </trkpt>
      <trkpt lat="46.21857" lon="4.46147">
        <ele>719</ele>
        <time>2012-04-11T14:02:14Z</time>
      </trkpt>
      <trkpt lat="46.21844" lon="4.46135">
        <ele>719</ele>
        <time>2012-04-11T14:02:18Z</time>
      </trkpt>
      <trkpt lat="46.2184" lon="4.46127">
        <ele>719</ele>
        <time>2012-04-11T14:02:22Z</time>
      </trkpt>
      <trkpt lat="46.21841" lon="4.46127">
        <ele>719</ele>
        <time>2012-04-11T14:02:32Z</time>
      </trkpt>
      <trkpt lat="46.21836" lon="4.46127">
        <ele>719</ele>
        <time>2012-04-11T14:02:34Z</time>
      </trkpt>
      <trkpt lat="46.21829" lon="4.46132">
        <ele>703</ele>
        <time>2012-04-11T14:02:36Z</time>
      </trkpt>
      <trkpt lat="46.21826" lon="4.46136">
        <ele>702</ele>
        <time>2012-04-11T14:02:37Z</time>
      </trkpt>
      <trkpt lat="46.21824" lon="4.46142">
        <ele>702</ele>
        <time>2012-04-11T14:02:38Z</time>
      </trkpt>
      <trkpt lat="46.21822" lon="4.46167">
        <ele>701</ele>
        <time>2012-04-11T14:02:42Z</time>
      </trkpt>
      <trkpt lat="46.21824" lon="4.46176">
        <ele>700</ele>
        <time>2012-04-11T14:02:43Z</time>
      </trkpt>
      <trkpt lat="46.21827" lon="4.46185">
        <ele>698</ele>
        <time>2012-04-11T14:02:44Z</time>
      </trkpt>
      <trkpt lat="46.21834" lon="4.46204">
        <ele>710</ele>
        <time>2012-04-11T14:02:46Z</time>
      </trkpt>
      <trkpt lat="46.21839" lon="4.46226">
        <ele>708</ele>
        <time>2012-04-11T14:02:48Z</time>
      </trkpt>
      <trkpt lat="46.21842" lon="4.46236">
        <ele>706</ele>
        <time>2012-04-11T14:02:49Z</time>
      </trkpt>
      <trkpt lat="46.21843" lon="4.46244">
        <ele>704</ele>
        <time>2012-04-11T14:02:50Z</time>
      </trkpt>
      <trkpt lat="46.2184" lon="4.46252">
        <ele>701</ele>
        <time>2012-04-11T14:02:52Z</time>
      </trkpt>
      <trkpt lat="46.21837" lon="4.46252">
        <ele>700</ele>
        <time>2012-04-11T14:02:53Z</time>
      </trkpt>
      <trkpt lat="46.2183" lon="4.46244">
        <ele>696</ele>
        <time>2012-04-11T14:02:56Z</time>
      </trkpt>
      <trkpt lat="46.21822" lon="4.4623">
        <ele>694</ele>
        <time>2012-04-11T14:02:58Z</time>
      </trkpt>
      <trkpt lat="46.21817" lon="4.46222">
        <ele>693</ele>
        <time>2012-04-11T14:02:59Z</time>
      </trkpt>
      <trkpt lat="46.21798" lon="4.46192">
        <ele>693</ele>
        <time>2012-04-11T14:03:03Z</time>
      </trkpt>
      <trkpt lat="46.21792" lon="4.46185">
        <ele>692</ele>
        <time>2012-04-11T14:03:04Z</time>
      </trkpt>
      <trkpt lat="46.21777" lon="4.46172">
        <ele>689</ele>
        <time>2012-04-11T14:03:08Z</time>
      </trkpt>
      <trkpt lat="46.21767" lon="4.46165">
        <ele>691</ele>
        <time>2012-04-11T14:03:14Z</time>
      </trkpt>
      <trkpt lat="46.21764" lon="4.46162">
        <ele>691</ele>
        <time>2012-04-11T14:03:16Z</time>
      </trkpt>
      <trkpt lat="46.21761" lon="4.46153">
        <ele>691</ele>
        <time>2012-04-11T14:03:19Z</time>
      </trkpt>
      <trkpt lat="46.21753" lon="4.46139">
        <ele>693</ele>
        <time>2012-04-11T14:03:24Z</time>
      </trkpt>
      <trkpt lat="46.21751" lon="4.46139">
        <ele>693</ele>
        <time>2012-04-11T14:03:27Z</time>
      </trkpt>
      <trkpt lat="46.21751" lon="4.46145">
        <ele>692</ele>
        <time>2012-04-11T14:03:32Z</time>
      </trkpt>
      <trkpt lat="46.21752" lon="4.46145">
        <ele>692</ele>
        <time>2012-04-11T14:03:33Z</time>
      </trkpt>
      <trkpt lat="46.21757" lon="4.46144">
        <ele>692</ele>
        <time>2012-04-11T14:03:36Z</time>
      </trkpt>
      <trkpt lat="46.21761" lon="4.46149">
        <ele>692</ele>
        <time>2012-04-11T14:03:39Z</time>
      </trkpt>
      <trkpt lat="46.21762" lon="4.46152">
        <ele>692</ele>
        <time>2012-04-11T14:03:40Z</time>
      </trkpt>
      <trkpt lat="46.2177" lon="4.46161">
        <ele>692</ele>
        <time>2012-04-11T14:03:45Z</time>
      </trkpt>
      <trkpt lat="46.21773" lon="4.46166">
        <ele>693</ele>
        <time>2012-04-11T14:03:49Z</time>
      </trkpt>
      <trkpt lat="46.21773" lon="4.46168">
        <ele>689</ele>
        <time>2012-04-11T14:03:50Z</time>
      </trkpt>
      <trkpt lat="46.2177" lon="4.46171">
        <ele>688</ele>
        <time>2012-04-11T14:03:54Z</time>
      </trkpt>
      <trkpt lat="46.21768" lon="4.46171">
        <ele>688</ele>
        <time>2012-04-11T14:04:05Z</time>
      </trkpt>
      <trkpt lat="46.21763" lon="4.46168">
        <ele>687</ele>
        <time>2012-04-11T14:04:07Z</time>
      </trkpt>
      <trkpt lat="46.21755" lon="4.46163">
        <ele>687</ele>
        <time>2012-04-11T14:04:09Z</time>
      </trkpt>
      <trkpt lat="46.21751" lon="4.4616">
        <ele>687</ele>
        <time>2012-04-11T14:04:10Z</time>
      </trkpt>
      <trkpt lat="46.21746" lon="4.46156">
        <ele>681</ele>
        <time>2012-04-11T14:04:11Z</time>
      </trkpt>
      <trkpt lat="46.21723" lon="4.46134">
        <ele>676</ele>
        <time>2012-04-11T14:04:16Z</time>
      </trkpt>
      <trkpt lat="46.21719" lon="4.46129">
        <ele>675</ele>
        <time>2012-04-11T14:04:17Z</time>
      </trkpt>
      <trkpt lat="46.217" lon="4.46106">
        <ele>673</ele>
        <time>2012-04-11T14:04:22Z</time>
      </trkpt>
      <trkpt lat="46.21697" lon="4.46101">
        <ele>673</ele>
        <time>2012-04-11T14:04:23Z</time>
      </trkpt>
      <trkpt lat="46.21693" lon="4.46096">
        <ele>672</ele>
        <time>2012-04-11T14:04:24Z</time>
      </trkpt>
      <trkpt lat="46.21686" lon="4.46083">
        <ele>671</ele>
        <time>2012-04-11T14:04:27Z</time>
      </trkpt>
      <trkpt lat="46.21682" lon="4.46072">
        <ele>671</ele>
        <time>2012-04-11T14:04:32Z</time>
      </trkpt>
      <trkpt lat="46.21677" lon="4.46063">
        <ele>671</ele>
        <time>2012-04-11T14:05:28Z</time>
      </trkpt>
      <trkpt lat="46.21674" lon="4.4605">
        <ele>672</ele>
        <time>2012-04-11T14:05:31Z</time>
      </trkpt>
      <trkpt lat="46.21672" lon="4.46045">
        <ele>672</ele>
        <time>2012-04-11T14:05:32Z</time>
      </trkpt>
      <trkpt lat="46.21663" lon="4.46017">
        <ele>660</ele>
        <time>2012-04-11T14:05:37Z</time>
      </trkpt>
      <trkpt lat="46.21662" lon="4.46011">
        <ele>660</ele>
        <time>2012-04-11T14:05:38Z</time>
      </trkpt>
      <trkpt lat="46.21661" lon="4.45997">
        <ele>661</ele>
        <time>2012-04-11T14:05:40Z</time>
      </trkpt>
      <trkpt lat="46.2166" lon="4.45989">
        <ele>660</ele>
        <time>2012-04-11T14:05:41Z</time>
      </trkpt>
      <trkpt lat="46.21659" lon="4.45974">
        <ele>657</ele>
        <time>2012-04-11T14:05:43Z</time>
      </trkpt>
      <trkpt lat="46.2166" lon="4.45956">
        <ele>656</ele>
        <time>2012-04-11T14:05:46Z</time>
      </trkpt>
      <trkpt lat="46.21661" lon="4.45941">
        <ele>656</ele>
        <time>2012-04-11T14:05:50Z</time>
      </trkpt>
      <trkpt lat="46.21661" lon="4.45937">
        <ele>656</ele>
        <time>2012-04-11T14:05:52Z</time>
      </trkpt>
      <trkpt lat="46.21661" lon="4.45937">
        <ele>656</ele>
        <time>2012-04-11T14:06:01Z</time>
      </trkpt>
      <trkpt lat="46.2166" lon="4.45931">
        <ele>657</ele>
        <time>2012-04-11T14:06:34Z</time>
      </trkpt>
      <trkpt lat="46.21662" lon="4.45923">
        <ele>657</ele>
        <time>2012-04-11T14:06:39Z</time>
      </trkpt>
      <trkpt lat="46.21666" lon="4.459">
        <ele>656</ele>
        <time>2012-04-11T14:06:47Z</time>
      </trkpt>
      <trkpt lat="46.21667" lon="4.45892">
        <ele>665</ele>
        <time>2012-04-11T14:06:49Z</time>
      </trkpt>
      <trkpt lat="46.21671" lon="4.45871">
        <ele>666</ele>
        <time>2012-04-11T14:06:54Z</time>
      </trkpt>
      <trkpt lat="46.21677" lon="4.4584">
        <ele>662</ele>
        <time>2012-04-11T14:07:01Z</time>
      </trkpt>
      <trkpt lat="46.21682" lon="4.45813">
        <ele>666</ele>
        <time>2012-04-11T14:07:08Z</time>
      </trkpt>
      <trkpt lat="46.21686" lon="4.458">
        <ele>667</ele>
        <time>2012-04-11T14:07:14Z</time>
      </trkpt>
      <trkpt lat="46.21681" lon="4.45792">
        <ele>668</ele>
        <time>2012-04-11T14:07:19Z</time>
      </trkpt>
      <trkpt lat="46.21673" lon="4.4579">
        <ele>667</ele>
        <time>2012-04-11T14:07:25Z</time>
      </trkpt>
      <trkpt lat="46.21662" lon="4.45793">
        <ele>660</ele>
        <time>2012-04-11T14:07:32Z</time>
      </trkpt>
      <trkpt lat="46.21658" lon="4.45796">
        <ele>660</ele>
        <time>2012-04-11T14:07:37Z</time>
      </trkpt>
      <trkpt lat="46.21651" lon="4.45798">
        <ele>660</ele>
        <time>2012-04-11T14:07:42Z</time>
      </trkpt>
      <trkpt lat="46.21647" lon="4.45796">
        <ele>660</ele>
        <time>2012-04-11T14:07:45Z</time>
      </trkpt>
      <trkpt lat="46.21639" lon="4.45791">
        <ele>660</ele>
        <time>2012-04-11T14:07:50Z</time>
      </trkpt>
      <trkpt lat="46.21632" lon="4.45783">
        <ele>660</ele>
        <time>2012-04-11T14:07:56Z</time>
      </trkpt>
      <trkpt lat="46.21625" lon="4.45772">
        <ele>660</ele>
        <time>2012-04-11T14:08:03Z</time>
      </trkpt>
      <trkpt lat="46.21621" lon="4.45764">
        <ele>660</ele>
        <time>2012-04-11T14:08:08Z</time>
      </trkpt>
      <trkpt lat="46.21622" lon="4.4576">
        <ele>660</ele>
        <time>2012-04-11T14:08:15Z</time>
      </trkpt>
      <trkpt lat="46.21623" lon="4.45757">
        <ele>660</ele>
        <time>2012-04-11T14:08:21Z</time>
      </trkpt>
      <trkpt lat="46.21618" lon="4.45752">
        <ele>660</ele>
        <time>2012-04-11T14:08:24Z</time>
      </trkpt>
      <trkpt lat="46.21613" lon="4.45747">
        <ele>665</ele>
        <time>2012-04-11T14:08:26Z</time>
      </trkpt>
      <trkpt lat="46.21606" lon="4.45737">
        <ele>664</ele>
        <time>2012-04-11T14:08:29Z</time>
      </trkpt>
      <trkpt lat="46.21598" lon="4.45717">
        <ele>665</ele>
        <time>2012-04-11T14:08:34Z</time>
      </trkpt>
      <trkpt lat="46.21586" lon="4.45694">
        <ele>665</ele>
        <time>2012-04-11T14:08:39Z</time>
      </trkpt>
      <trkpt lat="46.21575" lon="4.45679">
        <ele>660</ele>
        <time>2012-04-11T14:08:43Z</time>
      </trkpt>
      <trkpt lat="46.21572" lon="4.45676">
        <ele>660</ele>
        <time>2012-04-11T14:08:44Z</time>
      </trkpt>
      <trkpt lat="46.21562" lon="4.45667">
        <ele>659</ele>
        <time>2012-04-11T14:08:49Z</time>
      </trkpt>
      <trkpt lat="46.21545" lon="4.45653">
        <ele>662</ele>
        <time>2012-04-11T14:08:56Z</time>
      </trkpt>
      <trkpt lat="46.2154" lon="4.4565">
        <ele>661</ele>
        <time>2012-04-11T14:08:58Z</time>
      </trkpt>
      <trkpt lat="46.21535" lon="4.45647">
        <ele>661</ele>
        <time>2012-04-11T14:09:00Z</time>
      </trkpt>
      <trkpt lat="46.21524" lon="4.45642">
        <ele>660</ele>
        <time>2012-04-11T14:09:06Z</time>
      </trkpt>
      <trkpt lat="46.21516" lon="4.45632">
        <ele>661</ele>
        <time>2012-04-11T14:09:12Z</time>
      </trkpt>
      <trkpt lat="46.21508" lon="4.45624">
        <ele>661</ele>
        <time>2012-04-11T14:09:16Z</time>
      </trkpt>
      <trkpt lat="46.21507" lon="4.45621">
        <ele>661</ele>
        <time>2012-04-11T14:09:17Z</time>
      </trkpt>
      <trkpt lat="46.21507" lon="4.45618">
        <ele>662</ele>
        <time>2012-04-11T14:09:18Z</time>
      </trkpt>
      <trkpt lat="46.21502" lon="4.45605">
        <ele>662</ele>
        <time>2012-04-11T14:09:23Z</time>
      </trkpt>
      <trkpt lat="46.21497" lon="4.45596">
        <ele>656</ele>
        <time>2012-04-11T14:09:27Z</time>
      </trkpt>
      <trkpt lat="46.21496" lon="4.45594">
        <ele>657</ele>
        <time>2012-04-11T14:09:28Z</time>
      </trkpt>
      <trkpt lat="46.21491" lon="4.45579">
        <ele>660</ele>
        <time>2012-04-11T14:09:33Z</time>
      </trkpt>
      <trkpt lat="46.21489" lon="4.45577">
        <ele>659</ele>
        <time>2012-04-11T14:09:34Z</time>
      </trkpt>
      <trkpt lat="46.21481" lon="4.4556">
        <ele>656</ele>
        <time>2012-04-11T14:09:38Z</time>
      </trkpt>
      <trkpt lat="46.21468" lon="4.45536">
        <ele>655</ele>
        <time>2012-04-11T14:09:44Z</time>
      </trkpt>
      <trkpt lat="46.21462" lon="4.45508">
        <ele>655</ele>
        <time>2012-04-11T14:09:50Z</time>
      </trkpt>
      <trkpt lat="46.21457" lon="4.45487">
        <ele>658</ele>
        <time>2012-04-11T14:09:55Z</time>
      </trkpt>
      <trkpt lat="46.21455" lon="4.45482">
        <ele>658</ele>
        <time>2012-04-11T14:09:56Z</time>
      </trkpt>
      <trkpt lat="46.21448" lon="4.45462">
        <ele>658</ele>
        <time>2012-04-11T14:10:01Z</time>
      </trkpt>
      <trkpt lat="46.21439" lon="4.4544">
        <ele>658</ele>
        <time>2012-04-11T14:10:07Z</time>
      </trkpt>
      <trkpt lat="46.21439" lon="4.45433">
        <ele>658</ele>
        <time>2012-04-11T14:10:11Z</time>
      </trkpt>
      <trkpt lat="46.2144" lon="4.45432">
        <ele>658</ele>
        <time>2012-04-11T14:10:12Z</time>
      </trkpt>
      <trkpt lat="46.21444" lon="4.45427">
        <ele>659</ele>
        <time>2012-04-11T14:10:26Z</time>
      </trkpt>
      <trkpt lat="46.21438" lon="4.45416">
        <ele>660</ele>
        <time>2012-04-11T14:10:31Z</time>
      </trkpt>
      <trkpt lat="46.21437" lon="4.45413">
        <ele>660</ele>
        <time>2012-04-11T14:10:32Z</time>
      </trkpt>
      <trkpt lat="46.21433" lon="4.45399">
        <ele>660</ele>
        <time>2012-04-11T14:10:37Z</time>
      </trkpt>
      <trkpt lat="46.21431" lon="4.45387">
        <ele>660</ele>
        <time>2012-04-11T14:10:41Z</time>
      </trkpt>
      <trkpt lat="46.2143" lon="4.45384">
        <ele>660</ele>
        <time>2012-04-11T14:10:42Z</time>
      </trkpt>
      <trkpt lat="46.21429" lon="4.45381">
        <ele>660</ele>
        <time>2012-04-11T14:10:43Z</time>
      </trkpt>
      <trkpt lat="46.21427" lon="4.45375">
        <ele>660</ele>
        <time>2012-04-11T14:10:45Z</time>
      </trkpt>
      <trkpt lat="46.21424" lon="4.45363">
        <ele>660</ele>
        <time>2012-04-11T14:10:49Z</time>
      </trkpt>
      <trkpt lat="46.21416" lon="4.45344">
        <ele>658</ele>
        <time>2012-04-11T14:10:54Z</time>
      </trkpt>
      <trkpt lat="46.21413" lon="4.45339">
        <ele>658</ele>
        <time>2012-04-11T14:10:55Z</time>
      </trkpt>
      <trkpt lat="46.21403" lon="4.45319">
        <ele>656</ele>
        <time>2012-04-11T14:10:59Z</time>
      </trkpt>
      <trkpt lat="46.214" lon="4.45303">
        <ele>655</ele>
        <time>2012-04-11T14:11:03Z</time>
      </trkpt>
      <trkpt lat="46.214" lon="4.45301">
        <ele>654</ele>
        <time>2012-04-11T14:11:04Z</time>
      </trkpt>
      <trkpt lat="46.21404" lon="4.45294">
        <ele>654</ele>
        <time>2012-04-11T14:11:08Z</time>
      </trkpt>
      <trkpt lat="46.21406" lon="4.45292">
        <ele>654</ele>
        <time>2012-04-11T14:11:09Z</time>
      </trkpt>
      <trkpt lat="46.21417" lon="4.4528">
        <ele>653</ele>
        <time>2012-04-11T14:11:14Z</time>
      </trkpt>
      <trkpt lat="46.21425" lon="4.45263">
        <ele>651</ele>
        <time>2012-04-11T14:11:20Z</time>
      </trkpt>
      <trkpt lat="46.21429" lon="4.45261">
        <ele>651</ele>
        <time>2012-04-11T14:11:30Z</time>
      </trkpt>
      <trkpt lat="46.21421" lon="4.45238">
        <ele>645</ele>
        <time>2012-04-11T14:12:26Z</time>
      </trkpt>
      <trkpt lat="46.21428" lon="4.45264">
        <ele>652</ele>
        <time>2012-04-11T14:13:39Z</time>
      </trkpt>
      <trkpt lat="46.21441" lon="4.4527">
        <ele>653</ele>
        <time>2012-04-11T14:13:44Z</time>
      </trkpt>
      <trkpt lat="46.21456" lon="4.4527">
        <ele>654</ele>
        <time>2012-04-11T14:13:50Z</time>
      </trkpt>
      <trkpt lat="46.21469" lon="4.45272">
        <ele>654</ele>
        <time>2012-04-11T14:13:55Z</time>
      </trkpt>
      <trkpt lat="46.21482" lon="4.45273">
        <ele>654</ele>
        <time>2012-04-11T14:14:00Z</time>
      </trkpt>
      <trkpt lat="46.21492" lon="4.45276">
        <ele>654</ele>
        <time>2012-04-11T14:14:04Z</time>
      </trkpt>
      <trkpt lat="46.21496" lon="4.45277">
        <ele>654</ele>
        <time>2012-04-11T14:14:06Z</time>
      </trkpt>
      <trkpt lat="46.21508" lon="4.45286">
        <ele>656</ele>
        <time>2012-04-11T14:14:12Z</time>
      </trkpt>
      <trkpt lat="46.21521" lon="4.45292">
        <ele>657</ele>
        <time>2012-04-11T14:14:19Z</time>
      </trkpt>
      <trkpt lat="46.21527" lon="4.45295">
        <ele>657</ele>
        <time>2012-04-11T14:14:22Z</time>
      </trkpt>
      <trkpt lat="46.21532" lon="4.45299">
        <ele>658</ele>
        <time>2012-04-11T14:14:25Z</time>
      </trkpt>
      <trkpt lat="46.21536" lon="4.453">
        <ele>658</ele>
        <time>2012-04-11T14:14:27Z</time>
      </trkpt>
      <trkpt lat="46.21539" lon="4.453">
        <ele>658</ele>
        <time>2012-04-11T14:14:29Z</time>
      </trkpt>
      <trkpt lat="46.21552" lon="4.45303">
        <ele>658</ele>
        <time>2012-04-11T14:14:36Z</time>
      </trkpt>
      <trkpt lat="46.21564" lon="4.45302">
        <ele>659</ele>
        <time>2012-04-11T14:14:43Z</time>
      </trkpt>
      <trkpt lat="46.21571" lon="4.45305">
        <ele>659</ele>
        <time>2012-04-11T14:14:50Z</time>
      </trkpt>
      <trkpt lat="46.21585" lon="4.45306">
        <ele>660</ele>
        <time>2012-04-11T14:15:41Z</time>
      </trkpt>
      <trkpt lat="46.21583" lon="4.45305">
        <ele>659</ele>
        <time>2012-04-11T14:16:08Z</time>
      </trkpt>
      <trkpt lat="46.21578" lon="4.45308">
        <ele>660</ele>
        <time>2012-04-11T14:16:16Z</time>
      </trkpt>
      <trkpt lat="46.21574" lon="4.4531">
        <ele>660</ele>
        <time>2012-04-11T14:16:20Z</time>
      </trkpt>
      <trkpt lat="46.21571" lon="4.45311">
        <ele>660</ele>
        <time>2012-04-11T14:16:21Z</time>
      </trkpt>
      <trkpt lat="46.21557" lon="4.45313">
        <ele>659</ele>
        <time>2012-04-11T14:16:26Z</time>
      </trkpt>
      <trkpt lat="46.21545" lon="4.4531">
        <ele>659</ele>
        <time>2012-04-11T14:16:29Z</time>
      </trkpt>
      <trkpt lat="46.21536" lon="4.45306">
        <ele>658</ele>
        <time>2012-04-11T14:16:31Z</time>
      </trkpt>
      <trkpt lat="46.21533" lon="4.45302">
        <ele>658</ele>
        <time>2012-04-11T14:16:32Z</time>
      </trkpt>
      <trkpt lat="46.21519" lon="4.45295">
        <ele>657</ele>
        <time>2012-04-11T14:16:35Z</time>
      </trkpt>
      <trkpt lat="46.21509" lon="4.45291">
        <ele>657</ele>
        <time>2012-04-11T14:16:37Z</time>
      </trkpt>
      <trkpt lat="46.21492" lon="4.45286">
        <ele>655</ele>
        <time>2012-04-11T14:16:40Z</time>
      </trkpt>
      <trkpt lat="46.21474" lon="4.45282">
        <ele>654</ele>
        <time>2012-04-11T14:16:43Z</time>
      </trkpt>
      <trkpt lat="46.21468" lon="4.4528">
        <ele>654</ele>
        <time>2012-04-11T14:16:44Z</time>
      </trkpt>
      <trkpt lat="46.21463" lon="4.45279">
        <ele>654</ele>
        <time>2012-04-11T14:16:45Z</time>
      </trkpt>
      <trkpt lat="46.21453" lon="4.45278">
        <ele>654</ele>
        <time>2012-04-11T14:16:47Z</time>
      </trkpt>
      <trkpt lat="46.21444" lon="4.45277">
        <ele>654</ele>
        <time>2012-04-11T14:16:49Z</time>
      </trkpt>
      <trkpt lat="46.21439" lon="4.45275">
        <ele>653</ele>
        <time>2012-04-11T14:16:50Z</time>
      </trkpt>
      <trkpt lat="46.2143" lon="4.4527">
        <ele>652</ele>
        <time>2012-04-11T14:16:52Z</time>
      </trkpt>
      <trkpt lat="46.2142" lon="4.45265">
        <ele>651</ele>
        <time>2012-04-11T14:16:55Z</time>
      </trkpt>
      <trkpt lat="46.214" lon="4.45251">
        <ele>651</ele>
        <time>2012-04-11T14:17:00Z</time>
      </trkpt>
      <trkpt lat="46.21396" lon="4.4525">
        <ele>646</ele>
        <time>2012-04-11T14:17:01Z</time>
      </trkpt>
      <trkpt lat="46.2138" lon="4.45238">
        <ele>646</ele>
        <time>2012-04-11T14:17:05Z</time>
      </trkpt>
      <trkpt lat="46.21361" lon="4.45222">
        <ele>646</ele>
        <time>2012-04-11T14:17:10Z</time>
      </trkpt>
      <trkpt lat="46.21357" lon="4.45217">
        <ele>646</ele>
        <time>2012-04-11T14:17:11Z</time>
      </trkpt>
      <trkpt lat="46.21354" lon="4.45212">
        <ele>645</ele>
        <time>2012-04-11T14:17:12Z</time>
      </trkpt>
      <trkpt lat="46.21346" lon="4.45194">
        <ele>645</ele>
        <time>2012-04-11T14:17:15Z</time>
      </trkpt>
      <trkpt lat="46.21344" lon="4.45187">
        <ele>645</ele>
        <time>2012-04-11T14:17:16Z</time>
      </trkpt>
      <trkpt lat="46.21342" lon="4.45176">
        <ele>645</ele>
        <time>2012-04-11T14:17:18Z</time>
      </trkpt>
      <trkpt lat="46.21339" lon="4.45157">
        <ele>643</ele>
        <time>2012-04-11T14:17:21Z</time>
      </trkpt>
      <trkpt lat="46.21333" lon="4.45122">
        <ele>641</ele>
        <time>2012-04-11T14:17:27Z</time>
      </trkpt>
      <trkpt lat="46.21328" lon="4.45102">
        <ele>645</ele>
        <time>2012-04-11T14:17:33Z</time>
      </trkpt>
      <trkpt lat="46.21322" lon="4.45079">
        <ele>645</ele>
        <time>2012-04-11T14:17:38Z</time>
      </trkpt>
      <trkpt lat="46.21318" lon="4.45071">
        <ele>645</ele>
        <time>2012-04-11T14:17:40Z</time>
      </trkpt>
      <trkpt lat="46.21314" lon="4.45062">
        <ele>644</ele>
        <time>2012-04-11T14:17:43Z</time>
      </trkpt>
      <trkpt lat="46.213" lon="4.45041">
        <ele>644</ele>
        <time>2012-04-11T14:17:48Z</time>
      </trkpt>
      <trkpt lat="46.21293" lon="4.45033">
        <ele>644</ele>
        <time>2012-04-11T14:17:50Z</time>
      </trkpt>
      <trkpt lat="46.21283" lon="4.45016">
        <ele>643</ele>
        <time>2012-04-11T14:17:53Z</time>
      </trkpt>
      <trkpt lat="46.21279" lon="4.45008">
        <ele>643</ele>
        <time>2012-04-11T14:17:54Z</time>
      </trkpt>
      <trkpt lat="46.21273" lon="4.44991">
        <ele>640</ele>
        <time>2012-04-11T14:17:56Z</time>
      </trkpt>
      <trkpt lat="46.21266" lon="4.44976">
        <ele>639</ele>
        <time>2012-04-11T14:17:58Z</time>
      </trkpt>
      <trkpt lat="46.21258" lon="4.44956">
        <ele>638</ele>
        <time>2012-04-11T14:18:01Z</time>
      </trkpt>
      <trkpt lat="46.21255" lon="4.4494">
        <ele>637</ele>
        <time>2012-04-11T14:18:03Z</time>
      </trkpt>
      <trkpt lat="46.21254" lon="4.44904">
        <ele>632</ele>
        <time>2012-04-11T14:18:07Z</time>
      </trkpt>
      <trkpt lat="46.21258" lon="4.44884">
        <ele>629</ele>
        <time>2012-04-11T14:18:10Z</time>
      </trkpt>
      <trkpt lat="46.2126" lon="4.44872">
        <ele>627</ele>
        <time>2012-04-11T14:18:14Z</time>
      </trkpt>
      <trkpt lat="46.21258" lon="4.44859">
        <ele>626</ele>
        <time>2012-04-11T14:19:22Z</time>
      </trkpt>
      <trkpt lat="46.2126" lon="4.4484">
        <ele>623</ele>
        <time>2012-04-11T14:19:28Z</time>
      </trkpt>
      <trkpt lat="46.21261" lon="4.44838">
        <ele>623</ele>
        <time>2012-04-11T14:19:37Z</time>
      </trkpt>
      <trkpt lat="46.21257" lon="4.44835">
        <ele>623</ele>
        <time>2012-04-11T14:19:39Z</time>
      </trkpt>
      <trkpt lat="46.21251" lon="4.44833">
        <ele>621</ele>
        <time>2012-04-11T14:19:41Z</time>
      </trkpt>
      <trkpt lat="46.21247" lon="4.44826">
        <ele>621</ele>
        <time>2012-04-11T14:19:43Z</time>
      </trkpt>
      <trkpt lat="46.21241" lon="4.44818">
        <ele>620</ele>
        <time>2012-04-11T14:19:45Z</time>
      </trkpt>
      <trkpt lat="46.2123" lon="4.44807">
        <ele>620</ele>
        <time>2012-04-11T14:19:48Z</time>
      </trkpt>
      <trkpt lat="46.21227" lon="4.44803">
        <ele>620</ele>
        <time>2012-04-11T14:19:49Z</time>
      </trkpt>
      <trkpt lat="46.212" lon="4.4478">
        <ele>619</ele>
        <time>2012-04-11T14:19:56Z</time>
      </trkpt>
      <trkpt lat="46.21195" lon="4.44777">
        <ele>619</ele>
        <time>2012-04-11T14:19:57Z</time>
      </trkpt>
      <trkpt lat="46.21185" lon="4.44772">
        <ele>618</ele>
        <time>2012-04-11T14:19:59Z</time>
      </trkpt>
      <trkpt lat="46.21175" lon="4.44769">
        <ele>618</ele>
        <time>2012-04-11T14:20:01Z</time>
      </trkpt>
      <trkpt lat="46.21171" lon="4.44768">
        <ele>618</ele>
        <time>2012-04-11T14:20:02Z</time>
      </trkpt>
      <trkpt lat="46.21163" lon="4.44763">
        <ele>613</ele>
        <time>2012-04-11T14:20:04Z</time>
      </trkpt>
      <trkpt lat="46.2116" lon="4.44759">
        <ele>613</ele>
        <time>2012-04-11T14:20:05Z</time>
      </trkpt>
      <trkpt lat="46.21156" lon="4.44755">
        <ele>613</ele>
        <time>2012-04-11T14:20:06Z</time>
      </trkpt>
      <trkpt lat="46.21149" lon="4.44748">
        <ele>612</ele>
        <time>2012-04-11T14:20:08Z</time>
      </trkpt>
      <trkpt lat="46.21138" lon="4.4474">
        <ele>610</ele>
        <time>2012-04-11T14:20:11Z</time>
      </trkpt>
      <trkpt lat="46.21129" lon="4.44739">
        <ele>609</ele>
        <time>2012-04-11T14:20:13Z</time>
      </trkpt>
      <trkpt lat="46.21125" lon="4.44739">
        <ele>608</ele>
        <time>2012-04-11T14:20:14Z</time>
      </trkpt>
      <trkpt lat="46.21118" lon="4.44739">
        <ele>607</ele>
        <time>2012-04-11T14:20:16Z</time>
      </trkpt>
      <trkpt lat="46.21106" lon="4.44736">
        <ele>605</ele>
        <time>2012-04-11T14:20:21Z</time>
      </trkpt>
      <trkpt lat="46.21094" lon="4.44728">
        <ele>604</ele>
        <time>2012-04-11T14:20:26Z</time>
      </trkpt>
      <trkpt lat="46.21093" lon="4.44727">
        <ele>604</ele>
        <time>2012-04-11T14:20:45Z</time>
      </trkpt>
      <trkpt lat="46.21091" lon="4.44725">
        <ele>604</ele>
        <time>2012-04-11T14:21:03Z</time>
      </trkpt>
      <trkpt lat="46.21086" lon="4.44723">
        <ele>604</ele>
        <time>2012-04-11T14:21:05Z</time>
      </trkpt>
      <trkpt lat="46.21063" lon="4.44718">
        <ele>592</ele>
        <time>2012-04-11T14:21:11Z</time>
      </trkpt>
      <trkpt lat="46.21056" lon="4.4472">
        <ele>592</ele>
        <time>2012-04-11T14:21:14Z</time>
      </trkpt>
      <trkpt lat="46.2105" lon="4.44723">
        <ele>591</ele>
        <time>2012-04-11T14:21:16Z</time>
      </trkpt>
      <trkpt lat="46.21043" lon="4.44734">
        <ele>590</ele>
        <time>2012-04-11T14:21:19Z</time>
      </trkpt>
      <trkpt lat="46.21041" lon="4.4474">
        <ele>589</ele>
        <time>2012-04-11T14:21:20Z</time>
      </trkpt>
      <trkpt lat="46.21034" lon="4.44752">
        <ele>587</ele>
        <time>2012-04-11T14:21:23Z</time>
      </trkpt>
      <trkpt lat="46.2103" lon="4.44754">
        <ele>586</ele>
        <time>2012-04-11T14:21:24Z</time>
      </trkpt>
      <trkpt lat="46.21017" lon="4.44756">
        <ele>584</ele>
        <time>2012-04-11T14:21:27Z</time>
      </trkpt>
      <trkpt lat="46.21009" lon="4.44762">
        <ele>583</ele>
        <time>2012-04-11T14:21:29Z</time>
      </trkpt>
      <trkpt lat="46.21004" lon="4.44786">
        <ele>585</ele>
        <time>2012-04-11T14:21:32Z</time>
      </trkpt>
      <trkpt lat="46.21003" lon="4.44797">
        <ele>584</ele>
        <time>2012-04-11T14:21:33Z</time>
      </trkpt>
      <trkpt lat="46.21001" lon="4.44819">
        <ele>582</ele>
        <time>2012-04-11T14:21:35Z</time>
      </trkpt>
      <trkpt lat="46.21001" lon="4.44829">
        <ele>580</ele>
        <time>2012-04-11T14:21:36Z</time>
      </trkpt>
      <trkpt lat="46.20998" lon="4.44846">
        <ele>573</ele>
        <time>2012-04-11T14:21:38Z</time>
      </trkpt>
      <trkpt lat="46.20994" lon="4.44853">
        <ele>571</ele>
        <time>2012-04-11T14:21:39Z</time>
      </trkpt>
      <trkpt lat="46.20984" lon="4.44842">
        <ele>571</ele>
        <time>2012-04-11T14:21:41Z</time>
      </trkpt>
      <trkpt lat="46.20976" lon="4.44823">
        <ele>571</ele>
        <time>2012-04-11T14:21:43Z</time>
      </trkpt>
      <trkpt lat="46.20973" lon="4.44812">
        <ele>570</ele>
        <time>2012-04-11T14:21:44Z</time>
      </trkpt>
      <trkpt lat="46.2096" lon="4.4477">
        <ele>568</ele>
        <time>2012-04-11T14:21:48Z</time>
      </trkpt>
      <trkpt lat="46.2095" lon="4.44727">
        <ele>568</ele>
        <time>2012-04-11T14:21:52Z</time>
      </trkpt>
      <trkpt lat="46.20946" lon="4.4472">
        <ele>568</ele>
        <time>2012-04-11T14:21:53Z</time>
      </trkpt>
      <trkpt lat="46.2094" lon="4.44715">
        <ele>567</ele>
        <time>2012-04-11T14:21:54Z</time>
      </trkpt>
      <trkpt lat="46.20924" lon="4.4471">
        <ele>566</ele>
        <time>2012-04-11T14:21:56Z</time>
      </trkpt>
      <trkpt lat="46.20916" lon="4.44706">
        <ele>555</ele>
        <time>2012-04-11T14:21:57Z</time>
      </trkpt>
      <trkpt lat="46.20908" lon="4.44702">
        <ele>555</ele>
        <time>2012-04-11T14:21:58Z</time>
      </trkpt>
      <trkpt lat="46.20901" lon="4.44698">
        <ele>555</ele>
        <time>2012-04-11T14:21:59Z</time>
      </trkpt>
      <trkpt lat="46.20889" lon="4.44685">
        <ele>554</ele>
        <time>2012-04-11T14:22:01Z</time>
      </trkpt>
      <trkpt lat="46.20876" lon="4.44668">
        <ele>553</ele>
        <time>2012-04-11T14:22:03Z</time>
      </trkpt>
      <trkpt lat="46.20863" lon="4.44648">
        <ele>554</ele>
        <time>2012-04-11T14:22:05Z</time>
      </trkpt>
      <trkpt lat="46.20851" lon="4.44625">
        <ele>554</ele>
        <time>2012-04-11T14:22:07Z</time>
      </trkpt>
      <trkpt lat="46.2083" lon="4.44592">
        <ele>549</ele>
        <time>2012-04-11T14:22:10Z</time>
      </trkpt>
      <trkpt lat="46.20823" lon="4.44583">
        <ele>549</ele>
        <time>2012-04-11T14:22:11Z</time>
      </trkpt>
      <trkpt lat="46.20803" lon="4.44563">
        <ele>547</ele>
        <time>2012-04-11T14:22:14Z</time>
      </trkpt>
      <trkpt lat="46.20793" lon="4.44558">
        <ele>547</ele>
        <time>2012-04-11T14:22:17Z</time>
      </trkpt>
      <trkpt lat="46.20786" lon="4.44564">
        <ele>546</ele>
        <time>2012-04-11T14:22:22Z</time>
      </trkpt>
      <trkpt lat="46.20783" lon="4.44565">
        <ele>546</ele>
        <time>2012-04-11T14:22:23Z</time>
      </trkpt>
      <trkpt lat="46.20774" lon="4.44569">
        <ele>545</ele>
        <time>2012-04-11T14:22:28Z</time>
      </trkpt>
      <trkpt lat="46.20773" lon="4.44574">
        <ele>545</ele>
        <time>2012-04-11T14:22:47Z</time>
      </trkpt>
      <trkpt lat="46.20768" lon="4.44575">
        <ele>545</ele>
        <time>2012-04-11T14:24:09Z</time>
      </trkpt>
      <trkpt lat="46.20761" lon="4.44584">
        <ele>543</ele>
        <time>2012-04-11T14:24:14Z</time>
      </trkpt>
      <trkpt lat="46.2076" lon="4.44586">
        <ele>543</ele>
        <time>2012-04-11T14:24:15Z</time>
      </trkpt>
      <trkpt lat="46.20756" lon="4.44599">
        <ele>544</ele>
        <time>2012-04-11T14:24:18Z</time>
      </trkpt>
      <trkpt lat="46.20753" lon="4.44604">
        <ele>544</ele>
        <time>2012-04-11T14:24:19Z</time>
      </trkpt>
      <trkpt lat="46.20741" lon="4.44629">
        <ele>543</ele>
        <time>2012-04-11T14:24:23Z</time>
      </trkpt>
      <trkpt lat="46.20737" lon="4.44635">
        <ele>543</ele>
        <time>2012-04-11T14:24:24Z</time>
      </trkpt>
      <trkpt lat="46.20726" lon="4.44651">
        <ele>543</ele>
        <time>2012-04-11T14:24:28Z</time>
      </trkpt>
      <trkpt lat="46.20717" lon="4.44662">
        <ele>543</ele>
        <time>2012-04-11T14:24:34Z</time>
      </trkpt>
      <trkpt lat="46.20717" lon="4.44662">
        <ele>543</ele>
        <time>2012-04-11T14:24:41Z</time>
      </trkpt>
      <trkpt lat="46.20716" lon="4.4466">
        <ele>543</ele>
        <time>2012-04-11T14:24:57Z</time>
      </trkpt>
      <trkpt lat="46.20712" lon="4.44663">
        <ele>543</ele>
        <time>2012-04-11T14:25:00Z</time>
      </trkpt>
      <trkpt lat="46.20705" lon="4.44681">
        <ele>546</ele>
        <time>2012-04-11T14:25:06Z</time>
      </trkpt>
      <trkpt lat="46.20692" lon="4.44704">
        <ele>547</ele>
        <time>2012-04-11T14:25:11Z</time>
      </trkpt>
      <trkpt lat="46.2069" lon="4.44708">
        <ele>547</ele>
        <time>2012-04-11T14:25:12Z</time>
      </trkpt>
      <trkpt lat="46.20671" lon="4.44732">
        <ele>549</ele>
        <time>2012-04-11T14:25:19Z</time>
      </trkpt>
      <trkpt lat="46.20663" lon="4.44742">
        <ele>550</ele>
        <time>2012-04-11T14:25:23Z</time>
      </trkpt>
      <trkpt lat="46.20659" lon="4.44748">
        <ele>551</ele>
        <time>2012-04-11T14:25:26Z</time>
      </trkpt>
      <trkpt lat="46.2065" lon="4.44762">
        <ele>553</ele>
        <time>2012-04-11T14:25:35Z</time>
      </trkpt>
      <trkpt lat="46.20642" lon="4.44772">
        <ele>553</ele>
        <time>2012-04-11T14:25:41Z</time>
      </trkpt>
      <trkpt lat="46.20638" lon="4.4478">
        <ele>553</ele>
        <time>2012-04-11T14:25:44Z</time>
      </trkpt>
      <trkpt lat="46.20633" lon="4.4479">
        <ele>553</ele>
        <time>2012-04-11T14:25:47Z</time>
      </trkpt>
      <trkpt lat="46.20616" lon="4.44804">
        <ele>554</ele>
        <time>2012-04-11T14:25:53Z</time>
      </trkpt>
      <trkpt lat="46.20609" lon="4.44805">
        <ele>554</ele>
        <time>2012-04-11T14:25:56Z</time>
      </trkpt>
      <trkpt lat="46.206" lon="4.44809">
        <ele>554</ele>
        <time>2012-04-11T14:25:59Z</time>
      </trkpt>
      <trkpt lat="46.20582" lon="4.44828">
        <ele>555</ele>
        <time>2012-04-11T14:26:05Z</time>
      </trkpt>
      <trkpt lat="46.20578" lon="4.44833">
        <ele>557</ele>
        <time>2012-04-11T14:26:07Z</time>
      </trkpt>
      <trkpt lat="46.20571" lon="4.44843">
        <ele>558</ele>
        <time>2012-04-11T14:26:11Z</time>
      </trkpt>
      <trkpt lat="46.20561" lon="4.44856">
        <ele>559</ele>
        <time>2012-04-11T14:26:19Z</time>
      </trkpt>
      <trkpt lat="46.20554" lon="4.4487">
        <ele>560</ele>
        <time>2012-04-11T14:26:27Z</time>
      </trkpt>
      <trkpt lat="46.20553" lon="4.44874">
        <ele>560</ele>
        <time>2012-04-11T14:26:29Z</time>
      </trkpt>
      <trkpt lat="46.20547" lon="4.44884">
        <ele>561</ele>
        <time>2012-04-11T14:26:35Z</time>
      </trkpt>
      <trkpt lat="46.20543" lon="4.44892">
        <ele>561</ele>
        <time>2012-04-11T14:26:39Z</time>
      </trkpt>
      <trkpt lat="46.20534" lon="4.44901">
        <ele>561</ele>
        <time>2012-04-11T14:26:46Z</time>
      </trkpt>
      <trkpt lat="46.20528" lon="4.44912">
        <ele>562</ele>
        <time>2012-04-11T14:26:53Z</time>
      </trkpt>
      <trkpt lat="46.20521" lon="4.44923">
        <ele>570</ele>
        <time>2012-04-11T14:27:00Z</time>
      </trkpt>
      <trkpt lat="46.20524" lon="4.44929">
        <ele>571</ele>
        <time>2012-04-11T14:27:04Z</time>
      </trkpt>
      <trkpt lat="46.20525" lon="4.44931">
        <ele>571</ele>
        <time>2012-04-11T14:27:05Z</time>
      </trkpt>
      <trkpt lat="46.20526" lon="4.44933">
        <ele>572</ele>
        <time>2012-04-11T14:27:07Z</time>
      </trkpt>
      <trkpt lat="46.20528" lon="4.44936">
        <ele>572</ele>
        <time>2012-04-11T14:27:10Z</time>
      </trkpt>
      <trkpt lat="46.20529" lon="4.44937">
        <ele>572</ele>
        <time>2012-04-11T14:27:11Z</time>
      </trkpt>
      <trkpt lat="46.2053" lon="4.4494">
        <ele>573</ele>
        <time>2012-04-11T14:27:13Z</time>
      </trkpt>
      <trkpt lat="46.20535" lon="4.44941">
        <ele>573</ele>
        <time>2012-04-11T14:27:17Z</time>
      </trkpt>
      <trkpt lat="46.20541" lon="4.4494">
        <ele>573</ele>
        <time>2012-04-11T14:27:22Z</time>
      </trkpt>
      <trkpt lat="46.20543" lon="4.4494">
        <ele>573</ele>
        <time>2012-04-11T14:27:24Z</time>
      </trkpt>
      <trkpt lat="46.2055" lon="4.4494">
        <ele>573</ele>
        <time>2012-04-11T14:27:29Z</time>
      </trkpt>
      <trkpt lat="46.20553" lon="4.44939">
        <ele>573</ele>
        <time>2012-04-11T14:27:31Z</time>
      </trkpt>
      <trkpt lat="46.20565" lon="4.44938">
        <ele>573</ele>
        <time>2012-04-11T14:27:37Z</time>
      </trkpt>
      <trkpt lat="46.20567" lon="4.44938">
        <ele>573</ele>
        <time>2012-04-11T14:27:38Z</time>
      </trkpt>
      <trkpt lat="46.20576" lon="4.44941">
        <ele>573</ele>
        <time>2012-04-11T14:27:43Z</time>
      </trkpt>
      <trkpt lat="46.20582" lon="4.44943">
        <ele>573</ele>
        <time>2012-04-11T14:27:46Z</time>
      </trkpt>
      <trkpt lat="46.20594" lon="4.44947">
        <ele>572</ele>
        <time>2012-04-11T14:27:52Z</time>
      </trkpt>
      <trkpt lat="46.20606" lon="4.4496">
        <ele>573</ele>
        <time>2012-04-11T14:27:58Z</time>
      </trkpt>
      <trkpt lat="46.20608" lon="4.44963">
        <ele>573</ele>
        <time>2012-04-11T14:27:59Z</time>
      </trkpt>
      <trkpt lat="46.20616" lon="4.44977">
        <ele>574</ele>
        <time>2012-04-11T14:28:04Z</time>
      </trkpt>
      <trkpt lat="46.20619" lon="4.44999">
        <ele>575</ele>
        <time>2012-04-11T14:28:11Z</time>
      </trkpt>
      <trkpt lat="46.20621" lon="4.45012">
        <ele>581</ele>
        <time>2012-04-11T14:28:17Z</time>
      </trkpt>
      <trkpt lat="46.20621" lon="4.45015">
        <ele>581</ele>
        <time>2012-04-11T14:28:18Z</time>
      </trkpt>
      <trkpt lat="46.20617" lon="4.45021">
        <ele>582</ele>
        <time>2012-04-11T14:28:21Z</time>
      </trkpt>
      <trkpt lat="46.20615" lon="4.45022">
        <ele>582</ele>
        <time>2012-04-11T14:28:22Z</time>
      </trkpt>
      <trkpt lat="46.20602" lon="4.45018">
        <ele>583</ele>
        <time>2012-04-11T14:28:28Z</time>
      </trkpt>
      <trkpt lat="46.20592" lon="4.45013">
        <ele>584</ele>
        <time>2012-04-11T14:28:34Z</time>
      </trkpt>
      <trkpt lat="46.20589" lon="4.45013">
        <ele>584</ele>
        <time>2012-04-11T14:28:36Z</time>
      </trkpt>
      <trkpt lat="46.20579" lon="4.45009">
        <ele>587</ele>
        <time>2012-04-11T14:28:42Z</time>
      </trkpt>
      <trkpt lat="46.20573" lon="4.4501">
        <ele>587</ele>
        <time>2012-04-11T14:28:46Z</time>
      </trkpt>
      <trkpt lat="46.2057" lon="4.45009">
        <ele>587</ele>
        <time>2012-04-11T14:28:48Z</time>
      </trkpt>
      <trkpt lat="46.20567" lon="4.45009">
        <ele>587</ele>
        <time>2012-04-11T14:28:50Z</time>
      </trkpt>
      <trkpt lat="46.2056" lon="4.45011">
        <ele>588</ele>
        <time>2012-04-11T14:28:55Z</time>
      </trkpt>
      <trkpt lat="46.20553" lon="4.45014">
        <ele>588</ele>
        <time>2012-04-11T14:29:00Z</time>
      </trkpt>
      <trkpt lat="46.20552" lon="4.45015">
        <ele>588</ele>
        <time>2012-04-11T14:29:01Z</time>
      </trkpt>
      <trkpt lat="46.20551" lon="4.45016">
        <ele>588</ele>
        <time>2012-04-11T14:29:02Z</time>
      </trkpt>
      <trkpt lat="46.20545" lon="4.45023">
        <ele>588</ele>
        <time>2012-04-11T14:29:08Z</time>
      </trkpt>
      <trkpt lat="46.20542" lon="4.45029">
        <ele>589</ele>
        <time>2012-04-11T14:29:13Z</time>
      </trkpt>
      <trkpt lat="46.20536" lon="4.45034">
        <ele>589</ele>
        <time>2012-04-11T14:29:20Z</time>
      </trkpt>
      <trkpt lat="46.20533" lon="4.45042">
        <ele>589</ele>
        <time>2012-04-11T14:29:26Z</time>
      </trkpt>
      <trkpt lat="46.20529" lon="4.45049">
        <ele>590</ele>
        <time>2012-04-11T14:29:32Z</time>
      </trkpt>
      <trkpt lat="46.20528" lon="4.45052">
        <ele>590</ele>
        <time>2012-04-11T14:29:34Z</time>
      </trkpt>
      <trkpt lat="46.20526" lon="4.45054">
        <ele>590</ele>
        <time>2012-04-11T14:29:36Z</time>
      </trkpt>
      <trkpt lat="46.20524" lon="4.45057">
        <ele>591</ele>
        <time>2012-04-11T14:29:39Z</time>
      </trkpt>
      <trkpt lat="46.20522" lon="4.45068">
        <ele>591</ele>
        <time>2012-04-11T14:29:46Z</time>
      </trkpt>
      <trkpt lat="46.20519" lon="4.45082">
        <ele>592</ele>
        <time>2012-04-11T14:29:54Z</time>
      </trkpt>
      <trkpt lat="46.20521" lon="4.45094">
        <ele>597</ele>
        <time>2012-04-11T14:30:01Z</time>
      </trkpt>
      <trkpt lat="46.20521" lon="4.45099">
        <ele>597</ele>
        <time>2012-04-11T14:30:04Z</time>
      </trkpt>
      <trkpt lat="46.20522" lon="4.45107">
        <ele>598</ele>
        <time>2012-04-11T14:30:08Z</time>
      </trkpt>
      <trkpt lat="46.20525" lon="4.45122">
        <ele>598</ele>
        <time>2012-04-11T14:30:15Z</time>
      </trkpt>
      <trkpt lat="46.20527" lon="4.45144">
        <ele>599</ele>
        <time>2012-04-11T14:30:22Z</time>
      </trkpt>
      <trkpt lat="46.20527" lon="4.45151">
        <ele>600</ele>
        <time>2012-04-11T14:30:24Z</time>
      </trkpt>
      <trkpt lat="46.20524" lon="4.45167">
        <ele>604</ele>
        <time>2012-04-11T14:30:29Z</time>
      </trkpt>
      <trkpt lat="46.20515" lon="4.45194">
        <ele>605</ele>
        <time>2012-04-11T14:30:37Z</time>
      </trkpt>
      <trkpt lat="46.20515" lon="4.45198">
        <ele>605</ele>
        <time>2012-04-11T14:30:38Z</time>
      </trkpt>
      <trkpt lat="46.20509" lon="4.4522">
        <ele>606</ele>
        <time>2012-04-11T14:30:44Z</time>
      </trkpt>
      <trkpt lat="46.20502" lon="4.45242">
        <ele>609</ele>
        <time>2012-04-11T14:30:51Z</time>
      </trkpt>
      <trkpt lat="46.205" lon="4.45249">
        <ele>610</ele>
        <time>2012-04-11T14:30:53Z</time>
      </trkpt>
      <trkpt lat="46.20494" lon="4.45269">
        <ele>609</ele>
        <time>2012-04-11T14:31:00Z</time>
      </trkpt>
      <trkpt lat="46.20488" lon="4.45291">
        <ele>610</ele>
        <time>2012-04-11T14:31:07Z</time>
      </trkpt>
      <trkpt lat="46.20486" lon="4.45299">
        <ele>610</ele>
        <time>2012-04-11T14:31:10Z</time>
      </trkpt>
      <trkpt lat="46.20484" lon="4.45308">
        <ele>610</ele>
        <time>2012-04-11T14:31:13Z</time>
      </trkpt>
      <trkpt lat="46.2048" lon="4.45325">
        <ele>611</ele>
        <time>2012-04-11T14:31:19Z</time>
      </trkpt>
      <trkpt lat="46.20478" lon="4.45345">
        <ele>615</ele>
        <time>2012-04-11T14:31:26Z</time>
      </trkpt>
      <trkpt lat="46.20478" lon="4.45352">
        <ele>615</ele>
        <time>2012-04-11T14:31:28Z</time>
      </trkpt>
      <trkpt lat="46.20475" lon="4.45369">
        <ele>615</ele>
        <time>2012-04-11T14:31:33Z</time>
      </trkpt>
      <trkpt lat="46.20469" lon="4.45401">
        <ele>616</ele>
        <time>2012-04-11T14:31:41Z</time>
      </trkpt>
      <trkpt lat="46.20468" lon="4.45405">
        <ele>616</ele>
        <time>2012-04-11T14:31:42Z</time>
      </trkpt>
      <trkpt lat="46.20464" lon="4.45425">
        <ele>621</ele>
        <time>2012-04-11T14:31:48Z</time>
      </trkpt>
      <trkpt lat="46.20454" lon="4.45454">
        <ele>622</ele>
        <time>2012-04-11T14:31:57Z</time>
      </trkpt>
      <trkpt lat="46.20445" lon="4.45477">
        <ele>623</ele>
        <time>2012-04-11T14:32:04Z</time>
      </trkpt>
      <trkpt lat="46.20438" lon="4.45495">
        <ele>624</ele>
        <time>2012-04-11T14:32:10Z</time>
      </trkpt>
      <trkpt lat="46.20435" lon="4.455">
        <ele>631</ele>
        <time>2012-04-11T14:32:12Z</time>
      </trkpt>
      <trkpt lat="46.20433" lon="4.45511">
        <ele>631</ele>
        <time>2012-04-11T14:32:17Z</time>
      </trkpt>
      <trkpt lat="46.20429" lon="4.45524">
        <ele>633</ele>
        <time>2012-04-11T14:32:24Z</time>
      </trkpt>
      <trkpt lat="46.20427" lon="4.4553">
        <ele>634</ele>
        <time>2012-04-11T14:32:29Z</time>
      </trkpt>
      <trkpt lat="46.20426" lon="4.45531">
        <ele>634</ele>
        <time>2012-04-11T14:32:30Z</time>
      </trkpt>
      <trkpt lat="46.20423" lon="4.45533">
        <ele>634</ele>
        <time>2012-04-11T14:32:33Z</time>
      </trkpt>
      <trkpt lat="46.20419" lon="4.45538">
        <ele>635</ele>
        <time>2012-04-11T14:32:37Z</time>
      </trkpt>
      <trkpt lat="46.20416" lon="4.45542">
        <ele>631</ele>
        <time>2012-04-11T14:32:40Z</time>
      </trkpt>
      <trkpt lat="46.20411" lon="4.4555">
        <ele>632</ele>
        <time>2012-04-11T14:32:45Z</time>
      </trkpt>
      <trkpt lat="46.20401" lon="4.45563">
        <ele>633</ele>
        <time>2012-04-11T14:32:52Z</time>
      </trkpt>
      <trkpt lat="46.20389" lon="4.45579">
        <ele>633</ele>
        <time>2012-04-11T14:32:59Z</time>
      </trkpt>
      <trkpt lat="46.20373" lon="4.456">
        <ele>642</ele>
        <time>2012-04-11T14:33:06Z</time>
      </trkpt>
      <trkpt lat="46.20361" lon="4.45614">
        <ele>642</ele>
        <time>2012-04-11T14:33:10Z</time>
      </trkpt>
      <trkpt lat="46.20358" lon="4.45618">
        <ele>643</ele>
        <time>2012-04-11T14:33:11Z</time>
      </trkpt>
      <trkpt lat="46.20355" lon="4.45622">
        <ele>643</ele>
        <time>2012-04-11T14:33:12Z</time>
      </trkpt>
      <trkpt lat="46.2034" lon="4.45636">
        <ele>644</ele>
        <time>2012-04-11T14:33:17Z</time>
      </trkpt>
      <trkpt lat="46.20331" lon="4.45646">
        <ele>641</ele>
        <time>2012-04-11T14:33:20Z</time>
      </trkpt>
      <trkpt lat="46.20329" lon="4.4565">
        <ele>642</ele>
        <time>2012-04-11T14:33:21Z</time>
      </trkpt>
      <trkpt lat="46.20326" lon="4.45654">
        <ele>642</ele>
        <time>2012-04-11T14:33:22Z</time>
      </trkpt>
      <trkpt lat="46.20318" lon="4.45667">
        <ele>648</ele>
        <time>2012-04-11T14:33:25Z</time>
      </trkpt>
      <trkpt lat="46.20314" lon="4.45675">
        <ele>648</ele>
        <time>2012-04-11T14:33:27Z</time>
      </trkpt>
      <trkpt lat="46.20307" lon="4.45686">
        <ele>649</ele>
        <time>2012-04-11T14:33:31Z</time>
      </trkpt>
      <trkpt lat="46.20304" lon="4.4569">
        <ele>649</ele>
        <time>2012-04-11T14:33:33Z</time>
      </trkpt>
      <trkpt lat="46.20298" lon="4.45703">
        <ele>650</ele>
        <time>2012-04-11T14:33:40Z</time>
      </trkpt>
      <trkpt lat="46.20296" lon="4.45705">
        <ele>650</ele>
        <time>2012-04-11T14:33:41Z</time>
      </trkpt>
      <trkpt lat="46.20294" lon="4.45713">
        <ele>650</ele>
        <time>2012-04-11T14:33:45Z</time>
      </trkpt>
      <trkpt lat="46.20289" lon="4.45725">
        <ele>651</ele>
        <time>2012-04-11T14:33:51Z</time>
      </trkpt>
      <trkpt lat="46.20287" lon="4.4573">
        <ele>651</ele>
        <time>2012-04-11T14:33:54Z</time>
      </trkpt>
      <trkpt lat="46.20283" lon="4.4574">
        <ele>651</ele>
        <time>2012-04-11T14:34:00Z</time>
      </trkpt>
      <trkpt lat="46.20282" lon="4.45745">
        <ele>651</ele>
        <time>2012-04-11T14:34:03Z</time>
      </trkpt>
      <trkpt lat="46.2028" lon="4.45752">
        <ele>656</ele>
        <time>2012-04-11T14:34:07Z</time>
      </trkpt>
      <trkpt lat="46.20279" lon="4.45753">
        <ele>656</ele>
        <time>2012-04-11T14:34:08Z</time>
      </trkpt>
      <trkpt lat="46.20273" lon="4.45766">
        <ele>656</ele>
        <time>2012-04-11T14:34:15Z</time>
      </trkpt>
      <trkpt lat="46.20271" lon="4.45774">
        <ele>656</ele>
        <time>2012-04-11T14:34:18Z</time>
      </trkpt>
      <trkpt lat="46.20269" lon="4.45778">
        <ele>657</ele>
        <time>2012-04-11T14:34:19Z</time>
      </trkpt>
      <trkpt lat="46.20258" lon="4.45801">
        <ele>658</ele>
        <time>2012-04-11T14:34:27Z</time>
      </trkpt>
      <trkpt lat="46.20252" lon="4.4581">
        <ele>658</ele>
        <time>2012-04-11T14:34:33Z</time>
      </trkpt>
      <trkpt lat="46.20249" lon="4.45819">
        <ele>653</ele>
        <time>2012-04-11T14:34:37Z</time>
      </trkpt>
      <trkpt lat="46.20247" lon="4.45824">
        <ele>654</ele>
        <time>2012-04-11T14:34:40Z</time>
      </trkpt>
      <trkpt lat="46.20242" lon="4.4584">
        <ele>655</ele>
        <time>2012-04-11T14:34:48Z</time>
      </trkpt>
      <trkpt lat="46.20235" lon="4.45852">
        <ele>654</ele>
        <time>2012-04-11T14:34:55Z</time>
      </trkpt>
      <trkpt lat="46.20233" lon="4.45863">
        <ele>654</ele>
        <time>2012-04-11T14:35:02Z</time>
      </trkpt>
      <trkpt lat="46.20233" lon="4.45866">
        <ele>654</ele>
        <time>2012-04-11T14:35:03Z</time>
      </trkpt>
      <trkpt lat="46.20226" lon="4.45879">
        <ele>654</ele>
        <time>2012-04-11T14:35:09Z</time>
      </trkpt>
      <trkpt lat="46.20225" lon="4.4588">
        <ele>654</ele>
        <time>2012-04-11T14:35:10Z</time>
      </trkpt>
      <trkpt lat="46.20221" lon="4.45881">
        <ele>654</ele>
        <time>2012-04-11T14:35:15Z</time>
      </trkpt>
      <trkpt lat="46.20217" lon="4.45879">
        <ele>653</ele>
        <time>2012-04-11T14:35:55Z</time>
      </trkpt>
      <trkpt lat="46.20219" lon="4.45871">
        <ele>653</ele>
        <time>2012-04-11T14:35:58Z</time>
      </trkpt>
      <trkpt lat="46.20221" lon="4.45865">
        <ele>653</ele>
        <time>2012-04-11T14:36:00Z</time>
      </trkpt>
      <trkpt lat="46.20223" lon="4.45861">
        <ele>653</ele>
        <time>2012-04-11T14:36:01Z</time>
      </trkpt>
      <trkpt lat="46.20227" lon="4.45852">
        <ele>653</ele>
        <time>2012-04-11T14:36:03Z</time>
      </trkpt>
      <trkpt lat="46.20242" lon="4.45829">
        <ele>654</ele>
        <time>2012-04-11T14:36:08Z</time>
      </trkpt>
      <trkpt lat="46.2025" lon="4.45819">
        <ele>653</ele>
        <time>2012-04-11T14:36:10Z</time>
      </trkpt>
      <trkpt lat="46.20254" lon="4.45808">
        <ele>658</ele>
        <time>2012-04-11T14:36:13Z</time>
      </trkpt>
      <trkpt lat="46.20245" lon="4.45801">
        <ele>650</ele>
        <time>2012-04-11T14:36:17Z</time>
      </trkpt>
      <trkpt lat="46.20237" lon="4.45799">
        <ele>650</ele>
        <time>2012-04-11T14:36:21Z</time>
      </trkpt>
      <trkpt lat="46.20235" lon="4.45798">
        <ele>650</ele>
        <time>2012-04-11T14:36:22Z</time>
      </trkpt>
      <trkpt lat="46.2023" lon="4.45792">
        <ele>649</ele>
        <time>2012-04-11T14:36:25Z</time>
      </trkpt>
      <trkpt lat="46.20227" lon="4.45786">
        <ele>649</ele>
        <time>2012-04-11T14:36:27Z</time>
      </trkpt>
      <trkpt lat="46.20224" lon="4.45772">
        <ele>648</ele>
        <time>2012-04-11T14:36:32Z</time>
      </trkpt>
      <trkpt lat="46.20223" lon="4.45777">
        <ele>648</ele>
        <time>2012-04-11T14:36:36Z</time>
      </trkpt>
      <trkpt lat="46.20227" lon="4.45787">
        <ele>649</ele>
        <time>2012-04-11T14:36:40Z</time>
      </trkpt>
      <trkpt lat="46.20229" lon="4.45791">
        <ele>649</ele>
        <time>2012-04-11T14:36:42Z</time>
      </trkpt>
      <trkpt lat="46.20233" lon="4.45795">
        <ele>649</ele>
        <time>2012-04-11T14:36:45Z</time>
      </trkpt>
      <trkpt lat="46.20237" lon="4.45798">
        <ele>650</ele>
        <time>2012-04-11T14:36:48Z</time>
      </trkpt>
      <trkpt lat="46.20243" lon="4.45802">
        <ele>650</ele>
        <time>2012-04-11T14:36:51Z</time>
      </trkpt>
      <trkpt lat="46.20245" lon="4.45803">
        <ele>650</ele>
        <time>2012-04-11T14:36:52Z</time>
      </trkpt>
      <trkpt lat="46.2025" lon="4.45809">
        <ele>651</ele>
        <time>2012-04-11T14:36:57Z</time>
      </trkpt>
      <trkpt lat="46.20247" lon="4.45823">
        <ele>653</ele>
        <time>2012-04-11T14:37:04Z</time>
      </trkpt>
      <trkpt lat="46.20243" lon="4.45831">
        <ele>654</ele>
        <time>2012-04-11T14:37:08Z</time>
      </trkpt>
      <trkpt lat="46.20241" lon="4.45835">
        <ele>655</ele>
        <time>2012-04-11T14:37:10Z</time>
      </trkpt>
      <trkpt lat="46.20236" lon="4.45851">
        <ele>654</ele>
        <time>2012-04-11T14:37:17Z</time>
      </trkpt>
      <trkpt lat="46.20237" lon="4.45866">
        <ele>654</ele>
        <time>2012-04-11T14:37:24Z</time>
      </trkpt>
      <trkpt lat="46.20229" lon="4.45878">
        <ele>654</ele>
        <time>2012-04-11T14:37:30Z</time>
      </trkpt>
      <trkpt lat="46.20229" lon="4.4588">
        <ele>654</ele>
        <time>2012-04-11T14:37:31Z</time>
      </trkpt>
      <trkpt lat="46.20232" lon="4.45883">
        <ele>655</ele>
        <time>2012-04-11T14:37:36Z</time>
      </trkpt>
      <trkpt lat="46.20237" lon="4.45891">
        <ele>656</ele>
        <time>2012-04-11T14:37:41Z</time>
      </trkpt>
      <trkpt lat="46.20246" lon="4.45899">
        <ele>658</ele>
        <time>2012-04-11T14:37:47Z</time>
      </trkpt>
      <trkpt lat="46.20255" lon="4.45908">
        <ele>666</ele>
        <time>2012-04-11T14:37:54Z</time>
      </trkpt>
      <trkpt lat="46.20257" lon="4.45909">
        <ele>666</ele>
        <time>2012-04-11T14:37:57Z</time>
      </trkpt>
      <trkpt lat="46.2026" lon="4.45909">
        <ele>667</ele>
        <time>2012-04-11T14:38:00Z</time>
      </trkpt>
      <trkpt lat="46.2026" lon="4.45906">
        <ele>667</ele>
        <time>2012-04-11T14:38:10Z</time>
      </trkpt>
      <trkpt lat="46.20268" lon="4.45907">
        <ele>668</ele>
        <time>2012-04-11T14:38:15Z</time>
      </trkpt>
      <trkpt lat="46.20279" lon="4.45908">
        <ele>669</ele>
        <time>2012-04-11T14:38:22Z</time>
      </trkpt>
      <trkpt lat="46.20284" lon="4.45908">
        <ele>670</ele>
        <time>2012-04-11T14:38:27Z</time>
      </trkpt>
      <trkpt lat="46.20284" lon="4.45907">
        <ele>670</ele>
        <time>2012-04-11T14:38:28Z</time>
      </trkpt>
      <trkpt lat="46.2028" lon="4.45903">
        <ele>669</ele>
        <time>2012-04-11T14:38:36Z</time>
      </trkpt>
      <trkpt lat="46.20277" lon="4.45903">
        <ele>669</ele>
        <time>2012-04-11T14:38:43Z</time>
      </trkpt>
      <trkpt lat="46.20274" lon="4.45901">
        <ele>668</ele>
        <time>2012-04-11T14:38:49Z</time>
      </trkpt>
      <trkpt lat="46.20273" lon="4.45897">
        <ele>668</ele>
        <time>2012-04-11T14:38:56Z</time>
      </trkpt>
      <trkpt lat="46.20266" lon="4.45889">
        <ele>667</ele>
        <time>2012-04-11T14:39:59Z</time>
      </trkpt>
      <trkpt lat="46.20271" lon="4.45892">
        <ele>668</ele>
        <time>2012-04-11T14:40:06Z</time>
      </trkpt>
      <trkpt lat="46.20274" lon="4.45897">
        <ele>668</ele>
        <time>2012-04-11T14:40:14Z</time>
      </trkpt>
      <trkpt lat="46.20274" lon="4.45895">
        <ele>668</ele>
        <time>2012-04-11T14:40:24Z</time>
      </trkpt>
      <trkpt lat="46.2027" lon="4.4589">
        <ele>668</ele>
        <time>2012-04-11T14:40:35Z</time>
      </trkpt>
      <trkpt lat="46.2027" lon="4.45888">
        <ele>668</ele>
        <time>2012-04-11T14:40:39Z</time>
      </trkpt>
      <trkpt lat="46.20267" lon="4.45888">
        <ele>668</ele>
        <time>2012-04-11T14:41:15Z</time>
      </trkpt>
      <trkpt lat="46.20268" lon="4.45893">
        <ele>668</ele>
        <time>2012-04-11T14:41:29Z</time>
      </trkpt>
      <trkpt lat="46.20268" lon="4.45895">
        <ele>668</ele>
        <time>2012-04-11T14:41:34Z</time>
      </trkpt>
      <trkpt lat="46.20277" lon="4.45897">
        <ele>669</ele>
        <time>2012-04-11T14:42:01Z</time>
      </trkpt>
      <trkpt lat="46.20275" lon="4.45896">
        <ele>668</ele>
        <time>2012-04-11T14:42:17Z</time>
      </trkpt>
      <trkpt lat="46.20277" lon="4.45899">
        <ele>669</ele>
        <time>2012-04-11T14:42:27Z</time>
      </trkpt>
      <trkpt lat="46.20275" lon="4.45901">
        <ele>668</ele>
        <time>2012-04-11T14:42:44Z</time>
      </trkpt>
      <trkpt lat="46.20269" lon="4.45893">
        <ele>668</ele>
        <time>2012-04-11T14:43:15Z</time>
      </trkpt>
      <trkpt lat="46.20269" lon="4.45894">
        <ele>668</ele>
        <time>2012-04-11T14:43:17Z</time>
      </trkpt>
      <trkpt lat="46.2027" lon="4.45894">
        <ele>668</ele>
        <time>2012-04-11T14:43:20Z</time>
      </trkpt>
      <trkpt lat="46.2027" lon="4.45896">
        <ele>668</ele>
        <time>2012-04-11T14:43:28Z</time>
      </trkpt>
      <trkpt lat="46.2027" lon="4.45895">
        <ele>668</ele>
        <time>2012-04-11T14:43:29Z</time>
      </trkpt>
      <trkpt lat="46.20278" lon="4.45894">
        <ele>669</ele>
        <time>2012-04-11T14:44:39Z</time>
      </trkpt>
      <trkpt lat="46.20283" lon="4.45901">
        <ele>669</ele>
        <time>2012-04-11T14:44:44Z</time>
      </trkpt>
      <trkpt lat="46.20283" lon="4.45904">
        <ele>670</ele>
        <time>2012-04-11T14:44:47Z</time>
      </trkpt>
      <trkpt lat="46.20282" lon="4.45906">
        <ele>669</ele>
        <time>2012-04-11T14:44:48Z</time>
      </trkpt>
      <trkpt lat="46.20274" lon="4.45906">
        <ele>668</ele>
        <time>2012-04-11T14:44:54Z</time>
      </trkpt>
      <trkpt lat="46.20268" lon="4.45907">
        <ele>668</ele>
        <time>2012-04-11T14:44:59Z</time>
      </trkpt>
      <trkpt lat="46.20264" lon="4.45908">
        <ele>667</ele>
        <time>2012-04-11T14:45:02Z</time>
      </trkpt>
      <trkpt lat="46.20254" lon="4.45905">
        <ele>667</ele>
        <time>2012-04-11T14:45:09Z</time>
      </trkpt>
      <trkpt lat="46.20253" lon="4.45905">
        <ele>666</ele>
        <time>2012-04-11T14:45:10Z</time>
      </trkpt>
      <trkpt lat="46.20246" lon="4.45904">
        <ele>660</ele>
        <time>2012-04-11T14:45:16Z</time>
      </trkpt>
      <trkpt lat="46.20245" lon="4.45903">
        <ele>659</ele>
        <time>2012-04-11T14:45:22Z</time>
      </trkpt>
      <trkpt lat="46.20247" lon="4.45905">
        <ele>660</ele>
        <time>2012-04-11T14:45:25Z</time>
      </trkpt>
      <trkpt lat="46.20247" lon="4.45907">
        <ele>661</ele>
        <time>2012-04-11T14:45:26Z</time>
      </trkpt>
      <trkpt lat="46.20247" lon="4.45906">
        <ele>660</ele>
        <time>2012-04-11T14:45:29Z</time>
      </trkpt>
      <trkpt lat="46.20246" lon="4.45905">
        <ele>660</ele>
        <time>2012-04-11T14:45:30Z</time>
      </trkpt>
      <trkpt lat="46.20245" lon="4.45904">
        <ele>660</ele>
        <time>2012-04-11T14:45:31Z</time>
      </trkpt>
      <trkpt lat="46.2024" lon="4.45902">
        <ele>658</ele>
        <time>2012-04-11T14:45:36Z</time>
      </trkpt>
      <trkpt lat="46.20229" lon="4.45894">
        <ele>655</ele>
        <time>2012-04-11T14:45:41Z</time>
      </trkpt>
      <trkpt lat="46.20221" lon="4.45881">
        <ele>654</ele>
        <time>2012-04-11T14:45:45Z</time>
      </trkpt>
      <trkpt lat="46.2022" lon="4.45875">
        <ele>653</ele>
        <time>2012-04-11T14:45:46Z</time>
      </trkpt>
      <trkpt lat="46.20218" lon="4.4586">
        <ele>653</ele>
        <time>2012-04-11T14:45:49Z</time>
      </trkpt>
      <trkpt lat="46.20219" lon="4.45855">
        <ele>653</ele>
        <time>2012-04-11T14:45:50Z</time>
      </trkpt>
      <trkpt lat="46.20225" lon="4.45843">
        <ele>653</ele>
        <time>2012-04-11T14:45:53Z</time>
      </trkpt>
      <trkpt lat="46.20229" lon="4.45835">
        <ele>654</ele>
        <time>2012-04-11T14:45:55Z</time>
      </trkpt>
      <trkpt lat="46.20234" lon="4.45828">
        <ele>652</ele>
        <time>2012-04-11T14:45:57Z</time>
      </trkpt>
      <trkpt lat="46.20243" lon="4.4582">
        <ele>652</ele>
        <time>2012-04-11T14:46:00Z</time>
      </trkpt>
      <trkpt lat="46.20251" lon="4.45805">
        <ele>657</ele>
        <time>2012-04-11T14:46:04Z</time>
      </trkpt>
      <trkpt lat="46.20258" lon="4.4579">
        <ele>657</ele>
        <time>2012-04-11T14:46:08Z</time>
      </trkpt>
      <trkpt lat="46.2026" lon="4.45787">
        <ele>657</ele>
        <time>2012-04-11T14:46:09Z</time>
      </trkpt>
      <trkpt lat="46.20271" lon="4.45762">
        <ele>655</ele>
        <time>2012-04-11T14:46:16Z</time>
      </trkpt>
      <trkpt lat="46.20267" lon="4.45754">
        <ele>654</ele>
        <time>2012-04-11T14:46:19Z</time>
      </trkpt>
      <trkpt lat="46.20265" lon="4.45752">
        <ele>653</ele>
        <time>2012-04-11T14:46:20Z</time>
      </trkpt>
      <trkpt lat="46.20261" lon="4.45749">
        <ele>649</ele>
        <time>2012-04-11T14:46:22Z</time>
      </trkpt>
      <trkpt lat="46.20254" lon="4.45746">
        <ele>648</ele>
        <time>2012-04-11T14:46:25Z</time>
      </trkpt>
      <trkpt lat="46.20235" lon="4.45731">
        <ele>646</ele>
        <time>2012-04-11T14:46:33Z</time>
      </trkpt>
      <trkpt lat="46.20228" lon="4.45725">
        <ele>645</ele>
        <time>2012-04-11T14:46:36Z</time>
      </trkpt>
      <trkpt lat="46.2022" lon="4.4572">
        <ele>645</ele>
        <time>2012-04-11T14:46:39Z</time>
      </trkpt>
      <trkpt lat="46.20205" lon="4.45707">
        <ele>644</ele>
        <time>2012-04-11T14:46:45Z</time>
      </trkpt>
      <trkpt lat="46.20194" lon="4.45697">
        <ele>644</ele>
        <time>2012-04-11T14:46:50Z</time>
      </trkpt>
      <trkpt lat="46.20191" lon="4.45695">
        <ele>644</ele>
        <time>2012-04-11T14:46:51Z</time>
      </trkpt>
      <trkpt lat="46.2018" lon="4.45688">
        <ele>644</ele>
        <time>2012-04-11T14:46:56Z</time>
      </trkpt>
      <trkpt lat="46.2017" lon="4.45682">
        <ele>644</ele>
        <time>2012-04-11T14:47:00Z</time>
      </trkpt>
      <trkpt lat="46.20158" lon="4.45679">
        <ele>642</ele>
        <time>2012-04-11T14:47:05Z</time>
      </trkpt>
      <trkpt lat="46.20147" lon="4.45681">
        <ele>641</ele>
        <time>2012-04-11T14:47:11Z</time>
      </trkpt>
      <trkpt lat="46.20136" lon="4.45693">
        <ele>640</ele>
        <time>2012-04-11T14:47:16Z</time>
      </trkpt>
      <trkpt lat="46.20128" lon="4.45705">
        <ele>639</ele>
        <time>2012-04-11T14:47:20Z</time>
      </trkpt>
      <trkpt lat="46.20127" lon="4.45708">
        <ele>639</ele>
        <time>2012-04-11T14:47:21Z</time>
      </trkpt>
      <trkpt lat="46.2012" lon="4.45726">
        <ele>639</ele>
        <time>2012-04-11T14:47:26Z</time>
      </trkpt>
      <trkpt lat="46.20114" lon="4.4574">
        <ele>638</ele>
        <time>2012-04-11T14:47:30Z</time>
      </trkpt>
      <trkpt lat="46.20111" lon="4.45751">
        <ele>637</ele>
        <time>2012-04-11T14:47:33Z</time>
      </trkpt>
      <trkpt lat="46.20109" lon="4.4576">
        <ele>637</ele>
        <time>2012-04-11T14:47:35Z</time>
      </trkpt>
      <trkpt lat="46.20109" lon="4.45776">
        <ele>637</ele>
        <time>2012-04-11T14:47:40Z</time>
      </trkpt>
      <trkpt lat="46.2011" lon="4.45787">
        <ele>637</ele>
        <time>2012-04-11T14:47:45Z</time>
      </trkpt>
      <trkpt lat="46.20112" lon="4.45805">
        <ele>637</ele>
        <time>2012-04-11T14:47:53Z</time>
      </trkpt>
      <trkpt lat="46.20112" lon="4.45807">
        <ele>637</ele>
        <time>2012-04-11T14:47:54Z</time>
      </trkpt>
      <trkpt lat="46.20118" lon="4.45824">
        <ele>637</ele>
        <time>2012-04-11T14:48:03Z</time>
      </trkpt>
      <trkpt lat="46.2012" lon="4.45831">
        <ele>637</ele>
        <time>2012-04-11T14:48:10Z</time>
      </trkpt>
      <trkpt lat="46.20122" lon="4.45822">
        <ele>638</ele>
        <time>2012-04-11T14:48:33Z</time>
      </trkpt>
      <trkpt lat="46.20117" lon="4.4581">
        <ele>637</ele>
        <time>2012-04-11T14:48:40Z</time>
      </trkpt>
      <trkpt lat="46.20117" lon="4.45808">
        <ele>637</ele>
        <time>2012-04-11T14:48:41Z</time>
      </trkpt>
      <trkpt lat="46.20114" lon="4.45798">
        <ele>637</ele>
        <time>2012-04-11T14:48:47Z</time>
      </trkpt>
      <trkpt lat="46.2011" lon="4.45782">
        <ele>637</ele>
        <time>2012-04-11T14:48:55Z</time>
      </trkpt>
      <trkpt lat="46.20111" lon="4.45762">
        <ele>637</ele>
        <time>2012-04-11T14:49:05Z</time>
      </trkpt>
      <trkpt lat="46.20111" lon="4.4576">
        <ele>637</ele>
        <time>2012-04-11T14:49:06Z</time>
      </trkpt>
      <trkpt lat="46.20115" lon="4.4575">
        <ele>637</ele>
        <time>2012-04-11T14:49:12Z</time>
      </trkpt>
      <trkpt lat="46.20117" lon="4.45739">
        <ele>638</ele>
        <time>2012-04-11T14:49:18Z</time>
      </trkpt>
      <trkpt lat="46.20122" lon="4.45723">
        <ele>639</ele>
        <time>2012-04-11T14:49:25Z</time>
      </trkpt>
      <trkpt lat="46.20125" lon="4.45711">
        <ele>639</ele>
        <time>2012-04-11T14:49:29Z</time>
      </trkpt>
      <trkpt lat="46.20127" lon="4.45708">
        <ele>639</ele>
        <time>2012-04-11T14:49:31Z</time>
      </trkpt>
      <trkpt lat="46.20134" lon="4.45692">
        <ele>640</ele>
        <time>2012-04-11T14:49:38Z</time>
      </trkpt>
      <trkpt lat="46.20141" lon="4.45681">
        <ele>640</ele>
        <time>2012-04-11T14:49:44Z</time>
      </trkpt>
      <trkpt lat="46.20144" lon="4.4567">
        <ele>641</ele>
        <time>2012-04-11T14:49:50Z</time>
      </trkpt>
      <trkpt lat="46.20148" lon="4.45668">
        <ele>641</ele>
        <time>2012-04-11T14:49:54Z</time>
      </trkpt>
      <trkpt lat="46.2015" lon="4.45668">
        <ele>642</ele>
        <time>2012-04-11T14:49:55Z</time>
      </trkpt>
      <trkpt lat="46.20165" lon="4.45669">
        <ele>643</ele>
        <time>2012-04-11T14:50:01Z</time>
      </trkpt>
      <trkpt lat="46.20172" lon="4.45674">
        <ele>644</ele>
        <time>2012-04-11T14:50:06Z</time>
      </trkpt>
      <trkpt lat="46.20181" lon="4.45679">
        <ele>644</ele>
        <time>2012-04-11T14:50:13Z</time>
      </trkpt>
      <trkpt lat="46.20183" lon="4.4568">
        <ele>644</ele>
        <time>2012-04-11T14:50:14Z</time>
      </trkpt>
      <trkpt lat="46.20186" lon="4.45682">
        <ele>644</ele>
        <time>2012-04-11T14:50:16Z</time>
      </trkpt>
      <trkpt lat="46.20191" lon="4.45686">
        <ele>644</ele>
        <time>2012-04-11T14:50:19Z</time>
      </trkpt>
      <trkpt lat="46.20202" lon="4.45695">
        <ele>644</ele>
        <time>2012-04-11T14:50:27Z</time>
      </trkpt>
      <trkpt lat="46.20213" lon="4.45705">
        <ele>644</ele>
        <time>2012-04-11T14:50:35Z</time>
      </trkpt>
      <trkpt lat="46.20215" lon="4.45709">
        <ele>645</ele>
        <time>2012-04-11T14:50:37Z</time>
      </trkpt>
      <trkpt lat="46.20222" lon="4.45716">
        <ele>645</ele>
        <time>2012-04-11T14:50:43Z</time>
      </trkpt>
      <trkpt lat="46.20233" lon="4.45724">
        <ele>645</ele>
        <time>2012-04-11T14:50:51Z</time>
      </trkpt>
      <trkpt lat="46.20248" lon="4.45734">
        <ele>646</ele>
        <time>2012-04-11T14:51:00Z</time>
      </trkpt>
      <trkpt lat="46.20258" lon="4.45742">
        <ele>649</ele>
        <time>2012-04-11T14:51:06Z</time>
      </trkpt>
      <trkpt lat="46.20269" lon="4.4575">
        <ele>654</ele>
        <time>2012-04-11T14:51:13Z</time>
      </trkpt>
      <trkpt lat="46.20273" lon="4.45761">
        <ele>656</ele>
        <time>2012-04-11T14:51:19Z</time>
      </trkpt>
      <trkpt lat="46.20272" lon="4.45767">
        <ele>656</ele>
        <time>2012-04-11T14:51:22Z</time>
      </trkpt>
      <trkpt lat="46.20271" lon="4.45775">
        <ele>657</ele>
        <time>2012-04-11T14:51:26Z</time>
      </trkpt>
      <trkpt lat="46.20265" lon="4.45788">
        <ele>657</ele>
        <time>2012-04-11T14:51:34Z</time>
      </trkpt>
      <trkpt lat="46.20261" lon="4.45799">
        <ele>658</ele>
        <time>2012-04-11T14:51:41Z</time>
      </trkpt>
      <trkpt lat="46.20255" lon="4.45814">
        <ele>658</ele>
        <time>2012-04-11T14:51:48Z</time>
      </trkpt>
      <trkpt lat="46.20254" lon="4.45816">
        <ele>658</ele>
        <time>2012-04-11T14:51:49Z</time>
      </trkpt>
      <trkpt lat="46.20249" lon="4.45821">
        <ele>653</ele>
        <time>2012-04-11T14:51:53Z</time>
      </trkpt>
      <trkpt lat="46.20243" lon="4.45835">
        <ele>655</ele>
        <time>2012-04-11T14:52:00Z</time>
      </trkpt>
      <trkpt lat="46.20238" lon="4.45849">
        <ele>654</ele>
        <time>2012-04-11T14:52:08Z</time>
      </trkpt>
      <trkpt lat="46.20234" lon="4.45856">
        <ele>654</ele>
        <time>2012-04-11T14:52:12Z</time>
      </trkpt>
      <trkpt lat="46.20231" lon="4.45863">
        <ele>654</ele>
        <time>2012-04-11T14:52:16Z</time>
      </trkpt>
      <trkpt lat="46.20232" lon="4.45876">
        <ele>654</ele>
        <time>2012-04-11T14:52:23Z</time>
      </trkpt>
      <trkpt lat="46.20236" lon="4.45885">
        <ele>655</ele>
        <time>2012-04-11T14:52:30Z</time>
      </trkpt>
      <trkpt lat="46.20246" lon="4.45891">
        <ele>657</ele>
        <time>2012-04-11T14:52:37Z</time>
      </trkpt>
      <trkpt lat="46.20249" lon="4.45893">
        <ele>657</ele>
        <time>2012-04-11T14:52:40Z</time>
      </trkpt>
      <trkpt lat="46.20253" lon="4.45895">
        <ele>667</ele>
        <time>2012-04-11T14:52:43Z</time>
      </trkpt>
      <trkpt lat="46.20259" lon="4.45899">
        <ele>667</ele>
        <time>2012-04-11T14:52:51Z</time>
      </trkpt>
      <trkpt lat="46.20261" lon="4.459">
        <ele>667</ele>
        <time>2012-04-11T14:52:58Z</time>
      </trkpt>
      <trkpt lat="46.20264" lon="4.45905">
        <ele>667</ele>
        <time>2012-04-11T14:53:12Z</time>
      </trkpt>
      <trkpt lat="46.2027" lon="4.45911">
        <ele>668</ele>
        <time>2012-04-11T14:53:43Z</time>
      </trkpt>
      <trkpt lat="46.20274" lon="4.4592">
        <ele>673</ele>
        <time>2012-04-11T14:53:49Z</time>
      </trkpt>
      <trkpt lat="46.20275" lon="4.45922">
        <ele>673</ele>
        <time>2012-04-11T14:53:50Z</time>
      </trkpt>
      <trkpt lat="46.2028" lon="4.45931">
        <ele>674</ele>
        <time>2012-04-11T14:53:56Z</time>
      </trkpt>
      <trkpt lat="46.20282" lon="4.45934">
        <ele>674</ele>
        <time>2012-04-11T14:53:58Z</time>
      </trkpt>
      <trkpt lat="46.20287" lon="4.45944">
        <ele>676</ele>
        <time>2012-04-11T14:54:04Z</time>
      </trkpt>
      <trkpt lat="46.20292" lon="4.45955">
        <ele>676</ele>
        <time>2012-04-11T14:54:12Z</time>
      </trkpt>
      <trkpt lat="46.20299" lon="4.45965">
        <ele>677</ele>
        <time>2012-04-11T14:54:18Z</time>
      </trkpt>
      <trkpt lat="46.20304" lon="4.45971">
        <ele>678</ele>
        <time>2012-04-11T14:54:22Z</time>
      </trkpt>
      <trkpt lat="46.2031" lon="4.45977">
        <ele>679</ele>
        <time>2012-04-11T14:54:28Z</time>
      </trkpt>
      <trkpt lat="46.20318" lon="4.45986">
        <ele>681</ele>
        <time>2012-04-11T14:54:34Z</time>
      </trkpt>
      <trkpt lat="46.20323" lon="4.45991">
        <ele>683</ele>
        <time>2012-04-11T14:54:40Z</time>
      </trkpt>
      <trkpt lat="46.20325" lon="4.45992">
        <ele>683</ele>
        <time>2012-04-11T14:54:41Z</time>
      </trkpt>
      <trkpt lat="46.20331" lon="4.45999">
        <ele>686</ele>
        <time>2012-04-11T14:54:46Z</time>
      </trkpt>
      <trkpt lat="46.20333" lon="4.46">
        <ele>687</ele>
        <time>2012-04-11T14:54:47Z</time>
      </trkpt>
      <trkpt lat="46.20347" lon="4.46013">
        <ele>690</ele>
        <time>2012-04-11T14:54:55Z</time>
      </trkpt>
      <trkpt lat="46.2035" lon="4.46021">
        <ele>691</ele>
        <time>2012-04-11T14:55:00Z</time>
      </trkpt>
      <trkpt lat="46.20352" lon="4.46023">
        <ele>691</ele>
        <time>2012-04-11T14:55:01Z</time>
      </trkpt>
      <trkpt lat="46.20358" lon="4.46031">
        <ele>692</ele>
        <time>2012-04-11T14:55:06Z</time>
      </trkpt>
      <trkpt lat="46.20359" lon="4.46032">
        <ele>692</ele>
        <time>2012-04-11T14:55:07Z</time>
      </trkpt>
      <trkpt lat="46.20361" lon="4.46036">
        <ele>692</ele>
        <time>2012-04-11T14:55:10Z</time>
      </trkpt>
      <trkpt lat="46.20364" lon="4.46041">
        <ele>693</ele>
        <time>2012-04-11T14:55:13Z</time>
      </trkpt>
      <trkpt lat="46.20369" lon="4.4605">
        <ele>693</ele>
        <time>2012-04-11T14:55:19Z</time>
      </trkpt>
      <trkpt lat="46.20377" lon="4.46058">
        <ele>694</ele>
        <time>2012-04-11T14:55:25Z</time>
      </trkpt>
      <trkpt lat="46.20379" lon="4.46061">
        <ele>694</ele>
        <time>2012-04-11T14:55:28Z</time>
      </trkpt>
      <trkpt lat="46.20381" lon="4.46064">
        <ele>695</ele>
        <time>2012-04-11T14:55:31Z</time>
      </trkpt>
      <trkpt lat="46.20382" lon="4.46065">
        <ele>695</ele>
        <time>2012-04-11T14:55:32Z</time>
      </trkpt>
      <trkpt lat="46.20384" lon="4.4607">
        <ele>695</ele>
        <time>2012-04-11T14:55:35Z</time>
      </trkpt>
      <trkpt lat="46.20387" lon="4.46074">
        <ele>696</ele>
        <time>2012-04-11T14:55:38Z</time>
      </trkpt>
      <trkpt lat="46.20389" lon="4.46077">
        <ele>696</ele>
        <time>2012-04-11T14:55:40Z</time>
      </trkpt>
      <trkpt lat="46.20391" lon="4.46084">
        <ele>697</ele>
        <time>2012-04-11T14:55:44Z</time>
      </trkpt>
      <trkpt lat="46.20392" lon="4.46087">
        <ele>698</ele>
        <time>2012-04-11T14:55:46Z</time>
      </trkpt>
      <trkpt lat="46.20397" lon="4.461">
        <ele>698</ele>
        <time>2012-04-11T14:55:53Z</time>
      </trkpt>
      <trkpt lat="46.204" lon="4.46112">
        <ele>698</ele>
        <time>2012-04-11T14:55:59Z</time>
      </trkpt>
      <trkpt lat="46.20401" lon="4.46116">
        <ele>698</ele>
        <time>2012-04-11T14:56:01Z</time>
      </trkpt>
      <trkpt lat="46.20403" lon="4.46123">
        <ele>698</ele>
        <time>2012-04-11T14:56:05Z</time>
      </trkpt>
      <trkpt lat="46.20403" lon="4.46125">
        <ele>698</ele>
        <time>2012-04-11T14:56:06Z</time>
      </trkpt>
      <trkpt lat="46.20407" lon="4.46141">
        <ele>700</ele>
        <time>2012-04-11T14:56:14Z</time>
      </trkpt>
      <trkpt lat="46.20409" lon="4.46161">
        <ele>704</ele>
        <time>2012-04-11T14:56:24Z</time>
      </trkpt>
      <trkpt lat="46.2041" lon="4.46167">
        <ele>706</ele>
        <time>2012-04-11T14:56:27Z</time>
      </trkpt>
      <trkpt lat="46.20412" lon="4.46177">
        <ele>704</ele>
        <time>2012-04-11T14:56:32Z</time>
      </trkpt>
      <trkpt lat="46.20414" lon="4.46189">
        <ele>702</ele>
        <time>2012-04-11T14:56:39Z</time>
      </trkpt>
      <trkpt lat="46.20415" lon="4.462">
        <ele>702</ele>
        <time>2012-04-11T14:56:45Z</time>
      </trkpt>
      <trkpt lat="46.20418" lon="4.46214">
        <ele>714</ele>
        <time>2012-04-11T14:56:52Z</time>
      </trkpt>
      <trkpt lat="46.20418" lon="4.46218">
        <ele>714</ele>
        <time>2012-04-11T14:56:54Z</time>
      </trkpt>
      <trkpt lat="46.20421" lon="4.46227">
        <ele>714</ele>
        <time>2012-04-11T14:56:59Z</time>
      </trkpt>
      <trkpt lat="46.20425" lon="4.46241">
        <ele>713</ele>
        <time>2012-04-11T14:57:07Z</time>
      </trkpt>
      <trkpt lat="46.20428" lon="4.46252">
        <ele>716</ele>
        <time>2012-04-11T14:57:14Z</time>
      </trkpt>
      <trkpt lat="46.20433" lon="4.46265">
        <ele>719</ele>
        <time>2012-04-11T14:57:23Z</time>
      </trkpt>
      <trkpt lat="46.20438" lon="4.46274">
        <ele>720</ele>
        <time>2012-04-11T14:57:30Z</time>
      </trkpt>
      <trkpt lat="46.2044" lon="4.46279">
        <ele>721</ele>
        <time>2012-04-11T14:57:38Z</time>
      </trkpt>
      <trkpt lat="46.2044" lon="4.46282">
        <ele>721</ele>
        <time>2012-04-11T14:58:02Z</time>
      </trkpt>
      <trkpt lat="46.20441" lon="4.46284">
        <ele>721</ele>
        <time>2012-04-11T14:58:03Z</time>
      </trkpt>
      <trkpt lat="46.20444" lon="4.4629">
        <ele>722</ele>
        <time>2012-04-11T14:58:07Z</time>
      </trkpt>
      <trkpt lat="46.20446" lon="4.46294">
        <ele>723</ele>
        <time>2012-04-11T14:58:10Z</time>
      </trkpt>
      <trkpt lat="46.20452" lon="4.46308">
        <ele>724</ele>
        <time>2012-04-11T14:58:19Z</time>
      </trkpt>
      <trkpt lat="46.20453" lon="4.4631">
        <ele>724</ele>
        <time>2012-04-11T14:58:20Z</time>
      </trkpt>
      <trkpt lat="46.20458" lon="4.46324">
        <ele>725</ele>
        <time>2012-04-11T14:58:28Z</time>
      </trkpt>
      <trkpt lat="46.20462" lon="4.46341">
        <ele>731</ele>
        <time>2012-04-11T14:58:37Z</time>
      </trkpt>
      <trkpt lat="46.20464" lon="4.46355">
        <ele>732</ele>
        <time>2012-04-11T14:58:45Z</time>
      </trkpt>
      <trkpt lat="46.20464" lon="4.46357">
        <ele>732</ele>
        <time>2012-04-11T14:58:46Z</time>
      </trkpt>
      <trkpt lat="46.20466" lon="4.46362">
        <ele>732</ele>
        <time>2012-04-11T14:58:49Z</time>
      </trkpt>
      <trkpt lat="46.20466" lon="4.46367">
        <ele>733</ele>
        <time>2012-04-11T14:58:52Z</time>
      </trkpt>
      <trkpt lat="46.20466" lon="4.46369">
        <ele>733</ele>
        <time>2012-04-11T14:58:53Z</time>
      </trkpt>
      <trkpt lat="46.20467" lon="4.46377">
        <ele>733</ele>
        <time>2012-04-11T14:58:58Z</time>
      </trkpt>
      <trkpt lat="46.20467" lon="4.46379">
        <ele>733</ele>
        <time>2012-04-11T14:59:00Z</time>
      </trkpt>
      <trkpt lat="46.20468" lon="4.46382">
        <ele>733</ele>
        <time>2012-04-11T14:59:02Z</time>
      </trkpt>
      <trkpt lat="46.20468" lon="4.46395">
        <ele>734</ele>
        <time>2012-04-11T14:59:09Z</time>
      </trkpt>
      <trkpt lat="46.20469" lon="4.46406">
        <ele>735</ele>
        <time>2012-04-11T14:59:15Z</time>
      </trkpt>
      <trkpt lat="46.20469" lon="4.46408">
        <ele>735</ele>
        <time>2012-04-11T14:59:16Z</time>
      </trkpt>
      <trkpt lat="46.20469" lon="4.46421">
        <ele>739</ele>
        <time>2012-04-11T14:59:23Z</time>
      </trkpt>
      <trkpt lat="46.20468" lon="4.46432">
        <ele>740</ele>
        <time>2012-04-11T14:59:29Z</time>
      </trkpt>
      <trkpt lat="46.20467" lon="4.46446">
        <ele>740</ele>
        <time>2012-04-11T14:59:36Z</time>
      </trkpt>
      <trkpt lat="46.20465" lon="4.46457">
        <ele>740</ele>
        <time>2012-04-11T14:59:42Z</time>
      </trkpt>
      <trkpt lat="46.20463" lon="4.46458">
        <ele>740</ele>
        <time>2012-04-11T14:59:43Z</time>
      </trkpt>
      <trkpt lat="46.2046" lon="4.46463">
        <ele>740</ele>
        <time>2012-04-11T14:59:47Z</time>
      </trkpt>
      <trkpt lat="46.20459" lon="4.46464">
        <ele>740</ele>
        <time>2012-04-11T14:59:48Z</time>
      </trkpt>
      <trkpt lat="46.20454" lon="4.46468">
        <ele>740</ele>
        <time>2012-04-11T14:59:54Z</time>
      </trkpt>
      <trkpt lat="46.20448" lon="4.46468">
        <ele>739</ele>
        <time>2012-04-11T15:00:01Z</time>
      </trkpt>
      <trkpt lat="46.20441" lon="4.46465">
        <ele>739</ele>
        <time>2012-04-11T15:00:10Z</time>
      </trkpt>
      <trkpt lat="46.20431" lon="4.46463">
        <ele>738</ele>
        <time>2012-04-11T15:00:19Z</time>
      </trkpt>
      <trkpt lat="46.20429" lon="4.46463">
        <ele>738</ele>
        <time>2012-04-11T15:00:21Z</time>
      </trkpt>
      <trkpt lat="46.20426" lon="4.46464">
        <ele>738</ele>
        <time>2012-04-11T15:00:24Z</time>
      </trkpt>
      <trkpt lat="46.20425" lon="4.46465">
        <ele>738</ele>
        <time>2012-04-11T15:00:25Z</time>
      </trkpt>
      <trkpt lat="46.2042" lon="4.46469">
        <ele>738</ele>
        <time>2012-04-11T15:00:31Z</time>
      </trkpt>
      <trkpt lat="46.2042" lon="4.46469">
        <ele>738</ele>
        <time>2012-04-11T15:00:38Z</time>
      </trkpt>
      <trkpt lat="46.2042" lon="4.4647">
        <ele>738</ele>
        <time>2012-04-11T15:00:41Z</time>
      </trkpt>
      <trkpt lat="46.20418" lon="4.46474">
        <ele>739</ele>
        <time>2012-04-11T15:00:44Z</time>
      </trkpt>
      <trkpt lat="46.20417" lon="4.46478">
        <ele>739</ele>
        <time>2012-04-11T15:00:46Z</time>
      </trkpt>
      <trkpt lat="46.20414" lon="4.46485">
        <ele>734</ele>
        <time>2012-04-11T15:00:51Z</time>
      </trkpt>
      <trkpt lat="46.20416" lon="4.46495">
        <ele>737</ele>
        <time>2012-04-11T15:00:57Z</time>
      </trkpt>
      <trkpt lat="46.20418" lon="4.46503">
        <ele>740</ele>
        <time>2012-04-11T15:01:02Z</time>
      </trkpt>
      <trkpt lat="46.20418" lon="4.46505">
        <ele>740</ele>
        <time>2012-04-11T15:01:04Z</time>
      </trkpt>
      <trkpt lat="46.20418" lon="4.46506">
        <ele>741</ele>
        <time>2012-04-11T15:01:15Z</time>
      </trkpt>
      <trkpt lat="46.20422" lon="4.46506">
        <ele>741</ele>
        <time>2012-04-11T15:01:26Z</time>
      </trkpt>
      <trkpt lat="46.20425" lon="4.46508">
        <ele>742</ele>
        <time>2012-04-11T15:01:34Z</time>
      </trkpt>
      <trkpt lat="46.20431" lon="4.46517">
        <ele>744</ele>
        <time>2012-04-11T15:02:03Z</time>
      </trkpt>
      <trkpt lat="46.20433" lon="4.46519">
        <ele>744</ele>
        <time>2012-04-11T15:02:05Z</time>
      </trkpt>
      <trkpt lat="46.20436" lon="4.46526">
        <ele>745</ele>
        <time>2012-04-11T15:02:09Z</time>
      </trkpt>
      <trkpt lat="46.20437" lon="4.46533">
        <ele>746</ele>
        <time>2012-04-11T15:02:14Z</time>
      </trkpt>
      <trkpt lat="46.20438" lon="4.46534">
        <ele>746</ele>
        <time>2012-04-11T15:02:15Z</time>
      </trkpt>
      <trkpt lat="46.20442" lon="4.46545">
        <ele>747</ele>
        <time>2012-04-11T15:02:22Z</time>
      </trkpt>
      <trkpt lat="46.2045" lon="4.46558">
        <ele>748</ele>
        <time>2012-04-11T15:02:31Z</time>
      </trkpt>
      <trkpt lat="46.20455" lon="4.4657">
        <ele>749</ele>
        <time>2012-04-11T15:02:39Z</time>
      </trkpt>
      <trkpt lat="46.20458" lon="4.4658">
        <ele>749</ele>
        <time>2012-04-11T15:02:44Z</time>
      </trkpt>
      <trkpt lat="46.20459" lon="4.46583">
        <ele>756</ele>
        <time>2012-04-11T15:02:46Z</time>
      </trkpt>
      <trkpt lat="46.20458" lon="4.46597">
        <ele>756</ele>
        <time>2012-04-11T15:02:53Z</time>
      </trkpt>
      <trkpt lat="46.20459" lon="4.46605">
        <ele>756</ele>
        <time>2012-04-11T15:02:58Z</time>
      </trkpt>
      <trkpt lat="46.20461" lon="4.46608">
        <ele>757</ele>
        <time>2012-04-11T15:03:00Z</time>
      </trkpt>
      <trkpt lat="46.20465" lon="4.46621">
        <ele>758</ele>
        <time>2012-04-11T15:03:07Z</time>
      </trkpt>
      <trkpt lat="46.20463" lon="4.4663">
        <ele>758</ele>
        <time>2012-04-11T15:03:13Z</time>
      </trkpt>
      <trkpt lat="46.20464" lon="4.46631">
        <ele>759</ele>
        <time>2012-04-11T15:03:14Z</time>
      </trkpt>
      <trkpt lat="46.20463" lon="4.46642">
        <ele>759</ele>
        <time>2012-04-11T15:03:21Z</time>
      </trkpt>
      <trkpt lat="46.20465" lon="4.46654">
        <ele>760</ele>
        <time>2012-04-11T15:03:29Z</time>
      </trkpt>
      <trkpt lat="46.20468" lon="4.46665">
        <ele>761</ele>
        <time>2012-04-11T15:03:36Z</time>
      </trkpt>
      <trkpt lat="46.20472" lon="4.46663">
        <ele>761</ele>
        <time>2012-04-11T15:03:43Z</time>
      </trkpt>
      <trkpt lat="46.20469" lon="4.46671">
        <ele>768</ele>
        <time>2012-04-11T15:03:50Z</time>
      </trkpt>
      <trkpt lat="46.20469" lon="4.46676">
        <ele>768</ele>
        <time>2012-04-11T15:03:53Z</time>
      </trkpt>
      <trkpt lat="46.20469" lon="4.46677">
        <ele>768</ele>
        <time>2012-04-11T15:03:54Z</time>
      </trkpt>
      <trkpt lat="46.20469" lon="4.46681">
        <ele>768</ele>
        <time>2012-04-11T15:03:56Z</time>
      </trkpt>
      <trkpt lat="46.20469" lon="4.46684">
        <ele>768</ele>
        <time>2012-04-11T15:03:57Z</time>
      </trkpt>
      <trkpt lat="46.2047" lon="4.46698">
        <ele>769</ele>
        <time>2012-04-11T15:04:03Z</time>
      </trkpt>
      <trkpt lat="46.20471" lon="4.46715">
        <ele>770</ele>
        <time>2012-04-11T15:04:10Z</time>
      </trkpt>
      <trkpt lat="46.2047" lon="4.46729">
        <ele>771</ele>
        <time>2012-04-11T15:04:16Z</time>
      </trkpt>
      <trkpt lat="46.2047" lon="4.46731">
        <ele>771</ele>
        <time>2012-04-11T15:04:17Z</time>
      </trkpt>
      <trkpt lat="46.2047" lon="4.46745">
        <ele>772</ele>
        <time>2012-04-11T15:04:24Z</time>
      </trkpt>
      <trkpt lat="46.20471" lon="4.46763">
        <ele>781</ele>
        <time>2012-04-11T15:04:32Z</time>
      </trkpt>
      <trkpt lat="46.20471" lon="4.46775">
        <ele>782</ele>
        <time>2012-04-11T15:04:38Z</time>
      </trkpt>
      <trkpt lat="46.20471" lon="4.4678">
        <ele>782</ele>
        <time>2012-04-11T15:04:41Z</time>
      </trkpt>
      <trkpt lat="46.20473" lon="4.46795">
        <ele>784</ele>
        <time>2012-04-11T15:04:47Z</time>
      </trkpt>
      <trkpt lat="46.20474" lon="4.46809">
        <ele>785</ele>
        <time>2012-04-11T15:04:54Z</time>
      </trkpt>
      <trkpt lat="46.20471" lon="4.46824">
        <ele>786</ele>
        <time>2012-04-11T15:05:01Z</time>
      </trkpt>
      <trkpt lat="46.20468" lon="4.46831">
        <ele>786</ele>
        <time>2012-04-11T15:05:05Z</time>
      </trkpt>
      <trkpt lat="46.20467" lon="4.46832">
        <ele>786</ele>
        <time>2012-04-11T15:05:06Z</time>
      </trkpt>
      <trkpt lat="46.20462" lon="4.46834">
        <ele>798</ele>
        <time>2012-04-11T15:05:12Z</time>
      </trkpt>
      <trkpt lat="46.20459" lon="4.4683">
        <ele>787</ele>
        <time>2012-04-11T15:05:19Z</time>
      </trkpt>
      <trkpt lat="46.20448" lon="4.46823">
        <ele>787</ele>
        <time>2012-04-11T15:05:26Z</time>
      </trkpt>
      <trkpt lat="46.20436" lon="4.46813">
        <ele>787</ele>
        <time>2012-04-11T15:05:35Z</time>
      </trkpt>
      <trkpt lat="46.20427" lon="4.46807">
        <ele>786</ele>
        <time>2012-04-11T15:05:41Z</time>
      </trkpt>
      <trkpt lat="46.20418" lon="4.46801">
        <ele>785</ele>
        <time>2012-04-11T15:05:48Z</time>
      </trkpt>
      <trkpt lat="46.2041" lon="4.46795">
        <ele>791</ele>
        <time>2012-04-11T15:05:54Z</time>
      </trkpt>
      <trkpt lat="46.20404" lon="4.46792">
        <ele>790</ele>
        <time>2012-04-11T15:05:59Z</time>
      </trkpt>
      <trkpt lat="46.20403" lon="4.46791">
        <ele>790</ele>
        <time>2012-04-11T15:06:01Z</time>
      </trkpt>
      <trkpt lat="46.20403" lon="4.4679">
        <ele>790</ele>
        <time>2012-04-11T15:06:02Z</time>
      </trkpt>
      <trkpt lat="46.20403" lon="4.4679">
        <ele>790</ele>
        <time>2012-04-11T15:06:07Z</time>
      </trkpt>
      <trkpt lat="46.20402" lon="4.46792">
        <ele>790</ele>
        <time>2012-04-11T15:06:10Z</time>
      </trkpt>
      <trkpt lat="46.204" lon="4.46782">
        <ele>789</ele>
        <time>2012-04-11T15:06:58Z</time>
      </trkpt>
      <trkpt lat="46.20397" lon="4.46783">
        <ele>789</ele>
        <time>2012-04-11T15:07:01Z</time>
      </trkpt>
      <trkpt lat="46.20389" lon="4.4678">
        <ele>790</ele>
        <time>2012-04-11T15:07:10Z</time>
      </trkpt>
      <trkpt lat="46.20383" lon="4.46776">
        <ele>790</ele>
        <time>2012-04-11T15:07:15Z</time>
      </trkpt>
      <trkpt lat="46.20382" lon="4.46775">
        <ele>790</ele>
        <time>2012-04-11T15:07:16Z</time>
      </trkpt>
      <trkpt lat="46.20374" lon="4.46772">
        <ele>791</ele>
        <time>2012-04-11T15:07:20Z</time>
      </trkpt>
      <trkpt lat="46.20373" lon="4.4677">
        <ele>791</ele>
        <time>2012-04-11T15:07:21Z</time>
      </trkpt>
      <trkpt lat="46.20366" lon="4.46766">
        <ele>791</ele>
        <time>2012-04-11T15:07:25Z</time>
      </trkpt>
      <trkpt lat="46.20356" lon="4.46759">
        <ele>791</ele>
        <time>2012-04-11T15:07:30Z</time>
      </trkpt>
      <trkpt lat="46.20347" lon="4.46754">
        <ele>792</ele>
        <time>2012-04-11T15:07:34Z</time>
      </trkpt>
      <trkpt lat="46.20342" lon="4.4675">
        <ele>791</ele>
        <time>2012-04-11T15:07:37Z</time>
      </trkpt>
      <trkpt lat="46.20338" lon="4.46747">
        <ele>787</ele>
        <time>2012-04-11T15:07:39Z</time>
      </trkpt>
      <trkpt lat="46.2033" lon="4.46743">
        <ele>789</ele>
        <time>2012-04-11T15:07:44Z</time>
      </trkpt>
      <trkpt lat="46.20323" lon="4.46739">
        <ele>788</ele>
        <time>2012-04-11T15:07:51Z</time>
      </trkpt>
      <trkpt lat="46.20313" lon="4.46731">
        <ele>787</ele>
        <time>2012-04-11T15:08:00Z</time>
      </trkpt>
      <trkpt lat="46.20309" lon="4.46729">
        <ele>787</ele>
        <time>2012-04-11T15:08:04Z</time>
      </trkpt>
      <trkpt lat="46.20306" lon="4.46727">
        <ele>786</ele>
        <time>2012-04-11T15:08:07Z</time>
      </trkpt>
      <trkpt lat="46.203" lon="4.46725">
        <ele>786</ele>
        <time>2012-04-11T15:08:12Z</time>
      </trkpt>
      <trkpt lat="46.20296" lon="4.46727">
        <ele>786</ele>
        <time>2012-04-11T15:08:18Z</time>
      </trkpt>
      <trkpt lat="46.20293" lon="4.46724">
        <ele>786</ele>
        <time>2012-04-11T15:08:29Z</time>
      </trkpt>
      <trkpt lat="46.2029" lon="4.46721">
        <ele>786</ele>
        <time>2012-04-11T15:08:32Z</time>
      </trkpt>
      <trkpt lat="46.20287" lon="4.4672">
        <ele>786</ele>
        <time>2012-04-11T15:08:36Z</time>
      </trkpt>
      <trkpt lat="46.20276" lon="4.46715">
        <ele>786</ele>
        <time>2012-04-11T15:08:44Z</time>
      </trkpt>
      <trkpt lat="46.20275" lon="4.46714">
        <ele>786</ele>
        <time>2012-04-11T15:08:45Z</time>
      </trkpt>
      <trkpt lat="46.20266" lon="4.46711">
        <ele>786</ele>
        <time>2012-04-11T15:08:51Z</time>
      </trkpt>
      <trkpt lat="46.20258" lon="4.46713">
        <ele>787</ele>
        <time>2012-04-11T15:08:56Z</time>
      </trkpt>
      <trkpt lat="46.20243" lon="4.46721">
        <ele>783</ele>
        <time>2012-04-11T15:09:02Z</time>
      </trkpt>
      <trkpt lat="46.20242" lon="4.46723">
        <ele>783</ele>
        <time>2012-04-11T15:09:03Z</time>
      </trkpt>
      <trkpt lat="46.20237" lon="4.4673">
        <ele>784</ele>
        <time>2012-04-11T15:09:06Z</time>
      </trkpt>
      <trkpt lat="46.20234" lon="4.46736">
        <ele>784</ele>
        <time>2012-04-11T15:09:08Z</time>
      </trkpt>
      <trkpt lat="46.20232" lon="4.46747">
        <ele>785</ele>
        <time>2012-04-11T15:09:12Z</time>
      </trkpt>
      <trkpt lat="46.20237" lon="4.46767">
        <ele>790</ele>
        <time>2012-04-11T15:09:18Z</time>
      </trkpt>
      <trkpt lat="46.20238" lon="4.4677">
        <ele>790</ele>
        <time>2012-04-11T15:09:19Z</time>
      </trkpt>
      <trkpt lat="46.20238" lon="4.46785">
        <ele>790</ele>
        <time>2012-04-11T15:09:23Z</time>
      </trkpt>
      <trkpt lat="46.20237" lon="4.46792">
        <ele>791</ele>
        <time>2012-04-11T15:09:27Z</time>
      </trkpt>
      <trkpt lat="46.20237" lon="4.46793">
        <ele>791</ele>
        <time>2012-04-11T15:09:28Z</time>
      </trkpt>
      <trkpt lat="46.20235" lon="4.46805">
        <ele>792</ele>
        <time>2012-04-11T15:09:34Z</time>
      </trkpt>
      <trkpt lat="46.20232" lon="4.46814">
        <ele>793</ele>
        <time>2012-04-11T15:09:41Z</time>
      </trkpt>
      <trkpt lat="46.20232" lon="4.46816">
        <ele>793</ele>
        <time>2012-04-11T15:09:45Z</time>
      </trkpt>
      <trkpt lat="46.20229" lon="4.46821">
        <ele>793</ele>
        <time>2012-04-11T15:09:49Z</time>
      </trkpt>
      <trkpt lat="46.20228" lon="4.46822">
        <ele>793</ele>
        <time>2012-04-11T15:09:50Z</time>
      </trkpt>
      <trkpt lat="46.2022" lon="4.46832">
        <ele>792</ele>
        <time>2012-04-11T15:09:58Z</time>
      </trkpt>
      <trkpt lat="46.20219" lon="4.46833">
        <ele>792</ele>
        <time>2012-04-11T15:09:59Z</time>
      </trkpt>
      <trkpt lat="46.20214" lon="4.46839">
        <ele>800</ele>
        <time>2012-04-11T15:10:05Z</time>
      </trkpt>
      <trkpt lat="46.20211" lon="4.46841">
        <ele>800</ele>
        <time>2012-04-11T15:10:12Z</time>
      </trkpt>
      <trkpt lat="46.20204" lon="4.46846">
        <ele>799</ele>
        <time>2012-04-11T15:10:39Z</time>
      </trkpt>
      <trkpt lat="46.20205" lon="4.46847">
        <ele>799</ele>
        <time>2012-04-11T15:10:50Z</time>
      </trkpt>
      <trkpt lat="46.20206" lon="4.46843">
        <ele>799</ele>
        <time>2012-04-11T15:11:22Z</time>
      </trkpt>
      <trkpt lat="46.20208" lon="4.46842">
        <ele>799</ele>
        <time>2012-04-11T15:11:33Z</time>
      </trkpt>
      <trkpt lat="46.2021" lon="4.46839">
        <ele>800</ele>
        <time>2012-04-11T15:11:35Z</time>
      </trkpt>
      <trkpt lat="46.2022" lon="4.4683">
        <ele>792</ele>
        <time>2012-04-11T15:11:44Z</time>
      </trkpt>
      <trkpt lat="46.20222" lon="4.46827">
        <ele>792</ele>
        <time>2012-04-11T15:11:49Z</time>
      </trkpt>
      <trkpt lat="46.20213" lon="4.46827">
        <ele>790</ele>
        <time>2012-04-11T15:12:15Z</time>
      </trkpt>
      <trkpt lat="46.20211" lon="4.46829">
        <ele>790</ele>
        <time>2012-04-11T15:12:16Z</time>
      </trkpt>
      <trkpt lat="46.20208" lon="4.46837">
        <ele>799</ele>
        <time>2012-04-11T15:12:21Z</time>
      </trkpt>
      <trkpt lat="46.20206" lon="4.46838">
        <ele>799</ele>
        <time>2012-04-11T15:12:22Z</time>
      </trkpt>
      <trkpt lat="46.20202" lon="4.46845">
        <ele>799</ele>
        <time>2012-04-11T15:12:26Z</time>
      </trkpt>
      <trkpt lat="46.20202" lon="4.46847">
        <ele>799</ele>
        <time>2012-04-11T15:12:27Z</time>
      </trkpt>
      <trkpt lat="46.20202" lon="4.46848">
        <ele>799</ele>
        <time>2012-04-11T15:12:28Z</time>
      </trkpt>
      <trkpt lat="46.20196" lon="4.4685">
        <ele>798</ele>
        <time>2012-04-11T15:12:41Z</time>
      </trkpt>
      <trkpt lat="46.20196" lon="4.4685">
        <ele>798</ele>
        <time>2012-04-11T15:12:41Z</time>
      </trkpt>
      <trkpt lat="46.2019" lon="4.46852">
        <ele>797</ele>
        <time>2012-04-11T15:12:45Z</time>
      </trkpt>
      <trkpt lat="46.20189" lon="4.46854">
        <ele>797</ele>
        <time>2012-04-11T15:12:46Z</time>
      </trkpt>
      <trkpt lat="46.20185" lon="4.46856">
        <ele>797</ele>
        <time>2012-04-11T15:12:49Z</time>
      </trkpt>
      <trkpt lat="46.20182" lon="4.46858">
        <ele>797</ele>
        <time>2012-04-11T15:12:51Z</time>
      </trkpt>
      <trkpt lat="46.20175" lon="4.46861">
        <ele>797</ele>
        <time>2012-04-11T15:12:56Z</time>
      </trkpt>
      <trkpt lat="46.20174" lon="4.46862">
        <ele>797</ele>
        <time>2012-04-11T15:12:57Z</time>
      </trkpt>
      <trkpt lat="46.20164" lon="4.46866">
        <ele>785</ele>
        <time>2012-04-11T15:13:02Z</time>
      </trkpt>
      <trkpt lat="46.20163" lon="4.46867">
        <ele>785</ele>
        <time>2012-04-11T15:13:03Z</time>
      </trkpt>
      <trkpt lat="46.20158" lon="4.46869">
        <ele>784</ele>
        <time>2012-04-11T15:13:06Z</time>
      </trkpt>
      <trkpt lat="46.20153" lon="4.46871">
        <ele>784</ele>
        <time>2012-04-11T15:13:10Z</time>
      </trkpt>
      <trkpt lat="46.20144" lon="4.46873">
        <ele>784</ele>
        <time>2012-04-11T15:13:15Z</time>
      </trkpt>
      <trkpt lat="46.2014" lon="4.46875">
        <ele>783</ele>
        <time>2012-04-11T15:13:18Z</time>
      </trkpt>
      <trkpt lat="46.20136" lon="4.46877">
        <ele>783</ele>
        <time>2012-04-11T15:13:22Z</time>
      </trkpt>
      <trkpt lat="46.20134" lon="4.46877">
        <ele>783</ele>
        <time>2012-04-11T15:13:23Z</time>
      </trkpt>
      <trkpt lat="46.20133" lon="4.46877">
        <ele>783</ele>
        <time>2012-04-11T15:13:25Z</time>
      </trkpt>
      <trkpt lat="46.20129" lon="4.4688">
        <ele>782</ele>
        <time>2012-04-11T15:13:28Z</time>
      </trkpt>
      <trkpt lat="46.2012" lon="4.46883">
        <ele>781</ele>
        <time>2012-04-11T15:13:35Z</time>
      </trkpt>
      <trkpt lat="46.20111" lon="4.46889">
        <ele>781</ele>
        <time>2012-04-11T15:13:41Z</time>
      </trkpt>
      <trkpt lat="46.20106" lon="4.46894">
        <ele>781</ele>
        <time>2012-04-11T15:13:45Z</time>
      </trkpt>
      <trkpt lat="46.20105" lon="4.46897">
        <ele>781</ele>
        <time>2012-04-11T15:13:48Z</time>
      </trkpt>
      <trkpt lat="46.201" lon="4.46903">
        <ele>781</ele>
        <time>2012-04-11T15:13:54Z</time>
      </trkpt>
      <trkpt lat="46.2009" lon="4.46911">
        <ele>780</ele>
        <time>2012-04-11T15:14:01Z</time>
      </trkpt>
      <trkpt lat="46.20087" lon="4.46914">
        <ele>780</ele>
        <time>2012-04-11T15:14:03Z</time>
      </trkpt>
      <trkpt lat="46.20085" lon="4.46918">
        <ele>781</ele>
        <time>2012-04-11T15:14:06Z</time>
      </trkpt>
      <trkpt lat="46.20083" lon="4.46919">
        <ele>780</ele>
        <time>2012-04-11T15:14:07Z</time>
      </trkpt>
      <trkpt lat="46.20077" lon="4.46923">
        <ele>781</ele>
        <time>2012-04-11T15:14:11Z</time>
      </trkpt>
      <trkpt lat="46.20071" lon="4.46933">
        <ele>782</ele>
        <time>2012-04-11T15:14:17Z</time>
      </trkpt>
      <trkpt lat="46.2007" lon="4.46934">
        <ele>782</ele>
        <time>2012-04-11T15:14:18Z</time>
      </trkpt>
      <trkpt lat="46.20069" lon="4.46938">
        <ele>782</ele>
        <time>2012-04-11T15:14:23Z</time>
      </trkpt>
      <trkpt lat="46.20067" lon="4.4694">
        <ele>782</ele>
        <time>2012-04-11T15:14:26Z</time>
      </trkpt>
      <trkpt lat="46.20064" lon="4.46946">
        <ele>783</ele>
        <time>2012-04-11T15:14:29Z</time>
      </trkpt>
      <trkpt lat="46.20061" lon="4.46953">
        <ele>783</ele>
        <time>2012-04-11T15:14:34Z</time>
      </trkpt>
      <trkpt lat="46.20061" lon="4.46961">
        <ele>784</ele>
        <time>2012-04-11T15:14:38Z</time>
      </trkpt>
      <trkpt lat="46.20061" lon="4.46963">
        <ele>785</ele>
        <time>2012-04-11T15:14:39Z</time>
      </trkpt>
      <trkpt lat="46.20059" lon="4.46968">
        <ele>785</ele>
        <time>2012-04-11T15:14:41Z</time>
      </trkpt>
      <trkpt lat="46.20057" lon="4.46971">
        <ele>786</ele>
        <time>2012-04-11T15:14:44Z</time>
      </trkpt>
      <trkpt lat="46.20054" lon="4.46974">
        <ele>786</ele>
        <time>2012-04-11T15:14:46Z</time>
      </trkpt>
      <trkpt lat="46.20052" lon="4.46978">
        <ele>786</ele>
        <time>2012-04-11T15:14:49Z</time>
      </trkpt>
      <trkpt lat="46.20047" lon="4.46988">
        <ele>786</ele>
        <time>2012-04-11T15:14:55Z</time>
      </trkpt>
      <trkpt lat="46.20043" lon="4.46995">
        <ele>786</ele>
        <time>2012-04-11T15:15:00Z</time>
      </trkpt>
      <trkpt lat="46.2004" lon="4.46998">
        <ele>786</ele>
        <time>2012-04-11T15:15:02Z</time>
      </trkpt>
      <trkpt lat="46.20036" lon="4.47001">
        <ele>797</ele>
        <time>2012-04-11T15:15:05Z</time>
      </trkpt>
      <trkpt lat="46.20035" lon="4.47003">
        <ele>797</ele>
        <time>2012-04-11T15:15:10Z</time>
      </trkpt>
      <trkpt lat="46.20035" lon="4.47003">
        <ele>797</ele>
        <time>2012-04-11T15:15:12Z</time>
      </trkpt>
      <trkpt lat="46.20023" lon="4.47006">
        <ele>795</ele>
        <time>2012-04-11T15:15:28Z</time>
      </trkpt>
      <trkpt lat="46.20017" lon="4.47003">
        <ele>793</ele>
        <time>2012-04-11T15:15:35Z</time>
      </trkpt>
      <trkpt lat="46.20022" lon="4.47001">
        <ele>794</ele>
        <time>2012-04-11T15:15:42Z</time>
      </trkpt>
      <trkpt lat="46.20016" lon="4.46995">
        <ele>784</ele>
        <time>2012-04-11T15:15:47Z</time>
      </trkpt>
      <trkpt lat="46.20019" lon="4.46996">
        <ele>784</ele>
        <time>2012-04-11T15:15:55Z</time>
      </trkpt>
      <trkpt lat="46.20012" lon="4.46994">
        <ele>784</ele>
        <time>2012-04-11T15:16:03Z</time>
      </trkpt>
      <trkpt lat="46.20011" lon="4.46992">
        <ele>784</ele>
        <time>2012-04-11T15:16:05Z</time>
      </trkpt>
      <trkpt lat="46.20009" lon="4.46977">
        <ele>782</ele>
        <time>2012-04-11T15:16:10Z</time>
      </trkpt>
      <trkpt lat="46.20009" lon="4.46969">
        <ele>781</ele>
        <time>2012-04-11T15:16:16Z</time>
      </trkpt>
      <trkpt lat="46.20009" lon="4.46968">
        <ele>781</ele>
        <time>2012-04-11T15:16:17Z</time>
      </trkpt>
      <trkpt lat="46.20007" lon="4.46961">
        <ele>780</ele>
        <time>2012-04-11T15:16:22Z</time>
      </trkpt>
      <trkpt lat="46.19995" lon="4.46957">
        <ele>779</ele>
        <time>2012-04-11T15:16:26Z</time>
      </trkpt>
      <trkpt lat="46.19989" lon="4.46955">
        <ele>779</ele>
        <time>2012-04-11T15:16:29Z</time>
      </trkpt>
      <trkpt lat="46.19981" lon="4.46955">
        <ele>780</ele>
        <time>2012-04-11T15:16:32Z</time>
      </trkpt>
      <trkpt lat="46.1997" lon="4.46949">
        <ele>780</ele>
        <time>2012-04-11T15:16:40Z</time>
      </trkpt>
      <trkpt lat="46.19966" lon="4.46941">
        <ele>779</ele>
        <time>2012-04-11T15:16:46Z</time>
      </trkpt>
      <trkpt lat="46.19963" lon="4.46937">
        <ele>779</ele>
        <time>2012-04-11T15:16:48Z</time>
      </trkpt>
      <trkpt lat="46.19961" lon="4.46933">
        <ele>779</ele>
        <time>2012-04-11T15:16:51Z</time>
      </trkpt>
      <trkpt lat="46.19963" lon="4.4692">
        <ele>778</ele>
        <time>2012-04-11T15:17:34Z</time>
      </trkpt>
      <trkpt lat="46.19957" lon="4.46921">
        <ele>779</ele>
        <time>2012-04-11T15:17:39Z</time>
      </trkpt>
      <trkpt lat="46.19954" lon="4.46923">
        <ele>779</ele>
        <time>2012-04-11T15:17:47Z</time>
      </trkpt>
      <trkpt lat="46.19965" lon="4.46912">
        <ele>764</ele>
        <time>2012-04-11T15:18:49Z</time>
      </trkpt>
      <trkpt lat="46.19962" lon="4.46903">
        <ele>764</ele>
        <time>2012-04-11T15:19:18Z</time>
      </trkpt>
      <trkpt lat="46.19967" lon="4.469">
        <ele>763</ele>
        <time>2012-04-11T15:19:31Z</time>
      </trkpt>
      <trkpt lat="46.19965" lon="4.46895">
        <ele>763</ele>
        <time>2012-04-11T15:19:35Z</time>
      </trkpt>
      <trkpt lat="46.19965" lon="4.46892">
        <ele>763</ele>
        <time>2012-04-11T15:19:37Z</time>
      </trkpt>
      <trkpt lat="46.19965" lon="4.4689">
        <ele>762</ele>
        <time>2012-04-11T15:19:41Z</time>
      </trkpt>
      <trkpt lat="46.19968" lon="4.46884">
        <ele>761</ele>
        <time>2012-04-11T15:19:47Z</time>
      </trkpt>
      <trkpt lat="46.19969" lon="4.46882">
        <ele>761</ele>
        <time>2012-04-11T15:19:51Z</time>
      </trkpt>
      <trkpt lat="46.19975" lon="4.46891">
        <ele>762</ele>
        <time>2012-04-11T15:19:58Z</time>
      </trkpt>
      <trkpt lat="46.19975" lon="4.4689">
        <ele>762</ele>
        <time>2012-04-11T15:20:02Z</time>
      </trkpt>
      <trkpt lat="46.19973" lon="4.46883">
        <ele>761</ele>
        <time>2012-04-11T15:20:05Z</time>
      </trkpt>
      <trkpt lat="46.19967" lon="4.46872">
        <ele>760</ele>
        <time>2012-04-11T15:20:08Z</time>
      </trkpt>
      <trkpt lat="46.19966" lon="4.46869">
        <ele>759</ele>
        <time>2012-04-11T15:20:09Z</time>
      </trkpt>
      <trkpt lat="46.19967" lon="4.46868">
        <ele>759</ele>
        <time>2012-04-11T15:20:13Z</time>
      </trkpt>
      <trkpt lat="46.19971" lon="4.46873">
        <ele>759</ele>
        <time>2012-04-11T15:20:18Z</time>
      </trkpt>
      <trkpt lat="46.19975" lon="4.46879">
        <ele>760</ele>
        <time>2012-04-11T15:20:24Z</time>
      </trkpt>
      <trkpt lat="46.19977" lon="4.46881">
        <ele>760</ele>
        <time>2012-04-11T15:20:26Z</time>
      </trkpt>
      <trkpt lat="46.19979" lon="4.46889">
        <ele>761</ele>
        <time>2012-04-11T15:20:31Z</time>
      </trkpt>
      <trkpt lat="46.19982" lon="4.46893">
        <ele>762</ele>
        <time>2012-04-11T15:20:34Z</time>
      </trkpt>
      <trkpt lat="46.19986" lon="4.46903">
        <ele>763</ele>
        <time>2012-04-11T15:20:41Z</time>
      </trkpt>
      <trkpt lat="46.19987" lon="4.4691">
        <ele>764</ele>
        <time>2012-04-11T15:20:44Z</time>
      </trkpt>
      <trkpt lat="46.19988" lon="4.46912">
        <ele>764</ele>
        <time>2012-04-11T15:20:45Z</time>
      </trkpt>
      <trkpt lat="46.19991" lon="4.46915">
        <ele>765</ele>
        <time>2012-04-11T15:20:47Z</time>
      </trkpt>
      <trkpt lat="46.19992" lon="4.46916">
        <ele>765</ele>
        <time>2012-04-11T15:20:48Z</time>
      </trkpt>
      <trkpt lat="46.19993" lon="4.46923">
        <ele>771</ele>
        <time>2012-04-11T15:20:53Z</time>
      </trkpt>
      <trkpt lat="46.19994" lon="4.46926">
        <ele>772</ele>
        <time>2012-04-11T15:20:55Z</time>
      </trkpt>
      <trkpt lat="46.19996" lon="4.46934">
        <ele>774</ele>
        <time>2012-04-11T15:21:00Z</time>
      </trkpt>
      <trkpt lat="46.19996" lon="4.46942">
        <ele>776</ele>
        <time>2012-04-11T15:21:07Z</time>
      </trkpt>
      <trkpt lat="46.19998" lon="4.46943">
        <ele>776</ele>
        <time>2012-04-11T15:21:08Z</time>
      </trkpt>
      <trkpt lat="46.20002" lon="4.46948">
        <ele>778</ele>
        <time>2012-04-11T15:21:12Z</time>
      </trkpt>
      <trkpt lat="46.20005" lon="4.4696">
        <ele>780</ele>
        <time>2012-04-11T15:21:19Z</time>
      </trkpt>
      <trkpt lat="46.20008" lon="4.46967">
        <ele>781</ele>
        <time>2012-04-11T15:21:24Z</time>
      </trkpt>
      <trkpt lat="46.20008" lon="4.4697">
        <ele>782</ele>
        <time>2012-04-11T15:21:26Z</time>
      </trkpt>
      <trkpt lat="46.20007" lon="4.46976">
        <ele>782</ele>
        <time>2012-04-11T15:21:33Z</time>
      </trkpt>
      <trkpt lat="46.20011" lon="4.4698">
        <ele>783</ele>
        <time>2012-04-11T15:21:40Z</time>
      </trkpt>
      <trkpt lat="46.20017" lon="4.46985">
        <ele>783</ele>
        <time>2012-04-11T15:21:45Z</time>
      </trkpt>
      <trkpt lat="46.20016" lon="4.46991">
        <ele>784</ele>
        <time>2012-04-11T15:21:51Z</time>
      </trkpt>
      <trkpt lat="46.20026" lon="4.46983">
        <ele>784</ele>
        <time>2012-04-11T15:22:06Z</time>
      </trkpt>
      <trkpt lat="46.2003" lon="4.46977">
        <ele>783</ele>
        <time>2012-04-11T15:22:10Z</time>
      </trkpt>
      <trkpt lat="46.2003" lon="4.46976">
        <ele>783</ele>
        <time>2012-04-11T15:22:11Z</time>
      </trkpt>
      <trkpt lat="46.20031" lon="4.46975">
        <ele>783</ele>
        <time>2012-04-11T15:22:12Z</time>
      </trkpt>
      <trkpt lat="46.20032" lon="4.46967">
        <ele>783</ele>
        <time>2012-04-11T15:22:16Z</time>
      </trkpt>
      <trkpt lat="46.20033" lon="4.46964">
        <ele>782</ele>
        <time>2012-04-11T15:22:18Z</time>
      </trkpt>
      <trkpt lat="46.20037" lon="4.46958">
        <ele>782</ele>
        <time>2012-04-11T15:22:24Z</time>
      </trkpt>
      <trkpt lat="46.20038" lon="4.46957">
        <ele>782</ele>
        <time>2012-04-11T15:22:25Z</time>
      </trkpt>
      <trkpt lat="46.20043" lon="4.46947">
        <ele>781</ele>
        <time>2012-04-11T15:22:31Z</time>
      </trkpt>
      <trkpt lat="46.2005" lon="4.4694">
        <ele>781</ele>
        <time>2012-04-11T15:22:36Z</time>
      </trkpt>
      <trkpt lat="46.20051" lon="4.46939">
        <ele>781</ele>
        <time>2012-04-11T15:22:37Z</time>
      </trkpt>
      <trkpt lat="46.20054" lon="4.46937">
        <ele>781</ele>
        <time>2012-04-11T15:22:39Z</time>
      </trkpt>
      <trkpt lat="46.20064" lon="4.46926">
        <ele>781</ele>
        <time>2012-04-11T15:22:46Z</time>
      </trkpt>
      <trkpt lat="46.20074" lon="4.46915">
        <ele>774</ele>
        <time>2012-04-11T15:22:54Z</time>
      </trkpt>
      <trkpt lat="46.20082" lon="4.46905">
        <ele>773</ele>
        <time>2012-04-11T15:23:00Z</time>
      </trkpt>
      <trkpt lat="46.20086" lon="4.46901">
        <ele>780</ele>
        <time>2012-04-11T15:23:03Z</time>
      </trkpt>
      <trkpt lat="46.20097" lon="4.46893">
        <ele>780</ele>
        <time>2012-04-11T15:23:12Z</time>
      </trkpt>
      <trkpt lat="46.20109" lon="4.46886">
        <ele>780</ele>
        <time>2012-04-11T15:23:21Z</time>
      </trkpt>
      <trkpt lat="46.20116" lon="4.46882">
        <ele>780</ele>
        <time>2012-04-11T15:23:26Z</time>
      </trkpt>
      <trkpt lat="46.20123" lon="4.4688">
        <ele>781</ele>
        <time>2012-04-11T15:23:31Z</time>
      </trkpt>
      <trkpt lat="46.20135" lon="4.46875">
        <ele>783</ele>
        <time>2012-04-11T15:23:39Z</time>
      </trkpt>
      <trkpt lat="46.20147" lon="4.46871">
        <ele>784</ele>
        <time>2012-04-11T15:23:47Z</time>
      </trkpt>
      <trkpt lat="46.20152" lon="4.4687">
        <ele>784</ele>
        <time>2012-04-11T15:23:50Z</time>
      </trkpt>
      <trkpt lat="46.20161" lon="4.46867">
        <ele>784</ele>
        <time>2012-04-11T15:23:56Z</time>
      </trkpt>
      <trkpt lat="46.20172" lon="4.46862">
        <ele>797</ele>
        <time>2012-04-11T15:24:03Z</time>
      </trkpt>
      <trkpt lat="46.20184" lon="4.46854">
        <ele>797</ele>
        <time>2012-04-11T15:24:12Z</time>
      </trkpt>
      <trkpt lat="46.20187" lon="4.46853">
        <ele>797</ele>
        <time>2012-04-11T15:24:14Z</time>
      </trkpt>
      <trkpt lat="46.20191" lon="4.4685">
        <ele>797</ele>
        <time>2012-04-11T15:24:17Z</time>
      </trkpt>
      <trkpt lat="46.20202" lon="4.46845">
        <ele>799</ele>
        <time>2012-04-11T15:24:25Z</time>
      </trkpt>
      <trkpt lat="46.20211" lon="4.46838">
        <ele>800</ele>
        <time>2012-04-11T15:24:32Z</time>
      </trkpt>
      <trkpt lat="46.20219" lon="4.4683">
        <ele>792</ele>
        <time>2012-04-11T15:24:39Z</time>
      </trkpt>
      <trkpt lat="46.20219" lon="4.46828">
        <ele>792</ele>
        <time>2012-04-11T15:24:40Z</time>
      </trkpt>
      <trkpt lat="46.20229" lon="4.46808">
        <ele>792</ele>
        <time>2012-04-11T15:24:50Z</time>
      </trkpt>
      <trkpt lat="46.20233" lon="4.46791">
        <ele>790</ele>
        <time>2012-04-11T15:24:58Z</time>
      </trkpt>
      <trkpt lat="46.20234" lon="4.4678">
        <ele>790</ele>
        <time>2012-04-11T15:25:03Z</time>
      </trkpt>
      <trkpt lat="46.20233" lon="4.46774">
        <ele>789</ele>
        <time>2012-04-11T15:25:06Z</time>
      </trkpt>
      <trkpt lat="46.20228" lon="4.46755">
        <ele>788</ele>
        <time>2012-04-11T15:25:15Z</time>
      </trkpt>
      <trkpt lat="46.20227" lon="4.46742">
        <ele>783</ele>
        <time>2012-04-11T15:25:21Z</time>
      </trkpt>
      <trkpt lat="46.20227" lon="4.46741">
        <ele>783</ele>
        <time>2012-04-11T15:25:22Z</time>
      </trkpt>
      <trkpt lat="46.20225" lon="4.46735">
        <ele>782</ele>
        <time>2012-04-11T15:25:26Z</time>
      </trkpt>
      <trkpt lat="46.20225" lon="4.46733">
        <ele>782</ele>
        <time>2012-04-11T15:25:27Z</time>
      </trkpt>
      <trkpt lat="46.20226" lon="4.46728">
        <ele>782</ele>
        <time>2012-04-11T15:25:30Z</time>
      </trkpt>
      <trkpt lat="46.20227" lon="4.46724">
        <ele>782</ele>
        <time>2012-04-11T15:25:33Z</time>
      </trkpt>
      <trkpt lat="46.20225" lon="4.46718">
        <ele>781</ele>
        <time>2012-04-11T15:25:40Z</time>
      </trkpt>
      <trkpt lat="46.20229" lon="4.46716">
        <ele>781</ele>
        <time>2012-04-11T15:25:51Z</time>
      </trkpt>
      <trkpt lat="46.20228" lon="4.46724">
        <ele>782</ele>
        <time>2012-04-11T15:25:55Z</time>
      </trkpt>
      <trkpt lat="46.20229" lon="4.46736">
        <ele>783</ele>
        <time>2012-04-11T15:26:01Z</time>
      </trkpt>
      <trkpt lat="46.20237" lon="4.46744">
        <ele>786</ele>
        <time>2012-04-11T15:26:07Z</time>
      </trkpt>
      <trkpt lat="46.2024" lon="4.46747">
        <ele>787</ele>
        <time>2012-04-11T15:26:09Z</time>
      </trkpt>
      <trkpt lat="46.20244" lon="4.46751">
        <ele>791</ele>
        <time>2012-04-11T15:26:13Z</time>
      </trkpt>
      <trkpt lat="46.20245" lon="4.46753">
        <ele>791</ele>
        <time>2012-04-11T15:26:15Z</time>
      </trkpt>
      <trkpt lat="46.2025" lon="4.46758">
        <ele>791</ele>
        <time>2012-04-11T15:26:20Z</time>
      </trkpt>
      <trkpt lat="46.20254" lon="4.46766">
        <ele>796</ele>
        <time>2012-04-11T15:26:26Z</time>
      </trkpt>
      <trkpt lat="46.20257" lon="4.46773">
        <ele>797</ele>
        <time>2012-04-11T15:26:32Z</time>
      </trkpt>
      <trkpt lat="46.20258" lon="4.46775">
        <ele>797</ele>
        <time>2012-04-11T15:26:33Z</time>
      </trkpt>
      <trkpt lat="46.20263" lon="4.46781">
        <ele>798</ele>
        <time>2012-04-11T15:26:39Z</time>
      </trkpt>
      <trkpt lat="46.20263" lon="4.46782">
        <ele>798</ele>
        <time>2012-04-11T15:26:40Z</time>
      </trkpt>
      <trkpt lat="46.20263" lon="4.46786">
        <ele>799</ele>
        <time>2012-04-11T15:26:43Z</time>
      </trkpt>
      <trkpt lat="46.20264" lon="4.46788">
        <ele>799</ele>
        <time>2012-04-11T15:26:44Z</time>
      </trkpt>
      <trkpt lat="46.20267" lon="4.46797">
        <ele>800</ele>
        <time>2012-04-11T15:26:50Z</time>
      </trkpt>
      <trkpt lat="46.2027" lon="4.46804">
        <ele>801</ele>
        <time>2012-04-11T15:26:56Z</time>
      </trkpt>
      <trkpt lat="46.20275" lon="4.46811">
        <ele>801</ele>
        <time>2012-04-11T15:27:01Z</time>
      </trkpt>
      <trkpt lat="46.20275" lon="4.4682">
        <ele>802</ele>
        <time>2012-04-11T15:27:07Z</time>
      </trkpt>
      <trkpt lat="46.20284" lon="4.46825">
        <ele>803</ele>
        <time>2012-04-11T15:27:31Z</time>
      </trkpt>
      <trkpt lat="46.20285" lon="4.46827">
        <ele>803</ele>
        <time>2012-04-11T15:27:33Z</time>
      </trkpt>
      <trkpt lat="46.20286" lon="4.46828">
        <ele>803</ele>
        <time>2012-04-11T15:27:34Z</time>
      </trkpt>
      <trkpt lat="46.20287" lon="4.46831">
        <ele>803</ele>
        <time>2012-04-11T15:27:37Z</time>
      </trkpt>
      <trkpt lat="46.20287" lon="4.46841">
        <ele>813</ele>
        <time>2012-04-11T15:27:44Z</time>
      </trkpt>
      <trkpt lat="46.20288" lon="4.46845">
        <ele>814</ele>
        <time>2012-04-11T15:27:52Z</time>
      </trkpt>
      <trkpt lat="46.20291" lon="4.46852">
        <ele>814</ele>
        <time>2012-04-11T15:28:03Z</time>
      </trkpt>
      <trkpt lat="46.20291" lon="4.46859">
        <ele>815</ele>
        <time>2012-04-11T15:28:09Z</time>
      </trkpt>
      <trkpt lat="46.20291" lon="4.46868">
        <ele>816</ele>
        <time>2012-04-11T15:28:15Z</time>
      </trkpt>
      <trkpt lat="46.20291" lon="4.46874">
        <ele>816</ele>
        <time>2012-04-11T15:28:20Z</time>
      </trkpt>
      <trkpt lat="46.20289" lon="4.46877">
        <ele>816</ele>
        <time>2012-04-11T15:28:22Z</time>
      </trkpt>
      <trkpt lat="46.20288" lon="4.46878">
        <ele>816</ele>
        <time>2012-04-11T15:28:23Z</time>
      </trkpt>
      <trkpt lat="46.20287" lon="4.4688">
        <ele>816</ele>
        <time>2012-04-11T15:28:26Z</time>
      </trkpt>
      <trkpt lat="46.20285" lon="4.46886">
        <ele>817</ele>
        <time>2012-04-11T15:28:31Z</time>
      </trkpt>
      <trkpt lat="46.20282" lon="4.46891">
        <ele>817</ele>
        <time>2012-04-11T15:28:35Z</time>
      </trkpt>
      <trkpt lat="46.20275" lon="4.46895">
        <ele>817</ele>
        <time>2012-04-11T15:28:41Z</time>
      </trkpt>
      <trkpt lat="46.20269" lon="4.46897">
        <ele>817</ele>
        <time>2012-04-11T15:28:46Z</time>
      </trkpt>
      <trkpt lat="46.20264" lon="4.469">
        <ele>817</ele>
        <time>2012-04-11T15:28:51Z</time>
      </trkpt>
      <trkpt lat="46.20259" lon="4.46903">
        <ele>817</ele>
        <time>2012-04-11T15:28:55Z</time>
      </trkpt>
      <trkpt lat="46.20259" lon="4.46908">
        <ele>817</ele>
        <time>2012-04-11T15:28:57Z</time>
      </trkpt>
      <trkpt lat="46.20257" lon="4.46914">
        <ele>818</ele>
        <time>2012-04-11T15:29:00Z</time>
      </trkpt>
      <trkpt lat="46.20259" lon="4.46917">
        <ele>818</ele>
        <time>2012-04-11T15:29:06Z</time>
      </trkpt>
      <trkpt lat="46.20257" lon="4.46927">
        <ele>824</ele>
        <time>2012-04-11T15:29:13Z</time>
      </trkpt>
      <trkpt lat="46.20254" lon="4.46937">
        <ele>827</ele>
        <time>2012-04-11T15:29:20Z</time>
      </trkpt>
      <trkpt lat="46.20251" lon="4.46942">
        <ele>829</ele>
        <time>2012-04-11T15:29:26Z</time>
      </trkpt>
      <trkpt lat="46.20249" lon="4.46944">
        <ele>823</ele>
        <time>2012-04-11T15:29:27Z</time>
      </trkpt>
      <trkpt lat="46.20247" lon="4.46951">
        <ele>824</ele>
        <time>2012-04-11T15:29:31Z</time>
      </trkpt>
      <trkpt lat="46.20246" lon="4.46956">
        <ele>825</ele>
        <time>2012-04-11T15:29:35Z</time>
      </trkpt>
      <trkpt lat="46.20246" lon="4.46957">
        <ele>825</ele>
        <time>2012-04-11T15:29:36Z</time>
      </trkpt>
      <trkpt lat="46.20242" lon="4.46962">
        <ele>826</ele>
        <time>2012-04-11T15:29:43Z</time>
      </trkpt>
      <trkpt lat="46.20233" lon="4.46972">
        <ele>828</ele>
        <time>2012-04-11T15:29:52Z</time>
      </trkpt>
      <trkpt lat="46.20232" lon="4.46979">
        <ele>829</ele>
        <time>2012-04-11T15:29:57Z</time>
      </trkpt>
      <trkpt lat="46.20234" lon="4.46985">
        <ele>831</ele>
        <time>2012-04-11T15:30:04Z</time>
      </trkpt>
      <trkpt lat="46.20235" lon="4.46987">
        <ele>832</ele>
        <time>2012-04-11T15:30:06Z</time>
      </trkpt>
      <trkpt lat="46.20236" lon="4.46989">
        <ele>832</ele>
        <time>2012-04-11T15:30:08Z</time>
      </trkpt>
      <trkpt lat="46.20237" lon="4.46994">
        <ele>834</ele>
        <time>2012-04-11T15:30:14Z</time>
      </trkpt>
      <trkpt lat="46.2024" lon="4.46999">
        <ele>836</ele>
        <time>2012-04-11T15:30:20Z</time>
      </trkpt>
      <trkpt lat="46.20241" lon="4.46999">
        <ele>836</ele>
        <time>2012-04-11T15:30:21Z</time>
      </trkpt>
      <trkpt lat="46.20243" lon="4.47003">
        <ele>842</ele>
        <time>2012-04-11T15:30:25Z</time>
      </trkpt>
      <trkpt lat="46.20243" lon="4.47009">
        <ele>843</ele>
        <time>2012-04-11T15:30:30Z</time>
      </trkpt>
      <trkpt lat="46.20246" lon="4.47017">
        <ele>843</ele>
        <time>2012-04-11T15:30:37Z</time>
      </trkpt>
      <trkpt lat="46.20248" lon="4.47021">
        <ele>843</ele>
        <time>2012-04-11T15:30:43Z</time>
      </trkpt>
      <trkpt lat="46.20248" lon="4.47025">
        <ele>844</ele>
        <time>2012-04-11T15:30:49Z</time>
      </trkpt>
      <trkpt lat="46.20249" lon="4.47026">
        <ele>844</ele>
        <time>2012-04-11T15:30:55Z</time>
      </trkpt>
      <trkpt lat="46.20252" lon="4.47028">
        <ele>849</ele>
        <time>2012-04-11T15:31:01Z</time>
      </trkpt>
      <trkpt lat="46.20253" lon="4.4703">
        <ele>849</ele>
        <time>2012-04-11T15:31:06Z</time>
      </trkpt>
      <trkpt lat="46.20253" lon="4.47034">
        <ele>850</ele>
        <time>2012-04-11T15:31:12Z</time>
      </trkpt>
      <trkpt lat="46.20259" lon="4.47037">
        <ele>851</ele>
        <time>2012-04-11T15:31:19Z</time>
      </trkpt>
      <trkpt lat="46.20258" lon="4.47044">
        <ele>852</ele>
        <time>2012-04-11T15:31:25Z</time>
      </trkpt>
      <trkpt lat="46.20259" lon="4.47045">
        <ele>852</ele>
        <time>2012-04-11T15:31:27Z</time>
      </trkpt>
      <trkpt lat="46.2026" lon="4.47049">
        <ele>852</ele>
        <time>2012-04-11T15:31:33Z</time>
      </trkpt>
      <trkpt lat="46.20258" lon="4.47054">
        <ele>853</ele>
        <time>2012-04-11T15:31:38Z</time>
      </trkpt>
      <trkpt lat="46.20259" lon="4.47057">
        <ele>853</ele>
        <time>2012-04-11T15:31:43Z</time>
      </trkpt>
      <trkpt lat="46.20256" lon="4.47065">
        <ele>854</ele>
        <time>2012-04-11T15:31:50Z</time>
      </trkpt>
      <trkpt lat="46.20255" lon="4.47073">
        <ele>856</ele>
        <time>2012-04-11T15:31:56Z</time>
      </trkpt>
      <trkpt lat="46.20256" lon="4.47077">
        <ele>856</ele>
        <time>2012-04-11T15:32:01Z</time>
      </trkpt>
      <trkpt lat="46.20256" lon="4.47081">
        <ele>857</ele>
        <time>2012-04-11T15:32:07Z</time>
      </trkpt>
      <trkpt lat="46.20254" lon="4.47086">
        <ele>860</ele>
        <time>2012-04-11T15:32:17Z</time>
      </trkpt>
      <trkpt lat="46.20257" lon="4.47086">
        <ele>860</ele>
        <time>2012-04-11T15:32:24Z</time>
      </trkpt>
      <trkpt lat="46.20259" lon="4.47088">
        <ele>861</ele>
        <time>2012-04-11T15:32:30Z</time>
      </trkpt>
      <trkpt lat="46.2026" lon="4.47089">
        <ele>862</ele>
        <time>2012-04-11T15:32:31Z</time>
      </trkpt>
      <trkpt lat="46.20262" lon="4.47093">
        <ele>862</ele>
        <time>2012-04-11T15:32:35Z</time>
      </trkpt>
      <trkpt lat="46.20262" lon="4.47095">
        <ele>863</ele>
        <time>2012-04-11T15:32:37Z</time>
      </trkpt>
      <trkpt lat="46.20262" lon="4.47096">
        <ele>863</ele>
        <time>2012-04-11T15:32:38Z</time>
      </trkpt>
      <trkpt lat="46.20265" lon="4.47104">
        <ele>865</ele>
        <time>2012-04-11T15:32:46Z</time>
      </trkpt>
      <trkpt lat="46.20266" lon="4.47105">
        <ele>865</ele>
        <time>2012-04-11T15:32:47Z</time>
      </trkpt>
      <trkpt lat="46.20266" lon="4.4711">
        <ele>866</ele>
        <time>2012-04-11T15:32:52Z</time>
      </trkpt>
      <trkpt lat="46.20265" lon="4.47116">
        <ele>866</ele>
        <time>2012-04-11T15:32:58Z</time>
      </trkpt>
      <trkpt lat="46.20268" lon="4.47124">
        <ele>867</ele>
        <time>2012-04-11T15:33:05Z</time>
      </trkpt>
      <trkpt lat="46.20268" lon="4.47132">
        <ele>869</ele>
        <time>2012-04-11T15:33:12Z</time>
      </trkpt>
      <trkpt lat="46.20268" lon="4.47134">
        <ele>869</ele>
        <time>2012-04-11T15:33:13Z</time>
      </trkpt>
      <trkpt lat="46.20267" lon="4.47139">
        <ele>869</ele>
        <time>2012-04-11T15:33:17Z</time>
      </trkpt>
      <trkpt lat="46.20267" lon="4.47143">
        <ele>870</ele>
        <time>2012-04-11T15:33:20Z</time>
      </trkpt>
      <trkpt lat="46.20271" lon="4.4715">
        <ele>871</ele>
        <time>2012-04-11T15:33:28Z</time>
      </trkpt>
      <trkpt lat="46.20275" lon="4.47158">
        <ele>871</ele>
        <time>2012-04-11T15:33:35Z</time>
      </trkpt>
      <trkpt lat="46.20276" lon="4.47159">
        <ele>871</ele>
        <time>2012-04-11T15:33:36Z</time>
      </trkpt>
      <trkpt lat="46.20277" lon="4.47166">
        <ele>871</ele>
        <time>2012-04-11T15:33:40Z</time>
      </trkpt>
      <trkpt lat="46.20279" lon="4.47168">
        <ele>878</ele>
        <time>2012-04-11T15:33:42Z</time>
      </trkpt>
      <trkpt lat="46.2028" lon="4.47171">
        <ele>878</ele>
        <time>2012-04-11T15:33:45Z</time>
      </trkpt>
      <trkpt lat="46.20284" lon="4.47167">
        <ele>878</ele>
        <time>2012-04-11T15:34:03Z</time>
      </trkpt>
      <trkpt lat="46.20285" lon="4.47166">
        <ele>871</ele>
        <time>2012-04-11T15:34:04Z</time>
      </trkpt>
      <trkpt lat="46.20288" lon="4.47164">
        <ele>871</ele>
        <time>2012-04-11T15:34:08Z</time>
      </trkpt>
      <trkpt lat="46.20291" lon="4.47163">
        <ele>871</ele>
        <time>2012-04-11T15:34:12Z</time>
      </trkpt>
      <trkpt lat="46.20292" lon="4.47162">
        <ele>871</ele>
        <time>2012-04-11T15:34:13Z</time>
      </trkpt>
      <trkpt lat="46.20299" lon="4.47157">
        <ele>870</ele>
        <time>2012-04-11T15:34:21Z</time>
      </trkpt>
      <trkpt lat="46.20306" lon="4.47152">
        <ele>870</ele>
        <time>2012-04-11T15:34:29Z</time>
      </trkpt>
      <trkpt lat="46.20317" lon="4.47145">
        <ele>870</ele>
        <time>2012-04-11T15:34:39Z</time>
      </trkpt>
      <trkpt lat="46.20324" lon="4.47142">
        <ele>870</ele>
        <time>2012-04-11T15:34:46Z</time>
      </trkpt>
      <trkpt lat="46.20326" lon="4.47141">
        <ele>870</ele>
        <time>2012-04-11T15:34:47Z</time>
      </trkpt>
      <trkpt lat="46.20335" lon="4.47135">
        <ele>865</ele>
        <time>2012-04-11T15:34:55Z</time>
      </trkpt>
      <trkpt lat="46.20341" lon="4.47131">
        <ele>864</ele>
        <time>2012-04-11T15:35:02Z</time>
      </trkpt>
      <trkpt lat="46.20349" lon="4.47129">
        <ele>864</ele>
        <time>2012-04-11T15:35:07Z</time>
      </trkpt>
      <trkpt lat="46.20355" lon="4.47125">
        <ele>863</ele>
        <time>2012-04-11T15:35:13Z</time>
      </trkpt>
      <trkpt lat="46.20361" lon="4.47119">
        <ele>862</ele>
        <time>2012-04-11T15:35:21Z</time>
      </trkpt>
      <trkpt lat="46.20362" lon="4.47117">
        <ele>862</ele>
        <time>2012-04-11T15:35:22Z</time>
      </trkpt>
      <trkpt lat="46.20366" lon="4.47112">
        <ele>861</ele>
        <time>2012-04-11T15:35:28Z</time>
      </trkpt>
      <trkpt lat="46.20375" lon="4.47107">
        <ele>861</ele>
        <time>2012-04-11T15:35:34Z</time>
      </trkpt>
      <trkpt lat="46.20385" lon="4.47107">
        <ele>860</ele>
        <time>2012-04-11T15:35:39Z</time>
      </trkpt>
      <trkpt lat="46.20397" lon="4.47108">
        <ele>859</ele>
        <time>2012-04-11T15:35:44Z</time>
      </trkpt>
      <trkpt lat="46.204" lon="4.47108">
        <ele>859</ele>
        <time>2012-04-11T15:35:45Z</time>
      </trkpt>
      <trkpt lat="46.20415" lon="4.47107">
        <ele>858</ele>
        <time>2012-04-11T15:35:50Z</time>
      </trkpt>
      <trkpt lat="46.20426" lon="4.47108">
        <ele>848</ele>
        <time>2012-04-11T15:35:54Z</time>
      </trkpt>
      <trkpt lat="46.20434" lon="4.47107">
        <ele>847</ele>
        <time>2012-04-11T15:35:57Z</time>
      </trkpt>
      <trkpt lat="46.20445" lon="4.47106">
        <ele>845</ele>
        <time>2012-04-11T15:36:01Z</time>
      </trkpt>
      <trkpt lat="46.20458" lon="4.47103">
        <ele>843</ele>
        <time>2012-04-11T15:36:06Z</time>
      </trkpt>
      <trkpt lat="46.20467" lon="4.471">
        <ele>842</ele>
        <time>2012-04-11T15:36:11Z</time>
      </trkpt>
      <trkpt lat="46.2047" lon="4.47097">
        <ele>841</ele>
        <time>2012-04-11T15:36:14Z</time>
      </trkpt>
      <trkpt lat="46.20474" lon="4.47096">
        <ele>841</ele>
        <time>2012-04-11T15:36:17Z</time>
      </trkpt>
      <trkpt lat="46.20482" lon="4.47094">
        <ele>839</ele>
        <time>2012-04-11T15:36:22Z</time>
      </trkpt>
      <trkpt lat="46.20484" lon="4.47093">
        <ele>839</ele>
        <time>2012-04-11T15:36:23Z</time>
      </trkpt>
      <trkpt lat="46.2049" lon="4.47089">
        <ele>837</ele>
        <time>2012-04-11T15:36:26Z</time>
      </trkpt>
      <trkpt lat="46.20498" lon="4.47082">
        <ele>834</ele>
        <time>2012-04-11T15:36:30Z</time>
      </trkpt>
      <trkpt lat="46.20505" lon="4.4708">
        <ele>832</ele>
        <time>2012-04-11T15:36:32Z</time>
      </trkpt>
      <trkpt lat="46.20509" lon="4.47077">
        <ele>830</ele>
        <time>2012-04-11T15:36:34Z</time>
      </trkpt>
      <trkpt lat="46.20522" lon="4.47073">
        <ele>827</ele>
        <time>2012-04-11T15:36:39Z</time>
      </trkpt>
      <trkpt lat="46.20539" lon="4.47071">
        <ele>825</ele>
        <time>2012-04-11T15:36:45Z</time>
      </trkpt>
      <trkpt lat="46.2054" lon="4.47069">
        <ele>824</ele>
        <time>2012-04-11T15:36:49Z</time>
      </trkpt>
      <trkpt lat="46.20541" lon="4.47068">
        <ele>824</ele>
        <time>2012-04-11T15:36:50Z</time>
      </trkpt>
      <trkpt lat="46.2055" lon="4.47057">
        <ele>823</ele>
        <time>2012-04-11T15:37:17Z</time>
      </trkpt>
      <trkpt lat="46.20556" lon="4.47062">
        <ele>822</ele>
        <time>2012-04-11T15:37:20Z</time>
      </trkpt>
      <trkpt lat="46.20557" lon="4.47071">
        <ele>822</ele>
        <time>2012-04-11T15:37:26Z</time>
      </trkpt>
      <trkpt lat="46.20547" lon="4.47069">
        <ele>823</ele>
        <time>2012-04-11T15:37:33Z</time>
      </trkpt>
      <trkpt lat="46.20546" lon="4.47069">
        <ele>824</ele>
        <time>2012-04-11T15:37:34Z</time>
      </trkpt>
      <trkpt lat="46.20544" lon="4.47066">
        <ele>824</ele>
        <time>2012-04-11T15:37:38Z</time>
      </trkpt>
      <trkpt lat="46.20544" lon="4.47063">
        <ele>824</ele>
        <time>2012-04-11T15:37:40Z</time>
      </trkpt>
      <trkpt lat="46.20546" lon="4.4706">
        <ele>824</ele>
        <time>2012-04-11T15:37:42Z</time>
      </trkpt>
      <trkpt lat="46.20548" lon="4.47051">
        <ele>824</ele>
        <time>2012-04-11T15:37:45Z</time>
      </trkpt>
      <trkpt lat="46.20555" lon="4.47034">
        <ele>824</ele>
        <time>2012-04-11T15:37:50Z</time>
      </trkpt>
      <trkpt lat="46.20562" lon="4.47025">
        <ele>824</ele>
        <time>2012-04-11T15:37:53Z</time>
      </trkpt>
      <trkpt lat="46.20567" lon="4.47021">
        <ele>824</ele>
        <time>2012-04-11T15:37:55Z</time>
      </trkpt>
      <trkpt lat="46.20575" lon="4.47009">
        <ele>824</ele>
        <time>2012-04-11T15:38:00Z</time>
      </trkpt>
      <trkpt lat="46.20582" lon="4.47">
        <ele>824</ele>
        <time>2012-04-11T15:38:06Z</time>
      </trkpt>
      <trkpt lat="46.20586" lon="4.46994">
        <ele>822</ele>
        <time>2012-04-11T15:38:13Z</time>
      </trkpt>
      <trkpt lat="46.20589" lon="4.46988">
        <ele>821</ele>
        <time>2012-04-11T15:38:17Z</time>
      </trkpt>
      <trkpt lat="46.20593" lon="4.46984">
        <ele>820</ele>
        <time>2012-04-11T15:38:19Z</time>
      </trkpt>
      <trkpt lat="46.20599" lon="4.46971">
        <ele>819</ele>
        <time>2012-04-11T15:38:24Z</time>
      </trkpt>
      <trkpt lat="46.20599" lon="4.46971">
        <ele>818</ele>
        <time>2012-04-11T15:38:25Z</time>
      </trkpt>
      <trkpt lat="46.206" lon="4.4697">
        <ele>818</ele>
        <time>2012-04-11T15:38:26Z</time>
      </trkpt>
      <trkpt lat="46.20604" lon="4.46966">
        <ele>818</ele>
        <time>2012-04-11T15:38:30Z</time>
      </trkpt>
      <trkpt lat="46.20607" lon="4.46957">
        <ele>818</ele>
        <time>2012-04-11T15:38:35Z</time>
      </trkpt>
      <trkpt lat="46.20608" lon="4.46954">
        <ele>817</ele>
        <time>2012-04-11T15:38:37Z</time>
      </trkpt>
      <trkpt lat="46.20611" lon="4.46946">
        <ele>817</ele>
        <time>2012-04-11T15:38:41Z</time>
      </trkpt>
      <trkpt lat="46.20611" lon="4.46942">
        <ele>817</ele>
        <time>2012-04-11T15:38:43Z</time>
      </trkpt>
      <trkpt lat="46.20612" lon="4.4694">
        <ele>817</ele>
        <time>2012-04-11T15:38:44Z</time>
      </trkpt>
      <trkpt lat="46.20615" lon="4.4693">
        <ele>817</ele>
        <time>2012-04-11T15:38:48Z</time>
      </trkpt>
      <trkpt lat="46.20623" lon="4.4692">
        <ele>817</ele>
        <time>2012-04-11T15:38:52Z</time>
      </trkpt>
      <trkpt lat="46.20631" lon="4.46906">
        <ele>814</ele>
        <time>2012-04-11T15:38:57Z</time>
      </trkpt>
      <trkpt lat="46.20634" lon="4.46902">
        <ele>814</ele>
        <time>2012-04-11T15:38:58Z</time>
      </trkpt>
      <trkpt lat="46.20645" lon="4.46893">
        <ele>814</ele>
        <time>2012-04-11T15:39:01Z</time>
      </trkpt>
      <trkpt lat="46.2065" lon="4.46888">
        <ele>814</ele>
        <time>2012-04-11T15:39:04Z</time>
      </trkpt>
      <trkpt lat="46.20651" lon="4.46888">
        <ele>814</ele>
        <time>2012-04-11T15:39:05Z</time>
      </trkpt>
      <trkpt lat="46.20652" lon="4.46888">
        <ele>814</ele>
        <time>2012-04-11T15:39:06Z</time>
      </trkpt>
      <trkpt lat="46.20655" lon="4.46888">
        <ele>814</ele>
        <time>2012-04-11T15:39:09Z</time>
      </trkpt>
      <trkpt lat="46.20657" lon="4.46891">
        <ele>814</ele>
        <time>2012-04-11T15:39:23Z</time>
      </trkpt>
      <trkpt lat="46.20652" lon="4.46901">
        <ele>814</ele>
        <time>2012-04-11T15:39:29Z</time>
      </trkpt>
      <trkpt lat="46.20651" lon="4.46903">
        <ele>815</ele>
        <time>2012-04-11T15:39:30Z</time>
      </trkpt>
      <trkpt lat="46.20648" lon="4.46911">
        <ele>815</ele>
        <time>2012-04-11T15:39:35Z</time>
      </trkpt>
      <trkpt lat="46.20645" lon="4.46922">
        <ele>817</ele>
        <time>2012-04-11T15:39:42Z</time>
      </trkpt>
      <trkpt lat="46.20641" lon="4.46934">
        <ele>817</ele>
        <time>2012-04-11T15:39:49Z</time>
      </trkpt>
      <trkpt lat="46.20638" lon="4.46944">
        <ele>816</ele>
        <time>2012-04-11T15:39:56Z</time>
      </trkpt>
      <trkpt lat="46.20638" lon="4.46945">
        <ele>816</ele>
        <time>2012-04-11T15:39:57Z</time>
      </trkpt>
      <trkpt lat="46.20637" lon="4.46949">
        <ele>816</ele>
        <time>2012-04-11T15:40:01Z</time>
      </trkpt>
      <trkpt lat="46.20637" lon="4.46951">
        <ele>816</ele>
        <time>2012-04-11T15:40:07Z</time>
      </trkpt>
      <trkpt lat="46.20635" lon="4.46954">
        <ele>816</ele>
        <time>2012-04-11T15:40:10Z</time>
      </trkpt>
      <trkpt lat="46.20634" lon="4.46957">
        <ele>816</ele>
        <time>2012-04-11T15:40:17Z</time>
      </trkpt>
      <trkpt lat="46.20634" lon="4.46954">
        <ele>816</ele>
        <time>2012-04-11T15:40:27Z</time>
      </trkpt>
      <trkpt lat="46.20636" lon="4.46944">
        <ele>817</ele>
        <time>2012-04-11T15:40:34Z</time>
      </trkpt>
      <trkpt lat="46.20638" lon="4.46938">
        <ele>817</ele>
        <time>2012-04-11T15:40:40Z</time>
      </trkpt>
      <trkpt lat="46.20638" lon="4.46935">
        <ele>817</ele>
        <time>2012-04-11T15:40:43Z</time>
      </trkpt>
      <trkpt lat="46.2064" lon="4.46932">
        <ele>817</ele>
        <time>2012-04-11T15:40:46Z</time>
      </trkpt>
      <trkpt lat="46.20645" lon="4.46925">
        <ele>817</ele>
        <time>2012-04-11T15:40:52Z</time>
      </trkpt>
      <trkpt lat="46.20646" lon="4.46924">
        <ele>817</ele>
        <time>2012-04-11T15:40:53Z</time>
      </trkpt>
      <trkpt lat="46.20648" lon="4.4692">
        <ele>817</ele>
        <time>2012-04-11T15:40:55Z</time>
      </trkpt>
      <trkpt lat="46.2065" lon="4.46911">
        <ele>815</ele>
        <time>2012-04-11T15:40:59Z</time>
      </trkpt>
      <trkpt lat="46.20657" lon="4.46897">
        <ele>814</ele>
        <time>2012-04-11T15:41:05Z</time>
      </trkpt>
      <trkpt lat="46.20663" lon="4.46886">
        <ele>814</ele>
        <time>2012-04-11T15:41:09Z</time>
      </trkpt>
      <trkpt lat="46.20669" lon="4.46874">
        <ele>810</ele>
        <time>2012-04-11T15:41:13Z</time>
      </trkpt>
      <trkpt lat="46.20673" lon="4.46859">
        <ele>809</ele>
        <time>2012-04-11T15:41:18Z</time>
      </trkpt>
      <trkpt lat="46.20686" lon="4.46843">
        <ele>808</ele>
        <time>2012-04-11T15:41:25Z</time>
      </trkpt>
      <trkpt lat="46.20698" lon="4.46839">
        <ele>808</ele>
        <time>2012-04-11T15:41:29Z</time>
      </trkpt>
      <trkpt lat="46.20701" lon="4.46838">
        <ele>808</ele>
        <time>2012-04-11T15:41:30Z</time>
      </trkpt>
      <trkpt lat="46.20717" lon="4.46833">
        <ele>801</ele>
        <time>2012-04-11T15:41:36Z</time>
      </trkpt>
      <trkpt lat="46.2073" lon="4.46829">
        <ele>801</ele>
        <time>2012-04-11T15:41:41Z</time>
      </trkpt>
      <trkpt lat="46.20737" lon="4.46827">
        <ele>801</ele>
        <time>2012-04-11T15:41:43Z</time>
      </trkpt>
      <trkpt lat="46.20746" lon="4.46824">
        <ele>802</ele>
        <time>2012-04-11T15:41:46Z</time>
      </trkpt>
      <trkpt lat="46.20758" lon="4.46818">
        <ele>798</ele>
        <time>2012-04-11T15:41:51Z</time>
      </trkpt>
      <trkpt lat="46.20773" lon="4.46811">
        <ele>796</ele>
        <time>2012-04-11T15:41:57Z</time>
      </trkpt>
      <trkpt lat="46.20784" lon="4.46805">
        <ele>795</ele>
        <time>2012-04-11T15:42:02Z</time>
      </trkpt>
      <trkpt lat="46.20798" lon="4.46799">
        <ele>794</ele>
        <time>2012-04-11T15:42:07Z</time>
      </trkpt>
      <trkpt lat="46.2081" lon="4.46799">
        <ele>793</ele>
        <time>2012-04-11T15:42:11Z</time>
      </trkpt>
      <trkpt lat="46.20813" lon="4.46799">
        <ele>793</ele>
        <time>2012-04-11T15:42:12Z</time>
      </trkpt>
      <trkpt lat="46.20829" lon="4.46802">
        <ele>793</ele>
        <time>2012-04-11T15:42:17Z</time>
      </trkpt>
      <trkpt lat="46.20844" lon="4.46808">
        <ele>786</ele>
        <time>2012-04-11T15:42:22Z</time>
      </trkpt>
      <trkpt lat="46.20846" lon="4.4681">
        <ele>786</ele>
        <time>2012-04-11T15:42:23Z</time>
      </trkpt>
      <trkpt lat="46.20853" lon="4.46816">
        <ele>786</ele>
        <time>2012-04-11T15:42:28Z</time>
      </trkpt>
      <trkpt lat="46.20857" lon="4.46819">
        <ele>786</ele>
        <time>2012-04-11T15:42:31Z</time>
      </trkpt>
      <trkpt lat="46.20862" lon="4.46823">
        <ele>785</ele>
        <time>2012-04-11T15:42:34Z</time>
      </trkpt>
      <trkpt lat="46.20868" lon="4.46829">
        <ele>784</ele>
        <time>2012-04-11T15:42:39Z</time>
      </trkpt>
      <trkpt lat="46.20871" lon="4.46835">
        <ele>779</ele>
        <time>2012-04-11T15:42:45Z</time>
      </trkpt>
      <trkpt lat="46.20859" lon="4.46827">
        <ele>785</ele>
        <time>2012-04-11T15:42:56Z</time>
      </trkpt>
      <trkpt lat="46.2086" lon="4.46823">
        <ele>785</ele>
        <time>2012-04-11T15:42:58Z</time>
      </trkpt>
      <trkpt lat="46.20863" lon="4.46817">
        <ele>784</ele>
        <time>2012-04-11T15:43:01Z</time>
      </trkpt>
      <trkpt lat="46.20871" lon="4.46815">
        <ele>783</ele>
        <time>2012-04-11T15:43:05Z</time>
      </trkpt>
      <trkpt lat="46.20875" lon="4.46813">
        <ele>783</ele>
        <time>2012-04-11T15:43:08Z</time>
      </trkpt>
      <trkpt lat="46.20878" lon="4.46812">
        <ele>782</ele>
        <time>2012-04-11T15:43:13Z</time>
      </trkpt>
      <trkpt lat="46.20882" lon="4.46817">
        <ele>782</ele>
        <time>2012-04-11T15:43:36Z</time>
      </trkpt>
      <trkpt lat="46.2088" lon="4.46821">
        <ele>782</ele>
        <time>2012-04-11T15:43:39Z</time>
      </trkpt>
      <trkpt lat="46.20879" lon="4.46823">
        <ele>782</ele>
        <time>2012-04-11T15:43:40Z</time>
      </trkpt>
      <trkpt lat="46.2088" lon="4.4683">
        <ele>782</ele>
        <time>2012-04-11T15:43:48Z</time>
      </trkpt>
      <trkpt lat="46.20884" lon="4.46832">
        <ele>781</ele>
        <time>2012-04-11T15:43:55Z</time>
      </trkpt>
      <trkpt lat="46.20882" lon="4.46835">
        <ele>778</ele>
        <time>2012-04-11T15:43:59Z</time>
      </trkpt>
      <trkpt lat="46.2088" lon="4.46839">
        <ele>778</ele>
        <time>2012-04-11T15:44:02Z</time>
      </trkpt>
      <trkpt lat="46.20876" lon="4.46843">
        <ele>778</ele>
        <time>2012-04-11T15:44:05Z</time>
      </trkpt>
      <trkpt lat="46.20872" lon="4.46846">
        <ele>779</ele>
        <time>2012-04-11T15:44:08Z</time>
      </trkpt>
      <trkpt lat="46.20865" lon="4.46855">
        <ele>779</ele>
        <time>2012-04-11T15:44:14Z</time>
      </trkpt>
      <trkpt lat="46.20863" lon="4.46858">
        <ele>780</ele>
        <time>2012-04-11T15:44:16Z</time>
      </trkpt>
      <trkpt lat="46.20858" lon="4.46862">
        <ele>780</ele>
        <time>2012-04-11T15:44:19Z</time>
      </trkpt>
      <trkpt lat="46.20852" lon="4.46866">
        <ele>780</ele>
        <time>2012-04-11T15:44:22Z</time>
      </trkpt>
      <trkpt lat="46.20847" lon="4.46869">
        <ele>780</ele>
        <time>2012-04-11T15:44:25Z</time>
      </trkpt>
      <trkpt lat="46.20838" lon="4.46871">
        <ele>781</ele>
        <time>2012-04-11T15:44:30Z</time>
      </trkpt>
      <trkpt lat="46.20838" lon="4.46871">
        <ele>781</ele>
        <time>2012-04-11T15:44:31Z</time>
      </trkpt>
      <trkpt lat="46.20834" lon="4.46874">
        <ele>781</ele>
        <time>2012-04-11T15:44:34Z</time>
      </trkpt>
      <trkpt lat="46.20833" lon="4.46875">
        <ele>792</ele>
        <time>2012-04-11T15:44:35Z</time>
      </trkpt>
      <trkpt lat="46.20825" lon="4.46884">
        <ele>792</ele>
        <time>2012-04-11T15:44:42Z</time>
      </trkpt>
      <trkpt lat="46.20819" lon="4.4689">
        <ele>792</ele>
        <time>2012-04-11T15:44:48Z</time>
      </trkpt>
      <trkpt lat="46.20818" lon="4.46891">
        <ele>792</ele>
        <time>2012-04-11T15:44:49Z</time>
      </trkpt>
      <trkpt lat="46.2081" lon="4.46902">
        <ele>792</ele>
        <time>2012-04-11T15:44:56Z</time>
      </trkpt>
      <trkpt lat="46.208" lon="4.46911">
        <ele>793</ele>
        <time>2012-04-11T15:45:06Z</time>
      </trkpt>
      <trkpt lat="46.20794" lon="4.46916">
        <ele>794</ele>
        <time>2012-04-11T15:45:11Z</time>
      </trkpt>
      <trkpt lat="46.20793" lon="4.4692">
        <ele>786</ele>
        <time>2012-04-11T15:45:13Z</time>
      </trkpt>
      <trkpt lat="46.20788" lon="4.46924">
        <ele>787</ele>
        <time>2012-04-11T15:45:17Z</time>
      </trkpt>
      <trkpt lat="46.20786" lon="4.46925">
        <ele>787</ele>
        <time>2012-04-11T15:45:18Z</time>
      </trkpt>
      <trkpt lat="46.20785" lon="4.46928">
        <ele>787</ele>
        <time>2012-04-11T15:45:20Z</time>
      </trkpt>
      <trkpt lat="46.20778" lon="4.4694">
        <ele>787</ele>
        <time>2012-04-11T15:45:27Z</time>
      </trkpt>
      <trkpt lat="46.20773" lon="4.46944">
        <ele>787</ele>
        <time>2012-04-11T15:45:32Z</time>
      </trkpt>
      <trkpt lat="46.20769" lon="4.46951">
        <ele>787</ele>
        <time>2012-04-11T15:45:36Z</time>
      </trkpt>
      <trkpt lat="46.20766" lon="4.46954">
        <ele>786</ele>
        <time>2012-04-11T15:45:38Z</time>
      </trkpt>
      <trkpt lat="46.20759" lon="4.46963">
        <ele>786</ele>
        <time>2012-04-11T15:45:42Z</time>
      </trkpt>
      <trkpt lat="46.20753" lon="4.46973">
        <ele>785</ele>
        <time>2012-04-11T15:45:45Z</time>
      </trkpt>
      <trkpt lat="46.20751" lon="4.46978">
        <ele>785</ele>
        <time>2012-04-11T15:45:46Z</time>
      </trkpt>
      <trkpt lat="46.20742" lon="4.4699">
        <ele>793</ele>
        <time>2012-04-11T15:45:50Z</time>
      </trkpt>
      <trkpt lat="46.20734" lon="4.47004">
        <ele>786</ele>
        <time>2012-04-11T15:45:54Z</time>
      </trkpt>
      <trkpt lat="46.20732" lon="4.47006">
        <ele>786</ele>
        <time>2012-04-11T15:45:55Z</time>
      </trkpt>
      <trkpt lat="46.20724" lon="4.47018">
        <ele>786</ele>
        <time>2012-04-11T15:46:00Z</time>
      </trkpt>
      <trkpt lat="46.20712" lon="4.47037">
        <ele>785</ele>
        <time>2012-04-11T15:46:06Z</time>
      </trkpt>
      <trkpt lat="46.20707" lon="4.47044">
        <ele>785</ele>
        <time>2012-04-11T15:46:08Z</time>
      </trkpt>
      <trkpt lat="46.20701" lon="4.47054">
        <ele>785</ele>
        <time>2012-04-11T15:46:11Z</time>
      </trkpt>
      <trkpt lat="46.20691" lon="4.47069">
        <ele>785</ele>
        <time>2012-04-11T15:46:16Z</time>
      </trkpt>
      <trkpt lat="46.20677" lon="4.47078">
        <ele>787</ele>
        <time>2012-04-11T15:46:21Z</time>
      </trkpt>
      <trkpt lat="46.20671" lon="4.47089">
        <ele>782</ele>
        <time>2012-04-11T15:46:25Z</time>
      </trkpt>
      <trkpt lat="46.20665" lon="4.47097">
        <ele>789</ele>
        <time>2012-04-11T15:46:28Z</time>
      </trkpt>
      <trkpt lat="46.20664" lon="4.471">
        <ele>789</ele>
        <time>2012-04-11T15:46:29Z</time>
      </trkpt>
      <trkpt lat="46.20654" lon="4.47109">
        <ele>790</ele>
        <time>2012-04-11T15:46:34Z</time>
      </trkpt>
      <trkpt lat="46.20649" lon="4.47114">
        <ele>790</ele>
        <time>2012-04-11T15:46:37Z</time>
      </trkpt>
      <trkpt lat="46.20648" lon="4.47115">
        <ele>790</ele>
        <time>2012-04-11T15:46:38Z</time>
      </trkpt>
      <trkpt lat="46.20641" lon="4.47121">
        <ele>790</ele>
        <time>2012-04-11T15:46:44Z</time>
      </trkpt>
      <trkpt lat="46.20634" lon="4.47127">
        <ele>790</ele>
        <time>2012-04-11T15:46:50Z</time>
      </trkpt>
      <trkpt lat="46.20626" lon="4.47135">
        <ele>791</ele>
        <time>2012-04-11T15:46:58Z</time>
      </trkpt>
      <trkpt lat="46.2062" lon="4.47137">
        <ele>792</ele>
        <time>2012-04-11T15:47:03Z</time>
      </trkpt>
      <trkpt lat="46.20617" lon="4.47137">
        <ele>793</ele>
        <time>2012-04-11T15:47:07Z</time>
      </trkpt>
      <trkpt lat="46.20616" lon="4.47139">
        <ele>793</ele>
        <time>2012-04-11T15:47:08Z</time>
      </trkpt>
      <trkpt lat="46.20611" lon="4.47141">
        <ele>793</ele>
        <time>2012-04-11T15:47:12Z</time>
      </trkpt>
      <trkpt lat="46.20609" lon="4.47144">
        <ele>794</ele>
        <time>2012-04-11T15:47:14Z</time>
      </trkpt>
      <trkpt lat="46.20603" lon="4.47151">
        <ele>794</ele>
        <time>2012-04-11T15:47:20Z</time>
      </trkpt>
      <trkpt lat="46.20598" lon="4.47159">
        <ele>796</ele>
        <time>2012-04-11T15:47:26Z</time>
      </trkpt>
      <trkpt lat="46.20593" lon="4.47163">
        <ele>797</ele>
        <time>2012-04-11T15:47:31Z</time>
      </trkpt>
      <trkpt lat="46.20589" lon="4.47169">
        <ele>796</ele>
        <time>2012-04-11T15:47:36Z</time>
      </trkpt>
      <trkpt lat="46.20588" lon="4.47173">
        <ele>794</ele>
        <time>2012-04-11T15:47:39Z</time>
      </trkpt>
      <trkpt lat="46.20588" lon="4.47174">
        <ele>794</ele>
        <time>2012-04-11T15:47:40Z</time>
      </trkpt>
      <trkpt lat="46.20586" lon="4.47179">
        <ele>792</ele>
        <time>2012-04-11T15:47:42Z</time>
      </trkpt>
      <trkpt lat="46.20586" lon="4.47187">
        <ele>789</ele>
        <time>2012-04-11T15:47:45Z</time>
      </trkpt>
      <trkpt lat="46.20583" lon="4.47198">
        <ele>806</ele>
        <time>2012-04-11T15:47:51Z</time>
      </trkpt>
      <trkpt lat="46.20583" lon="4.472">
        <ele>806</ele>
        <time>2012-04-11T15:47:59Z</time>
      </trkpt>
      <trkpt lat="46.20575" lon="4.47194">
        <ele>807</ele>
        <time>2012-04-11T15:48:05Z</time>
      </trkpt>
      <trkpt lat="46.20581" lon="4.47206">
        <ele>806</ele>
        <time>2012-04-11T15:48:13Z</time>
      </trkpt>
      <trkpt lat="46.20579" lon="4.47209">
        <ele>806</ele>
        <time>2012-04-11T15:48:15Z</time>
      </trkpt>
      <trkpt lat="46.20578" lon="4.47215">
        <ele>806</ele>
        <time>2012-04-11T15:48:18Z</time>
      </trkpt>
      <trkpt lat="46.20578" lon="4.47217">
        <ele>806</ele>
        <time>2012-04-11T15:48:19Z</time>
      </trkpt>
      <trkpt lat="46.20577" lon="4.47223">
        <ele>805</ele>
        <time>2012-04-11T15:48:23Z</time>
      </trkpt>
      <trkpt lat="46.20577" lon="4.47225">
        <ele>805</ele>
        <time>2012-04-11T15:48:24Z</time>
      </trkpt>
      <trkpt lat="46.20574" lon="4.47236">
        <ele>802</ele>
        <time>2012-04-11T15:48:30Z</time>
      </trkpt>
      <trkpt lat="46.20573" lon="4.47238">
        <ele>802</ele>
        <time>2012-04-11T15:48:31Z</time>
      </trkpt>
      <trkpt lat="46.20572" lon="4.47247">
        <ele>800</ele>
        <time>2012-04-11T15:48:35Z</time>
      </trkpt>
      <trkpt lat="46.20569" lon="4.47257">
        <ele>799</ele>
        <time>2012-04-11T15:48:40Z</time>
      </trkpt>
      <trkpt lat="46.20568" lon="4.4726">
        <ele>800</ele>
        <time>2012-04-11T15:48:42Z</time>
      </trkpt>
      <trkpt lat="46.20567" lon="4.47263">
        <ele>801</ele>
        <time>2012-04-11T15:48:44Z</time>
      </trkpt>
      <trkpt lat="46.20565" lon="4.47265">
        <ele>801</ele>
        <time>2012-04-11T15:48:46Z</time>
      </trkpt>
      <trkpt lat="46.20561" lon="4.47266">
        <ele>802</ele>
        <time>2012-04-11T15:48:52Z</time>
      </trkpt>
      <trkpt lat="46.20559" lon="4.47276">
        <ele>803</ele>
        <time>2012-04-11T15:48:58Z</time>
      </trkpt>
      <trkpt lat="46.2056" lon="4.47283">
        <ele>803</ele>
        <time>2012-04-11T15:49:05Z</time>
      </trkpt>
      <trkpt lat="46.20557" lon="4.47283">
        <ele>804</ele>
        <time>2012-04-11T15:49:20Z</time>
      </trkpt>
      <trkpt lat="46.20557" lon="4.47298">
        <ele>803</ele>
        <time>2012-04-11T15:49:37Z</time>
      </trkpt>
      <trkpt lat="46.20556" lon="4.473">
        <ele>803</ele>
        <time>2012-04-11T15:49:38Z</time>
      </trkpt>
      <trkpt lat="46.20556" lon="4.47302">
        <ele>803</ele>
        <time>2012-04-11T15:49:39Z</time>
      </trkpt>
      <trkpt lat="46.20554" lon="4.47311">
        <ele>803</ele>
        <time>2012-04-11T15:49:43Z</time>
      </trkpt>
      <trkpt lat="46.20553" lon="4.47312">
        <ele>803</ele>
        <time>2012-04-11T15:49:44Z</time>
      </trkpt>
      <trkpt lat="46.20551" lon="4.47316">
        <ele>803</ele>
        <time>2012-04-11T15:49:48Z</time>
      </trkpt>
      <trkpt lat="46.20547" lon="4.47328">
        <ele>804</ele>
        <time>2012-04-11T15:49:58Z</time>
      </trkpt>
      <trkpt lat="46.20547" lon="4.47333">
        <ele>804</ele>
        <time>2012-04-11T15:50:02Z</time>
      </trkpt>
      <trkpt lat="46.20545" lon="4.47341">
        <ele>798</ele>
        <time>2012-04-11T15:50:07Z</time>
      </trkpt>
      <trkpt lat="46.20545" lon="4.47344">
        <ele>798</ele>
        <time>2012-04-11T15:50:10Z</time>
      </trkpt>
      <trkpt lat="46.2054" lon="4.47346">
        <ele>799</ele>
        <time>2012-04-11T15:50:27Z</time>
      </trkpt>
      <trkpt lat="46.20544" lon="4.4735">
        <ele>798</ele>
        <time>2012-04-11T15:51:08Z</time>
      </trkpt>
      <trkpt lat="46.20542" lon="4.47352">
        <ele>798</ele>
        <time>2012-04-11T15:51:11Z</time>
      </trkpt>
      <trkpt lat="46.2054" lon="4.47354">
        <ele>799</ele>
        <time>2012-04-11T15:52:36Z</time>
      </trkpt>
      <trkpt lat="46.20543" lon="4.47353">
        <ele>798</ele>
        <time>2012-04-11T15:52:39Z</time>
      </trkpt>
      <trkpt lat="46.20543" lon="4.47352">
        <ele>798</ele>
        <time>2012-04-11T15:52:40Z</time>
      </trkpt>
      <trkpt lat="46.20543" lon="4.47352">
        <ele>798</ele>
        <time>2012-04-11T15:52:43Z</time>
      </trkpt>
      <trkpt lat="46.20552" lon="4.47349">
        <ele>796</ele>
        <time>2012-04-11T15:52:59Z</time>
      </trkpt>
      <trkpt lat="46.20546" lon="4.47355">
        <ele>797</ele>
        <time>2012-04-11T15:53:20Z</time>
      </trkpt>
      <trkpt lat="46.20544" lon="4.47356">
        <ele>798</ele>
        <time>2012-04-11T15:53:21Z</time>
      </trkpt>
      <trkpt lat="46.20542" lon="4.47358">
        <ele>798</ele>
        <time>2012-04-11T15:53:23Z</time>
      </trkpt>
      <trkpt lat="46.2054" lon="4.47362">
        <ele>798</ele>
        <time>2012-04-11T15:53:26Z</time>
      </trkpt>
      <trkpt lat="46.20536" lon="4.47369">
        <ele>798</ele>
        <time>2012-04-11T15:53:32Z</time>
      </trkpt>
      <trkpt lat="46.20528" lon="4.47378">
        <ele>799</ele>
        <time>2012-04-11T15:53:39Z</time>
      </trkpt>
      <trkpt lat="46.20523" lon="4.47389">
        <ele>799</ele>
        <time>2012-04-11T15:53:46Z</time>
      </trkpt>
      <trkpt lat="46.2052" lon="4.47399">
        <ele>800</ele>
        <time>2012-04-11T15:53:50Z</time>
      </trkpt>
      <trkpt lat="46.20517" lon="4.47406">
        <ele>800</ele>
        <time>2012-04-11T15:53:52Z</time>
      </trkpt>
      <trkpt lat="46.20516" lon="4.47412">
        <ele>801</ele>
        <time>2012-04-11T15:53:54Z</time>
      </trkpt>
      <trkpt lat="46.20513" lon="4.47419">
        <ele>796</ele>
        <time>2012-04-11T15:53:56Z</time>
      </trkpt>
      <trkpt lat="46.20505" lon="4.47438">
        <ele>792</ele>
        <time>2012-04-11T15:54:00Z</time>
      </trkpt>
      <trkpt lat="46.20502" lon="4.47447">
        <ele>790</ele>
        <time>2012-04-11T15:54:02Z</time>
      </trkpt>
      <trkpt lat="46.20496" lon="4.4746">
        <ele>803</ele>
        <time>2012-04-11T15:54:05Z</time>
      </trkpt>
      <trkpt lat="46.20494" lon="4.47462">
        <ele>803</ele>
        <time>2012-04-11T15:54:06Z</time>
      </trkpt>
      <trkpt lat="46.20488" lon="4.47478">
        <ele>799</ele>
        <time>2012-04-11T15:54:10Z</time>
      </trkpt>
      <trkpt lat="46.20483" lon="4.47493">
        <ele>796</ele>
        <time>2012-04-11T15:54:14Z</time>
      </trkpt>
      <trkpt lat="46.20481" lon="4.47495">
        <ele>797</ele>
        <time>2012-04-11T15:54:15Z</time>
      </trkpt>
      <trkpt lat="46.20474" lon="4.47507">
        <ele>791</ele>
        <time>2012-04-11T15:54:19Z</time>
      </trkpt>
      <trkpt lat="46.20464" lon="4.47519">
        <ele>792</ele>
        <time>2012-04-11T15:54:24Z</time>
      </trkpt>
      <trkpt lat="46.20457" lon="4.4753">
        <ele>793</ele>
        <time>2012-04-11T15:54:28Z</time>
      </trkpt>
      <trkpt lat="46.20453" lon="4.47534">
        <ele>794</ele>
        <time>2012-04-11T15:54:30Z</time>
      </trkpt>
      <trkpt lat="46.2044" lon="4.47557">
        <ele>793</ele>
        <time>2012-04-11T15:54:36Z</time>
      </trkpt>
      <trkpt lat="46.20439" lon="4.47562">
        <ele>793</ele>
        <time>2012-04-11T15:54:37Z</time>
      </trkpt>
      <trkpt lat="46.20436" lon="4.47572">
        <ele>793</ele>
        <time>2012-04-11T15:54:39Z</time>
      </trkpt>
      <trkpt lat="46.20432" lon="4.4758">
        <ele>793</ele>
        <time>2012-04-11T15:54:41Z</time>
      </trkpt>
      <trkpt lat="46.20423" lon="4.47591">
        <ele>792</ele>
        <time>2012-04-11T15:54:45Z</time>
      </trkpt>
      <trkpt lat="46.20416" lon="4.47605">
        <ele>797</ele>
        <time>2012-04-11T15:54:50Z</time>
      </trkpt>
      <trkpt lat="46.20416" lon="4.4761">
        <ele>797</ele>
        <time>2012-04-11T15:54:55Z</time>
      </trkpt>
      <trkpt lat="46.20417" lon="4.4761">
        <ele>791</ele>
        <time>2012-04-11T15:54:56Z</time>
      </trkpt>
      <trkpt lat="46.20419" lon="4.47606">
        <ele>791</ele>
        <time>2012-04-11T15:55:02Z</time>
      </trkpt>
      <trkpt lat="46.2042" lon="4.47606">
        <ele>791</ele>
        <time>2012-04-11T15:55:03Z</time>
      </trkpt>
      <trkpt lat="46.20422" lon="4.47606">
        <ele>791</ele>
        <time>2012-04-11T15:55:04Z</time>
      </trkpt>
      <trkpt lat="46.20425" lon="4.47606">
        <ele>791</ele>
        <time>2012-04-11T15:55:06Z</time>
      </trkpt>
      <trkpt lat="46.20431" lon="4.47604">
        <ele>791</ele>
        <time>2012-04-11T15:55:11Z</time>
      </trkpt>
      <trkpt lat="46.20434" lon="4.47604">
        <ele>791</ele>
        <time>2012-04-11T15:55:12Z</time>
      </trkpt>
      <trkpt lat="46.20437" lon="4.47601">
        <ele>791</ele>
        <time>2012-04-11T15:55:15Z</time>
      </trkpt>
      <trkpt lat="46.20445" lon="4.47597">
        <ele>791</ele>
        <time>2012-04-11T15:55:20Z</time>
      </trkpt>
      <trkpt lat="46.20449" lon="4.47592">
        <ele>790</ele>
        <time>2012-04-11T15:55:24Z</time>
      </trkpt>
      <trkpt lat="46.20454" lon="4.47585">
        <ele>790</ele>
        <time>2012-04-11T15:55:30Z</time>
      </trkpt>
      <trkpt lat="46.20456" lon="4.47585">
        <ele>790</ele>
        <time>2012-04-11T15:55:31Z</time>
      </trkpt>
      <trkpt lat="46.20463" lon="4.47579">
        <ele>790</ele>
        <time>2012-04-11T15:55:37Z</time>
      </trkpt>
      <trkpt lat="46.20471" lon="4.47565">
        <ele>789</ele>
        <time>2012-04-11T15:55:42Z</time>
      </trkpt>
      <trkpt lat="46.20483" lon="4.47556">
        <ele>789</ele>
        <time>2012-04-11T15:55:46Z</time>
      </trkpt>
      <trkpt lat="46.20486" lon="4.47555">
        <ele>788</ele>
        <time>2012-04-11T15:55:47Z</time>
      </trkpt>
      <trkpt lat="46.20496" lon="4.4754">
        <ele>789</ele>
        <time>2012-04-11T15:55:52Z</time>
      </trkpt>
      <trkpt lat="46.205" lon="4.47538">
        <ele>780</ele>
        <time>2012-04-11T15:55:56Z</time>
      </trkpt>
      <trkpt lat="46.20514" lon="4.47528">
        <ele>780</ele>
        <time>2012-04-11T15:56:12Z</time>
      </trkpt>
      <trkpt lat="46.20517" lon="4.47529">
        <ele>780</ele>
        <time>2012-04-11T15:56:13Z</time>
      </trkpt>
      <trkpt lat="46.20526" lon="4.4753">
        <ele>779</ele>
        <time>2012-04-11T15:56:16Z</time>
      </trkpt>
      <trkpt lat="46.20539" lon="4.47524">
        <ele>779</ele>
        <time>2012-04-11T15:56:22Z</time>
      </trkpt>
      <trkpt lat="46.20548" lon="4.4752">
        <ele>778</ele>
        <time>2012-04-11T15:56:26Z</time>
      </trkpt>
      <trkpt lat="46.20549" lon="4.47518">
        <ele>777</ele>
        <time>2012-04-11T15:56:27Z</time>
      </trkpt>
      <trkpt lat="46.20554" lon="4.47516">
        <ele>777</ele>
        <time>2012-04-11T15:56:28Z</time>
      </trkpt>
      <trkpt lat="46.20565" lon="4.4751">
        <ele>775</ele>
        <time>2012-04-11T15:56:31Z</time>
      </trkpt>
      <trkpt lat="46.20569" lon="4.47507">
        <ele>774</ele>
        <time>2012-04-11T15:56:35Z</time>
      </trkpt>
      <trkpt lat="46.20588" lon="4.47495">
        <ele>770</ele>
        <time>2012-04-11T15:56:41Z</time>
      </trkpt>
      <trkpt lat="46.20604" lon="4.47483">
        <ele>771</ele>
        <time>2012-04-11T15:56:46Z</time>
      </trkpt>
      <trkpt lat="46.20613" lon="4.4747">
        <ele>771</ele>
        <time>2012-04-11T15:56:50Z</time>
      </trkpt>
      <trkpt lat="46.20617" lon="4.47468">
        <ele>771</ele>
        <time>2012-04-11T15:56:51Z</time>
      </trkpt>
      <trkpt lat="46.2062" lon="4.47466">
        <ele>771</ele>
        <time>2012-04-11T15:56:52Z</time>
      </trkpt>
      <trkpt lat="46.20624" lon="4.4746">
        <ele>771</ele>
        <time>2012-04-11T15:56:54Z</time>
      </trkpt>
      <trkpt lat="46.20626" lon="4.47456">
        <ele>771</ele>
        <time>2012-04-11T15:56:55Z</time>
      </trkpt>
      <trkpt lat="46.20629" lon="4.47437">
        <ele>770</ele>
        <time>2012-04-11T15:57:00Z</time>
      </trkpt>
      <trkpt lat="46.20642" lon="4.47426">
        <ele>769</ele>
        <time>2012-04-11T15:57:05Z</time>
      </trkpt>
      <trkpt lat="46.20645" lon="4.47424">
        <ele>769</ele>
        <time>2012-04-11T15:57:06Z</time>
      </trkpt>
      <trkpt lat="46.20656" lon="4.47411">
        <ele>767</ele>
        <time>2012-04-11T15:57:10Z</time>
      </trkpt>
      <trkpt lat="46.20663" lon="4.47396">
        <ele>768</ele>
        <time>2012-04-11T15:57:14Z</time>
      </trkpt>
      <trkpt lat="46.20668" lon="4.47387">
        <ele>765</ele>
        <time>2012-04-11T15:57:17Z</time>
      </trkpt>
      <trkpt lat="46.20671" lon="4.47381">
        <ele>765</ele>
        <time>2012-04-11T15:57:19Z</time>
      </trkpt>
      <trkpt lat="46.20679" lon="4.47367">
        <ele>764</ele>
        <time>2012-04-11T15:57:23Z</time>
      </trkpt>
      <trkpt lat="46.20679" lon="4.47363">
        <ele>764</ele>
        <time>2012-04-11T15:57:24Z</time>
      </trkpt>
      <trkpt lat="46.20679" lon="4.47358">
        <ele>763</ele>
        <time>2012-04-11T15:57:26Z</time>
      </trkpt>
      <trkpt lat="46.20681" lon="4.47356">
        <ele>763</ele>
        <time>2012-04-11T15:57:28Z</time>
      </trkpt>
      <trkpt lat="46.20687" lon="4.47349">
        <ele>763</ele>
        <time>2012-04-11T15:57:33Z</time>
      </trkpt>
      <trkpt lat="46.2069" lon="4.47346">
        <ele>763</ele>
        <time>2012-04-11T15:57:34Z</time>
      </trkpt>
      <trkpt lat="46.20698" lon="4.47332">
        <ele>757</ele>
        <time>2012-04-11T15:57:38Z</time>
      </trkpt>
      <trkpt lat="46.207" lon="4.47301">
        <ele>756</ele>
        <time>2012-04-11T15:57:45Z</time>
      </trkpt>
      <trkpt lat="46.20702" lon="4.47294">
        <ele>756</ele>
        <time>2012-04-11T15:57:47Z</time>
      </trkpt>
      <trkpt lat="46.20707" lon="4.47287">
        <ele>756</ele>
        <time>2012-04-11T15:57:50Z</time>
      </trkpt>
      <trkpt lat="46.20709" lon="4.47282">
        <ele>755</ele>
        <time>2012-04-11T15:57:55Z</time>
      </trkpt>
      <trkpt lat="46.20711" lon="4.47267">
        <ele>755</ele>
        <time>2012-04-11T15:58:01Z</time>
      </trkpt>
      <trkpt lat="46.20709" lon="4.47244">
        <ele>753</ele>
        <time>2012-04-11T15:58:07Z</time>
      </trkpt>
      <trkpt lat="46.2071" lon="4.47231">
        <ele>753</ele>
        <time>2012-04-11T15:58:11Z</time>
      </trkpt>
      <trkpt lat="46.20708" lon="4.47217">
        <ele>753</ele>
        <time>2012-04-11T15:58:15Z</time>
      </trkpt>
      <trkpt lat="46.20706" lon="4.47205">
        <ele>754</ele>
        <time>2012-04-11T15:58:19Z</time>
      </trkpt>
      <trkpt lat="46.20707" lon="4.47203">
        <ele>754</ele>
        <time>2012-04-11T15:58:20Z</time>
      </trkpt>
      <trkpt lat="46.20706" lon="4.47197">
        <ele>754</ele>
        <time>2012-04-11T15:58:24Z</time>
      </trkpt>
      <trkpt lat="46.20705" lon="4.47195">
        <ele>754</ele>
        <time>2012-04-11T15:58:25Z</time>
      </trkpt>
      <trkpt lat="46.20706" lon="4.4719">
        <ele>754</ele>
        <time>2012-04-11T15:58:27Z</time>
      </trkpt>
      <trkpt lat="46.20707" lon="4.47187">
        <ele>754</ele>
        <time>2012-04-11T15:58:28Z</time>
      </trkpt>
      <trkpt lat="46.20709" lon="4.47183">
        <ele>754</ele>
        <time>2012-04-11T15:58:31Z</time>
      </trkpt>
      <trkpt lat="46.2071" lon="4.47175">
        <ele>753</ele>
        <time>2012-04-11T15:58:35Z</time>
      </trkpt>
      <trkpt lat="46.20714" lon="4.4717">
        <ele>753</ele>
        <time>2012-04-11T15:58:41Z</time>
      </trkpt>
      <trkpt lat="46.20715" lon="4.4717">
        <ele>753</ele>
        <time>2012-04-11T15:58:42Z</time>
      </trkpt>
      <trkpt lat="46.20724" lon="4.47175">
        <ele>751</ele>
        <time>2012-04-11T15:58:47Z</time>
      </trkpt>
      <trkpt lat="46.20726" lon="4.47179">
        <ele>750</ele>
        <time>2012-04-11T15:58:55Z</time>
      </trkpt>
      <trkpt lat="46.20727" lon="4.47179">
        <ele>750</ele>
        <time>2012-04-11T15:59:03Z</time>
      </trkpt>
      <trkpt lat="46.20729" lon="4.47176">
        <ele>750</ele>
        <time>2012-04-11T15:59:06Z</time>
      </trkpt>
      <trkpt lat="46.20731" lon="4.47178">
        <ele>749</ele>
        <time>2012-04-11T15:59:08Z</time>
      </trkpt>
      <trkpt lat="46.20731" lon="4.47177">
        <ele>749</ele>
        <time>2012-04-11T15:59:11Z</time>
      </trkpt>
      <trkpt lat="46.20731" lon="4.47168">
        <ele>749</ele>
        <time>2012-04-11T15:59:16Z</time>
      </trkpt>
      <trkpt lat="46.2073" lon="4.47161">
        <ele>755</ele>
        <time>2012-04-11T15:59:20Z</time>
      </trkpt>
      <trkpt lat="46.20729" lon="4.47158">
        <ele>755</ele>
        <time>2012-04-11T15:59:21Z</time>
      </trkpt>
      <trkpt lat="46.20728" lon="4.47152">
        <ele>757</ele>
        <time>2012-04-11T15:59:24Z</time>
      </trkpt>
      <trkpt lat="46.20733" lon="4.4715">
        <ele>756</ele>
        <time>2012-04-11T15:59:28Z</time>
      </trkpt>
      <trkpt lat="46.20736" lon="4.47146">
        <ele>756</ele>
        <time>2012-04-11T15:59:31Z</time>
      </trkpt>
      <trkpt lat="46.20743" lon="4.47143">
        <ele>756</ele>
        <time>2012-04-11T15:59:36Z</time>
      </trkpt>
      <trkpt lat="46.20748" lon="4.47137">
        <ele>757</ele>
        <time>2012-04-11T15:59:44Z</time>
      </trkpt>
      <trkpt lat="46.20748" lon="4.47136">
        <ele>757</ele>
        <time>2012-04-11T15:59:45Z</time>
      </trkpt>
      <trkpt lat="46.2075" lon="4.47136">
        <ele>757</ele>
        <time>2012-04-11T15:59:48Z</time>
      </trkpt>
      <trkpt lat="46.20749" lon="4.47139">
        <ele>756</ele>
        <time>2012-04-11T15:59:53Z</time>
      </trkpt>
      <trkpt lat="46.20752" lon="4.47125">
        <ele>747</ele>
        <time>2012-04-11T16:00:04Z</time>
      </trkpt>
      <trkpt lat="46.20752" lon="4.47123">
        <ele>748</ele>
        <time>2012-04-11T16:00:05Z</time>
      </trkpt>
      <trkpt lat="46.20756" lon="4.47121">
        <ele>748</ele>
        <time>2012-04-11T16:00:08Z</time>
      </trkpt>
      <trkpt lat="46.20767" lon="4.47107">
        <ele>749</ele>
        <time>2012-04-11T16:00:26Z</time>
      </trkpt>
      <trkpt lat="46.20773" lon="4.47106">
        <ele>748</ele>
        <time>2012-04-11T16:00:33Z</time>
      </trkpt>
      <trkpt lat="46.20773" lon="4.47109">
        <ele>748</ele>
        <time>2012-04-11T16:00:40Z</time>
      </trkpt>
      <trkpt lat="46.20773" lon="4.47112">
        <ele>748</ele>
        <time>2012-04-11T16:00:50Z</time>
      </trkpt>
      <trkpt lat="46.20771" lon="4.47114">
        <ele>748</ele>
        <time>2012-04-11T16:00:54Z</time>
      </trkpt>
      <trkpt lat="46.20774" lon="4.47118">
        <ele>747</ele>
        <time>2012-04-11T16:00:58Z</time>
      </trkpt>
      <trkpt lat="46.20771" lon="4.47127">
        <ele>746</ele>
        <time>2012-04-11T16:01:04Z</time>
      </trkpt>
      <trkpt lat="46.20773" lon="4.47131">
        <ele>746</ele>
        <time>2012-04-11T16:01:11Z</time>
      </trkpt>
      <trkpt lat="46.20774" lon="4.47133">
        <ele>746</ele>
        <time>2012-04-11T16:01:13Z</time>
      </trkpt>
      <trkpt lat="46.20774" lon="4.47135">
        <ele>745</ele>
        <time>2012-04-11T16:01:15Z</time>
      </trkpt>
      <trkpt lat="46.20772" lon="4.47139">
        <ele>745</ele>
        <time>2012-04-11T16:01:19Z</time>
      </trkpt>
      <trkpt lat="46.20775" lon="4.47138">
        <ele>745</ele>
        <time>2012-04-11T16:01:24Z</time>
      </trkpt>
      <trkpt lat="46.20778" lon="4.47133">
        <ele>745</ele>
        <time>2012-04-11T16:01:29Z</time>
      </trkpt>
      <trkpt lat="46.20782" lon="4.47128">
        <ele>746</ele>
        <time>2012-04-11T16:01:34Z</time>
      </trkpt>
      <trkpt lat="46.20793" lon="4.47126">
        <ele>745</ele>
        <time>2012-04-11T16:01:40Z</time>
      </trkpt>
      <trkpt lat="46.20795" lon="4.47124">
        <ele>745</ele>
        <time>2012-04-11T16:01:41Z</time>
      </trkpt>
      <trkpt lat="46.20804" lon="4.47121">
        <ele>744</ele>
        <time>2012-04-11T16:01:44Z</time>
      </trkpt>
      <trkpt lat="46.20808" lon="4.4712">
        <ele>744</ele>
        <time>2012-04-11T16:01:45Z</time>
      </trkpt>
      <trkpt lat="46.20817" lon="4.47115">
        <ele>743</ele>
        <time>2012-04-11T16:01:48Z</time>
      </trkpt>
      <trkpt lat="46.20824" lon="4.47105">
        <ele>742</ele>
        <time>2012-04-11T16:01:52Z</time>
      </trkpt>
      <trkpt lat="46.2083" lon="4.47087">
        <ele>738</ele>
        <time>2012-04-11T16:01:58Z</time>
      </trkpt>
      <trkpt lat="46.20831" lon="4.47071">
        <ele>745</ele>
        <time>2012-04-11T16:02:03Z</time>
      </trkpt>
      <trkpt lat="46.20829" lon="4.47065">
        <ele>748</ele>
        <time>2012-04-11T16:02:09Z</time>
      </trkpt>
      <trkpt lat="46.20831" lon="4.47064">
        <ele>748</ele>
        <time>2012-04-11T16:02:14Z</time>
      </trkpt>
      <trkpt lat="46.20833" lon="4.47064">
        <ele>748</ele>
        <time>2012-04-11T16:02:15Z</time>
      </trkpt>
      <trkpt lat="46.20834" lon="4.47064">
        <ele>740</ele>
        <time>2012-04-11T16:02:17Z</time>
      </trkpt>
      <trkpt lat="46.20839" lon="4.47062">
        <ele>740</ele>
        <time>2012-04-11T16:02:21Z</time>
      </trkpt>
      <trkpt lat="46.20844" lon="4.47059">
        <ele>740</ele>
        <time>2012-04-11T16:02:26Z</time>
      </trkpt>
      <trkpt lat="46.20856" lon="4.47055">
        <ele>741</ele>
        <time>2012-04-11T16:02:32Z</time>
      </trkpt>
      <trkpt lat="46.20865" lon="4.47048">
        <ele>741</ele>
        <time>2012-04-11T16:02:38Z</time>
      </trkpt>
      <trkpt lat="46.20864" lon="4.47037">
        <ele>742</ele>
        <time>2012-04-11T16:02:50Z</time>
      </trkpt>
      <trkpt lat="46.20864" lon="4.47035">
        <ele>742</ele>
        <time>2012-04-11T16:02:51Z</time>
      </trkpt>
      <trkpt lat="46.2087" lon="4.47029">
        <ele>742</ele>
        <time>2012-04-11T16:02:56Z</time>
      </trkpt>
      <trkpt lat="46.20871" lon="4.47029">
        <ele>742</ele>
        <time>2012-04-11T16:02:57Z</time>
      </trkpt>
      <trkpt lat="46.20875" lon="4.47028">
        <ele>742</ele>
        <time>2012-04-11T16:02:59Z</time>
      </trkpt>
      <trkpt lat="46.2088" lon="4.47026">
        <ele>741</ele>
        <time>2012-04-11T16:03:02Z</time>
      </trkpt>
      <trkpt lat="46.20893" lon="4.47027">
        <ele>740</ele>
        <time>2012-04-11T16:03:08Z</time>
      </trkpt>
      <trkpt lat="46.209" lon="4.47027">
        <ele>739</ele>
        <time>2012-04-11T16:03:11Z</time>
      </trkpt>
      <trkpt lat="46.20907" lon="4.47029">
        <ele>739</ele>
        <time>2012-04-11T16:03:14Z</time>
      </trkpt>
      <trkpt lat="46.20915" lon="4.47028">
        <ele>738</ele>
        <time>2012-04-11T16:03:20Z</time>
      </trkpt>
      <trkpt lat="46.20924" lon="4.47019">
        <ele>731</ele>
        <time>2012-04-11T16:03:26Z</time>
      </trkpt>
      <trkpt lat="46.20935" lon="4.47017">
        <ele>730</ele>
        <time>2012-04-11T16:03:30Z</time>
      </trkpt>
      <trkpt lat="46.20951" lon="4.47011">
        <ele>728</ele>
        <time>2012-04-11T16:03:36Z</time>
      </trkpt>
      <trkpt lat="46.20965" lon="4.47016">
        <ele>726</ele>
        <time>2012-04-11T16:03:41Z</time>
      </trkpt>
      <trkpt lat="46.2097" lon="4.47016">
        <ele>725</ele>
        <time>2012-04-11T16:03:43Z</time>
      </trkpt>
      <trkpt lat="46.20978" lon="4.47013">
        <ele>723</ele>
        <time>2012-04-11T16:03:46Z</time>
      </trkpt>
      <trkpt lat="46.20995" lon="4.47006">
        <ele>718</ele>
        <time>2012-04-11T16:03:51Z</time>
      </trkpt>
      <trkpt lat="46.21005" lon="4.47001">
        <ele>715</ele>
        <time>2012-04-11T16:03:55Z</time>
      </trkpt>
      <trkpt lat="46.21008" lon="4.47001">
        <ele>715</ele>
        <time>2012-04-11T16:03:57Z</time>
      </trkpt>
      <trkpt lat="46.21019" lon="4.46994">
        <ele>710</ele>
        <time>2012-04-11T16:04:02Z</time>
      </trkpt>
      <trkpt lat="46.21034" lon="4.46985">
        <ele>708</ele>
        <time>2012-04-11T16:04:07Z</time>
      </trkpt>
      <trkpt lat="46.2104" lon="4.4698">
        <ele>707</ele>
        <time>2012-04-11T16:04:09Z</time>
      </trkpt>
      <trkpt lat="46.21045" lon="4.46974">
        <ele>706</ele>
        <time>2012-04-11T16:04:11Z</time>
      </trkpt>
      <trkpt lat="46.21055" lon="4.46962">
        <ele>705</ele>
        <time>2012-04-11T16:04:15Z</time>
      </trkpt>
      <trkpt lat="46.21063" lon="4.4695">
        <ele>703</ele>
        <time>2012-04-11T16:04:19Z</time>
      </trkpt>
      <trkpt lat="46.21067" lon="4.46946">
        <ele>702</ele>
        <time>2012-04-11T16:04:21Z</time>
      </trkpt>
      <trkpt lat="46.21072" lon="4.46942">
        <ele>701</ele>
        <time>2012-04-11T16:04:23Z</time>
      </trkpt>
      <trkpt lat="46.21077" lon="4.46936">
        <ele>699</ele>
        <time>2012-04-11T16:04:26Z</time>
      </trkpt>
      <trkpt lat="46.21081" lon="4.46932">
        <ele>697</ele>
        <time>2012-04-11T16:04:28Z</time>
      </trkpt>
      <trkpt lat="46.21087" lon="4.46929">
        <ele>688</ele>
        <time>2012-04-11T16:04:30Z</time>
      </trkpt>
      <trkpt lat="46.21096" lon="4.46925">
        <ele>688</ele>
        <time>2012-04-11T16:04:33Z</time>
      </trkpt>
      <trkpt lat="46.21101" lon="4.46923">
        <ele>688</ele>
        <time>2012-04-11T16:04:35Z</time>
      </trkpt>
      <trkpt lat="46.2111" lon="4.46912">
        <ele>683</ele>
        <time>2012-04-11T16:04:39Z</time>
      </trkpt>
      <trkpt lat="46.21115" lon="4.46906">
        <ele>683</ele>
        <time>2012-04-11T16:04:43Z</time>
      </trkpt>
      <trkpt lat="46.2112" lon="4.46893">
        <ele>682</ele>
        <time>2012-04-11T16:04:50Z</time>
      </trkpt>
      <trkpt lat="46.21125" lon="4.46884">
        <ele>681</ele>
        <time>2012-04-11T16:04:57Z</time>
      </trkpt>
      <trkpt lat="46.21127" lon="4.46881">
        <ele>681</ele>
        <time>2012-04-11T16:04:59Z</time>
      </trkpt>
      <trkpt lat="46.21132" lon="4.46868">
        <ele>681</ele>
        <time>2012-04-11T16:05:08Z</time>
      </trkpt>
      <trkpt lat="46.21138" lon="4.46858">
        <ele>680</ele>
        <time>2012-04-11T16:05:16Z</time>
      </trkpt>
      <trkpt lat="46.21145" lon="4.46842">
        <ele>677</ele>
        <time>2012-04-11T16:05:27Z</time>
      </trkpt>
      <trkpt lat="46.21145" lon="4.4684">
        <ele>677</ele>
        <time>2012-04-11T16:05:28Z</time>
      </trkpt>
      <trkpt lat="46.2115" lon="4.46824">
        <ele>677</ele>
        <time>2012-04-11T16:05:37Z</time>
      </trkpt>
      <trkpt lat="46.21152" lon="4.46807">
        <ele>679</ele>
        <time>2012-04-11T16:05:46Z</time>
      </trkpt>
      <trkpt lat="46.21153" lon="4.46789">
        <ele>680</ele>
        <time>2012-04-11T16:05:55Z</time>
      </trkpt>
      <trkpt lat="46.21152" lon="4.46772">
        <ele>679</ele>
        <time>2012-04-11T16:06:04Z</time>
      </trkpt>
      <trkpt lat="46.21152" lon="4.46761">
        <ele>678</ele>
        <time>2012-04-11T16:06:09Z</time>
      </trkpt>
      <trkpt lat="46.21152" lon="4.46759">
        <ele>677</ele>
        <time>2012-04-11T16:06:10Z</time>
      </trkpt>
      <trkpt lat="46.21148" lon="4.46744">
        <ele>681</ele>
        <time>2012-04-11T16:06:15Z</time>
      </trkpt>
      <trkpt lat="46.21146" lon="4.46737">
        <ele>682</ele>
        <time>2012-04-11T16:06:17Z</time>
      </trkpt>
      <trkpt lat="46.21144" lon="4.46726">
        <ele>684</ele>
        <time>2012-04-11T16:06:20Z</time>
      </trkpt>
      <trkpt lat="46.21142" lon="4.46708">
        <ele>686</ele>
        <time>2012-04-11T16:06:25Z</time>
      </trkpt>
      <trkpt lat="46.21141" lon="4.46691">
        <ele>686</ele>
        <time>2012-04-11T16:06:30Z</time>
      </trkpt>
      <trkpt lat="46.21139" lon="4.46683">
        <ele>686</ele>
        <time>2012-04-11T16:06:32Z</time>
      </trkpt>
      <trkpt lat="46.21138" lon="4.46673">
        <ele>686</ele>
        <time>2012-04-11T16:06:35Z</time>
      </trkpt>
      <trkpt lat="46.21135" lon="4.46657">
        <ele>690</ele>
        <time>2012-04-11T16:06:40Z</time>
      </trkpt>
      <trkpt lat="46.21136" lon="4.46639">
        <ele>691</ele>
        <time>2012-04-11T16:06:46Z</time>
      </trkpt>
      <trkpt lat="46.21138" lon="4.46631">
        <ele>690</ele>
        <time>2012-04-11T16:06:49Z</time>
      </trkpt>
      <trkpt lat="46.21138" lon="4.46625">
        <ele>690</ele>
        <time>2012-04-11T16:06:51Z</time>
      </trkpt>
      <trkpt lat="46.21137" lon="4.4661">
        <ele>690</ele>
        <time>2012-04-11T16:06:56Z</time>
      </trkpt>
      <trkpt lat="46.21136" lon="4.46594">
        <ele>689</ele>
        <time>2012-04-11T16:07:02Z</time>
      </trkpt>
      <trkpt lat="46.21136" lon="4.46576">
        <ele>689</ele>
        <time>2012-04-11T16:07:08Z</time>
      </trkpt>
      <trkpt lat="46.21134" lon="4.46558">
        <ele>691</ele>
        <time>2012-04-11T16:07:15Z</time>
      </trkpt>
      <trkpt lat="46.2113" lon="4.46538">
        <ele>692</ele>
        <time>2012-04-11T16:07:21Z</time>
      </trkpt>
      <trkpt lat="46.21131" lon="4.46522">
        <ele>692</ele>
        <time>2012-04-11T16:07:25Z</time>
      </trkpt>
      <trkpt lat="46.21132" lon="4.46502">
        <ele>691</ele>
        <time>2012-04-11T16:07:31Z</time>
      </trkpt>
      <trkpt lat="46.21131" lon="4.46485">
        <ele>690</ele>
        <time>2012-04-11T16:07:35Z</time>
      </trkpt>
      <trkpt lat="46.21133" lon="4.4647">
        <ele>690</ele>
        <time>2012-04-11T16:07:41Z</time>
      </trkpt>
      <trkpt lat="46.21132" lon="4.46468">
        <ele>690</ele>
        <time>2012-04-11T16:07:42Z</time>
      </trkpt>
      <trkpt lat="46.2113" lon="4.46462">
        <ele>690</ele>
        <time>2012-04-11T16:07:47Z</time>
      </trkpt>
      <trkpt lat="46.21126" lon="4.46447">
        <ele>691</ele>
        <time>2012-04-11T16:07:56Z</time>
      </trkpt>
      <trkpt lat="46.21122" lon="4.46441">
        <ele>691</ele>
        <time>2012-04-11T16:08:01Z</time>
      </trkpt>
      <trkpt lat="46.2112" lon="4.46439">
        <ele>691</ele>
        <time>2012-04-11T16:08:03Z</time>
      </trkpt>
      <trkpt lat="46.21117" lon="4.46436">
        <ele>692</ele>
        <time>2012-04-11T16:08:05Z</time>
      </trkpt>
      <trkpt lat="46.21113" lon="4.46427">
        <ele>692</ele>
        <time>2012-04-11T16:08:10Z</time>
      </trkpt>
      <trkpt lat="46.21112" lon="4.46426">
        <ele>692</ele>
        <time>2012-04-11T16:08:11Z</time>
      </trkpt>
      <trkpt lat="46.21107" lon="4.46415">
        <ele>689</ele>
        <time>2012-04-11T16:08:18Z</time>
      </trkpt>
      <trkpt lat="46.21101" lon="4.46405">
        <ele>690</ele>
        <time>2012-04-11T16:08:25Z</time>
      </trkpt>
      <trkpt lat="46.21095" lon="4.46396">
        <ele>689</ele>
        <time>2012-04-11T16:08:32Z</time>
      </trkpt>
      <trkpt lat="46.21087" lon="4.46387">
        <ele>688</ele>
        <time>2012-04-11T16:08:39Z</time>
      </trkpt>
      <trkpt lat="46.21077" lon="4.46376">
        <ele>693</ele>
        <time>2012-04-11T16:08:45Z</time>
      </trkpt>
      <trkpt lat="46.21065" lon="4.46362">
        <ele>691</ele>
        <time>2012-04-11T16:08:51Z</time>
      </trkpt>
      <trkpt lat="46.21058" lon="4.46355">
        <ele>691</ele>
        <time>2012-04-11T16:08:54Z</time>
      </trkpt>
      <trkpt lat="46.21052" lon="4.46348">
        <ele>691</ele>
        <time>2012-04-11T16:08:57Z</time>
      </trkpt>
      <trkpt lat="46.21039" lon="4.46336">
        <ele>691</ele>
        <time>2012-04-11T16:09:02Z</time>
      </trkpt>
      <trkpt lat="46.21029" lon="4.46328">
        <ele>682</ele>
        <time>2012-04-11T16:09:06Z</time>
      </trkpt>
      <trkpt lat="46.21027" lon="4.46326">
        <ele>682</ele>
        <time>2012-04-11T16:09:07Z</time>
      </trkpt>
      <trkpt lat="46.21017" lon="4.46316">
        <ele>682</ele>
        <time>2012-04-11T16:09:11Z</time>
      </trkpt>
      <trkpt lat="46.21009" lon="4.46298">
        <ele>680</ele>
        <time>2012-04-11T16:09:16Z</time>
      </trkpt>
      <trkpt lat="46.21006" lon="4.46285">
        <ele>679</ele>
        <time>2012-04-11T16:09:19Z</time>
      </trkpt>
      <trkpt lat="46.21005" lon="4.46281">
        <ele>679</ele>
        <time>2012-04-11T16:09:20Z</time>
      </trkpt>
      <trkpt lat="46.20999" lon="4.46253">
        <ele>678</ele>
        <time>2012-04-11T16:09:26Z</time>
      </trkpt>
      <trkpt lat="46.20998" lon="4.46237">
        <ele>678</ele>
        <time>2012-04-11T16:09:30Z</time>
      </trkpt>
      <trkpt lat="46.20998" lon="4.46233">
        <ele>679</ele>
        <time>2012-04-11T16:09:31Z</time>
      </trkpt>
      <trkpt lat="46.20994" lon="4.46218">
        <ele>679</ele>
        <time>2012-04-11T16:09:35Z</time>
      </trkpt>
      <trkpt lat="46.20987" lon="4.46199">
        <ele>678</ele>
        <time>2012-04-11T16:09:40Z</time>
      </trkpt>
      <trkpt lat="46.2098" lon="4.46187">
        <ele>677</ele>
        <time>2012-04-11T16:09:44Z</time>
      </trkpt>
      <trkpt lat="46.20974" lon="4.46178">
        <ele>677</ele>
        <time>2012-04-11T16:09:47Z</time>
      </trkpt>
      <trkpt lat="46.20962" lon="4.46163">
        <ele>672</ele>
        <time>2012-04-11T16:09:53Z</time>
      </trkpt>
      <trkpt lat="46.20952" lon="4.46151">
        <ele>673</ele>
        <time>2012-04-11T16:09:58Z</time>
      </trkpt>
      <trkpt lat="46.20942" lon="4.46135">
        <ele>673</ele>
        <time>2012-04-11T16:10:05Z</time>
      </trkpt>
      <trkpt lat="46.20932" lon="4.46119">
        <ele>672</ele>
        <time>2012-04-11T16:10:11Z</time>
      </trkpt>
      <trkpt lat="46.20927" lon="4.4611">
        <ele>671</ele>
        <time>2012-04-11T16:10:14Z</time>
      </trkpt>
      <trkpt lat="46.20923" lon="4.46105">
        <ele>671</ele>
        <time>2012-04-11T16:10:16Z</time>
      </trkpt>
      <trkpt lat="46.2091" lon="4.46086">
        <ele>675</ele>
        <time>2012-04-11T16:10:23Z</time>
      </trkpt>
      <trkpt lat="46.20899" lon="4.46082">
        <ele>672</ele>
        <time>2012-04-11T16:10:30Z</time>
      </trkpt>
      <trkpt lat="46.20897" lon="4.46082">
        <ele>673</ele>
        <time>2012-04-11T16:10:32Z</time>
      </trkpt>
      <trkpt lat="46.20892" lon="4.46081">
        <ele>673</ele>
        <time>2012-04-11T16:10:36Z</time>
      </trkpt>
      <trkpt lat="46.20884" lon="4.46075">
        <ele>674</ele>
        <time>2012-04-11T16:10:43Z</time>
      </trkpt>
      <trkpt lat="46.20876" lon="4.4607">
        <ele>675</ele>
        <time>2012-04-11T16:10:51Z</time>
      </trkpt>
      <trkpt lat="46.20866" lon="4.46067">
        <ele>676</ele>
        <time>2012-04-11T16:10:59Z</time>
      </trkpt>
      <trkpt lat="46.20862" lon="4.46065">
        <ele>677</ele>
        <time>2012-04-11T16:11:02Z</time>
      </trkpt>
      <trkpt lat="46.20853" lon="4.46063">
        <ele>678</ele>
        <time>2012-04-11T16:11:07Z</time>
      </trkpt>
      <trkpt lat="46.20844" lon="4.46058">
        <ele>678</ele>
        <time>2012-04-11T16:11:14Z</time>
      </trkpt>
      <trkpt lat="46.20836" lon="4.46058">
        <ele>679</ele>
        <time>2012-04-11T16:11:22Z</time>
      </trkpt>
      <trkpt lat="46.20831" lon="4.4606">
        <ele>685</ele>
        <time>2012-04-11T16:11:28Z</time>
      </trkpt>
      <trkpt lat="46.20829" lon="4.46068">
        <ele>686</ele>
        <time>2012-04-11T16:11:33Z</time>
      </trkpt>
      <trkpt lat="46.20828" lon="4.46072">
        <ele>687</ele>
        <time>2012-04-11T16:11:35Z</time>
      </trkpt>
      <trkpt lat="46.20827" lon="4.46081">
        <ele>688</ele>
        <time>2012-04-11T16:11:42Z</time>
      </trkpt>
      <trkpt lat="46.2083" lon="4.46092">
        <ele>691</ele>
        <time>2012-04-11T16:11:48Z</time>
      </trkpt>
      <trkpt lat="46.20836" lon="4.46096">
        <ele>688</ele>
        <time>2012-04-11T16:11:53Z</time>
      </trkpt>
      <trkpt lat="46.2084" lon="4.46101">
        <ele>688</ele>
        <time>2012-04-11T16:11:57Z</time>
      </trkpt>
      <trkpt lat="46.20842" lon="4.46103">
        <ele>688</ele>
        <time>2012-04-11T16:11:59Z</time>
      </trkpt>
      <trkpt lat="46.20846" lon="4.46108">
        <ele>687</ele>
        <time>2012-04-11T16:12:06Z</time>
      </trkpt>
      <trkpt lat="46.20848" lon="4.46113">
        <ele>687</ele>
        <time>2012-04-11T16:12:15Z</time>
      </trkpt>
      <trkpt lat="46.20844" lon="4.46115">
        <ele>688</ele>
        <time>2012-04-11T16:12:20Z</time>
      </trkpt>
      <trkpt lat="46.20841" lon="4.46119">
        <ele>688</ele>
        <time>2012-04-11T16:12:25Z</time>
      </trkpt>
      <trkpt lat="46.20833" lon="4.46124">
        <ele>695</ele>
        <time>2012-04-11T16:12:32Z</time>
      </trkpt>
      <trkpt lat="46.20828" lon="4.46133">
        <ele>696</ele>
        <time>2012-04-11T16:12:38Z</time>
      </trkpt>
      <trkpt lat="46.20822" lon="4.46133">
        <ele>696</ele>
        <time>2012-04-11T16:12:43Z</time>
      </trkpt>
      <trkpt lat="46.20817" lon="4.46132">
        <ele>696</ele>
        <time>2012-04-11T16:12:46Z</time>
      </trkpt>
      <trkpt lat="46.20814" lon="4.46132">
        <ele>696</ele>
        <time>2012-04-11T16:12:49Z</time>
      </trkpt>
      <trkpt lat="46.20806" lon="4.46128">
        <ele>696</ele>
        <time>2012-04-11T16:12:55Z</time>
      </trkpt>
      <trkpt lat="46.20804" lon="4.46128">
        <ele>696</ele>
        <time>2012-04-11T16:12:57Z</time>
      </trkpt>
      <trkpt lat="46.208" lon="4.46128">
        <ele>696</ele>
        <time>2012-04-11T16:13:01Z</time>
      </trkpt>
      <trkpt lat="46.20795" lon="4.46126">
        <ele>696</ele>
        <time>2012-04-11T16:13:06Z</time>
      </trkpt>
      <trkpt lat="46.20787" lon="4.46126">
        <ele>696</ele>
        <time>2012-04-11T16:13:12Z</time>
      </trkpt>
      <trkpt lat="46.20785" lon="4.46129">
        <ele>696</ele>
        <time>2012-04-11T16:13:16Z</time>
      </trkpt>
      <trkpt lat="46.20783" lon="4.46129">
        <ele>697</ele>
        <time>2012-04-11T16:13:19Z</time>
      </trkpt>
      <trkpt lat="46.2078" lon="4.46127">
        <ele>696</ele>
        <time>2012-04-11T16:13:22Z</time>
      </trkpt>
      <trkpt lat="46.20778" lon="4.46126">
        <ele>696</ele>
        <time>2012-04-11T16:13:24Z</time>
      </trkpt>
      <trkpt lat="46.20772" lon="4.4613">
        <ele>697</ele>
        <time>2012-04-11T16:13:29Z</time>
      </trkpt>
      <trkpt lat="46.20759" lon="4.4613">
        <ele>697</ele>
        <time>2012-04-11T16:13:36Z</time>
      </trkpt>
      <trkpt lat="46.20755" lon="4.46128">
        <ele>697</ele>
        <time>2012-04-11T16:13:41Z</time>
      </trkpt>
      <trkpt lat="46.20753" lon="4.4613">
        <ele>697</ele>
        <time>2012-04-11T16:13:44Z</time>
      </trkpt>
      <trkpt lat="46.20751" lon="4.4613">
        <ele>698</ele>
        <time>2012-04-11T16:13:46Z</time>
      </trkpt>
      <trkpt lat="46.2075" lon="4.4613">
        <ele>699</ele>
        <time>2012-04-11T16:13:47Z</time>
      </trkpt>
      <trkpt lat="46.20747" lon="4.46129">
        <ele>698</ele>
        <time>2012-04-11T16:13:49Z</time>
      </trkpt>
      <trkpt lat="46.20745" lon="4.46129">
        <ele>699</ele>
        <time>2012-04-11T16:13:51Z</time>
      </trkpt>
      <trkpt lat="46.20744" lon="4.46131">
        <ele>699</ele>
        <time>2012-04-11T16:13:52Z</time>
      </trkpt>
      <trkpt lat="46.2074" lon="4.46133">
        <ele>699</ele>
        <time>2012-04-11T16:13:57Z</time>
      </trkpt>
      <trkpt lat="46.20734" lon="4.46141">
        <ele>700</ele>
        <time>2012-04-11T16:14:04Z</time>
      </trkpt>
      <trkpt lat="46.20732" lon="4.46141">
        <ele>700</ele>
        <time>2012-04-11T16:14:06Z</time>
      </trkpt>
      <trkpt lat="46.20727" lon="4.46141">
        <ele>699</ele>
        <time>2012-04-11T16:14:09Z</time>
      </trkpt>
      <trkpt lat="46.20713" lon="4.46145">
        <ele>699</ele>
        <time>2012-04-11T16:14:16Z</time>
      </trkpt>
      <trkpt lat="46.20709" lon="4.46146">
        <ele>699</ele>
        <time>2012-04-11T16:14:20Z</time>
      </trkpt>
      <trkpt lat="46.20706" lon="4.46148">
        <ele>700</ele>
        <time>2012-04-11T16:14:22Z</time>
      </trkpt>
      <trkpt lat="46.20697" lon="4.46152">
        <ele>700</ele>
        <time>2012-04-11T16:14:29Z</time>
      </trkpt>
      <trkpt lat="46.2069" lon="4.46147">
        <ele>700</ele>
        <time>2012-04-11T16:14:35Z</time>
      </trkpt>
      <trkpt lat="46.20685" lon="4.46141">
        <ele>699</ele>
        <time>2012-04-11T16:14:41Z</time>
      </trkpt>
      <trkpt lat="46.20684" lon="4.4614">
        <ele>699</ele>
        <time>2012-04-11T16:14:42Z</time>
      </trkpt>
      <trkpt lat="46.20679" lon="4.46135">
        <ele>699</ele>
        <time>2012-04-11T16:14:46Z</time>
      </trkpt>
      <trkpt lat="46.20677" lon="4.46131">
        <ele>698</ele>
        <time>2012-04-11T16:14:48Z</time>
      </trkpt>
      <trkpt lat="46.20676" lon="4.46128">
        <ele>698</ele>
        <time>2012-04-11T16:14:50Z</time>
      </trkpt>
      <trkpt lat="46.20674" lon="4.46125">
        <ele>697</ele>
        <time>2012-04-11T16:14:52Z</time>
      </trkpt>
      <trkpt lat="46.20673" lon="4.46122">
        <ele>697</ele>
        <time>2012-04-11T16:14:54Z</time>
      </trkpt>
      <trkpt lat="46.20668" lon="4.46116">
        <ele>696</ele>
        <time>2012-04-11T16:14:58Z</time>
      </trkpt>
      <trkpt lat="46.20663" lon="4.46109">
        <ele>698</ele>
        <time>2012-04-11T16:15:03Z</time>
      </trkpt>
      <trkpt lat="46.20656" lon="4.461">
        <ele>696</ele>
        <time>2012-04-11T16:15:10Z</time>
      </trkpt>
      <trkpt lat="46.20651" lon="4.46095">
        <ele>696</ele>
        <time>2012-04-11T16:15:15Z</time>
      </trkpt>
      <trkpt lat="46.2065" lon="4.46095">
        <ele>696</ele>
        <time>2012-04-11T16:15:16Z</time>
      </trkpt>
      <trkpt lat="46.20649" lon="4.46094">
        <ele>697</ele>
        <time>2012-04-11T16:15:17Z</time>
      </trkpt>
      <trkpt lat="46.20647" lon="4.46092">
        <ele>697</ele>
        <time>2012-04-11T16:15:19Z</time>
      </trkpt>
      <trkpt lat="46.20641" lon="4.46089">
        <ele>697</ele>
        <time>2012-04-11T16:15:23Z</time>
      </trkpt>
      <trkpt lat="46.20635" lon="4.46085">
        <ele>698</ele>
        <time>2012-04-11T16:15:28Z</time>
      </trkpt>
      <trkpt lat="46.20633" lon="4.46082">
        <ele>690</ele>
        <time>2012-04-11T16:15:30Z</time>
      </trkpt>
      <trkpt lat="46.20628" lon="4.4608">
        <ele>691</ele>
        <time>2012-04-11T16:15:33Z</time>
      </trkpt>
      <trkpt lat="46.20619" lon="4.46072">
        <ele>691</ele>
        <time>2012-04-11T16:15:40Z</time>
      </trkpt>
      <trkpt lat="46.20617" lon="4.4607">
        <ele>691</ele>
        <time>2012-04-11T16:15:42Z</time>
      </trkpt>
      <trkpt lat="46.20612" lon="4.46067">
        <ele>692</ele>
        <time>2012-04-11T16:15:48Z</time>
      </trkpt>
      <trkpt lat="46.20606" lon="4.46063">
        <ele>692</ele>
        <time>2012-04-11T16:15:53Z</time>
      </trkpt>
      <trkpt lat="46.20599" lon="4.46056">
        <ele>692</ele>
        <time>2012-04-11T16:16:00Z</time>
      </trkpt>
      <trkpt lat="46.20594" lon="4.46052">
        <ele>692</ele>
        <time>2012-04-11T16:16:05Z</time>
      </trkpt>
      <trkpt lat="46.20589" lon="4.46047">
        <ele>691</ele>
        <time>2012-04-11T16:16:11Z</time>
      </trkpt>
      <trkpt lat="46.20587" lon="4.46044">
        <ele>691</ele>
        <time>2012-04-11T16:16:13Z</time>
      </trkpt>
      <trkpt lat="46.20584" lon="4.46042">
        <ele>691</ele>
        <time>2012-04-11T16:16:16Z</time>
      </trkpt>
      <trkpt lat="46.20582" lon="4.46039">
        <ele>697</ele>
        <time>2012-04-11T16:16:18Z</time>
      </trkpt>
      <trkpt lat="46.20576" lon="4.46026">
        <ele>695</ele>
        <time>2012-04-11T16:16:25Z</time>
      </trkpt>
      <trkpt lat="46.20574" lon="4.46017">
        <ele>694</ele>
        <time>2012-04-11T16:16:31Z</time>
      </trkpt>
      <trkpt lat="46.2057" lon="4.46009">
        <ele>693</ele>
        <time>2012-04-11T16:16:36Z</time>
      </trkpt>
      <trkpt lat="46.20569" lon="4.46007">
        <ele>693</ele>
        <time>2012-04-11T16:16:37Z</time>
      </trkpt>
      <trkpt lat="46.20565" lon="4.46003">
        <ele>693</ele>
        <time>2012-04-11T16:16:40Z</time>
      </trkpt>
      <trkpt lat="46.20562" lon="4.46">
        <ele>694</ele>
        <time>2012-04-11T16:16:43Z</time>
      </trkpt>
      <trkpt lat="46.20557" lon="4.45993">
        <ele>687</ele>
        <time>2012-04-11T16:16:48Z</time>
      </trkpt>
      <trkpt lat="46.20553" lon="4.45987">
        <ele>687</ele>
        <time>2012-04-11T16:16:52Z</time>
      </trkpt>
      <trkpt lat="46.20551" lon="4.45981">
        <ele>687</ele>
        <time>2012-04-11T16:16:55Z</time>
      </trkpt>
      <trkpt lat="46.20548" lon="4.45971">
        <ele>687</ele>
        <time>2012-04-11T16:17:01Z</time>
      </trkpt>
      <trkpt lat="46.20545" lon="4.45966">
        <ele>687</ele>
        <time>2012-04-11T16:17:08Z</time>
      </trkpt>
      <trkpt lat="46.20546" lon="4.4596">
        <ele>686</ele>
        <time>2012-04-11T16:17:16Z</time>
      </trkpt>
      <trkpt lat="46.20545" lon="4.45959">
        <ele>686</ele>
        <time>2012-04-11T16:17:17Z</time>
      </trkpt>
      <trkpt lat="46.20543" lon="4.45954">
        <ele>686</ele>
        <time>2012-04-11T16:17:22Z</time>
      </trkpt>
      <trkpt lat="46.20542" lon="4.45948">
        <ele>686</ele>
        <time>2012-04-11T16:17:26Z</time>
      </trkpt>
      <trkpt lat="46.20541" lon="4.45946">
        <ele>686</ele>
        <time>2012-04-11T16:17:28Z</time>
      </trkpt>
      <trkpt lat="46.20537" lon="4.45944">
        <ele>686</ele>
        <time>2012-04-11T16:17:32Z</time>
      </trkpt>
      <trkpt lat="46.20534" lon="4.45941">
        <ele>686</ele>
        <time>2012-04-11T16:17:36Z</time>
      </trkpt>
      <trkpt lat="46.2053" lon="4.45934">
        <ele>686</ele>
        <time>2012-04-11T16:17:41Z</time>
      </trkpt>
      <trkpt lat="46.20529" lon="4.4593">
        <ele>686</ele>
        <time>2012-04-11T16:17:43Z</time>
      </trkpt>
      <trkpt lat="46.20526" lon="4.45927">
        <ele>687</ele>
        <time>2012-04-11T16:17:46Z</time>
      </trkpt>
      <trkpt lat="46.20521" lon="4.45919">
        <ele>687</ele>
        <time>2012-04-11T16:17:52Z</time>
      </trkpt>
      <trkpt lat="46.20519" lon="4.45919">
        <ele>687</ele>
        <time>2012-04-11T16:17:54Z</time>
      </trkpt>
      <trkpt lat="46.20517" lon="4.4592">
        <ele>688</ele>
        <time>2012-04-11T16:17:55Z</time>
      </trkpt>
      <trkpt lat="46.20514" lon="4.45919">
        <ele>688</ele>
        <time>2012-04-11T16:17:58Z</time>
      </trkpt>
      <trkpt lat="46.20508" lon="4.45922">
        <ele>689</ele>
        <time>2012-04-11T16:18:03Z</time>
      </trkpt>
      <trkpt lat="46.20505" lon="4.45918">
        <ele>689</ele>
        <time>2012-04-11T16:18:08Z</time>
      </trkpt>
      <trkpt lat="46.20502" lon="4.45909">
        <ele>686</ele>
        <time>2012-04-11T16:18:13Z</time>
      </trkpt>
      <trkpt lat="46.20501" lon="4.45906">
        <ele>685</ele>
        <time>2012-04-11T16:18:15Z</time>
      </trkpt>
      <trkpt lat="46.20493" lon="4.45896">
        <ele>690</ele>
        <time>2012-04-11T16:18:22Z</time>
      </trkpt>
      <trkpt lat="46.20491" lon="4.45895">
        <ele>690</ele>
        <time>2012-04-11T16:18:23Z</time>
      </trkpt>
      <trkpt lat="46.20482" lon="4.45892">
        <ele>690</ele>
        <time>2012-04-11T16:18:27Z</time>
      </trkpt>
      <trkpt lat="46.20464" lon="4.45883">
        <ele>690</ele>
        <time>2012-04-11T16:18:34Z</time>
      </trkpt>
      <trkpt lat="46.20459" lon="4.45881">
        <ele>690</ele>
        <time>2012-04-11T16:18:36Z</time>
      </trkpt>
      <trkpt lat="46.20445" lon="4.45879">
        <ele>691</ele>
        <time>2012-04-11T16:18:41Z</time>
      </trkpt>
      <trkpt lat="46.20432" lon="4.45884">
        <ele>691</ele>
        <time>2012-04-11T16:18:46Z</time>
      </trkpt>
      <trkpt lat="46.20424" lon="4.45889">
        <ele>692</ele>
        <time>2012-04-11T16:18:49Z</time>
      </trkpt>
      <trkpt lat="46.20419" lon="4.45891">
        <ele>692</ele>
        <time>2012-04-11T16:18:51Z</time>
      </trkpt>
      <trkpt lat="46.20405" lon="4.45897">
        <ele>690</ele>
        <time>2012-04-11T16:18:57Z</time>
      </trkpt>
      <trkpt lat="46.20398" lon="4.45897">
        <ele>689</ele>
        <time>2012-04-11T16:19:02Z</time>
      </trkpt>
      <trkpt lat="46.20393" lon="4.459">
        <ele>688</ele>
        <time>2012-04-11T16:19:08Z</time>
      </trkpt>
      <trkpt lat="46.20389" lon="4.45899">
        <ele>688</ele>
        <time>2012-04-11T16:19:11Z</time>
      </trkpt>
      <trkpt lat="46.20387" lon="4.45899">
        <ele>688</ele>
        <time>2012-04-11T16:19:12Z</time>
      </trkpt>
      <trkpt lat="46.20384" lon="4.459">
        <ele>687</ele>
        <time>2012-04-11T16:19:13Z</time>
      </trkpt>
      <trkpt lat="46.20368" lon="4.45899">
        <ele>686</ele>
        <time>2012-04-11T16:19:18Z</time>
      </trkpt>
      <trkpt lat="46.20357" lon="4.459">
        <ele>685</ele>
        <time>2012-04-11T16:19:21Z</time>
      </trkpt>
      <trkpt lat="46.20354" lon="4.459">
        <ele>685</ele>
        <time>2012-04-11T16:19:22Z</time>
      </trkpt>
      <trkpt lat="46.20348" lon="4.45902">
        <ele>684</ele>
        <time>2012-04-11T16:19:24Z</time>
      </trkpt>
      <trkpt lat="46.20341" lon="4.45903">
        <ele>684</ele>
        <time>2012-04-11T16:19:26Z</time>
      </trkpt>
      <trkpt lat="46.2032" lon="4.45914">
        <ele>677</ele>
        <time>2012-04-11T16:19:32Z</time>
      </trkpt>
      <trkpt lat="46.20311" lon="4.45917">
        <ele>675</ele>
        <time>2012-04-11T16:19:35Z</time>
      </trkpt>
      <trkpt lat="46.20307" lon="4.45916">
        <ele>674</ele>
        <time>2012-04-11T16:19:36Z</time>
      </trkpt>
      <trkpt lat="46.20295" lon="4.45913">
        <ele>672</ele>
        <time>2012-04-11T16:19:41Z</time>
      </trkpt>
      <trkpt lat="46.20289" lon="4.45909">
        <ele>670</ele>
        <time>2012-04-11T16:19:45Z</time>
      </trkpt>
      <trkpt lat="46.20287" lon="4.45909">
        <ele>670</ele>
        <time>2012-04-11T16:19:46Z</time>
      </trkpt>
      <trkpt lat="46.20285" lon="4.45908">
        <ele>670</ele>
        <time>2012-04-11T16:19:50Z</time>
      </trkpt>
      <trkpt lat="46.20283" lon="4.45907">
        <ele>670</ele>
        <time>2012-04-11T16:19:58Z</time>
      </trkpt>
      <trkpt lat="46.2028" lon="4.45898">
        <ele>669</ele>
        <time>2012-04-11T16:20:04Z</time>
      </trkpt>
      <trkpt lat="46.20276" lon="4.45897">
        <ele>669</ele>
        <time>2012-04-11T16:20:07Z</time>
      </trkpt>
      <trkpt lat="46.20277" lon="4.45895">
        <ele>669</ele>
        <time>2012-04-11T16:20:10Z</time>
      </trkpt>
      <trkpt lat="46.20282" lon="4.45899">
        <ele>669</ele>
        <time>2012-04-11T16:20:15Z</time>
      </trkpt>
      <trkpt lat="46.20286" lon="4.45903">
        <ele>670</ele>
        <time>2012-04-11T16:20:20Z</time>
      </trkpt>
      <trkpt lat="46.20283" lon="4.45902">
        <ele>669</ele>
        <time>2012-04-11T16:20:24Z</time>
      </trkpt>
      <trkpt lat="46.20279" lon="4.459">
        <ele>669</ele>
        <time>2012-04-11T16:20:50Z</time>
      </trkpt>
      <trkpt lat="46.20279" lon="4.45899">
        <ele>669</ele>
        <time>2012-04-11T16:20:51Z</time>
      </trkpt>
      <trkpt lat="46.20278" lon="4.45894">
        <ele>669</ele>
        <time>2012-04-11T16:20:54Z</time>
      </trkpt>
      <trkpt lat="46.20275" lon="4.45895">
        <ele>668</ele>
        <time>2012-04-11T16:20:59Z</time>
      </trkpt>
      <trkpt lat="46.20279" lon="4.45897">
        <ele>669</ele>
        <time>2012-04-11T16:21:06Z</time>
      </trkpt>
      <trkpt lat="46.20285" lon="4.45901">
        <ele>670</ele>
        <time>2012-04-11T16:21:13Z</time>
      </trkpt>
      <trkpt lat="46.20285" lon="4.45902">
        <ele>670</ele>
        <time>2012-04-11T16:21:14Z</time>
      </trkpt>
      <trkpt lat="46.20287" lon="4.45905">
        <ele>670</ele>
        <time>2012-04-11T16:21:16Z</time>
      </trkpt>
      <trkpt lat="46.20286" lon="4.45907">
        <ele>670</ele>
        <time>2012-04-11T16:21:18Z</time>
      </trkpt>
      <trkpt lat="46.20285" lon="4.45904">
        <ele>670</ele>
        <time>2012-04-11T16:21:23Z</time>
      </trkpt>
      <trkpt lat="46.20285" lon="4.459">
        <ele>670</ele>
        <time>2012-04-11T16:21:29Z</time>
      </trkpt>
      <trkpt lat="46.20284" lon="4.45894">
        <ele>669</ele>
        <time>2012-04-11T16:21:38Z</time>
      </trkpt>
      <trkpt lat="46.20281" lon="4.45897">
        <ele>669</ele>
        <time>2012-04-11T16:21:40Z</time>
      </trkpt>
      <trkpt lat="46.20284" lon="4.45897">
        <ele>669</ele>
        <time>2012-04-11T16:21:43Z</time>
      </trkpt>
      <trkpt lat="46.20283" lon="4.45898">
        <ele>669</ele>
        <time>2012-04-11T16:21:53Z</time>
      </trkpt>
      <trkpt lat="46.20287" lon="4.45903">
        <ele>670</ele>
        <time>2012-04-11T16:22:18Z</time>
      </trkpt>
      <trkpt lat="46.20288" lon="4.45908">
        <ele>670</ele>
        <time>2012-04-11T16:22:25Z</time>
      </trkpt>
      <trkpt lat="46.20287" lon="4.45911">
        <ele>670</ele>
        <time>2012-04-11T16:22:49Z</time>
      </trkpt>
      <trkpt lat="46.20287" lon="4.45911">
        <ele>670</ele>
        <time>2012-04-11T16:22:53Z</time>
      </trkpt>
      <trkpt lat="46.20286" lon="4.45906">
        <ele>670</ele>
        <time>2012-04-11T16:23:30Z</time>
      </trkpt>
      <trkpt lat="46.20286" lon="4.45904">
        <ele>670</ele>
        <time>2012-04-11T16:23:32Z</time>
      </trkpt>
      <trkpt lat="46.20287" lon="4.459">
        <ele>670</ele>
        <time>2012-04-11T16:23:37Z</time>
      </trkpt>
      <trkpt lat="46.20285" lon="4.45901">
        <ele>670</ele>
        <time>2012-04-11T16:23:42Z</time>
      </trkpt>
      <trkpt lat="46.20285" lon="4.4591">
        <ele>670</ele>
        <time>2012-04-11T16:24:32Z</time>
      </trkpt>
      <trkpt lat="46.20284" lon="4.45912">
        <ele>670</ele>
        <time>2012-04-11T16:24:51Z</time>
      </trkpt>
      <trkpt lat="46.20283" lon="4.45911">
        <ele>670</ele>
        <time>2012-04-11T16:25:04Z</time>
      </trkpt>
      <trkpt lat="46.20283" lon="4.45909">
        <ele>670</ele>
        <time>2012-04-11T16:25:06Z</time>
      </trkpt>
      <trkpt lat="46.20284" lon="4.45907">
        <ele>670</ele>
        <time>2012-04-11T16:25:07Z</time>
      </trkpt>
      <trkpt lat="46.2028" lon="4.45905">
        <ele>669</ele>
        <time>2012-04-11T16:25:18Z</time>
      </trkpt>
      <trkpt lat="46.2028" lon="4.45909">
        <ele>669</ele>
        <time>2012-04-11T16:25:29Z</time>
      </trkpt>
      <trkpt lat="46.2028" lon="4.45909">
        <ele>669</ele>
        <time>2012-04-11T16:25:30Z</time>
      </trkpt>
      <trkpt lat="46.20278" lon="4.4591">
        <ele>669</ele>
        <time>2012-04-11T16:25:35Z</time>
      </trkpt>
      <trkpt lat="46.20276" lon="4.45911">
        <ele>669</ele>
        <time>2012-04-11T16:26:07Z</time>
      </trkpt>
      <trkpt lat="46.20272" lon="4.45908">
        <ele>668</ele>
        <time>2012-04-11T16:26:14Z</time>
      </trkpt>
      <trkpt lat="46.2027" lon="4.45905">
        <ele>668</ele>
        <time>2012-04-11T16:26:15Z</time>
      </trkpt>
      <trkpt lat="46.20266" lon="4.45898">
        <ele>668</ele>
        <time>2012-04-11T16:26:18Z</time>
      </trkpt>
      <trkpt lat="46.20262" lon="4.45893">
        <ele>667</ele>
        <time>2012-04-11T16:26:20Z</time>
      </trkpt>
      <trkpt lat="46.20259" lon="4.4589">
        <ele>667</ele>
        <time>2012-04-11T16:26:21Z</time>
      </trkpt>
      <trkpt lat="46.20256" lon="4.45891">
        <ele>667</ele>
        <time>2012-04-11T16:26:23Z</time>
      </trkpt>
      <trkpt lat="46.20238" lon="4.45886">
        <ele>656</ele>
        <time>2012-04-11T16:26:28Z</time>
      </trkpt>
      <trkpt lat="46.20234" lon="4.45884">
        <ele>655</ele>
        <time>2012-04-11T16:26:29Z</time>
      </trkpt>
      <trkpt lat="46.20225" lon="4.45878">
        <ele>654</ele>
        <time>2012-04-11T16:26:31Z</time>
      </trkpt>
      <trkpt lat="46.2022" lon="4.45868">
        <ele>653</ele>
        <time>2012-04-11T16:26:33Z</time>
      </trkpt>
      <trkpt lat="46.20223" lon="4.45846">
        <ele>653</ele>
        <time>2012-04-11T16:26:36Z</time>
      </trkpt>
      <trkpt lat="46.20234" lon="4.45831">
        <ele>652</ele>
        <time>2012-04-11T16:26:38Z</time>
      </trkpt>
      <trkpt lat="46.20246" lon="4.45815">
        <ele>652</ele>
        <time>2012-04-11T16:26:40Z</time>
      </trkpt>
      <trkpt lat="46.2025" lon="4.45804">
        <ele>651</ele>
        <time>2012-04-11T16:26:41Z</time>
      </trkpt>
      <trkpt lat="46.2026" lon="4.45781">
        <ele>656</ele>
        <time>2012-04-11T16:26:43Z</time>
      </trkpt>
      <trkpt lat="46.20265" lon="4.4577">
        <ele>655</ele>
        <time>2012-04-11T16:26:44Z</time>
      </trkpt>
      <trkpt lat="46.20273" lon="4.45756">
        <ele>655</ele>
        <time>2012-04-11T16:26:46Z</time>
      </trkpt>
      <trkpt lat="46.20274" lon="4.4575">
        <ele>655</ele>
        <time>2012-04-11T16:26:47Z</time>
      </trkpt>
      <trkpt lat="46.20268" lon="4.45736">
        <ele>649</ele>
        <time>2012-04-11T16:26:50Z</time>
      </trkpt>
      <trkpt lat="46.20258" lon="4.45729">
        <ele>649</ele>
        <time>2012-04-11T16:26:52Z</time>
      </trkpt>
      <trkpt lat="46.20247" lon="4.45722">
        <ele>645</ele>
        <time>2012-04-11T16:26:54Z</time>
      </trkpt>
      <trkpt lat="46.20235" lon="4.45714">
        <ele>645</ele>
        <time>2012-04-11T16:26:56Z</time>
      </trkpt>
      <trkpt lat="46.20214" lon="4.457">
        <ele>644</ele>
        <time>2012-04-11T16:26:59Z</time>
      </trkpt>
      <trkpt lat="46.20199" lon="4.45689">
        <ele>644</ele>
        <time>2012-04-11T16:27:01Z</time>
      </trkpt>
      <trkpt lat="46.20174" lon="4.45672">
        <ele>644</ele>
        <time>2012-04-11T16:27:04Z</time>
      </trkpt>
      <trkpt lat="46.20165" lon="4.45667">
        <ele>644</ele>
        <time>2012-04-11T16:27:05Z</time>
      </trkpt>
      <trkpt lat="46.20156" lon="4.45664">
        <ele>642</ele>
        <time>2012-04-11T16:27:06Z</time>
      </trkpt>
      <trkpt lat="46.2014" lon="4.45669">
        <ele>640</ele>
        <time>2012-04-11T16:27:08Z</time>
      </trkpt>
      <trkpt lat="46.20126" lon="4.4569">
        <ele>639</ele>
        <time>2012-04-11T16:27:10Z</time>
      </trkpt>
      <trkpt lat="46.20112" lon="4.45732">
        <ele>638</ele>
        <time>2012-04-11T16:27:13Z</time>
      </trkpt>
      <trkpt lat="46.20107" lon="4.45748">
        <ele>637</ele>
        <time>2012-04-11T16:27:14Z</time>
      </trkpt>
      <trkpt lat="46.20105" lon="4.45763">
        <ele>636</ele>
        <time>2012-04-11T16:27:15Z</time>
      </trkpt>
      <trkpt lat="46.20105" lon="4.45763">
        <ele>636</ele>
        <time>2012-04-11T16:27:15Z</time>
      </trkpt>
      <trkpt lat="46.20106" lon="4.45777">
        <ele>637</ele>
        <time>2012-04-11T16:27:16Z</time>
      </trkpt>
      <trkpt lat="46.2011" lon="4.45806">
        <ele>637</ele>
        <time>2012-04-11T16:27:18Z</time>
      </trkpt>
      <trkpt lat="46.20112" lon="4.45821">
        <ele>636</ele>
        <time>2012-04-11T16:27:19Z</time>
      </trkpt>
      <trkpt lat="46.2012" lon="4.45864">
        <ele>636</ele>
        <time>2012-04-11T16:27:22Z</time>
      </trkpt>
      <trkpt lat="46.20127" lon="4.45905">
        <ele>636</ele>
        <time>2012-04-11T16:27:25Z</time>
      </trkpt>
      <trkpt lat="46.20129" lon="4.45919">
        <ele>636</ele>
        <time>2012-04-11T16:27:26Z</time>
      </trkpt>
      <trkpt lat="46.2014" lon="4.45981">
        <ele>637</ele>
        <time>2012-04-11T16:27:30Z</time>
      </trkpt>
      <trkpt lat="46.20145" lon="4.46036">
        <ele>636</ele>
        <time>2012-04-11T16:27:34Z</time>
      </trkpt>
      <trkpt lat="46.20147" lon="4.46078">
        <ele>636</ele>
        <time>2012-04-11T16:27:37Z</time>
      </trkpt>
      <trkpt lat="46.20145" lon="4.4609">
        <ele>637</ele>
        <time>2012-04-11T16:27:38Z</time>
      </trkpt>
      <trkpt lat="46.20136" lon="4.46115">
        <ele>637</ele>
        <time>2012-04-11T16:27:40Z</time>
      </trkpt>
      <trkpt lat="46.20125" lon="4.46136">
        <ele>637</ele>
        <time>2012-04-11T16:27:42Z</time>
      </trkpt>
      <trkpt lat="46.20116" lon="4.46155">
        <ele>636</ele>
        <time>2012-04-11T16:27:44Z</time>
      </trkpt>
      <trkpt lat="46.20101" lon="4.46187">
        <ele>640</ele>
        <time>2012-04-11T16:27:48Z</time>
      </trkpt>
      <trkpt lat="46.20097" lon="4.46193">
        <ele>640</ele>
        <time>2012-04-11T16:27:49Z</time>
      </trkpt>
      <trkpt lat="46.20083" lon="4.46217">
        <ele>637</ele>
        <time>2012-04-11T16:27:53Z</time>
      </trkpt>
      <trkpt lat="46.20074" lon="4.46224">
        <ele>637</ele>
        <time>2012-04-11T16:27:55Z</time>
      </trkpt>
      <trkpt lat="46.20057" lon="4.46221">
        <ele>637</ele>
        <time>2012-04-11T16:27:58Z</time>
      </trkpt>
      <trkpt lat="46.20047" lon="4.46209">
        <ele>637</ele>
        <time>2012-04-11T16:28:00Z</time>
      </trkpt>
      <trkpt lat="46.20042" lon="4.46202">
        <ele>637</ele>
        <time>2012-04-11T16:28:01Z</time>
      </trkpt>
      <trkpt lat="46.20038" lon="4.46194">
        <ele>637</ele>
        <time>2012-04-11T16:28:02Z</time>
      </trkpt>
      <trkpt lat="46.20034" lon="4.46165">
        <ele>638</ele>
        <time>2012-04-11T16:28:05Z</time>
      </trkpt>
      <trkpt lat="46.20035" lon="4.46147">
        <ele>638</ele>
        <time>2012-04-11T16:28:07Z</time>
      </trkpt>
      <trkpt lat="46.20037" lon="4.46125">
        <ele>638</ele>
        <time>2012-04-11T16:28:10Z</time>
      </trkpt>
      <trkpt lat="46.20038" lon="4.46111">
        <ele>638</ele>
        <time>2012-04-11T16:28:12Z</time>
      </trkpt>
      <trkpt lat="46.20041" lon="4.46093">
        <ele>637</ele>
        <time>2012-04-11T16:28:15Z</time>
      </trkpt>
      <trkpt lat="46.20042" lon="4.46087">
        <ele>637</ele>
        <time>2012-04-11T16:28:16Z</time>
      </trkpt>
      <trkpt lat="46.20042" lon="4.46059">
        <ele>636</ele>
        <time>2012-04-11T16:28:21Z</time>
      </trkpt>
      <trkpt lat="46.2004" lon="4.46037">
        <ele>636</ele>
        <time>2012-04-11T16:28:25Z</time>
      </trkpt>
      <trkpt lat="46.20037" lon="4.46026">
        <ele>636</ele>
        <time>2012-04-11T16:28:27Z</time>
      </trkpt>
      <trkpt lat="46.20025" lon="4.45995">
        <ele>635</ele>
        <time>2012-04-11T16:28:33Z</time>
      </trkpt>
      <trkpt lat="46.20022" lon="4.45991">
        <ele>635</ele>
        <time>2012-04-11T16:28:34Z</time>
      </trkpt>
      <trkpt lat="46.20007" lon="4.45961">
        <ele>634</ele>
        <time>2012-04-11T16:28:40Z</time>
      </trkpt>
      <trkpt lat="46.19999" lon="4.45946">
        <ele>637</ele>
        <time>2012-04-11T16:28:43Z</time>
      </trkpt>
      <trkpt lat="46.19979" lon="4.45909">
        <ele>630</ele>
        <time>2012-04-11T16:28:50Z</time>
      </trkpt>
      <trkpt lat="46.19976" lon="4.45903">
        <ele>630</ele>
        <time>2012-04-11T16:28:51Z</time>
      </trkpt>
      <trkpt lat="46.19953" lon="4.45876">
        <ele>628</ele>
        <time>2012-04-11T16:28:57Z</time>
      </trkpt>
      <trkpt lat="46.19944" lon="4.45871">
        <ele>628</ele>
        <time>2012-04-11T16:28:59Z</time>
      </trkpt>
      <trkpt lat="46.19927" lon="4.45866">
        <ele>627</ele>
        <time>2012-04-11T16:29:02Z</time>
      </trkpt>
      <trkpt lat="46.19902" lon="4.45862">
        <ele>632</ele>
        <time>2012-04-11T16:29:06Z</time>
      </trkpt>
      <trkpt lat="46.19888" lon="4.45858">
        <ele>633</ele>
        <time>2012-04-11T16:29:08Z</time>
      </trkpt>
      <trkpt lat="46.19871" lon="4.45841">
        <ele>634</ele>
        <time>2012-04-11T16:29:11Z</time>
      </trkpt>
      <trkpt lat="46.19868" lon="4.45832">
        <ele>630</ele>
        <time>2012-04-11T16:29:12Z</time>
      </trkpt>
      <trkpt lat="46.19865" lon="4.45815">
        <ele>630</ele>
        <time>2012-04-11T16:29:14Z</time>
      </trkpt>
      <trkpt lat="46.19865" lon="4.45806">
        <ele>629</ele>
        <time>2012-04-11T16:29:15Z</time>
      </trkpt>
      <trkpt lat="46.19861" lon="4.45774">
        <ele>629</ele>
        <time>2012-04-11T16:29:19Z</time>
      </trkpt>
      <trkpt lat="46.1986" lon="4.45767">
        <ele>629</ele>
        <time>2012-04-11T16:29:20Z</time>
      </trkpt>
      <trkpt lat="46.19857" lon="4.45761">
        <ele>629</ele>
        <time>2012-04-11T16:29:21Z</time>
      </trkpt>
      <trkpt lat="46.19844" lon="4.45733">
        <ele>627</ele>
        <time>2012-04-11T16:29:26Z</time>
      </trkpt>
      <trkpt lat="46.19841" lon="4.45728">
        <ele>626</ele>
        <time>2012-04-11T16:29:27Z</time>
      </trkpt>
      <trkpt lat="46.19815" lon="4.45686">
        <ele>634</ele>
        <time>2012-04-11T16:29:35Z</time>
      </trkpt>
      <trkpt lat="46.19806" lon="4.45667">
        <ele>634</ele>
        <time>2012-04-11T16:29:38Z</time>
      </trkpt>
      <trkpt lat="46.19803" lon="4.45651">
        <ele>631</ele>
        <time>2012-04-11T16:29:40Z</time>
      </trkpt>
      <trkpt lat="46.19801" lon="4.45636">
        <ele>631</ele>
        <time>2012-04-11T16:29:42Z</time>
      </trkpt>
      <trkpt lat="46.19802" lon="4.45611">
        <ele>630</ele>
        <time>2012-04-11T16:29:45Z</time>
      </trkpt>
      <trkpt lat="46.19804" lon="4.45579">
        <ele>627</ele>
        <time>2012-04-11T16:29:49Z</time>
      </trkpt>
      <trkpt lat="46.19807" lon="4.45544">
        <ele>628</ele>
        <time>2012-04-11T16:29:53Z</time>
      </trkpt>
      <trkpt lat="46.19809" lon="4.45527">
        <ele>628</ele>
        <time>2012-04-11T16:29:55Z</time>
      </trkpt>
      <trkpt lat="46.19813" lon="4.45475">
        <ele>628</ele>
        <time>2012-04-11T16:30:01Z</time>
      </trkpt>
      <trkpt lat="46.19813" lon="4.45467">
        <ele>629</ele>
        <time>2012-04-11T16:30:02Z</time>
      </trkpt>
      <trkpt lat="46.19809" lon="4.45424">
        <ele>628</ele>
        <time>2012-04-11T16:30:07Z</time>
      </trkpt>
      <trkpt lat="46.19807" lon="4.45407">
        <ele>628</ele>
        <time>2012-04-11T16:30:09Z</time>
      </trkpt>
      <trkpt lat="46.19798" lon="4.4537">
        <ele>629</ele>
        <time>2012-04-11T16:30:14Z</time>
      </trkpt>
      <trkpt lat="46.19795" lon="4.45364">
        <ele>630</ele>
        <time>2012-04-11T16:30:15Z</time>
      </trkpt>
      <trkpt lat="46.19774" lon="4.45337">
        <ele>631</ele>
        <time>2012-04-11T16:30:21Z</time>
      </trkpt>
      <trkpt lat="46.1977" lon="4.45333">
        <ele>630</ele>
        <time>2012-04-11T16:30:22Z</time>
      </trkpt>
      <trkpt lat="46.19747" lon="4.45308">
        <ele>633</ele>
        <time>2012-04-11T16:30:29Z</time>
      </trkpt>
      <trkpt lat="46.19741" lon="4.45301">
        <ele>632</ele>
        <time>2012-04-11T16:30:31Z</time>
      </trkpt>
      <trkpt lat="46.19722" lon="4.45281">
        <ele>631</ele>
        <time>2012-04-11T16:30:36Z</time>
      </trkpt>
      <trkpt lat="46.19713" lon="4.4527">
        <ele>631</ele>
        <time>2012-04-11T16:30:38Z</time>
      </trkpt>
      <trkpt lat="46.19697" lon="4.4525">
        <ele>631</ele>
        <time>2012-04-11T16:30:41Z</time>
      </trkpt>
      <trkpt lat="46.19684" lon="4.45235">
        <ele>625</ele>
        <time>2012-04-11T16:30:43Z</time>
      </trkpt>
      <trkpt lat="46.19662" lon="4.45213">
        <ele>625</ele>
        <time>2012-04-11T16:30:46Z</time>
      </trkpt>
      <trkpt lat="46.19654" lon="4.45205">
        <ele>625</ele>
        <time>2012-04-11T16:30:47Z</time>
      </trkpt>
      <trkpt lat="46.19623" lon="4.45174">
        <ele>624</ele>
        <time>2012-04-11T16:30:51Z</time>
      </trkpt>
      <trkpt lat="46.19607" lon="4.45162">
        <ele>618</ele>
        <time>2012-04-11T16:30:53Z</time>
      </trkpt>
      <trkpt lat="46.1959" lon="4.45152">
        <ele>619</ele>
        <time>2012-04-11T16:30:55Z</time>
      </trkpt>
      <trkpt lat="46.1955" lon="4.45128">
        <ele>619</ele>
        <time>2012-04-11T16:31:00Z</time>
      </trkpt>
      <trkpt lat="46.19543" lon="4.45123">
        <ele>619</ele>
        <time>2012-04-11T16:31:01Z</time>
      </trkpt>
      <trkpt lat="46.19513" lon="4.4511">
        <ele>618</ele>
        <time>2012-04-11T16:31:05Z</time>
      </trkpt>
      <trkpt lat="46.19498" lon="4.45106">
        <ele>619</ele>
        <time>2012-04-11T16:31:07Z</time>
      </trkpt>
      <trkpt lat="46.19476" lon="4.45101">
        <ele>619</ele>
        <time>2012-04-11T16:31:10Z</time>
      </trkpt>
      <trkpt lat="46.19447" lon="4.45099">
        <ele>618</ele>
        <time>2012-04-11T16:31:14Z</time>
      </trkpt>
      <trkpt lat="46.19434" lon="4.45103">
        <ele>618</ele>
        <time>2012-04-11T16:31:16Z</time>
      </trkpt>
      <trkpt lat="46.19421" lon="4.45111">
        <ele>618</ele>
        <time>2012-04-11T16:31:18Z</time>
      </trkpt>
      <trkpt lat="46.19409" lon="4.45121">
        <ele>619</ele>
        <time>2012-04-11T16:31:20Z</time>
      </trkpt>
      <trkpt lat="46.19397" lon="4.45132">
        <ele>620</ele>
        <time>2012-04-11T16:31:22Z</time>
      </trkpt>
      <trkpt lat="46.19385" lon="4.45142">
        <ele>620</ele>
        <time>2012-04-11T16:31:24Z</time>
      </trkpt>
      <trkpt lat="46.19365" lon="4.45155">
        <ele>620</ele>
        <time>2012-04-11T16:31:27Z</time>
      </trkpt>
      <trkpt lat="46.19351" lon="4.4516">
        <ele>620</ele>
        <time>2012-04-11T16:31:29Z</time>
      </trkpt>
      <trkpt lat="46.19335" lon="4.45163">
        <ele>621</ele>
        <time>2012-04-11T16:31:31Z</time>
      </trkpt>
      <trkpt lat="46.19327" lon="4.45161">
        <ele>622</ele>
        <time>2012-04-11T16:31:32Z</time>
      </trkpt>
      <trkpt lat="46.19319" lon="4.45159">
        <ele>623</ele>
        <time>2012-04-11T16:31:33Z</time>
      </trkpt>
      <trkpt lat="46.1929" lon="4.45141">
        <ele>625</ele>
        <time>2012-04-11T16:31:37Z</time>
      </trkpt>
      <trkpt lat="46.1928" lon="4.45114">
        <ele>626</ele>
        <time>2012-04-11T16:31:40Z</time>
      </trkpt>
      <trkpt lat="46.19283" lon="4.4509">
        <ele>627</ele>
        <time>2012-04-11T16:31:43Z</time>
      </trkpt>
      <trkpt lat="46.19288" lon="4.45079">
        <ele>629</ele>
        <time>2012-04-11T16:31:45Z</time>
      </trkpt>
      <trkpt lat="46.19295" lon="4.45065">
        <ele>628</ele>
        <time>2012-04-11T16:31:48Z</time>
      </trkpt>
      <trkpt lat="46.19305" lon="4.45046">
        <ele>628</ele>
        <time>2012-04-11T16:31:53Z</time>
      </trkpt>
      <trkpt lat="46.19308" lon="4.45038">
        <ele>627</ele>
        <time>2012-04-11T16:31:55Z</time>
      </trkpt>
      <trkpt lat="46.19311" lon="4.4501">
        <ele>626</ele>
        <time>2012-04-11T16:32:02Z</time>
      </trkpt>
      <trkpt lat="46.19309" lon="4.44994">
        <ele>628</ele>
        <time>2012-04-11T16:32:07Z</time>
      </trkpt>
      <trkpt lat="46.19308" lon="4.44991">
        <ele>628</ele>
        <time>2012-04-11T16:32:08Z</time>
      </trkpt>
      <trkpt lat="46.193" lon="4.44972">
        <ele>630</ele>
        <time>2012-04-11T16:32:15Z</time>
      </trkpt>
      <trkpt lat="46.1929" lon="4.44954">
        <ele>631</ele>
        <time>2012-04-11T16:32:22Z</time>
      </trkpt>
      <trkpt lat="46.19289" lon="4.44951">
        <ele>632</ele>
        <time>2012-04-11T16:32:23Z</time>
      </trkpt>
      <trkpt lat="46.19277" lon="4.44929">
        <ele>634</ele>
        <time>2012-04-11T16:32:31Z</time>
      </trkpt>
      <trkpt lat="46.19266" lon="4.44909">
        <ele>634</ele>
        <time>2012-04-11T16:32:38Z</time>
      </trkpt>
      <trkpt lat="46.19253" lon="4.44886">
        <ele>633</ele>
        <time>2012-04-11T16:32:46Z</time>
      </trkpt>
      <trkpt lat="46.19243" lon="4.44867">
        <ele>645</ele>
        <time>2012-04-11T16:32:52Z</time>
      </trkpt>
      <trkpt lat="46.19241" lon="4.44864">
        <ele>645</ele>
        <time>2012-04-11T16:32:53Z</time>
      </trkpt>
      <trkpt lat="46.19229" lon="4.44833">
        <ele>643</ele>
        <time>2012-04-11T16:33:03Z</time>
      </trkpt>
      <trkpt lat="46.1923" lon="4.44821">
        <ele>644</ele>
        <time>2012-04-11T16:33:06Z</time>
      </trkpt>
      <trkpt lat="46.19234" lon="4.4481">
        <ele>644</ele>
        <time>2012-04-11T16:33:09Z</time>
      </trkpt>
      <trkpt lat="46.19244" lon="4.44797">
        <ele>645</ele>
        <time>2012-04-11T16:33:15Z</time>
      </trkpt>
      <trkpt lat="46.19257" lon="4.44792">
        <ele>634</ele>
        <time>2012-04-11T16:33:21Z</time>
      </trkpt>
      <trkpt lat="46.19261" lon="4.4479">
        <ele>634</ele>
        <time>2012-04-11T16:33:23Z</time>
      </trkpt>
      <trkpt lat="46.1927" lon="4.44784">
        <ele>634</ele>
        <time>2012-04-11T16:33:28Z</time>
      </trkpt>
      <trkpt lat="46.19284" lon="4.4477">
        <ele>634</ele>
        <time>2012-04-11T16:33:35Z</time>
      </trkpt>
      <trkpt lat="46.19287" lon="4.44763">
        <ele>634</ele>
        <time>2012-04-11T16:33:37Z</time>
      </trkpt>
      <trkpt lat="46.19296" lon="4.44744">
        <ele>638</ele>
        <time>2012-04-11T16:33:43Z</time>
      </trkpt>
      <trkpt lat="46.19302" lon="4.4472">
        <ele>639</ele>
        <time>2012-04-11T16:33:50Z</time>
      </trkpt>
      <trkpt lat="46.19303" lon="4.44716">
        <ele>639</ele>
        <time>2012-04-11T16:33:51Z</time>
      </trkpt>
      <trkpt lat="46.1931" lon="4.44687">
        <ele>640</ele>
        <time>2012-04-11T16:33:59Z</time>
      </trkpt>
      <trkpt lat="46.19312" lon="4.44665">
        <ele>642</ele>
        <time>2012-04-11T16:34:05Z</time>
      </trkpt>
      <trkpt lat="46.19312" lon="4.44658">
        <ele>643</ele>
        <time>2012-04-11T16:34:07Z</time>
      </trkpt>
      <trkpt lat="46.1931" lon="4.44633">
        <ele>644</ele>
        <time>2012-04-11T16:34:14Z</time>
      </trkpt>
      <trkpt lat="46.19306" lon="4.44615">
        <ele>644</ele>
        <time>2012-04-11T16:34:19Z</time>
      </trkpt>
      <trkpt lat="46.19304" lon="4.44608">
        <ele>644</ele>
        <time>2012-04-11T16:34:21Z</time>
      </trkpt>
      <trkpt lat="46.19292" lon="4.44585">
        <ele>645</ele>
        <time>2012-04-11T16:34:28Z</time>
      </trkpt>
      <trkpt lat="46.19283" lon="4.44572">
        <ele>644</ele>
        <time>2012-04-11T16:34:32Z</time>
      </trkpt>
      <trkpt lat="46.19276" lon="4.4456">
        <ele>644</ele>
        <time>2012-04-11T16:34:36Z</time>
      </trkpt>
      <trkpt lat="46.19259" lon="4.44535">
        <ele>644</ele>
        <time>2012-04-11T16:34:45Z</time>
      </trkpt>
      <trkpt lat="46.19242" lon="4.44513">
        <ele>650</ele>
        <time>2012-04-11T16:34:53Z</time>
      </trkpt>
      <trkpt lat="46.19231" lon="4.44498">
        <ele>648</ele>
        <time>2012-04-11T16:34:59Z</time>
      </trkpt>
      <trkpt lat="46.19226" lon="4.4449">
        <ele>648</ele>
        <time>2012-04-11T16:35:02Z</time>
      </trkpt>
      <trkpt lat="46.19208" lon="4.44465">
        <ele>650</ele>
        <time>2012-04-11T16:35:12Z</time>
      </trkpt>
      <trkpt lat="46.19205" lon="4.44459">
        <ele>650</ele>
        <time>2012-04-11T16:35:14Z</time>
      </trkpt>
      <trkpt lat="46.19192" lon="4.44443">
        <ele>651</ele>
        <time>2012-04-11T16:35:20Z</time>
      </trkpt>
      <trkpt lat="46.19178" lon="4.44422">
        <ele>653</ele>
        <time>2012-04-11T16:35:27Z</time>
      </trkpt>
      <trkpt lat="46.19174" lon="4.44416">
        <ele>653</ele>
        <time>2012-04-11T16:35:29Z</time>
      </trkpt>
      <trkpt lat="46.1916" lon="4.44391">
        <ele>663</ele>
        <time>2012-04-11T16:35:37Z</time>
      </trkpt>
      <trkpt lat="46.19156" lon="4.4438">
        <ele>664</ele>
        <time>2012-04-11T16:35:40Z</time>
      </trkpt>
      <trkpt lat="46.1915" lon="4.44361">
        <ele>664</ele>
        <time>2012-04-11T16:35:45Z</time>
      </trkpt>
      <trkpt lat="46.19143" lon="4.4433">
        <ele>662</ele>
        <time>2012-04-11T16:35:53Z</time>
      </trkpt>
      <trkpt lat="46.19142" lon="4.44327">
        <ele>662</ele>
        <time>2012-04-11T16:35:54Z</time>
      </trkpt>
      <trkpt lat="46.19135" lon="4.44302">
        <ele>664</ele>
        <time>2012-04-11T16:36:01Z</time>
      </trkpt>
      <trkpt lat="46.19132" lon="4.44279">
        <ele>665</ele>
        <time>2012-04-11T16:36:07Z</time>
      </trkpt>
      <trkpt lat="46.19131" lon="4.44268">
        <ele>665</ele>
        <time>2012-04-11T16:36:10Z</time>
      </trkpt>
      <trkpt lat="46.19131" lon="4.44245">
        <ele>664</ele>
        <time>2012-04-11T16:36:15Z</time>
      </trkpt>
      <trkpt lat="46.19135" lon="4.44225">
        <ele>663</ele>
        <time>2012-04-11T16:36:19Z</time>
      </trkpt>
      <trkpt lat="46.19141" lon="4.44204">
        <ele>663</ele>
        <time>2012-04-11T16:36:23Z</time>
      </trkpt>
      <trkpt lat="46.19146" lon="4.4417">
        <ele>661</ele>
        <time>2012-04-11T16:36:29Z</time>
      </trkpt>
      <trkpt lat="46.19147" lon="4.44164">
        <ele>660</ele>
        <time>2012-04-11T16:36:30Z</time>
      </trkpt>
      <trkpt lat="46.1915" lon="4.44114">
        <ele>662</ele>
        <time>2012-04-11T16:36:38Z</time>
      </trkpt>
      <trkpt lat="46.1915" lon="4.44108">
        <ele>661</ele>
        <time>2012-04-11T16:36:39Z</time>
      </trkpt>
      <trkpt lat="46.19143" lon="4.4407">
        <ele>660</ele>
        <time>2012-04-11T16:36:46Z</time>
      </trkpt>
      <trkpt lat="46.19139" lon="4.4406">
        <ele>661</ele>
        <time>2012-04-11T16:36:48Z</time>
      </trkpt>
      <trkpt lat="46.19125" lon="4.44021">
        <ele>662</ele>
        <time>2012-04-11T16:36:55Z</time>
      </trkpt>
      <trkpt lat="46.1912" lon="4.44009">
        <ele>662</ele>
        <time>2012-04-11T16:36:57Z</time>
      </trkpt>
      <trkpt lat="46.19114" lon="4.4398">
        <ele>663</ele>
        <time>2012-04-11T16:37:01Z</time>
      </trkpt>
      <trkpt lat="46.19115" lon="4.43957">
        <ele>663</ele>
        <time>2012-04-11T16:37:04Z</time>
      </trkpt>
      <trkpt lat="46.19117" lon="4.43949">
        <ele>663</ele>
        <time>2012-04-11T16:37:05Z</time>
      </trkpt>
      <trkpt lat="46.19129" lon="4.43924">
        <ele>663</ele>
        <time>2012-04-11T16:37:09Z</time>
      </trkpt>
      <trkpt lat="46.19133" lon="4.4392">
        <ele>662</ele>
        <time>2012-04-11T16:37:10Z</time>
      </trkpt>
      <trkpt lat="46.19137" lon="4.43915">
        <ele>664</ele>
        <time>2012-04-11T16:37:11Z</time>
      </trkpt>
      <trkpt lat="46.19151" lon="4.43899">
        <ele>663</ele>
        <time>2012-04-11T16:37:15Z</time>
      </trkpt>
      <trkpt lat="46.19153" lon="4.43894">
        <ele>663</ele>
        <time>2012-04-11T16:37:16Z</time>
      </trkpt>
      <trkpt lat="46.1916" lon="4.43874">
        <ele>664</ele>
        <time>2012-04-11T16:37:20Z</time>
      </trkpt>
      <trkpt lat="46.19166" lon="4.43845">
        <ele>664</ele>
        <time>2012-04-11T16:37:26Z</time>
      </trkpt>
      <trkpt lat="46.19178" lon="4.43835">
        <ele>661</ele>
        <time>2012-04-11T16:37:30Z</time>
      </trkpt>
      <trkpt lat="46.19182" lon="4.43834">
        <ele>661</ele>
        <time>2012-04-11T16:37:31Z</time>
      </trkpt>
      <trkpt lat="46.19186" lon="4.43832">
        <ele>661</ele>
        <time>2012-04-11T16:37:32Z</time>
      </trkpt>
      <trkpt lat="46.19192" lon="4.43821">
        <ele>660</ele>
        <time>2012-04-11T16:37:34Z</time>
      </trkpt>
      <trkpt lat="46.19193" lon="4.43796">
        <ele>659</ele>
        <time>2012-04-11T16:37:37Z</time>
      </trkpt>
      <trkpt lat="46.19193" lon="4.43787">
        <ele>659</ele>
        <time>2012-04-11T16:37:38Z</time>
      </trkpt>
      <trkpt lat="46.19191" lon="4.43745">
        <ele>658</ele>
        <time>2012-04-11T16:37:42Z</time>
      </trkpt>
      <trkpt lat="46.19192" lon="4.43736">
        <ele>658</ele>
        <time>2012-04-11T16:37:43Z</time>
      </trkpt>
      <trkpt lat="46.19194" lon="4.43728">
        <ele>657</ele>
        <time>2012-04-11T16:37:44Z</time>
      </trkpt>
      <trkpt lat="46.19196" lon="4.43722">
        <ele>657</ele>
        <time>2012-04-11T16:37:45Z</time>
      </trkpt>
      <trkpt lat="46.19202" lon="4.43715">
        <ele>657</ele>
        <time>2012-04-11T16:37:48Z</time>
      </trkpt>
      <trkpt lat="46.19204" lon="4.43715">
        <ele>657</ele>
        <time>2012-04-11T16:37:49Z</time>
      </trkpt>
      <trkpt lat="46.19212" lon="4.43713">
        <ele>657</ele>
        <time>2012-04-11T16:37:53Z</time>
      </trkpt>
      <trkpt lat="46.19214" lon="4.43699">
        <ele>657</ele>
        <time>2012-04-11T16:37:56Z</time>
      </trkpt>
      <trkpt lat="46.19212" lon="4.43692">
        <ele>657</ele>
        <time>2012-04-11T16:37:57Z</time>
      </trkpt>
      <trkpt lat="46.19211" lon="4.43685">
        <ele>657</ele>
        <time>2012-04-11T16:37:58Z</time>
      </trkpt>
      <trkpt lat="46.19212" lon="4.4367">
        <ele>657</ele>
        <time>2012-04-11T16:38:00Z</time>
      </trkpt>
      <trkpt lat="46.19216" lon="4.43633">
        <ele>656</ele>
        <time>2012-04-11T16:38:04Z</time>
      </trkpt>
      <trkpt lat="46.19217" lon="4.43624">
        <ele>656</ele>
        <time>2012-04-11T16:38:05Z</time>
      </trkpt>
      <trkpt lat="46.19221" lon="4.43582">
        <ele>657</ele>
        <time>2012-04-11T16:38:10Z</time>
      </trkpt>
      <trkpt lat="46.19221" lon="4.43575">
        <ele>657</ele>
        <time>2012-04-11T16:38:11Z</time>
      </trkpt>
      <trkpt lat="46.19213" lon="4.43547">
        <ele>656</ele>
        <time>2012-04-11T16:38:15Z</time>
      </trkpt>
      <trkpt lat="46.19201" lon="4.43529">
        <ele>656</ele>
        <time>2012-04-11T16:38:18Z</time>
      </trkpt>
      <trkpt lat="46.19196" lon="4.43523">
        <ele>656</ele>
        <time>2012-04-11T16:38:19Z</time>
      </trkpt>
      <trkpt lat="46.19172" lon="4.43497">
        <ele>654</ele>
        <time>2012-04-11T16:38:23Z</time>
      </trkpt>
      <trkpt lat="46.19159" lon="4.43483">
        <ele>650</ele>
        <time>2012-04-11T16:38:25Z</time>
      </trkpt>
      <trkpt lat="46.1914" lon="4.43459">
        <ele>649</ele>
        <time>2012-04-11T16:38:28Z</time>
      </trkpt>
      <trkpt lat="46.19129" lon="4.4344">
        <ele>649</ele>
        <time>2012-04-11T16:38:30Z</time>
      </trkpt>
      <trkpt lat="46.19115" lon="4.43411">
        <ele>650</ele>
        <time>2012-04-11T16:38:33Z</time>
      </trkpt>
      <trkpt lat="46.19092" lon="4.43362">
        <ele>650</ele>
        <time>2012-04-11T16:38:38Z</time>
      </trkpt>
      <trkpt lat="46.19071" lon="4.43318">
        <ele>642</ele>
        <time>2012-04-11T16:38:42Z</time>
      </trkpt>
      <trkpt lat="46.1906" lon="4.43295">
        <ele>641</ele>
        <time>2012-04-11T16:38:44Z</time>
      </trkpt>
      <trkpt lat="46.19048" lon="4.4327">
        <ele>640</ele>
        <time>2012-04-11T16:38:46Z</time>
      </trkpt>
      <trkpt lat="46.19033" lon="4.43228">
        <ele>643</ele>
        <time>2012-04-11T16:38:49Z</time>
      </trkpt>
      <trkpt lat="46.19029" lon="4.43213">
        <ele>643</ele>
        <time>2012-04-11T16:38:50Z</time>
      </trkpt>
      <trkpt lat="46.19023" lon="4.43182">
        <ele>644</ele>
        <time>2012-04-11T16:38:52Z</time>
      </trkpt>
      <trkpt lat="46.19023" lon="4.43167">
        <ele>644</ele>
        <time>2012-04-11T16:38:53Z</time>
      </trkpt>
      <trkpt lat="46.19023" lon="4.43148">
        <ele>646</ele>
        <time>2012-04-11T16:38:54Z</time>
      </trkpt>
      <trkpt lat="46.19028" lon="4.43119">
        <ele>648</ele>
        <time>2012-04-11T16:38:56Z</time>
      </trkpt>
      <trkpt lat="46.19031" lon="4.43105">
        <ele>648</ele>
        <time>2012-04-11T16:38:57Z</time>
      </trkpt>
      <trkpt lat="46.19036" lon="4.43092">
        <ele>648</ele>
        <time>2012-04-11T16:38:58Z</time>
      </trkpt>
      <trkpt lat="46.19046" lon="4.43065">
        <ele>645</ele>
        <time>2012-04-11T16:39:00Z</time>
      </trkpt>
      <trkpt lat="46.1906" lon="4.43042">
        <ele>644</ele>
        <time>2012-04-11T16:39:02Z</time>
      </trkpt>
      <trkpt lat="46.19069" lon="4.43033">
        <ele>644</ele>
        <time>2012-04-11T16:39:03Z</time>
      </trkpt>
      <trkpt lat="46.19078" lon="4.43025">
        <ele>643</ele>
        <time>2012-04-11T16:39:04Z</time>
      </trkpt>
      <trkpt lat="46.19087" lon="4.43018">
        <ele>644</ele>
        <time>2012-04-11T16:39:05Z</time>
      </trkpt>
      <trkpt lat="46.19098" lon="4.43014">
        <ele>643</ele>
        <time>2012-04-11T16:39:06Z</time>
      </trkpt>
      <trkpt lat="46.19109" lon="4.43011">
        <ele>644</ele>
        <time>2012-04-11T16:39:07Z</time>
      </trkpt>
      <trkpt lat="46.19132" lon="4.43008">
        <ele>643</ele>
        <time>2012-04-11T16:39:09Z</time>
      </trkpt>
      <trkpt lat="46.19143" lon="4.43006">
        <ele>642</ele>
        <time>2012-04-11T16:39:10Z</time>
      </trkpt>
      <trkpt lat="46.19155" lon="4.43006">
        <ele>641</ele>
        <time>2012-04-11T16:39:11Z</time>
      </trkpt>
      <trkpt lat="46.19167" lon="4.43002">
        <ele>638</ele>
        <time>2012-04-11T16:39:12Z</time>
      </trkpt>
      <trkpt lat="46.19179" lon="4.42998">
        <ele>635</ele>
        <time>2012-04-11T16:39:13Z</time>
      </trkpt>
      <trkpt lat="46.19202" lon="4.42988">
        <ele>632</ele>
        <time>2012-04-11T16:39:15Z</time>
      </trkpt>
      <trkpt lat="46.19223" lon="4.42976">
        <ele>631</ele>
        <time>2012-04-11T16:39:17Z</time>
      </trkpt>
      <trkpt lat="46.19264" lon="4.42952">
        <ele>629</ele>
        <time>2012-04-11T16:39:21Z</time>
      </trkpt>
      <trkpt lat="46.19304" lon="4.4293">
        <ele>628</ele>
        <time>2012-04-11T16:39:25Z</time>
      </trkpt>
      <trkpt lat="46.19332" lon="4.42915">
        <ele>622</ele>
        <time>2012-04-11T16:39:28Z</time>
      </trkpt>
      <trkpt lat="46.19341" lon="4.42912">
        <ele>622</ele>
        <time>2012-04-11T16:39:29Z</time>
      </trkpt>
      <trkpt lat="46.19368" lon="4.42902">
        <ele>622</ele>
        <time>2012-04-11T16:39:32Z</time>
      </trkpt>
      <trkpt lat="46.19375" lon="4.42895">
        <ele>622</ele>
        <time>2012-04-11T16:39:33Z</time>
      </trkpt>
      <trkpt lat="46.19384" lon="4.42872">
        <ele>622</ele>
        <time>2012-04-11T16:39:35Z</time>
      </trkpt>
      <trkpt lat="46.19384" lon="4.42846">
        <ele>622</ele>
        <time>2012-04-11T16:39:37Z</time>
      </trkpt>
      <trkpt lat="46.19384" lon="4.42833">
        <ele>622</ele>
        <time>2012-04-11T16:39:38Z</time>
      </trkpt>
      <trkpt lat="46.19384" lon="4.42793">
        <ele>622</ele>
        <time>2012-04-11T16:39:41Z</time>
      </trkpt>
      <trkpt lat="46.19383" lon="4.4278">
        <ele>623</ele>
        <time>2012-04-11T16:39:42Z</time>
      </trkpt>
      <trkpt lat="46.1938" lon="4.42766">
        <ele>622</ele>
        <time>2012-04-11T16:39:43Z</time>
      </trkpt>
      <trkpt lat="46.19371" lon="4.42739">
        <ele>622</ele>
        <time>2012-04-11T16:39:45Z</time>
      </trkpt>
      <trkpt lat="46.19361" lon="4.42711">
        <ele>620</ele>
        <time>2012-04-11T16:39:47Z</time>
      </trkpt>
      <trkpt lat="46.19351" lon="4.42682">
        <ele>616</ele>
        <time>2012-04-11T16:39:49Z</time>
      </trkpt>
      <trkpt lat="46.19334" lon="4.42636">
        <ele>616</ele>
        <time>2012-04-11T16:39:52Z</time>
      </trkpt>
      <trkpt lat="46.19328" lon="4.4262">
        <ele>598</ele>
        <time>2012-04-11T16:39:53Z</time>
      </trkpt>
      <trkpt lat="46.19318" lon="4.42586">
        <ele>600</ele>
        <time>2012-04-11T16:39:55Z</time>
      </trkpt>
      <trkpt lat="46.19304" lon="4.42531">
        <ele>596</ele>
        <time>2012-04-11T16:39:58Z</time>
      </trkpt>
      <trkpt lat="46.19293" lon="4.42478">
        <ele>597</ele>
        <time>2012-04-11T16:40:01Z</time>
      </trkpt>
      <trkpt lat="46.19286" lon="4.42445">
        <ele>596</ele>
        <time>2012-04-11T16:40:03Z</time>
      </trkpt>
      <trkpt lat="46.19279" lon="4.42416">
        <ele>596</ele>
        <time>2012-04-11T16:40:05Z</time>
      </trkpt>
      <trkpt lat="46.19271" lon="4.42391">
        <ele>596</ele>
        <time>2012-04-11T16:40:07Z</time>
      </trkpt>
      <trkpt lat="46.19261" lon="4.42366">
        <ele>595</ele>
        <time>2012-04-11T16:40:09Z</time>
      </trkpt>
      <trkpt lat="46.19244" lon="4.42332">
        <ele>585</ele>
        <time>2012-04-11T16:40:12Z</time>
      </trkpt>
      <trkpt lat="46.19238" lon="4.42321">
        <ele>584</ele>
        <time>2012-04-11T16:40:13Z</time>
      </trkpt>
      <trkpt lat="46.19223" lon="4.42283">
        <ele>581</ele>
        <time>2012-04-11T16:40:16Z</time>
      </trkpt>
      <trkpt lat="46.1922" lon="4.42269">
        <ele>581</ele>
        <time>2012-04-11T16:40:17Z</time>
      </trkpt>
      <trkpt lat="46.19219" lon="4.42227">
        <ele>578</ele>
        <time>2012-04-11T16:40:20Z</time>
      </trkpt>
      <trkpt lat="46.19222" lon="4.42214">
        <ele>578</ele>
        <time>2012-04-11T16:40:21Z</time>
      </trkpt>
      <trkpt lat="46.19229" lon="4.42188">
        <ele>577</ele>
        <time>2012-04-11T16:40:23Z</time>
      </trkpt>
      <trkpt lat="46.19233" lon="4.42176">
        <ele>577</ele>
        <time>2012-04-11T16:40:24Z</time>
      </trkpt>
      <trkpt lat="46.19237" lon="4.42162">
        <ele>575</ele>
        <time>2012-04-11T16:40:25Z</time>
      </trkpt>
      <trkpt lat="46.19251" lon="4.42106">
        <ele>578</ele>
        <time>2012-04-11T16:40:29Z</time>
      </trkpt>
      <trkpt lat="46.19254" lon="4.42092">
        <ele>575</ele>
        <time>2012-04-11T16:40:30Z</time>
      </trkpt>
      <trkpt lat="46.19264" lon="4.4205">
        <ele>577</ele>
        <time>2012-04-11T16:40:33Z</time>
      </trkpt>
      <trkpt lat="46.19269" lon="4.42023">
        <ele>576</ele>
        <time>2012-04-11T16:40:35Z</time>
      </trkpt>
      <trkpt lat="46.1927" lon="4.4201">
        <ele>576</ele>
        <time>2012-04-11T16:40:36Z</time>
      </trkpt>
      <trkpt lat="46.1927" lon="4.41998">
        <ele>575</ele>
        <time>2012-04-11T16:40:37Z</time>
      </trkpt>
      <trkpt lat="46.19265" lon="4.41977">
        <ele>575</ele>
        <time>2012-04-11T16:40:39Z</time>
      </trkpt>
      <trkpt lat="46.19262" lon="4.41967">
        <ele>575</ele>
        <time>2012-04-11T16:40:40Z</time>
      </trkpt>
      <trkpt lat="46.19256" lon="4.41943">
        <ele>575</ele>
        <time>2012-04-11T16:40:43Z</time>
      </trkpt>
      <trkpt lat="46.19255" lon="4.41937">
        <ele>574</ele>
        <time>2012-04-11T16:40:44Z</time>
      </trkpt>
      <trkpt lat="46.19253" lon="4.41929">
        <ele>573</ele>
        <time>2012-04-11T16:40:46Z</time>
      </trkpt>
      <trkpt lat="46.19249" lon="4.41926">
        <ele>569</ele>
        <time>2012-04-11T16:40:47Z</time>
      </trkpt>
      <trkpt lat="46.19239" lon="4.41921">
        <ele>569</ele>
        <time>2012-04-11T16:40:50Z</time>
      </trkpt>
      <trkpt lat="46.19234" lon="4.4192">
        <ele>568</ele>
        <time>2012-04-11T16:40:54Z</time>
      </trkpt>
    </trkseg>
  </trk>
</gpx>